<?xml version="1.0" encoding="UTF-8" standalone="no" ?>
<gpx xmlns="http://www.topografix.com/GPX/1/1" xmlns:xsi="http://www.w3.org/2001/XMLSchema-instance" xsi:schemaLocation="http://www.topografix.com/GPX/1/1 http://www.topografix.com/GPX/1/1/gpx.xsd" version="1.1" creator="VisuGPX - https://www.visugpx.com">
  <metadata>
    <name>Sortie Saint Dolay</name>
    <desc><![CDATA[Physique, technique vraiment très sympa !]]></desc>
  </metadata>
  <trk>
    <name><![CDATA[Vélo dans l'après-midi]]></name>
    <extensions>
      <line xmlns="http://www.topografix.com/GPX/gpx_style/0/2">
        <color>0000FF</color>
        <width>4</width>
      </line>
    </extensions>
    <trkseg>
      <trkpt lat="47.54614" lon="-2.15363">
        <ele>42.1</ele>
        <time>2021-05-08T13:10:18Z</time>
      </trkpt>
      <trkpt lat="47.54614" lon="-2.15363">
        <ele>42.1</ele>
        <time>2021-05-08T13:10:18Z</time>
      </trkpt>
      <trkpt lat="47.54614" lon="-2.15363">
        <ele>42.1</ele>
        <time>2021-05-08T13:10:18Z</time>
      </trkpt>
      <trkpt lat="47.54614" lon="-2.15363">
        <ele>42.1</ele>
        <time>2021-05-08T13:10:20Z</time>
      </trkpt>
      <trkpt lat="47.54614" lon="-2.15363">
        <ele>42.1</ele>
        <time>2021-05-08T13:10:21Z</time>
      </trkpt>
      <trkpt lat="47.54615" lon="-2.15363">
        <ele>42.1</ele>
        <time>2021-05-08T13:10:23Z</time>
      </trkpt>
      <trkpt lat="47.54615" lon="-2.15363">
        <ele>42.1</ele>
        <time>2021-05-08T13:10:24Z</time>
      </trkpt>
      <trkpt lat="47.54615" lon="-2.15363">
        <ele>42.1</ele>
        <time>2021-05-08T13:10:26Z</time>
      </trkpt>
      <trkpt lat="47.54615" lon="-2.15364">
        <ele>42.1</ele>
        <time>2021-05-08T13:10:27Z</time>
      </trkpt>
      <trkpt lat="47.54615" lon="-2.15364">
        <ele>42.1</ele>
        <time>2021-05-08T13:10:28Z</time>
      </trkpt>
      <trkpt lat="47.54612" lon="-2.15361">
        <ele>42</ele>
        <time>2021-05-08T13:13:08Z</time>
      </trkpt>
      <trkpt lat="47.54613" lon="-2.15356">
        <ele>41.9</ele>
        <time>2021-05-08T13:13:10Z</time>
      </trkpt>
      <trkpt lat="47.54613" lon="-2.15351">
        <ele>41.7</ele>
        <time>2021-05-08T13:13:11Z</time>
      </trkpt>
      <trkpt lat="47.54613" lon="-2.15346">
        <ele>41.6</ele>
        <time>2021-05-08T13:13:13Z</time>
      </trkpt>
      <trkpt lat="47.54615" lon="-2.15343">
        <ele>41.3</ele>
        <time>2021-05-08T13:13:14Z</time>
      </trkpt>
      <trkpt lat="47.54617" lon="-2.15345">
        <ele>41.3</ele>
        <time>2021-05-08T13:13:16Z</time>
      </trkpt>
      <trkpt lat="47.54619" lon="-2.15349">
        <ele>41.3</ele>
        <time>2021-05-08T13:13:17Z</time>
      </trkpt>
      <trkpt lat="47.5462" lon="-2.1535">
        <ele>41.5</ele>
        <time>2021-05-08T13:13:18Z</time>
      </trkpt>
      <trkpt lat="47.54622" lon="-2.15354">
        <ele>41.5</ele>
        <time>2021-05-08T13:13:20Z</time>
      </trkpt>
      <trkpt lat="47.54623" lon="-2.15356">
        <ele>41.5</ele>
        <time>2021-05-08T13:13:21Z</time>
      </trkpt>
      <trkpt lat="47.54623" lon="-2.15364">
        <ele>41.7</ele>
        <time>2021-05-08T13:13:23Z</time>
      </trkpt>
      <trkpt lat="47.54624" lon="-2.15367">
        <ele>41.7</ele>
        <time>2021-05-08T13:13:25Z</time>
      </trkpt>
      <trkpt lat="47.54624" lon="-2.1537">
        <ele>41.7</ele>
        <time>2021-05-08T13:13:27Z</time>
      </trkpt>
      <trkpt lat="47.54624" lon="-2.15373">
        <ele>41.8</ele>
        <time>2021-05-08T13:13:28Z</time>
      </trkpt>
      <trkpt lat="47.54625" lon="-2.15376">
        <ele>41.9</ele>
        <time>2021-05-08T13:13:29Z</time>
      </trkpt>
      <trkpt lat="47.54625" lon="-2.15383">
        <ele>41.9</ele>
        <time>2021-05-08T13:13:31Z</time>
      </trkpt>
      <trkpt lat="47.54625" lon="-2.15391">
        <ele>42</ele>
        <time>2021-05-08T13:13:33Z</time>
      </trkpt>
      <trkpt lat="47.54625" lon="-2.15399">
        <ele>42.1</ele>
        <time>2021-05-08T13:13:35Z</time>
      </trkpt>
      <trkpt lat="47.54624" lon="-2.15403">
        <ele>42.1</ele>
        <time>2021-05-08T13:13:36Z</time>
      </trkpt>
      <trkpt lat="47.54623" lon="-2.1541">
        <ele>42.3</ele>
        <time>2021-05-08T13:13:38Z</time>
      </trkpt>
      <trkpt lat="47.54622" lon="-2.15414">
        <ele>42.3</ele>
        <time>2021-05-08T13:13:39Z</time>
      </trkpt>
      <trkpt lat="47.54622" lon="-2.15421">
        <ele>42.3</ele>
        <time>2021-05-08T13:13:41Z</time>
      </trkpt>
      <trkpt lat="47.54621" lon="-2.15428">
        <ele>42.4</ele>
        <time>2021-05-08T13:13:43Z</time>
      </trkpt>
      <trkpt lat="47.54625" lon="-2.15433">
        <ele>42</ele>
        <time>2021-05-08T13:13:45Z</time>
      </trkpt>
      <trkpt lat="47.54633" lon="-2.15433">
        <ele>41.3</ele>
        <time>2021-05-08T13:13:47Z</time>
      </trkpt>
      <trkpt lat="47.54642" lon="-2.15431">
        <ele>40.6</ele>
        <time>2021-05-08T13:13:49Z</time>
      </trkpt>
      <trkpt lat="47.54652" lon="-2.15428">
        <ele>40</ele>
        <time>2021-05-08T13:13:51Z</time>
      </trkpt>
      <trkpt lat="47.54664" lon="-2.15422">
        <ele>39.3</ele>
        <time>2021-05-08T13:13:53Z</time>
      </trkpt>
      <trkpt lat="47.5467" lon="-2.15419">
        <ele>38.9</ele>
        <time>2021-05-08T13:13:54Z</time>
      </trkpt>
      <trkpt lat="47.54682" lon="-2.15411">
        <ele>38.1</ele>
        <time>2021-05-08T13:13:56Z</time>
      </trkpt>
      <trkpt lat="47.54688" lon="-2.15408">
        <ele>37.8</ele>
        <time>2021-05-08T13:13:57Z</time>
      </trkpt>
      <trkpt lat="47.54698" lon="-2.15402">
        <ele>37.1</ele>
        <time>2021-05-08T13:13:59Z</time>
      </trkpt>
      <trkpt lat="47.54707" lon="-2.15396">
        <ele>36.5</ele>
        <time>2021-05-08T13:14:01Z</time>
      </trkpt>
      <trkpt lat="47.54712" lon="-2.15394">
        <ele>36.2</ele>
        <time>2021-05-08T13:14:02Z</time>
      </trkpt>
      <trkpt lat="47.54722" lon="-2.15389">
        <ele>35.6</ele>
        <time>2021-05-08T13:14:04Z</time>
      </trkpt>
      <trkpt lat="47.54726" lon="-2.15386">
        <ele>35.3</ele>
        <time>2021-05-08T13:14:05Z</time>
      </trkpt>
      <trkpt lat="47.54737" lon="-2.15382">
        <ele>34.6</ele>
        <time>2021-05-08T13:14:07Z</time>
      </trkpt>
      <trkpt lat="47.54743" lon="-2.15381">
        <ele>34.3</ele>
        <time>2021-05-08T13:14:08Z</time>
      </trkpt>
      <trkpt lat="47.54754" lon="-2.15377">
        <ele>33.5</ele>
        <time>2021-05-08T13:14:10Z</time>
      </trkpt>
      <trkpt lat="47.54761" lon="-2.15374">
        <ele>33.2</ele>
        <time>2021-05-08T13:14:11Z</time>
      </trkpt>
      <trkpt lat="47.54774" lon="-2.1537">
        <ele>32.4</ele>
        <time>2021-05-08T13:14:13Z</time>
      </trkpt>
      <trkpt lat="47.54781" lon="-2.15369">
        <ele>32.1</ele>
        <time>2021-05-08T13:14:14Z</time>
      </trkpt>
      <trkpt lat="47.54795" lon="-2.15371">
        <ele>31.6</ele>
        <time>2021-05-08T13:14:16Z</time>
      </trkpt>
      <trkpt lat="47.54802" lon="-2.15374">
        <ele>31.3</ele>
        <time>2021-05-08T13:14:17Z</time>
      </trkpt>
      <trkpt lat="47.54809" lon="-2.15377">
        <ele>31.2</ele>
        <time>2021-05-08T13:14:18Z</time>
      </trkpt>
      <trkpt lat="47.54816" lon="-2.1538">
        <ele>31.1</ele>
        <time>2021-05-08T13:14:19Z</time>
      </trkpt>
      <trkpt lat="47.5483" lon="-2.15385">
        <ele>30.8</ele>
        <time>2021-05-08T13:14:21Z</time>
      </trkpt>
      <trkpt lat="47.54837" lon="-2.15388">
        <ele>30.6</ele>
        <time>2021-05-08T13:14:22Z</time>
      </trkpt>
      <trkpt lat="47.54851" lon="-2.15393">
        <ele>30.5</ele>
        <time>2021-05-08T13:14:24Z</time>
      </trkpt>
      <trkpt lat="47.54857" lon="-2.15396">
        <ele>30.4</ele>
        <time>2021-05-08T13:14:25Z</time>
      </trkpt>
      <trkpt lat="47.54864" lon="-2.15398">
        <ele>30.5</ele>
        <time>2021-05-08T13:14:26Z</time>
      </trkpt>
      <trkpt lat="47.54871" lon="-2.154">
        <ele>30.6</ele>
        <time>2021-05-08T13:14:27Z</time>
      </trkpt>
      <trkpt lat="47.54883" lon="-2.15399">
        <ele>31</ele>
        <time>2021-05-08T13:14:29Z</time>
      </trkpt>
      <trkpt lat="47.54893" lon="-2.15392">
        <ele>31.4</ele>
        <time>2021-05-08T13:14:31Z</time>
      </trkpt>
      <trkpt lat="47.54898" lon="-2.15388">
        <ele>31.6</ele>
        <time>2021-05-08T13:14:32Z</time>
      </trkpt>
      <trkpt lat="47.54904" lon="-2.15383">
        <ele>31.9</ele>
        <time>2021-05-08T13:14:34Z</time>
      </trkpt>
      <trkpt lat="47.54911" lon="-2.15378">
        <ele>32.2</ele>
        <time>2021-05-08T13:14:36Z</time>
      </trkpt>
      <trkpt lat="47.54914" lon="-2.15375">
        <ele>32.4</ele>
        <time>2021-05-08T13:14:37Z</time>
      </trkpt>
      <trkpt lat="47.54922" lon="-2.1537">
        <ele>32.6</ele>
        <time>2021-05-08T13:14:39Z</time>
      </trkpt>
      <trkpt lat="47.54933" lon="-2.15364">
        <ele>32.9</ele>
        <time>2021-05-08T13:14:41Z</time>
      </trkpt>
      <trkpt lat="47.54936" lon="-2.1536">
        <ele>33</ele>
        <time>2021-05-08T13:14:42Z</time>
      </trkpt>
      <trkpt lat="47.54944" lon="-2.15358">
        <ele>33.1</ele>
        <time>2021-05-08T13:14:44Z</time>
      </trkpt>
      <trkpt lat="47.5495" lon="-2.15357">
        <ele>33.2</ele>
        <time>2021-05-08T13:14:45Z</time>
      </trkpt>
      <trkpt lat="47.54958" lon="-2.15358">
        <ele>33.2</ele>
        <time>2021-05-08T13:14:47Z</time>
      </trkpt>
      <trkpt lat="47.54967" lon="-2.15357">
        <ele>33.2</ele>
        <time>2021-05-08T13:14:49Z</time>
      </trkpt>
      <trkpt lat="47.54976" lon="-2.15356">
        <ele>33.2</ele>
        <time>2021-05-08T13:14:51Z</time>
      </trkpt>
      <trkpt lat="47.54986" lon="-2.15356">
        <ele>33.1</ele>
        <time>2021-05-08T13:14:53Z</time>
      </trkpt>
      <trkpt lat="47.54996" lon="-2.15355">
        <ele>33</ele>
        <time>2021-05-08T13:14:55Z</time>
      </trkpt>
      <trkpt lat="47.55006" lon="-2.15355">
        <ele>32.9</ele>
        <time>2021-05-08T13:14:57Z</time>
      </trkpt>
      <trkpt lat="47.55012" lon="-2.15355">
        <ele>32.9</ele>
        <time>2021-05-08T13:14:58Z</time>
      </trkpt>
      <trkpt lat="47.55022" lon="-2.15355">
        <ele>32.8</ele>
        <time>2021-05-08T13:15:00Z</time>
      </trkpt>
      <trkpt lat="47.55033" lon="-2.15355">
        <ele>32.7</ele>
        <time>2021-05-08T13:15:02Z</time>
      </trkpt>
      <trkpt lat="47.55044" lon="-2.15356">
        <ele>32.6</ele>
        <time>2021-05-08T13:15:04Z</time>
      </trkpt>
      <trkpt lat="47.5505" lon="-2.15356">
        <ele>32.5</ele>
        <time>2021-05-08T13:15:05Z</time>
      </trkpt>
      <trkpt lat="47.55055" lon="-2.15357">
        <ele>32.4</ele>
        <time>2021-05-08T13:15:06Z</time>
      </trkpt>
      <trkpt lat="47.55067" lon="-2.15359">
        <ele>32.1</ele>
        <time>2021-05-08T13:15:08Z</time>
      </trkpt>
      <trkpt lat="47.55079" lon="-2.15361">
        <ele>31.9</ele>
        <time>2021-05-08T13:15:10Z</time>
      </trkpt>
      <trkpt lat="47.55085" lon="-2.15362">
        <ele>31.8</ele>
        <time>2021-05-08T13:15:11Z</time>
      </trkpt>
      <trkpt lat="47.55097" lon="-2.15365">
        <ele>31.6</ele>
        <time>2021-05-08T13:15:13Z</time>
      </trkpt>
      <trkpt lat="47.55103" lon="-2.15366">
        <ele>31.5</ele>
        <time>2021-05-08T13:15:14Z</time>
      </trkpt>
      <trkpt lat="47.55115" lon="-2.15369">
        <ele>31.2</ele>
        <time>2021-05-08T13:15:16Z</time>
      </trkpt>
      <trkpt lat="47.55121" lon="-2.1537">
        <ele>31.1</ele>
        <time>2021-05-08T13:15:17Z</time>
      </trkpt>
      <trkpt lat="47.55132" lon="-2.15373">
        <ele>30.8</ele>
        <time>2021-05-08T13:15:19Z</time>
      </trkpt>
      <trkpt lat="47.55138" lon="-2.15375">
        <ele>30.7</ele>
        <time>2021-05-08T13:15:20Z</time>
      </trkpt>
      <trkpt lat="47.5515" lon="-2.15378">
        <ele>30.4</ele>
        <time>2021-05-08T13:15:22Z</time>
      </trkpt>
      <trkpt lat="47.55162" lon="-2.15381">
        <ele>30</ele>
        <time>2021-05-08T13:15:24Z</time>
      </trkpt>
      <trkpt lat="47.55174" lon="-2.15383">
        <ele>29.6</ele>
        <time>2021-05-08T13:15:26Z</time>
      </trkpt>
      <trkpt lat="47.55186" lon="-2.15385">
        <ele>29.3</ele>
        <time>2021-05-08T13:15:28Z</time>
      </trkpt>
      <trkpt lat="47.55192" lon="-2.15385">
        <ele>29.1</ele>
        <time>2021-05-08T13:15:29Z</time>
      </trkpt>
      <trkpt lat="47.55204" lon="-2.15386">
        <ele>28.9</ele>
        <time>2021-05-08T13:15:31Z</time>
      </trkpt>
      <trkpt lat="47.55216" lon="-2.15386">
        <ele>28.5</ele>
        <time>2021-05-08T13:15:33Z</time>
      </trkpt>
      <trkpt lat="47.55228" lon="-2.15385">
        <ele>28.1</ele>
        <time>2021-05-08T13:15:35Z</time>
      </trkpt>
      <trkpt lat="47.55233" lon="-2.15385">
        <ele>27.9</ele>
        <time>2021-05-08T13:15:36Z</time>
      </trkpt>
      <trkpt lat="47.55238" lon="-2.15383">
        <ele>27.8</ele>
        <time>2021-05-08T13:15:38Z</time>
      </trkpt>
      <trkpt lat="47.5524" lon="-2.15383">
        <ele>27.7</ele>
        <time>2021-05-08T13:15:39Z</time>
      </trkpt>
      <trkpt lat="47.55243" lon="-2.15382">
        <ele>27.6</ele>
        <time>2021-05-08T13:15:41Z</time>
      </trkpt>
      <trkpt lat="47.55247" lon="-2.1538">
        <ele>27.4</ele>
        <time>2021-05-08T13:15:43Z</time>
      </trkpt>
      <trkpt lat="47.55251" lon="-2.15376">
        <ele>27.2</ele>
        <time>2021-05-08T13:15:44Z</time>
      </trkpt>
      <trkpt lat="47.55257" lon="-2.15367">
        <ele>26.7</ele>
        <time>2021-05-08T13:15:46Z</time>
      </trkpt>
      <trkpt lat="47.55264" lon="-2.15361">
        <ele>26.2</ele>
        <time>2021-05-08T13:15:48Z</time>
      </trkpt>
      <trkpt lat="47.55272" lon="-2.15358">
        <ele>25.6</ele>
        <time>2021-05-08T13:15:49Z</time>
      </trkpt>
      <trkpt lat="47.55285" lon="-2.15351">
        <ele>24.1</ele>
        <time>2021-05-08T13:15:51Z</time>
      </trkpt>
      <trkpt lat="47.55293" lon="-2.15348">
        <ele>23.2</ele>
        <time>2021-05-08T13:15:52Z</time>
      </trkpt>
      <trkpt lat="47.55309" lon="-2.15342">
        <ele>21.3</ele>
        <time>2021-05-08T13:15:54Z</time>
      </trkpt>
      <trkpt lat="47.55317" lon="-2.15339">
        <ele>20.2</ele>
        <time>2021-05-08T13:15:55Z</time>
      </trkpt>
      <trkpt lat="47.55326" lon="-2.15336">
        <ele>19.2</ele>
        <time>2021-05-08T13:15:56Z</time>
      </trkpt>
      <trkpt lat="47.55339" lon="-2.15331">
        <ele>17.6</ele>
        <time>2021-05-08T13:15:58Z</time>
      </trkpt>
      <trkpt lat="47.55346" lon="-2.15329">
        <ele>16.8</ele>
        <time>2021-05-08T13:16:00Z</time>
      </trkpt>
      <trkpt lat="47.55348" lon="-2.15328">
        <ele>16.5</ele>
        <time>2021-05-08T13:16:01Z</time>
      </trkpt>
      <trkpt lat="47.55352" lon="-2.15325">
        <ele>16</ele>
        <time>2021-05-08T13:16:03Z</time>
      </trkpt>
      <trkpt lat="47.55361" lon="-2.1532">
        <ele>14.9</ele>
        <time>2021-05-08T13:16:05Z</time>
      </trkpt>
      <trkpt lat="47.55367" lon="-2.15316">
        <ele>14.3</ele>
        <time>2021-05-08T13:16:06Z</time>
      </trkpt>
      <trkpt lat="47.55377" lon="-2.15309">
        <ele>13.2</ele>
        <time>2021-05-08T13:16:08Z</time>
      </trkpt>
      <trkpt lat="47.55377" lon="-2.15304">
        <ele>13</ele>
        <time>2021-05-08T13:16:09Z</time>
      </trkpt>
      <trkpt lat="47.5538" lon="-2.15304">
        <ele>12.8</ele>
        <time>2021-05-08T13:16:10Z</time>
      </trkpt>
      <trkpt lat="47.55381" lon="-2.15304">
        <ele>12.7</ele>
        <time>2021-05-08T13:16:11Z</time>
      </trkpt>
      <trkpt lat="47.55382" lon="-2.15305">
        <ele>12.6</ele>
        <time>2021-05-08T13:16:13Z</time>
      </trkpt>
      <trkpt lat="47.55383" lon="-2.15305">
        <ele>12.6</ele>
        <time>2021-05-08T13:16:14Z</time>
      </trkpt>
      <trkpt lat="47.55383" lon="-2.15305">
        <ele>12.6</ele>
        <time>2021-05-08T13:16:16Z</time>
      </trkpt>
      <trkpt lat="47.55384" lon="-2.15305">
        <ele>12.5</ele>
        <time>2021-05-08T13:16:17Z</time>
      </trkpt>
      <trkpt lat="47.55385" lon="-2.15305">
        <ele>12.5</ele>
        <time>2021-05-08T13:16:18Z</time>
      </trkpt>
      <trkpt lat="47.55385" lon="-2.15304">
        <ele>12.4</ele>
        <time>2021-05-08T13:16:19Z</time>
      </trkpt>
      <trkpt lat="47.55386" lon="-2.15304">
        <ele>12.4</ele>
        <time>2021-05-08T13:16:21Z</time>
      </trkpt>
      <trkpt lat="47.55388" lon="-2.15303">
        <ele>12.3</ele>
        <time>2021-05-08T13:16:23Z</time>
      </trkpt>
      <trkpt lat="47.55388" lon="-2.15303">
        <ele>12.3</ele>
        <time>2021-05-08T13:16:24Z</time>
      </trkpt>
      <trkpt lat="47.55389" lon="-2.15303">
        <ele>12.3</ele>
        <time>2021-05-08T13:16:26Z</time>
      </trkpt>
      <trkpt lat="47.55389" lon="-2.15303">
        <ele>12.3</ele>
        <time>2021-05-08T13:16:27Z</time>
      </trkpt>
      <trkpt lat="47.5539" lon="-2.15303">
        <ele>12.2</ele>
        <time>2021-05-08T13:16:29Z</time>
      </trkpt>
      <trkpt lat="47.55391" lon="-2.15303">
        <ele>12.2</ele>
        <time>2021-05-08T13:16:30Z</time>
      </trkpt>
      <trkpt lat="47.55391" lon="-2.15302">
        <ele>12.2</ele>
        <time>2021-05-08T13:16:31Z</time>
      </trkpt>
      <trkpt lat="47.55396" lon="-2.15299">
        <ele>12.1</ele>
        <time>2021-05-08T13:16:41Z</time>
      </trkpt>
      <trkpt lat="47.55397" lon="-2.15299">
        <ele>12</ele>
        <time>2021-05-08T13:16:43Z</time>
      </trkpt>
      <trkpt lat="47.55397" lon="-2.15298">
        <ele>12</ele>
        <time>2021-05-08T13:16:44Z</time>
      </trkpt>
      <trkpt lat="47.55397" lon="-2.15298">
        <ele>12</ele>
        <time>2021-05-08T13:16:45Z</time>
      </trkpt>
      <trkpt lat="47.55399" lon="-2.15297">
        <ele>12</ele>
        <time>2021-05-08T13:16:47Z</time>
      </trkpt>
      <trkpt lat="47.554" lon="-2.15296">
        <ele>12</ele>
        <time>2021-05-08T13:16:48Z</time>
      </trkpt>
      <trkpt lat="47.55402" lon="-2.15295">
        <ele>12</ele>
        <time>2021-05-08T13:16:50Z</time>
      </trkpt>
      <trkpt lat="47.55403" lon="-2.15295">
        <ele>12</ele>
        <time>2021-05-08T13:16:52Z</time>
      </trkpt>
      <trkpt lat="47.55404" lon="-2.15294">
        <ele>12</ele>
        <time>2021-05-08T13:16:54Z</time>
      </trkpt>
      <trkpt lat="47.55405" lon="-2.15293">
        <ele>12</ele>
        <time>2021-05-08T13:16:55Z</time>
      </trkpt>
      <trkpt lat="47.55407" lon="-2.15292">
        <ele>12</ele>
        <time>2021-05-08T13:16:57Z</time>
      </trkpt>
      <trkpt lat="47.55417" lon="-2.15282">
        <ele>12.4</ele>
        <time>2021-05-08T13:19:34Z</time>
      </trkpt>
      <trkpt lat="47.55418" lon="-2.15279">
        <ele>12.5</ele>
        <time>2021-05-08T13:19:35Z</time>
      </trkpt>
      <trkpt lat="47.55419" lon="-2.15276">
        <ele>12.7</ele>
        <time>2021-05-08T13:19:37Z</time>
      </trkpt>
      <trkpt lat="47.5542" lon="-2.15271">
        <ele>12.9</ele>
        <time>2021-05-08T13:19:38Z</time>
      </trkpt>
      <trkpt lat="47.5542" lon="-2.1527">
        <ele>13</ele>
        <time>2021-05-08T13:19:40Z</time>
      </trkpt>
      <trkpt lat="47.5542" lon="-2.1527">
        <ele>13</ele>
        <time>2021-05-08T13:19:41Z</time>
      </trkpt>
      <trkpt lat="47.5542" lon="-2.15267">
        <ele>13.1</ele>
        <time>2021-05-08T13:19:42Z</time>
      </trkpt>
      <trkpt lat="47.55421" lon="-2.15264">
        <ele>13.3</ele>
        <time>2021-05-08T13:19:44Z</time>
      </trkpt>
      <trkpt lat="47.55422" lon="-2.15259">
        <ele>13.7</ele>
        <time>2021-05-08T13:19:46Z</time>
      </trkpt>
      <trkpt lat="47.55424" lon="-2.15253">
        <ele>14.2</ele>
        <time>2021-05-08T13:19:48Z</time>
      </trkpt>
      <trkpt lat="47.55425" lon="-2.15251">
        <ele>14.4</ele>
        <time>2021-05-08T13:19:49Z</time>
      </trkpt>
      <trkpt lat="47.55425" lon="-2.15249">
        <ele>14.6</ele>
        <time>2021-05-08T13:19:50Z</time>
      </trkpt>
      <trkpt lat="47.55426" lon="-2.15243">
        <ele>15.2</ele>
        <time>2021-05-08T13:19:52Z</time>
      </trkpt>
      <trkpt lat="47.55427" lon="-2.15241">
        <ele>15.4</ele>
        <time>2021-05-08T13:19:53Z</time>
      </trkpt>
      <trkpt lat="47.55427" lon="-2.1524">
        <ele>15.6</ele>
        <time>2021-05-08T13:19:55Z</time>
      </trkpt>
      <trkpt lat="47.55428" lon="-2.15235">
        <ele>16.2</ele>
        <time>2021-05-08T13:19:57Z</time>
      </trkpt>
      <trkpt lat="47.55429" lon="-2.15232">
        <ele>16.5</ele>
        <time>2021-05-08T13:19:58Z</time>
      </trkpt>
      <trkpt lat="47.5543" lon="-2.1523">
        <ele>16.8</ele>
        <time>2021-05-08T13:19:59Z</time>
      </trkpt>
      <trkpt lat="47.55431" lon="-2.15225">
        <ele>17.3</ele>
        <time>2021-05-08T13:20:00Z</time>
      </trkpt>
      <trkpt lat="47.55432" lon="-2.15223">
        <ele>17.5</ele>
        <time>2021-05-08T13:20:01Z</time>
      </trkpt>
      <trkpt lat="47.55433" lon="-2.15219">
        <ele>18</ele>
        <time>2021-05-08T13:20:03Z</time>
      </trkpt>
      <trkpt lat="47.55434" lon="-2.15215">
        <ele>18.5</ele>
        <time>2021-05-08T13:20:04Z</time>
      </trkpt>
      <trkpt lat="47.55436" lon="-2.15211">
        <ele>18.9</ele>
        <time>2021-05-08T13:20:06Z</time>
      </trkpt>
      <trkpt lat="47.55437" lon="-2.15208">
        <ele>19.3</ele>
        <time>2021-05-08T13:20:07Z</time>
      </trkpt>
      <trkpt lat="47.55439" lon="-2.15206">
        <ele>19.6</ele>
        <time>2021-05-08T13:20:09Z</time>
      </trkpt>
      <trkpt lat="47.5544" lon="-2.15205">
        <ele>19.7</ele>
        <time>2021-05-08T13:20:10Z</time>
      </trkpt>
      <trkpt lat="47.5544" lon="-2.15205">
        <ele>19.7</ele>
        <time>2021-05-08T13:20:12Z</time>
      </trkpt>
      <trkpt lat="47.5544" lon="-2.15205">
        <ele>19.8</ele>
        <time>2021-05-08T13:20:13Z</time>
      </trkpt>
      <trkpt lat="47.5544" lon="-2.15205">
        <ele>19.8</ele>
        <time>2021-05-08T13:20:14Z</time>
      </trkpt>
      <trkpt lat="47.5544" lon="-2.15205">
        <ele>19.8</ele>
        <time>2021-05-08T13:20:15Z</time>
      </trkpt>
      <trkpt lat="47.55441" lon="-2.15204">
        <ele>20</ele>
        <time>2021-05-08T13:20:17Z</time>
      </trkpt>
      <trkpt lat="47.55442" lon="-2.15203">
        <ele>20.1</ele>
        <time>2021-05-08T13:20:18Z</time>
      </trkpt>
      <trkpt lat="47.55443" lon="-2.15202">
        <ele>20.4</ele>
        <time>2021-05-08T13:20:20Z</time>
      </trkpt>
      <trkpt lat="47.55444" lon="-2.15201">
        <ele>20.5</ele>
        <time>2021-05-08T13:20:21Z</time>
      </trkpt>
      <trkpt lat="47.55448" lon="-2.15198">
        <ele>21.2</ele>
        <time>2021-05-08T13:20:23Z</time>
      </trkpt>
      <trkpt lat="47.55451" lon="-2.15196">
        <ele>21.8</ele>
        <time>2021-05-08T13:20:25Z</time>
      </trkpt>
      <trkpt lat="47.55455" lon="-2.15193">
        <ele>22.5</ele>
        <time>2021-05-08T13:20:26Z</time>
      </trkpt>
      <trkpt lat="47.55458" lon="-2.15191">
        <ele>22.9</ele>
        <time>2021-05-08T13:20:27Z</time>
      </trkpt>
      <trkpt lat="47.5546" lon="-2.15189">
        <ele>23.2</ele>
        <time>2021-05-08T13:20:28Z</time>
      </trkpt>
      <trkpt lat="47.5546" lon="-2.15189">
        <ele>23.4</ele>
        <time>2021-05-08T13:20:30Z</time>
      </trkpt>
      <trkpt lat="47.55462" lon="-2.15187">
        <ele>23.7</ele>
        <time>2021-05-08T13:20:31Z</time>
      </trkpt>
      <trkpt lat="47.55463" lon="-2.15186">
        <ele>23.9</ele>
        <time>2021-05-08T13:20:32Z</time>
      </trkpt>
      <trkpt lat="47.55466" lon="-2.15184">
        <ele>24.3</ele>
        <time>2021-05-08T13:20:33Z</time>
      </trkpt>
      <trkpt lat="47.55467" lon="-2.15184">
        <ele>24.4</ele>
        <time>2021-05-08T13:20:34Z</time>
      </trkpt>
      <trkpt lat="47.55469" lon="-2.15183">
        <ele>24.6</ele>
        <time>2021-05-08T13:20:35Z</time>
      </trkpt>
      <trkpt lat="47.5547" lon="-2.15183">
        <ele>24.8</ele>
        <time>2021-05-08T13:20:36Z</time>
      </trkpt>
      <trkpt lat="47.55473" lon="-2.15181">
        <ele>25.2</ele>
        <time>2021-05-08T13:20:38Z</time>
      </trkpt>
      <trkpt lat="47.55477" lon="-2.15179">
        <ele>25.7</ele>
        <time>2021-05-08T13:20:39Z</time>
      </trkpt>
      <trkpt lat="47.5548" lon="-2.15178">
        <ele>26.1</ele>
        <time>2021-05-08T13:20:41Z</time>
      </trkpt>
      <trkpt lat="47.55483" lon="-2.15176">
        <ele>26.4</ele>
        <time>2021-05-08T13:20:42Z</time>
      </trkpt>
      <trkpt lat="47.55485" lon="-2.15175">
        <ele>26.7</ele>
        <time>2021-05-08T13:20:44Z</time>
      </trkpt>
      <trkpt lat="47.55487" lon="-2.15173">
        <ele>27</ele>
        <time>2021-05-08T13:20:46Z</time>
      </trkpt>
      <trkpt lat="47.55489" lon="-2.15173">
        <ele>27.1</ele>
        <time>2021-05-08T13:20:47Z</time>
      </trkpt>
      <trkpt lat="47.55489" lon="-2.15172">
        <ele>27.2</ele>
        <time>2021-05-08T13:20:49Z</time>
      </trkpt>
      <trkpt lat="47.5549" lon="-2.15172">
        <ele>27.3</ele>
        <time>2021-05-08T13:20:50Z</time>
      </trkpt>
      <trkpt lat="47.55492" lon="-2.15171">
        <ele>27.5</ele>
        <time>2021-05-08T13:20:51Z</time>
      </trkpt>
      <trkpt lat="47.55493" lon="-2.1517">
        <ele>27.6</ele>
        <time>2021-05-08T13:20:52Z</time>
      </trkpt>
      <trkpt lat="47.55496" lon="-2.15168">
        <ele>27.9</ele>
        <time>2021-05-08T13:20:53Z</time>
      </trkpt>
      <trkpt lat="47.55499" lon="-2.15166">
        <ele>28.2</ele>
        <time>2021-05-08T13:20:54Z</time>
      </trkpt>
      <trkpt lat="47.55502" lon="-2.15164">
        <ele>28.6</ele>
        <time>2021-05-08T13:20:56Z</time>
      </trkpt>
      <trkpt lat="47.55503" lon="-2.15163">
        <ele>28.7</ele>
        <time>2021-05-08T13:20:57Z</time>
      </trkpt>
      <trkpt lat="47.55504" lon="-2.15162">
        <ele>28.8</ele>
        <time>2021-05-08T13:20:59Z</time>
      </trkpt>
      <trkpt lat="47.55506" lon="-2.15161">
        <ele>28.9</ele>
        <time>2021-05-08T13:21:00Z</time>
      </trkpt>
      <trkpt lat="47.55506" lon="-2.15161">
        <ele>29</ele>
        <time>2021-05-08T13:21:01Z</time>
      </trkpt>
      <trkpt lat="47.55507" lon="-2.1516">
        <ele>29.1</ele>
        <time>2021-05-08T13:21:02Z</time>
      </trkpt>
      <trkpt lat="47.55509" lon="-2.15159">
        <ele>29.3</ele>
        <time>2021-05-08T13:21:04Z</time>
      </trkpt>
      <trkpt lat="47.55512" lon="-2.15156">
        <ele>29.7</ele>
        <time>2021-05-08T13:21:06Z</time>
      </trkpt>
      <trkpt lat="47.55516" lon="-2.15154">
        <ele>30</ele>
        <time>2021-05-08T13:21:08Z</time>
      </trkpt>
      <trkpt lat="47.55517" lon="-2.15153">
        <ele>30.1</ele>
        <time>2021-05-08T13:21:09Z</time>
      </trkpt>
      <trkpt lat="47.5552" lon="-2.15152">
        <ele>30.4</ele>
        <time>2021-05-08T13:21:10Z</time>
      </trkpt>
      <trkpt lat="47.55523" lon="-2.15151">
        <ele>30.6</ele>
        <time>2021-05-08T13:21:12Z</time>
      </trkpt>
      <trkpt lat="47.55526" lon="-2.1515">
        <ele>30.9</ele>
        <time>2021-05-08T13:21:13Z</time>
      </trkpt>
      <trkpt lat="47.55529" lon="-2.15149">
        <ele>31.1</ele>
        <time>2021-05-08T13:21:15Z</time>
      </trkpt>
      <trkpt lat="47.5553" lon="-2.15148">
        <ele>31.2</ele>
        <time>2021-05-08T13:21:16Z</time>
      </trkpt>
      <trkpt lat="47.55531" lon="-2.15147">
        <ele>31.4</ele>
        <time>2021-05-08T13:21:17Z</time>
      </trkpt>
      <trkpt lat="47.55534" lon="-2.15146">
        <ele>31.6</ele>
        <time>2021-05-08T13:21:19Z</time>
      </trkpt>
      <trkpt lat="47.55535" lon="-2.15145">
        <ele>31.7</ele>
        <time>2021-05-08T13:21:20Z</time>
      </trkpt>
      <trkpt lat="47.55537" lon="-2.15145">
        <ele>31.8</ele>
        <time>2021-05-08T13:21:21Z</time>
      </trkpt>
      <trkpt lat="47.55538" lon="-2.15144">
        <ele>32</ele>
        <time>2021-05-08T13:21:23Z</time>
      </trkpt>
      <trkpt lat="47.5554" lon="-2.15143">
        <ele>32.1</ele>
        <time>2021-05-08T13:21:24Z</time>
      </trkpt>
      <trkpt lat="47.55541" lon="-2.15142">
        <ele>32.2</ele>
        <time>2021-05-08T13:21:25Z</time>
      </trkpt>
      <trkpt lat="47.55543" lon="-2.15141">
        <ele>32.3</ele>
        <time>2021-05-08T13:21:26Z</time>
      </trkpt>
      <trkpt lat="47.55544" lon="-2.1514">
        <ele>32.4</ele>
        <time>2021-05-08T13:21:27Z</time>
      </trkpt>
      <trkpt lat="47.55546" lon="-2.15138">
        <ele>32.6</ele>
        <time>2021-05-08T13:21:29Z</time>
      </trkpt>
      <trkpt lat="47.55548" lon="-2.15137">
        <ele>32.8</ele>
        <time>2021-05-08T13:21:30Z</time>
      </trkpt>
      <trkpt lat="47.55551" lon="-2.15135">
        <ele>33</ele>
        <time>2021-05-08T13:21:32Z</time>
      </trkpt>
      <trkpt lat="47.55552" lon="-2.15135">
        <ele>33.1</ele>
        <time>2021-05-08T13:21:33Z</time>
      </trkpt>
      <trkpt lat="47.55553" lon="-2.15134">
        <ele>33.2</ele>
        <time>2021-05-08T13:21:34Z</time>
      </trkpt>
      <trkpt lat="47.55557" lon="-2.15131">
        <ele>33.5</ele>
        <time>2021-05-08T13:21:36Z</time>
      </trkpt>
      <trkpt lat="47.55559" lon="-2.1513">
        <ele>33.6</ele>
        <time>2021-05-08T13:21:37Z</time>
      </trkpt>
      <trkpt lat="47.5556" lon="-2.1513">
        <ele>33.7</ele>
        <time>2021-05-08T13:21:38Z</time>
      </trkpt>
      <trkpt lat="47.55564" lon="-2.15128">
        <ele>34</ele>
        <time>2021-05-08T13:21:40Z</time>
      </trkpt>
      <trkpt lat="47.55565" lon="-2.15127">
        <ele>34.1</ele>
        <time>2021-05-08T13:21:41Z</time>
      </trkpt>
      <trkpt lat="47.55567" lon="-2.15126">
        <ele>34.2</ele>
        <time>2021-05-08T13:21:42Z</time>
      </trkpt>
      <trkpt lat="47.55571" lon="-2.15124">
        <ele>34.5</ele>
        <time>2021-05-08T13:21:44Z</time>
      </trkpt>
      <trkpt lat="47.55574" lon="-2.15122">
        <ele>34.7</ele>
        <time>2021-05-08T13:21:46Z</time>
      </trkpt>
      <trkpt lat="47.55578" lon="-2.15119">
        <ele>35</ele>
        <time>2021-05-08T13:21:47Z</time>
      </trkpt>
      <trkpt lat="47.55581" lon="-2.15117">
        <ele>35.2</ele>
        <time>2021-05-08T13:21:49Z</time>
      </trkpt>
      <trkpt lat="47.55584" lon="-2.15115">
        <ele>35.4</ele>
        <time>2021-05-08T13:21:50Z</time>
      </trkpt>
      <trkpt lat="47.55587" lon="-2.15113">
        <ele>35.6</ele>
        <time>2021-05-08T13:21:52Z</time>
      </trkpt>
      <trkpt lat="47.55591" lon="-2.15111">
        <ele>35.8</ele>
        <time>2021-05-08T13:21:53Z</time>
      </trkpt>
      <trkpt lat="47.55592" lon="-2.1511">
        <ele>35.9</ele>
        <time>2021-05-08T13:21:54Z</time>
      </trkpt>
      <trkpt lat="47.55596" lon="-2.15108">
        <ele>36.1</ele>
        <time>2021-05-08T13:21:56Z</time>
      </trkpt>
      <trkpt lat="47.55599" lon="-2.15107">
        <ele>36.2</ele>
        <time>2021-05-08T13:21:57Z</time>
      </trkpt>
      <trkpt lat="47.55601" lon="-2.15105">
        <ele>36.3</ele>
        <time>2021-05-08T13:21:58Z</time>
      </trkpt>
      <trkpt lat="47.55604" lon="-2.15104">
        <ele>36.4</ele>
        <time>2021-05-08T13:22:00Z</time>
      </trkpt>
      <trkpt lat="47.55606" lon="-2.15102">
        <ele>36.6</ele>
        <time>2021-05-08T13:22:01Z</time>
      </trkpt>
      <trkpt lat="47.55611" lon="-2.151">
        <ele>36.8</ele>
        <time>2021-05-08T13:22:03Z</time>
      </trkpt>
      <trkpt lat="47.55613" lon="-2.15099">
        <ele>36.8</ele>
        <time>2021-05-08T13:22:04Z</time>
      </trkpt>
      <trkpt lat="47.55615" lon="-2.15098">
        <ele>36.9</ele>
        <time>2021-05-08T13:22:05Z</time>
      </trkpt>
      <trkpt lat="47.55617" lon="-2.15096">
        <ele>37</ele>
        <time>2021-05-08T13:22:07Z</time>
      </trkpt>
      <trkpt lat="47.5562" lon="-2.15094">
        <ele>37.1</ele>
        <time>2021-05-08T13:22:08Z</time>
      </trkpt>
      <trkpt lat="47.55622" lon="-2.15093">
        <ele>37.2</ele>
        <time>2021-05-08T13:22:09Z</time>
      </trkpt>
      <trkpt lat="47.55626" lon="-2.15092">
        <ele>37.3</ele>
        <time>2021-05-08T13:22:11Z</time>
      </trkpt>
      <trkpt lat="47.55629" lon="-2.1509">
        <ele>37.4</ele>
        <time>2021-05-08T13:22:12Z</time>
      </trkpt>
      <trkpt lat="47.55634" lon="-2.15089">
        <ele>37.6</ele>
        <time>2021-05-08T13:22:14Z</time>
      </trkpt>
      <trkpt lat="47.55636" lon="-2.15089">
        <ele>37.6</ele>
        <time>2021-05-08T13:22:15Z</time>
      </trkpt>
      <trkpt lat="47.55638" lon="-2.15089">
        <ele>37.6</ele>
        <time>2021-05-08T13:22:16Z</time>
      </trkpt>
      <trkpt lat="47.55643" lon="-2.15091">
        <ele>37.7</ele>
        <time>2021-05-08T13:22:18Z</time>
      </trkpt>
      <trkpt lat="47.55646" lon="-2.15092">
        <ele>37.8</ele>
        <time>2021-05-08T13:22:19Z</time>
      </trkpt>
      <trkpt lat="47.55648" lon="-2.15093">
        <ele>37.8</ele>
        <time>2021-05-08T13:22:20Z</time>
      </trkpt>
      <trkpt lat="47.55651" lon="-2.15094">
        <ele>37.9</ele>
        <time>2021-05-08T13:22:22Z</time>
      </trkpt>
      <trkpt lat="47.55654" lon="-2.15094">
        <ele>37.9</ele>
        <time>2021-05-08T13:22:23Z</time>
      </trkpt>
      <trkpt lat="47.55659" lon="-2.15095">
        <ele>38</ele>
        <time>2021-05-08T13:22:24Z</time>
      </trkpt>
      <trkpt lat="47.55662" lon="-2.15095">
        <ele>38</ele>
        <time>2021-05-08T13:22:25Z</time>
      </trkpt>
      <trkpt lat="47.55666" lon="-2.15096">
        <ele>38.1</ele>
        <time>2021-05-08T13:22:27Z</time>
      </trkpt>
      <trkpt lat="47.55669" lon="-2.15097">
        <ele>38.1</ele>
        <time>2021-05-08T13:22:28Z</time>
      </trkpt>
      <trkpt lat="47.55672" lon="-2.15097">
        <ele>38.2</ele>
        <time>2021-05-08T13:22:29Z</time>
      </trkpt>
      <trkpt lat="47.55678" lon="-2.15098">
        <ele>38.2</ele>
        <time>2021-05-08T13:22:31Z</time>
      </trkpt>
      <trkpt lat="47.55682" lon="-2.15099">
        <ele>38.2</ele>
        <time>2021-05-08T13:22:32Z</time>
      </trkpt>
      <trkpt lat="47.55688" lon="-2.15099">
        <ele>38.3</ele>
        <time>2021-05-08T13:22:34Z</time>
      </trkpt>
      <trkpt lat="47.55692" lon="-2.151">
        <ele>38.3</ele>
        <time>2021-05-08T13:22:35Z</time>
      </trkpt>
      <trkpt lat="47.55696" lon="-2.151">
        <ele>38.3</ele>
        <time>2021-05-08T13:22:36Z</time>
      </trkpt>
      <trkpt lat="47.557" lon="-2.151">
        <ele>38.3</ele>
        <time>2021-05-08T13:22:38Z</time>
      </trkpt>
      <trkpt lat="47.55703" lon="-2.15101">
        <ele>38.3</ele>
        <time>2021-05-08T13:22:39Z</time>
      </trkpt>
      <trkpt lat="47.55707" lon="-2.151">
        <ele>38.3</ele>
        <time>2021-05-08T13:22:40Z</time>
      </trkpt>
      <trkpt lat="47.55708" lon="-2.15101">
        <ele>38.3</ele>
        <time>2021-05-08T13:22:41Z</time>
      </trkpt>
      <trkpt lat="47.55712" lon="-2.15101">
        <ele>38.3</ele>
        <time>2021-05-08T13:22:42Z</time>
      </trkpt>
      <trkpt lat="47.55714" lon="-2.15101">
        <ele>38.2</ele>
        <time>2021-05-08T13:22:43Z</time>
      </trkpt>
      <trkpt lat="47.55719" lon="-2.15101">
        <ele>38.2</ele>
        <time>2021-05-08T13:22:44Z</time>
      </trkpt>
      <trkpt lat="47.55725" lon="-2.15101">
        <ele>38.2</ele>
        <time>2021-05-08T13:22:46Z</time>
      </trkpt>
      <trkpt lat="47.55731" lon="-2.15103">
        <ele>38.2</ele>
        <time>2021-05-08T13:22:47Z</time>
      </trkpt>
      <trkpt lat="47.55736" lon="-2.15104">
        <ele>38.3</ele>
        <time>2021-05-08T13:22:49Z</time>
      </trkpt>
      <trkpt lat="47.5574" lon="-2.15105">
        <ele>38.3</ele>
        <time>2021-05-08T13:22:50Z</time>
      </trkpt>
      <trkpt lat="47.55745" lon="-2.15106">
        <ele>38.3</ele>
        <time>2021-05-08T13:22:51Z</time>
      </trkpt>
      <trkpt lat="47.55751" lon="-2.15109">
        <ele>38.3</ele>
        <time>2021-05-08T13:22:53Z</time>
      </trkpt>
      <trkpt lat="47.55754" lon="-2.15109">
        <ele>38.4</ele>
        <time>2021-05-08T13:22:54Z</time>
      </trkpt>
      <trkpt lat="47.5576" lon="-2.1511">
        <ele>38.4</ele>
        <time>2021-05-08T13:22:55Z</time>
      </trkpt>
      <trkpt lat="47.55765" lon="-2.15112">
        <ele>38.5</ele>
        <time>2021-05-08T13:22:57Z</time>
      </trkpt>
      <trkpt lat="47.5577" lon="-2.15113">
        <ele>38.5</ele>
        <time>2021-05-08T13:22:59Z</time>
      </trkpt>
      <trkpt lat="47.55777" lon="-2.15114">
        <ele>38.6</ele>
        <time>2021-05-08T13:23:01Z</time>
      </trkpt>
      <trkpt lat="47.55783" lon="-2.15112">
        <ele>38.7</ele>
        <time>2021-05-08T13:23:03Z</time>
      </trkpt>
      <trkpt lat="47.55786" lon="-2.1511">
        <ele>38.7</ele>
        <time>2021-05-08T13:23:04Z</time>
      </trkpt>
      <trkpt lat="47.5579" lon="-2.15107">
        <ele>38.8</ele>
        <time>2021-05-08T13:23:05Z</time>
      </trkpt>
      <trkpt lat="47.55794" lon="-2.15104">
        <ele>38.9</ele>
        <time>2021-05-08T13:23:07Z</time>
      </trkpt>
      <trkpt lat="47.558" lon="-2.15101">
        <ele>39</ele>
        <time>2021-05-08T13:23:08Z</time>
      </trkpt>
      <trkpt lat="47.55803" lon="-2.15098">
        <ele>39.1</ele>
        <time>2021-05-08T13:23:10Z</time>
      </trkpt>
      <trkpt lat="47.55807" lon="-2.15096">
        <ele>39.2</ele>
        <time>2021-05-08T13:23:11Z</time>
      </trkpt>
      <trkpt lat="47.55812" lon="-2.15093">
        <ele>39.3</ele>
        <time>2021-05-08T13:23:12Z</time>
      </trkpt>
      <trkpt lat="47.55816" lon="-2.15091">
        <ele>39.4</ele>
        <time>2021-05-08T13:23:13Z</time>
      </trkpt>
      <trkpt lat="47.5582" lon="-2.15088">
        <ele>39.6</ele>
        <time>2021-05-08T13:23:15Z</time>
      </trkpt>
      <trkpt lat="47.55823" lon="-2.15087">
        <ele>39.7</ele>
        <time>2021-05-08T13:23:16Z</time>
      </trkpt>
      <trkpt lat="47.55827" lon="-2.15085">
        <ele>39.9</ele>
        <time>2021-05-08T13:23:17Z</time>
      </trkpt>
      <trkpt lat="47.5583" lon="-2.15084">
        <ele>40</ele>
        <time>2021-05-08T13:23:18Z</time>
      </trkpt>
      <trkpt lat="47.55835" lon="-2.15083">
        <ele>40.2</ele>
        <time>2021-05-08T13:23:20Z</time>
      </trkpt>
      <trkpt lat="47.55837" lon="-2.15083">
        <ele>40.3</ele>
        <time>2021-05-08T13:23:21Z</time>
      </trkpt>
      <trkpt lat="47.55838" lon="-2.15084">
        <ele>40.3</ele>
        <time>2021-05-08T13:23:22Z</time>
      </trkpt>
      <trkpt lat="47.55838" lon="-2.15087">
        <ele>40.4</ele>
        <time>2021-05-08T13:23:24Z</time>
      </trkpt>
      <trkpt lat="47.55838" lon="-2.1509">
        <ele>40.5</ele>
        <time>2021-05-08T13:23:25Z</time>
      </trkpt>
      <trkpt lat="47.55839" lon="-2.15094">
        <ele>40.6</ele>
        <time>2021-05-08T13:23:27Z</time>
      </trkpt>
      <trkpt lat="47.55839" lon="-2.15095">
        <ele>40.6</ele>
        <time>2021-05-08T13:23:28Z</time>
      </trkpt>
      <trkpt lat="47.5584" lon="-2.15097">
        <ele>40.6</ele>
        <time>2021-05-08T13:23:29Z</time>
      </trkpt>
      <trkpt lat="47.55841" lon="-2.15099">
        <ele>40.7</ele>
        <time>2021-05-08T13:23:30Z</time>
      </trkpt>
      <trkpt lat="47.55844" lon="-2.151">
        <ele>40.7</ele>
        <time>2021-05-08T13:23:31Z</time>
      </trkpt>
      <trkpt lat="47.55846" lon="-2.15101">
        <ele>40.8</ele>
        <time>2021-05-08T13:23:33Z</time>
      </trkpt>
      <trkpt lat="47.55849" lon="-2.15104">
        <ele>40.9</ele>
        <time>2021-05-08T13:23:34Z</time>
      </trkpt>
      <trkpt lat="47.55849" lon="-2.15105">
        <ele>40.9</ele>
        <time>2021-05-08T13:23:35Z</time>
      </trkpt>
      <trkpt lat="47.5585" lon="-2.15108">
        <ele>40.9</ele>
        <time>2021-05-08T13:23:36Z</time>
      </trkpt>
      <trkpt lat="47.5585" lon="-2.15111">
        <ele>40.9</ele>
        <time>2021-05-08T13:23:38Z</time>
      </trkpt>
      <trkpt lat="47.5585" lon="-2.15115">
        <ele>40.9</ele>
        <time>2021-05-08T13:23:39Z</time>
      </trkpt>
      <trkpt lat="47.5585" lon="-2.1512">
        <ele>41</ele>
        <time>2021-05-08T13:23:40Z</time>
      </trkpt>
      <trkpt lat="47.55849" lon="-2.15122">
        <ele>41</ele>
        <time>2021-05-08T13:23:41Z</time>
      </trkpt>
      <trkpt lat="47.55849" lon="-2.15126">
        <ele>41</ele>
        <time>2021-05-08T13:23:43Z</time>
      </trkpt>
      <trkpt lat="47.5585" lon="-2.15127">
        <ele>41</ele>
        <time>2021-05-08T13:23:44Z</time>
      </trkpt>
      <trkpt lat="47.55851" lon="-2.15132">
        <ele>41</ele>
        <time>2021-05-08T13:23:45Z</time>
      </trkpt>
      <trkpt lat="47.55852" lon="-2.15137">
        <ele>41</ele>
        <time>2021-05-08T13:23:47Z</time>
      </trkpt>
      <trkpt lat="47.55853" lon="-2.15143">
        <ele>41</ele>
        <time>2021-05-08T13:23:48Z</time>
      </trkpt>
      <trkpt lat="47.55854" lon="-2.15147">
        <ele>41</ele>
        <time>2021-05-08T13:23:49Z</time>
      </trkpt>
      <trkpt lat="47.55855" lon="-2.15151">
        <ele>41</ele>
        <time>2021-05-08T13:23:50Z</time>
      </trkpt>
      <trkpt lat="47.55857" lon="-2.15157">
        <ele>41</ele>
        <time>2021-05-08T13:23:52Z</time>
      </trkpt>
      <trkpt lat="47.55858" lon="-2.15163">
        <ele>41.1</ele>
        <time>2021-05-08T13:23:53Z</time>
      </trkpt>
      <trkpt lat="47.55858" lon="-2.15165">
        <ele>41.1</ele>
        <time>2021-05-08T13:23:54Z</time>
      </trkpt>
      <trkpt lat="47.5586" lon="-2.15172">
        <ele>41.1</ele>
        <time>2021-05-08T13:23:55Z</time>
      </trkpt>
      <trkpt lat="47.55864" lon="-2.15184">
        <ele>41.2</ele>
        <time>2021-05-08T13:23:57Z</time>
      </trkpt>
      <trkpt lat="47.55865" lon="-2.15188">
        <ele>41.2</ele>
        <time>2021-05-08T13:23:58Z</time>
      </trkpt>
      <trkpt lat="47.55867" lon="-2.15196">
        <ele>41.3</ele>
        <time>2021-05-08T13:24:00Z</time>
      </trkpt>
      <trkpt lat="47.55867" lon="-2.15205">
        <ele>41.4</ele>
        <time>2021-05-08T13:24:02Z</time>
      </trkpt>
      <trkpt lat="47.55867" lon="-2.15211">
        <ele>41.4</ele>
        <time>2021-05-08T13:24:04Z</time>
      </trkpt>
      <trkpt lat="47.55866" lon="-2.15213">
        <ele>41.5</ele>
        <time>2021-05-08T13:24:05Z</time>
      </trkpt>
      <trkpt lat="47.55864" lon="-2.15218">
        <ele>41.5</ele>
        <time>2021-05-08T13:24:07Z</time>
      </trkpt>
      <trkpt lat="47.55863" lon="-2.15222">
        <ele>41.6</ele>
        <time>2021-05-08T13:24:08Z</time>
      </trkpt>
      <trkpt lat="47.55864" lon="-2.15229">
        <ele>41.6</ele>
        <time>2021-05-08T13:24:10Z</time>
      </trkpt>
      <trkpt lat="47.55864" lon="-2.15231">
        <ele>41.7</ele>
        <time>2021-05-08T13:24:11Z</time>
      </trkpt>
      <trkpt lat="47.55864" lon="-2.15234">
        <ele>41.7</ele>
        <time>2021-05-08T13:24:12Z</time>
      </trkpt>
      <trkpt lat="47.55864" lon="-2.15236">
        <ele>41.7</ele>
        <time>2021-05-08T13:24:13Z</time>
      </trkpt>
      <trkpt lat="47.55863" lon="-2.15242">
        <ele>41.8</ele>
        <time>2021-05-08T13:24:15Z</time>
      </trkpt>
      <trkpt lat="47.55862" lon="-2.15248">
        <ele>41.8</ele>
        <time>2021-05-08T13:24:17Z</time>
      </trkpt>
      <trkpt lat="47.55862" lon="-2.15252">
        <ele>41.8</ele>
        <time>2021-05-08T13:24:18Z</time>
      </trkpt>
      <trkpt lat="47.55863" lon="-2.15259">
        <ele>41.9</ele>
        <time>2021-05-08T13:24:20Z</time>
      </trkpt>
      <trkpt lat="47.55864" lon="-2.15267">
        <ele>41.9</ele>
        <time>2021-05-08T13:24:22Z</time>
      </trkpt>
      <trkpt lat="47.55864" lon="-2.1527">
        <ele>42</ele>
        <time>2021-05-08T13:24:23Z</time>
      </trkpt>
      <trkpt lat="47.55864" lon="-2.15273">
        <ele>42</ele>
        <time>2021-05-08T13:24:25Z</time>
      </trkpt>
      <trkpt lat="47.55864" lon="-2.15274">
        <ele>42</ele>
        <time>2021-05-08T13:24:26Z</time>
      </trkpt>
      <trkpt lat="47.55865" lon="-2.15274">
        <ele>42</ele>
        <time>2021-05-08T13:24:27Z</time>
      </trkpt>
      <trkpt lat="47.55866" lon="-2.15275">
        <ele>42</ele>
        <time>2021-05-08T13:24:29Z</time>
      </trkpt>
      <trkpt lat="47.55866" lon="-2.15276">
        <ele>42</ele>
        <time>2021-05-08T13:24:30Z</time>
      </trkpt>
      <trkpt lat="47.55867" lon="-2.15277">
        <ele>42</ele>
        <time>2021-05-08T13:24:32Z</time>
      </trkpt>
      <trkpt lat="47.55867" lon="-2.15277">
        <ele>42</ele>
        <time>2021-05-08T13:24:33Z</time>
      </trkpt>
      <trkpt lat="47.55868" lon="-2.15278">
        <ele>42</ele>
        <time>2021-05-08T13:24:36Z</time>
      </trkpt>
      <trkpt lat="47.55868" lon="-2.15279">
        <ele>42.1</ele>
        <time>2021-05-08T13:24:38Z</time>
      </trkpt>
      <trkpt lat="47.55869" lon="-2.15279">
        <ele>42.1</ele>
        <time>2021-05-08T13:24:39Z</time>
      </trkpt>
      <trkpt lat="47.55873" lon="-2.15282">
        <ele>42.1</ele>
        <time>2021-05-08T13:24:40Z</time>
      </trkpt>
      <trkpt lat="47.55874" lon="-2.15282">
        <ele>42.1</ele>
        <time>2021-05-08T13:24:41Z</time>
      </trkpt>
      <trkpt lat="47.55879" lon="-2.15285">
        <ele>42.2</ele>
        <time>2021-05-08T13:24:43Z</time>
      </trkpt>
      <trkpt lat="47.55883" lon="-2.15289">
        <ele>42.2</ele>
        <time>2021-05-08T13:24:44Z</time>
      </trkpt>
      <trkpt lat="47.55885" lon="-2.15291">
        <ele>42.3</ele>
        <time>2021-05-08T13:24:45Z</time>
      </trkpt>
      <trkpt lat="47.55887" lon="-2.15293">
        <ele>42.3</ele>
        <time>2021-05-08T13:24:47Z</time>
      </trkpt>
      <trkpt lat="47.55892" lon="-2.15295">
        <ele>42.4</ele>
        <time>2021-05-08T13:24:49Z</time>
      </trkpt>
      <trkpt lat="47.55894" lon="-2.15294">
        <ele>42.4</ele>
        <time>2021-05-08T13:24:50Z</time>
      </trkpt>
      <trkpt lat="47.55898" lon="-2.15294">
        <ele>42.4</ele>
        <time>2021-05-08T13:24:52Z</time>
      </trkpt>
      <trkpt lat="47.559" lon="-2.15294">
        <ele>42.5</ele>
        <time>2021-05-08T13:24:53Z</time>
      </trkpt>
      <trkpt lat="47.55905" lon="-2.15298">
        <ele>42.6</ele>
        <time>2021-05-08T13:24:55Z</time>
      </trkpt>
      <trkpt lat="47.55908" lon="-2.15299">
        <ele>42.7</ele>
        <time>2021-05-08T13:24:56Z</time>
      </trkpt>
      <trkpt lat="47.55911" lon="-2.153">
        <ele>42.7</ele>
        <time>2021-05-08T13:24:58Z</time>
      </trkpt>
      <trkpt lat="47.55914" lon="-2.15299">
        <ele>42.8</ele>
        <time>2021-05-08T13:24:59Z</time>
      </trkpt>
      <trkpt lat="47.55918" lon="-2.15298">
        <ele>42.9</ele>
        <time>2021-05-08T13:25:00Z</time>
      </trkpt>
      <trkpt lat="47.55922" lon="-2.15297">
        <ele>43.1</ele>
        <time>2021-05-08T13:25:01Z</time>
      </trkpt>
      <trkpt lat="47.55928" lon="-2.15295">
        <ele>43.2</ele>
        <time>2021-05-08T13:25:03Z</time>
      </trkpt>
      <trkpt lat="47.55931" lon="-2.15295">
        <ele>43.3</ele>
        <time>2021-05-08T13:25:04Z</time>
      </trkpt>
      <trkpt lat="47.55935" lon="-2.15294">
        <ele>43.4</ele>
        <time>2021-05-08T13:25:06Z</time>
      </trkpt>
      <trkpt lat="47.55938" lon="-2.15294">
        <ele>43.5</ele>
        <time>2021-05-08T13:25:07Z</time>
      </trkpt>
      <trkpt lat="47.5594" lon="-2.15296">
        <ele>43.6</ele>
        <time>2021-05-08T13:25:08Z</time>
      </trkpt>
      <trkpt lat="47.55943" lon="-2.15297">
        <ele>43.6</ele>
        <time>2021-05-08T13:25:10Z</time>
      </trkpt>
      <trkpt lat="47.55948" lon="-2.15296">
        <ele>43.7</ele>
        <time>2021-05-08T13:25:11Z</time>
      </trkpt>
      <trkpt lat="47.55953" lon="-2.15293">
        <ele>43.8</ele>
        <time>2021-05-08T13:25:13Z</time>
      </trkpt>
      <trkpt lat="47.55956" lon="-2.15291">
        <ele>43.9</ele>
        <time>2021-05-08T13:25:14Z</time>
      </trkpt>
      <trkpt lat="47.5596" lon="-2.15289">
        <ele>44</ele>
        <time>2021-05-08T13:25:15Z</time>
      </trkpt>
      <trkpt lat="47.55962" lon="-2.15288">
        <ele>44</ele>
        <time>2021-05-08T13:25:16Z</time>
      </trkpt>
      <trkpt lat="47.55967" lon="-2.15288">
        <ele>44.1</ele>
        <time>2021-05-08T13:25:17Z</time>
      </trkpt>
      <trkpt lat="47.55969" lon="-2.15287">
        <ele>44.2</ele>
        <time>2021-05-08T13:25:18Z</time>
      </trkpt>
      <trkpt lat="47.55973" lon="-2.15285">
        <ele>44.2</ele>
        <time>2021-05-08T13:25:20Z</time>
      </trkpt>
      <trkpt lat="47.55975" lon="-2.15285">
        <ele>44.3</ele>
        <time>2021-05-08T13:25:21Z</time>
      </trkpt>
      <trkpt lat="47.55977" lon="-2.15285">
        <ele>44.3</ele>
        <time>2021-05-08T13:25:22Z</time>
      </trkpt>
      <trkpt lat="47.55981" lon="-2.15285">
        <ele>44.4</ele>
        <time>2021-05-08T13:25:23Z</time>
      </trkpt>
      <trkpt lat="47.55985" lon="-2.15285">
        <ele>44.4</ele>
        <time>2021-05-08T13:25:25Z</time>
      </trkpt>
      <trkpt lat="47.55987" lon="-2.15284">
        <ele>44.5</ele>
        <time>2021-05-08T13:25:26Z</time>
      </trkpt>
      <trkpt lat="47.55992" lon="-2.15285">
        <ele>44.6</ele>
        <time>2021-05-08T13:25:28Z</time>
      </trkpt>
      <trkpt lat="47.55995" lon="-2.15285">
        <ele>44.7</ele>
        <time>2021-05-08T13:25:29Z</time>
      </trkpt>
      <trkpt lat="47.56" lon="-2.15287">
        <ele>44.8</ele>
        <time>2021-05-08T13:25:31Z</time>
      </trkpt>
      <trkpt lat="47.56003" lon="-2.15289">
        <ele>44.8</ele>
        <time>2021-05-08T13:25:32Z</time>
      </trkpt>
      <trkpt lat="47.56006" lon="-2.1529">
        <ele>44.9</ele>
        <time>2021-05-08T13:25:33Z</time>
      </trkpt>
      <trkpt lat="47.56013" lon="-2.15289">
        <ele>45</ele>
        <time>2021-05-08T13:25:34Z</time>
      </trkpt>
      <trkpt lat="47.56018" lon="-2.15289">
        <ele>45.1</ele>
        <time>2021-05-08T13:25:36Z</time>
      </trkpt>
      <trkpt lat="47.56026" lon="-2.15291">
        <ele>45.1</ele>
        <time>2021-05-08T13:25:37Z</time>
      </trkpt>
      <trkpt lat="47.56029" lon="-2.15294">
        <ele>44.9</ele>
        <time>2021-05-08T13:25:39Z</time>
      </trkpt>
      <trkpt lat="47.5603" lon="-2.153">
        <ele>44.6</ele>
        <time>2021-05-08T13:25:41Z</time>
      </trkpt>
      <trkpt lat="47.5603" lon="-2.15302">
        <ele>44.6</ele>
        <time>2021-05-08T13:25:42Z</time>
      </trkpt>
      <trkpt lat="47.5603" lon="-2.15303">
        <ele>44.4</ele>
        <time>2021-05-08T13:25:43Z</time>
      </trkpt>
      <trkpt lat="47.56029" lon="-2.153">
        <ele>44.6</ele>
        <time>2021-05-08T13:25:44Z</time>
      </trkpt>
      <trkpt lat="47.56027" lon="-2.153">
        <ele>44.7</ele>
        <time>2021-05-08T13:25:46Z</time>
      </trkpt>
      <trkpt lat="47.56025" lon="-2.15302">
        <ele>44.7</ele>
        <time>2021-05-08T13:25:47Z</time>
      </trkpt>
      <trkpt lat="47.56023" lon="-2.15303">
        <ele>44.6</ele>
        <time>2021-05-08T13:25:49Z</time>
      </trkpt>
      <trkpt lat="47.5602" lon="-2.15304">
        <ele>44.6</ele>
        <time>2021-05-08T13:25:50Z</time>
      </trkpt>
      <trkpt lat="47.56018" lon="-2.15305">
        <ele>44.6</ele>
        <time>2021-05-08T13:25:51Z</time>
      </trkpt>
      <trkpt lat="47.56014" lon="-2.15306">
        <ele>44.5</ele>
        <time>2021-05-08T13:25:53Z</time>
      </trkpt>
      <trkpt lat="47.56012" lon="-2.15306">
        <ele>44.4</ele>
        <time>2021-05-08T13:25:54Z</time>
      </trkpt>
      <trkpt lat="47.56008" lon="-2.15307">
        <ele>44.3</ele>
        <time>2021-05-08T13:25:55Z</time>
      </trkpt>
      <trkpt lat="47.56004" lon="-2.15309">
        <ele>44.2</ele>
        <time>2021-05-08T13:25:57Z</time>
      </trkpt>
      <trkpt lat="47.55999" lon="-2.1531">
        <ele>44.1</ele>
        <time>2021-05-08T13:25:58Z</time>
      </trkpt>
      <trkpt lat="47.55996" lon="-2.15311">
        <ele>44</ele>
        <time>2021-05-08T13:25:59Z</time>
      </trkpt>
      <trkpt lat="47.55985" lon="-2.15312">
        <ele>43.7</ele>
        <time>2021-05-08T13:26:01Z</time>
      </trkpt>
      <trkpt lat="47.55977" lon="-2.15312">
        <ele>43.6</ele>
        <time>2021-05-08T13:26:03Z</time>
      </trkpt>
      <trkpt lat="47.55973" lon="-2.15312">
        <ele>43.5</ele>
        <time>2021-05-08T13:26:04Z</time>
      </trkpt>
      <trkpt lat="47.55963" lon="-2.15315">
        <ele>43.3</ele>
        <time>2021-05-08T13:26:06Z</time>
      </trkpt>
      <trkpt lat="47.55959" lon="-2.15317">
        <ele>43.2</ele>
        <time>2021-05-08T13:26:07Z</time>
      </trkpt>
      <trkpt lat="47.55951" lon="-2.15318">
        <ele>43</ele>
        <time>2021-05-08T13:26:09Z</time>
      </trkpt>
      <trkpt lat="47.55942" lon="-2.15318">
        <ele>42.8</ele>
        <time>2021-05-08T13:26:11Z</time>
      </trkpt>
      <trkpt lat="47.55938" lon="-2.15318">
        <ele>42.7</ele>
        <time>2021-05-08T13:26:12Z</time>
      </trkpt>
      <trkpt lat="47.55932" lon="-2.15319">
        <ele>42.6</ele>
        <time>2021-05-08T13:26:14Z</time>
      </trkpt>
      <trkpt lat="47.55929" lon="-2.1532">
        <ele>42.5</ele>
        <time>2021-05-08T13:26:15Z</time>
      </trkpt>
      <trkpt lat="47.55926" lon="-2.15321">
        <ele>42.5</ele>
        <time>2021-05-08T13:26:17Z</time>
      </trkpt>
      <trkpt lat="47.55922" lon="-2.15321">
        <ele>42.4</ele>
        <time>2021-05-08T13:26:18Z</time>
      </trkpt>
      <trkpt lat="47.5592" lon="-2.15322">
        <ele>42.4</ele>
        <time>2021-05-08T13:26:19Z</time>
      </trkpt>
      <trkpt lat="47.55912" lon="-2.15321">
        <ele>42.3</ele>
        <time>2021-05-08T13:26:21Z</time>
      </trkpt>
      <trkpt lat="47.55907" lon="-2.15322">
        <ele>42.2</ele>
        <time>2021-05-08T13:26:22Z</time>
      </trkpt>
      <trkpt lat="47.55902" lon="-2.15323">
        <ele>42.1</ele>
        <time>2021-05-08T13:26:23Z</time>
      </trkpt>
      <trkpt lat="47.55895" lon="-2.15325">
        <ele>41.9</ele>
        <time>2021-05-08T13:26:25Z</time>
      </trkpt>
      <trkpt lat="47.55891" lon="-2.15326">
        <ele>41.8</ele>
        <time>2021-05-08T13:26:26Z</time>
      </trkpt>
      <trkpt lat="47.55883" lon="-2.1533">
        <ele>41.6</ele>
        <time>2021-05-08T13:26:28Z</time>
      </trkpt>
      <trkpt lat="47.55879" lon="-2.15338">
        <ele>41.3</ele>
        <time>2021-05-08T13:26:30Z</time>
      </trkpt>
      <trkpt lat="47.55877" lon="-2.15345">
        <ele>41.1</ele>
        <time>2021-05-08T13:26:31Z</time>
      </trkpt>
      <trkpt lat="47.55876" lon="-2.15351">
        <ele>40.9</ele>
        <time>2021-05-08T13:26:32Z</time>
      </trkpt>
      <trkpt lat="47.55874" lon="-2.15359">
        <ele>40.7</ele>
        <time>2021-05-08T13:26:34Z</time>
      </trkpt>
      <trkpt lat="47.55872" lon="-2.15367">
        <ele>40.5</ele>
        <time>2021-05-08T13:26:35Z</time>
      </trkpt>
      <trkpt lat="47.5587" lon="-2.15373">
        <ele>40.3</ele>
        <time>2021-05-08T13:26:36Z</time>
      </trkpt>
      <trkpt lat="47.55867" lon="-2.15383">
        <ele>40</ele>
        <time>2021-05-08T13:26:37Z</time>
      </trkpt>
      <trkpt lat="47.55865" lon="-2.15392">
        <ele>39.8</ele>
        <time>2021-05-08T13:26:38Z</time>
      </trkpt>
      <trkpt lat="47.55862" lon="-2.15403">
        <ele>39.6</ele>
        <time>2021-05-08T13:26:40Z</time>
      </trkpt>
      <trkpt lat="47.5586" lon="-2.15415">
        <ele>39.4</ele>
        <time>2021-05-08T13:26:41Z</time>
      </trkpt>
      <trkpt lat="47.55857" lon="-2.15427">
        <ele>39.1</ele>
        <time>2021-05-08T13:26:42Z</time>
      </trkpt>
      <trkpt lat="47.55854" lon="-2.15439">
        <ele>38.9</ele>
        <time>2021-05-08T13:26:44Z</time>
      </trkpt>
      <trkpt lat="47.55852" lon="-2.15452">
        <ele>38.6</ele>
        <time>2021-05-08T13:26:46Z</time>
      </trkpt>
      <trkpt lat="47.5585" lon="-2.15461">
        <ele>38.5</ele>
        <time>2021-05-08T13:26:47Z</time>
      </trkpt>
      <trkpt lat="47.55847" lon="-2.1547">
        <ele>38.2</ele>
        <time>2021-05-08T13:26:48Z</time>
      </trkpt>
      <trkpt lat="47.55845" lon="-2.1548">
        <ele>38</ele>
        <time>2021-05-08T13:26:50Z</time>
      </trkpt>
      <trkpt lat="47.55844" lon="-2.15486">
        <ele>37.8</ele>
        <time>2021-05-08T13:26:51Z</time>
      </trkpt>
      <trkpt lat="47.55842" lon="-2.15495">
        <ele>37.6</ele>
        <time>2021-05-08T13:26:52Z</time>
      </trkpt>
      <trkpt lat="47.55841" lon="-2.15505">
        <ele>37.3</ele>
        <time>2021-05-08T13:26:54Z</time>
      </trkpt>
      <trkpt lat="47.55839" lon="-2.15516">
        <ele>37</ele>
        <time>2021-05-08T13:26:55Z</time>
      </trkpt>
      <trkpt lat="47.55838" lon="-2.15524">
        <ele>36.8</ele>
        <time>2021-05-08T13:26:57Z</time>
      </trkpt>
      <trkpt lat="47.55837" lon="-2.15532">
        <ele>36.6</ele>
        <time>2021-05-08T13:26:58Z</time>
      </trkpt>
      <trkpt lat="47.55835" lon="-2.1554">
        <ele>36.4</ele>
        <time>2021-05-08T13:26:59Z</time>
      </trkpt>
      <trkpt lat="47.55832" lon="-2.15552">
        <ele>36</ele>
        <time>2021-05-08T13:27:00Z</time>
      </trkpt>
      <trkpt lat="47.5583" lon="-2.1556">
        <ele>35.7</ele>
        <time>2021-05-08T13:27:02Z</time>
      </trkpt>
      <trkpt lat="47.55826" lon="-2.15572">
        <ele>35.3</ele>
        <time>2021-05-08T13:27:04Z</time>
      </trkpt>
      <trkpt lat="47.55823" lon="-2.15583">
        <ele>34.9</ele>
        <time>2021-05-08T13:27:06Z</time>
      </trkpt>
      <trkpt lat="47.55821" lon="-2.1559">
        <ele>34.7</ele>
        <time>2021-05-08T13:27:07Z</time>
      </trkpt>
      <trkpt lat="47.55818" lon="-2.15601">
        <ele>34.3</ele>
        <time>2021-05-08T13:27:08Z</time>
      </trkpt>
      <trkpt lat="47.55817" lon="-2.1561">
        <ele>34.1</ele>
        <time>2021-05-08T13:27:09Z</time>
      </trkpt>
      <trkpt lat="47.55816" lon="-2.15618">
        <ele>33.9</ele>
        <time>2021-05-08T13:27:11Z</time>
      </trkpt>
      <trkpt lat="47.55816" lon="-2.1563">
        <ele>33.7</ele>
        <time>2021-05-08T13:27:13Z</time>
      </trkpt>
      <trkpt lat="47.55817" lon="-2.15638">
        <ele>33.6</ele>
        <time>2021-05-08T13:27:14Z</time>
      </trkpt>
      <trkpt lat="47.55815" lon="-2.15648">
        <ele>33.3</ele>
        <time>2021-05-08T13:27:16Z</time>
      </trkpt>
      <trkpt lat="47.55815" lon="-2.15651">
        <ele>33.3</ele>
        <time>2021-05-08T13:27:17Z</time>
      </trkpt>
      <trkpt lat="47.55813" lon="-2.15654">
        <ele>33.3</ele>
        <time>2021-05-08T13:27:19Z</time>
      </trkpt>
      <trkpt lat="47.55811" lon="-2.15653">
        <ele>33.3</ele>
        <time>2021-05-08T13:27:20Z</time>
      </trkpt>
      <trkpt lat="47.5581" lon="-2.15652">
        <ele>33.3</ele>
        <time>2021-05-08T13:27:22Z</time>
      </trkpt>
      <trkpt lat="47.55809" lon="-2.15651">
        <ele>33.3</ele>
        <time>2021-05-08T13:27:23Z</time>
      </trkpt>
      <trkpt lat="47.55808" lon="-2.15648">
        <ele>33.3</ele>
        <time>2021-05-08T13:27:25Z</time>
      </trkpt>
      <trkpt lat="47.55807" lon="-2.15648">
        <ele>33.3</ele>
        <time>2021-05-08T13:27:26Z</time>
      </trkpt>
      <trkpt lat="47.55803" lon="-2.15647">
        <ele>33.3</ele>
        <time>2021-05-08T13:27:27Z</time>
      </trkpt>
      <trkpt lat="47.55802" lon="-2.15647">
        <ele>33.4</ele>
        <time>2021-05-08T13:27:29Z</time>
      </trkpt>
      <trkpt lat="47.55799" lon="-2.15646">
        <ele>33.4</ele>
        <time>2021-05-08T13:27:31Z</time>
      </trkpt>
      <trkpt lat="47.55795" lon="-2.15646">
        <ele>33.5</ele>
        <time>2021-05-08T13:27:32Z</time>
      </trkpt>
      <trkpt lat="47.55791" lon="-2.15646">
        <ele>33.6</ele>
        <time>2021-05-08T13:27:34Z</time>
      </trkpt>
      <trkpt lat="47.55788" lon="-2.15645">
        <ele>33.7</ele>
        <time>2021-05-08T13:27:35Z</time>
      </trkpt>
      <trkpt lat="47.55784" lon="-2.15645">
        <ele>33.8</ele>
        <time>2021-05-08T13:27:36Z</time>
      </trkpt>
      <trkpt lat="47.55781" lon="-2.15644">
        <ele>33.9</ele>
        <time>2021-05-08T13:27:38Z</time>
      </trkpt>
      <trkpt lat="47.55777" lon="-2.15643">
        <ele>34.1</ele>
        <time>2021-05-08T13:27:39Z</time>
      </trkpt>
      <trkpt lat="47.55771" lon="-2.15641">
        <ele>34.3</ele>
        <time>2021-05-08T13:27:41Z</time>
      </trkpt>
      <trkpt lat="47.55766" lon="-2.15639">
        <ele>34.5</ele>
        <time>2021-05-08T13:27:42Z</time>
      </trkpt>
      <trkpt lat="47.5576" lon="-2.15636">
        <ele>34.7</ele>
        <time>2021-05-08T13:27:44Z</time>
      </trkpt>
      <trkpt lat="47.55756" lon="-2.15634">
        <ele>34.8</ele>
        <time>2021-05-08T13:27:45Z</time>
      </trkpt>
      <trkpt lat="47.55748" lon="-2.1563">
        <ele>35.1</ele>
        <time>2021-05-08T13:27:47Z</time>
      </trkpt>
      <trkpt lat="47.5574" lon="-2.15626">
        <ele>35.2</ele>
        <time>2021-05-08T13:27:49Z</time>
      </trkpt>
      <trkpt lat="47.55734" lon="-2.15623">
        <ele>35.3</ele>
        <time>2021-05-08T13:27:50Z</time>
      </trkpt>
      <trkpt lat="47.55729" lon="-2.15621">
        <ele>35.3</ele>
        <time>2021-05-08T13:27:51Z</time>
      </trkpt>
      <trkpt lat="47.55725" lon="-2.15618">
        <ele>35.2</ele>
        <time>2021-05-08T13:27:53Z</time>
      </trkpt>
      <trkpt lat="47.55721" lon="-2.15615">
        <ele>35.2</ele>
        <time>2021-05-08T13:27:54Z</time>
      </trkpt>
      <trkpt lat="47.55714" lon="-2.1561">
        <ele>35</ele>
        <time>2021-05-08T13:27:56Z</time>
      </trkpt>
      <trkpt lat="47.55707" lon="-2.15605">
        <ele>34.7</ele>
        <time>2021-05-08T13:27:57Z</time>
      </trkpt>
      <trkpt lat="47.55702" lon="-2.156">
        <ele>34.4</ele>
        <time>2021-05-08T13:27:58Z</time>
      </trkpt>
      <trkpt lat="47.55695" lon="-2.15596">
        <ele>34.1</ele>
        <time>2021-05-08T13:28:00Z</time>
      </trkpt>
      <trkpt lat="47.55689" lon="-2.15592">
        <ele>33.7</ele>
        <time>2021-05-08T13:28:01Z</time>
      </trkpt>
      <trkpt lat="47.55684" lon="-2.15588">
        <ele>33.4</ele>
        <time>2021-05-08T13:28:02Z</time>
      </trkpt>
      <trkpt lat="47.55678" lon="-2.15585">
        <ele>33</ele>
        <time>2021-05-08T13:28:03Z</time>
      </trkpt>
      <trkpt lat="47.55673" lon="-2.15582">
        <ele>32.7</ele>
        <time>2021-05-08T13:28:04Z</time>
      </trkpt>
      <trkpt lat="47.55663" lon="-2.15575">
        <ele>31.8</ele>
        <time>2021-05-08T13:28:06Z</time>
      </trkpt>
      <trkpt lat="47.55645" lon="-2.15564">
        <ele>30.2</ele>
        <time>2021-05-08T13:28:08Z</time>
      </trkpt>
      <trkpt lat="47.55629" lon="-2.15554">
        <ele>28.9</ele>
        <time>2021-05-08T13:28:10Z</time>
      </trkpt>
      <trkpt lat="47.55622" lon="-2.1555">
        <ele>28.5</ele>
        <time>2021-05-08T13:28:11Z</time>
      </trkpt>
      <trkpt lat="47.55616" lon="-2.15546">
        <ele>28.1</ele>
        <time>2021-05-08T13:28:12Z</time>
      </trkpt>
      <trkpt lat="47.55607" lon="-2.15539">
        <ele>27.4</ele>
        <time>2021-05-08T13:28:14Z</time>
      </trkpt>
      <trkpt lat="47.55595" lon="-2.15531">
        <ele>26.7</ele>
        <time>2021-05-08T13:28:16Z</time>
      </trkpt>
      <trkpt lat="47.55584" lon="-2.15523">
        <ele>25.9</ele>
        <time>2021-05-08T13:28:18Z</time>
      </trkpt>
      <trkpt lat="47.55577" lon="-2.15517">
        <ele>25.5</ele>
        <time>2021-05-08T13:28:19Z</time>
      </trkpt>
      <trkpt lat="47.55564" lon="-2.15507">
        <ele>24.8</ele>
        <time>2021-05-08T13:28:21Z</time>
      </trkpt>
      <trkpt lat="47.55557" lon="-2.15503">
        <ele>24.5</ele>
        <time>2021-05-08T13:28:22Z</time>
      </trkpt>
      <trkpt lat="47.55544" lon="-2.15493">
        <ele>24</ele>
        <time>2021-05-08T13:28:24Z</time>
      </trkpt>
      <trkpt lat="47.55529" lon="-2.15483">
        <ele>23.3</ele>
        <time>2021-05-08T13:28:26Z</time>
      </trkpt>
      <trkpt lat="47.55521" lon="-2.15477">
        <ele>22.8</ele>
        <time>2021-05-08T13:28:27Z</time>
      </trkpt>
      <trkpt lat="47.55509" lon="-2.15469">
        <ele>22</ele>
        <time>2021-05-08T13:28:29Z</time>
      </trkpt>
      <trkpt lat="47.55507" lon="-2.15469">
        <ele>21.9</ele>
        <time>2021-05-08T13:28:31Z</time>
      </trkpt>
      <trkpt lat="47.55507" lon="-2.15469">
        <ele>21.8</ele>
        <time>2021-05-08T13:28:32Z</time>
      </trkpt>
      <trkpt lat="47.55507" lon="-2.15471">
        <ele>21.7</ele>
        <time>2021-05-08T13:28:34Z</time>
      </trkpt>
      <trkpt lat="47.55509" lon="-2.15477">
        <ele>21.5</ele>
        <time>2021-05-08T13:28:36Z</time>
      </trkpt>
      <trkpt lat="47.55509" lon="-2.15479">
        <ele>21.4</ele>
        <time>2021-05-08T13:28:37Z</time>
      </trkpt>
      <trkpt lat="47.55511" lon="-2.15482">
        <ele>21.3</ele>
        <time>2021-05-08T13:28:39Z</time>
      </trkpt>
      <trkpt lat="47.55512" lon="-2.15486">
        <ele>21.2</ele>
        <time>2021-05-08T13:28:40Z</time>
      </trkpt>
      <trkpt lat="47.55514" lon="-2.1549">
        <ele>21.1</ele>
        <time>2021-05-08T13:28:42Z</time>
      </trkpt>
      <trkpt lat="47.55515" lon="-2.15492">
        <ele>21</ele>
        <time>2021-05-08T13:28:43Z</time>
      </trkpt>
      <trkpt lat="47.55516" lon="-2.15496">
        <ele>21</ele>
        <time>2021-05-08T13:28:44Z</time>
      </trkpt>
      <trkpt lat="47.55517" lon="-2.15498">
        <ele>20.9</ele>
        <time>2021-05-08T13:28:45Z</time>
      </trkpt>
      <trkpt lat="47.55519" lon="-2.15502">
        <ele>20.9</ele>
        <time>2021-05-08T13:28:47Z</time>
      </trkpt>
      <trkpt lat="47.55521" lon="-2.15507">
        <ele>20.8</ele>
        <time>2021-05-08T13:28:48Z</time>
      </trkpt>
      <trkpt lat="47.55523" lon="-2.15512">
        <ele>20.8</ele>
        <time>2021-05-08T13:28:49Z</time>
      </trkpt>
      <trkpt lat="47.55526" lon="-2.15518">
        <ele>20.9</ele>
        <time>2021-05-08T13:28:50Z</time>
      </trkpt>
      <trkpt lat="47.55531" lon="-2.15525">
        <ele>20.9</ele>
        <time>2021-05-08T13:28:52Z</time>
      </trkpt>
      <trkpt lat="47.55537" lon="-2.15534">
        <ele>21.1</ele>
        <time>2021-05-08T13:28:54Z</time>
      </trkpt>
      <trkpt lat="47.5554" lon="-2.15539">
        <ele>21.1</ele>
        <time>2021-05-08T13:28:55Z</time>
      </trkpt>
      <trkpt lat="47.55547" lon="-2.15547">
        <ele>21.3</ele>
        <time>2021-05-08T13:28:57Z</time>
      </trkpt>
      <trkpt lat="47.55551" lon="-2.15551">
        <ele>21.4</ele>
        <time>2021-05-08T13:28:58Z</time>
      </trkpt>
      <trkpt lat="47.55557" lon="-2.15559">
        <ele>21.6</ele>
        <time>2021-05-08T13:28:59Z</time>
      </trkpt>
      <trkpt lat="47.55561" lon="-2.15564">
        <ele>21.7</ele>
        <time>2021-05-08T13:29:01Z</time>
      </trkpt>
      <trkpt lat="47.55566" lon="-2.1557">
        <ele>21.9</ele>
        <time>2021-05-08T13:29:02Z</time>
      </trkpt>
      <trkpt lat="47.55569" lon="-2.15575">
        <ele>22</ele>
        <time>2021-05-08T13:29:04Z</time>
      </trkpt>
      <trkpt lat="47.55573" lon="-2.15579">
        <ele>22.1</ele>
        <time>2021-05-08T13:29:05Z</time>
      </trkpt>
      <trkpt lat="47.55578" lon="-2.15587">
        <ele>22.3</ele>
        <time>2021-05-08T13:29:07Z</time>
      </trkpt>
      <trkpt lat="47.55584" lon="-2.15594">
        <ele>22.4</ele>
        <time>2021-05-08T13:29:08Z</time>
      </trkpt>
      <trkpt lat="47.5559" lon="-2.15602">
        <ele>22.5</ele>
        <time>2021-05-08T13:29:10Z</time>
      </trkpt>
      <trkpt lat="47.55593" lon="-2.15608">
        <ele>22.6</ele>
        <time>2021-05-08T13:29:11Z</time>
      </trkpt>
      <trkpt lat="47.556" lon="-2.1562">
        <ele>22.7</ele>
        <time>2021-05-08T13:29:13Z</time>
      </trkpt>
      <trkpt lat="47.55603" lon="-2.15625">
        <ele>22.8</ele>
        <time>2021-05-08T13:29:14Z</time>
      </trkpt>
      <trkpt lat="47.55609" lon="-2.15635">
        <ele>22.9</ele>
        <time>2021-05-08T13:29:16Z</time>
      </trkpt>
      <trkpt lat="47.55615" lon="-2.15643">
        <ele>22.9</ele>
        <time>2021-05-08T13:29:18Z</time>
      </trkpt>
      <trkpt lat="47.5562" lon="-2.1565">
        <ele>23</ele>
        <time>2021-05-08T13:29:20Z</time>
      </trkpt>
      <trkpt lat="47.55625" lon="-2.1566">
        <ele>23.1</ele>
        <time>2021-05-08T13:29:22Z</time>
      </trkpt>
      <trkpt lat="47.55628" lon="-2.15666">
        <ele>23.1</ele>
        <time>2021-05-08T13:29:23Z</time>
      </trkpt>
      <trkpt lat="47.55633" lon="-2.1568">
        <ele>23.3</ele>
        <time>2021-05-08T13:29:25Z</time>
      </trkpt>
      <trkpt lat="47.55638" lon="-2.15693">
        <ele>23.5</ele>
        <time>2021-05-08T13:29:27Z</time>
      </trkpt>
      <trkpt lat="47.55643" lon="-2.15706">
        <ele>23.7</ele>
        <time>2021-05-08T13:29:29Z</time>
      </trkpt>
      <trkpt lat="47.55649" lon="-2.15718">
        <ele>23.9</ele>
        <time>2021-05-08T13:29:31Z</time>
      </trkpt>
      <trkpt lat="47.55652" lon="-2.15729">
        <ele>24.1</ele>
        <time>2021-05-08T13:29:33Z</time>
      </trkpt>
      <trkpt lat="47.55654" lon="-2.15737">
        <ele>24.2</ele>
        <time>2021-05-08T13:29:34Z</time>
      </trkpt>
      <trkpt lat="47.55655" lon="-2.15749">
        <ele>24.3</ele>
        <time>2021-05-08T13:29:36Z</time>
      </trkpt>
      <trkpt lat="47.55655" lon="-2.15757">
        <ele>24.4</ele>
        <time>2021-05-08T13:29:37Z</time>
      </trkpt>
      <trkpt lat="47.55657" lon="-2.15772">
        <ele>24.5</ele>
        <time>2021-05-08T13:29:39Z</time>
      </trkpt>
      <trkpt lat="47.55658" lon="-2.15781">
        <ele>24.6</ele>
        <time>2021-05-08T13:29:40Z</time>
      </trkpt>
      <trkpt lat="47.55661" lon="-2.15796">
        <ele>24.8</ele>
        <time>2021-05-08T13:29:42Z</time>
      </trkpt>
      <trkpt lat="47.55664" lon="-2.15814">
        <ele>25.1</ele>
        <time>2021-05-08T13:29:44Z</time>
      </trkpt>
      <trkpt lat="47.55666" lon="-2.15831">
        <ele>25.5</ele>
        <time>2021-05-08T13:29:46Z</time>
      </trkpt>
      <trkpt lat="47.55668" lon="-2.15848">
        <ele>25.8</ele>
        <time>2021-05-08T13:29:48Z</time>
      </trkpt>
      <trkpt lat="47.55671" lon="-2.15863">
        <ele>26.2</ele>
        <time>2021-05-08T13:29:50Z</time>
      </trkpt>
      <trkpt lat="47.55674" lon="-2.15868">
        <ele>25.9</ele>
        <time>2021-05-08T13:29:51Z</time>
      </trkpt>
      <trkpt lat="47.5568" lon="-2.15872">
        <ele>25.7</ele>
        <time>2021-05-08T13:29:53Z</time>
      </trkpt>
      <trkpt lat="47.55682" lon="-2.15871">
        <ele>25.7</ele>
        <time>2021-05-08T13:29:54Z</time>
      </trkpt>
      <trkpt lat="47.55685" lon="-2.15867">
        <ele>26</ele>
        <time>2021-05-08T13:29:56Z</time>
      </trkpt>
      <trkpt lat="47.55687" lon="-2.15865">
        <ele>26.1</ele>
        <time>2021-05-08T13:29:57Z</time>
      </trkpt>
      <trkpt lat="47.5569" lon="-2.15862">
        <ele>26.6</ele>
        <time>2021-05-08T13:29:59Z</time>
      </trkpt>
      <trkpt lat="47.55693" lon="-2.15859">
        <ele>27.1</ele>
        <time>2021-05-08T13:30:01Z</time>
      </trkpt>
      <trkpt lat="47.55694" lon="-2.15859">
        <ele>26.9</ele>
        <time>2021-05-08T13:30:02Z</time>
      </trkpt>
      <trkpt lat="47.55696" lon="-2.15856">
        <ele>27</ele>
        <time>2021-05-08T13:30:04Z</time>
      </trkpt>
      <trkpt lat="47.55697" lon="-2.15856">
        <ele>26.8</ele>
        <time>2021-05-08T13:30:05Z</time>
      </trkpt>
      <trkpt lat="47.557" lon="-2.15854">
        <ele>27.3</ele>
        <time>2021-05-08T13:30:06Z</time>
      </trkpt>
      <trkpt lat="47.55705" lon="-2.15853">
        <ele>27.7</ele>
        <time>2021-05-08T13:30:08Z</time>
      </trkpt>
      <trkpt lat="47.55706" lon="-2.15853">
        <ele>27.5</ele>
        <time>2021-05-08T13:30:09Z</time>
      </trkpt>
      <trkpt lat="47.55709" lon="-2.15853">
        <ele>27.6</ele>
        <time>2021-05-08T13:30:11Z</time>
      </trkpt>
      <trkpt lat="47.55712" lon="-2.15854">
        <ele>27.7</ele>
        <time>2021-05-08T13:30:12Z</time>
      </trkpt>
      <trkpt lat="47.55716" lon="-2.15856">
        <ele>27.8</ele>
        <time>2021-05-08T13:30:14Z</time>
      </trkpt>
      <trkpt lat="47.55718" lon="-2.15857">
        <ele>27.6</ele>
        <time>2021-05-08T13:30:15Z</time>
      </trkpt>
      <trkpt lat="47.55722" lon="-2.15858">
        <ele>28.1</ele>
        <time>2021-05-08T13:30:17Z</time>
      </trkpt>
      <trkpt lat="47.55723" lon="-2.15859">
        <ele>27.9</ele>
        <time>2021-05-08T13:30:18Z</time>
      </trkpt>
      <trkpt lat="47.55726" lon="-2.15859">
        <ele>28</ele>
        <time>2021-05-08T13:30:20Z</time>
      </trkpt>
      <trkpt lat="47.55728" lon="-2.15859">
        <ele>28.1</ele>
        <time>2021-05-08T13:30:21Z</time>
      </trkpt>
      <trkpt lat="47.55731" lon="-2.15859">
        <ele>28.1</ele>
        <time>2021-05-08T13:30:23Z</time>
      </trkpt>
      <trkpt lat="47.55733" lon="-2.1586">
        <ele>27.5</ele>
        <time>2021-05-08T13:30:24Z</time>
      </trkpt>
      <trkpt lat="47.55737" lon="-2.15863">
        <ele>27.9</ele>
        <time>2021-05-08T13:30:26Z</time>
      </trkpt>
      <trkpt lat="47.55739" lon="-2.15865">
        <ele>27.6</ele>
        <time>2021-05-08T13:30:27Z</time>
      </trkpt>
      <trkpt lat="47.5574" lon="-2.15866">
        <ele>27.3</ele>
        <time>2021-05-08T13:30:29Z</time>
      </trkpt>
      <trkpt lat="47.55741" lon="-2.15867">
        <ele>27.1</ele>
        <time>2021-05-08T13:30:30Z</time>
      </trkpt>
      <trkpt lat="47.55744" lon="-2.15869">
        <ele>26.8</ele>
        <time>2021-05-08T13:30:32Z</time>
      </trkpt>
      <trkpt lat="47.55744" lon="-2.15869">
        <ele>26.6</ele>
        <time>2021-05-08T13:30:33Z</time>
      </trkpt>
      <trkpt lat="47.55746" lon="-2.15872">
        <ele>26.7</ele>
        <time>2021-05-08T13:30:35Z</time>
      </trkpt>
      <trkpt lat="47.55747" lon="-2.15875">
        <ele>26.7</ele>
        <time>2021-05-08T13:30:36Z</time>
      </trkpt>
      <trkpt lat="47.55748" lon="-2.15879">
        <ele>26.8</ele>
        <time>2021-05-08T13:30:38Z</time>
      </trkpt>
      <trkpt lat="47.5575" lon="-2.15884">
        <ele>27</ele>
        <time>2021-05-08T13:30:40Z</time>
      </trkpt>
      <trkpt lat="47.55752" lon="-2.15889">
        <ele>27.1</ele>
        <time>2021-05-08T13:30:42Z</time>
      </trkpt>
      <trkpt lat="47.55754" lon="-2.15896">
        <ele>27.2</ele>
        <time>2021-05-08T13:30:44Z</time>
      </trkpt>
      <trkpt lat="47.55756" lon="-2.15901">
        <ele>27.3</ele>
        <time>2021-05-08T13:30:45Z</time>
      </trkpt>
      <trkpt lat="47.55757" lon="-2.15902">
        <ele>27.3</ele>
        <time>2021-05-08T13:30:46Z</time>
      </trkpt>
      <trkpt lat="47.55758" lon="-2.15909">
        <ele>27.4</ele>
        <time>2021-05-08T13:30:48Z</time>
      </trkpt>
      <trkpt lat="47.55759" lon="-2.15913">
        <ele>27.4</ele>
        <time>2021-05-08T13:30:49Z</time>
      </trkpt>
      <trkpt lat="47.55762" lon="-2.15919">
        <ele>27.4</ele>
        <time>2021-05-08T13:30:51Z</time>
      </trkpt>
      <trkpt lat="47.55763" lon="-2.15922">
        <ele>27.4</ele>
        <time>2021-05-08T13:30:52Z</time>
      </trkpt>
      <trkpt lat="47.55765" lon="-2.15926">
        <ele>27.4</ele>
        <time>2021-05-08T13:30:54Z</time>
      </trkpt>
      <trkpt lat="47.55766" lon="-2.1593">
        <ele>27.3</ele>
        <time>2021-05-08T13:30:55Z</time>
      </trkpt>
      <trkpt lat="47.55768" lon="-2.15937">
        <ele>27.2</ele>
        <time>2021-05-08T13:30:57Z</time>
      </trkpt>
      <trkpt lat="47.55771" lon="-2.15944">
        <ele>27.1</ele>
        <time>2021-05-08T13:30:59Z</time>
      </trkpt>
      <trkpt lat="47.55772" lon="-2.15947">
        <ele>27</ele>
        <time>2021-05-08T13:31:00Z</time>
      </trkpt>
      <trkpt lat="47.55775" lon="-2.15953">
        <ele>26.9</ele>
        <time>2021-05-08T13:31:02Z</time>
      </trkpt>
      <trkpt lat="47.55776" lon="-2.15957">
        <ele>26.8</ele>
        <time>2021-05-08T13:31:03Z</time>
      </trkpt>
      <trkpt lat="47.55777" lon="-2.15962">
        <ele>26.7</ele>
        <time>2021-05-08T13:31:05Z</time>
      </trkpt>
      <trkpt lat="47.55778" lon="-2.15963">
        <ele>26.6</ele>
        <time>2021-05-08T13:31:06Z</time>
      </trkpt>
      <trkpt lat="47.55779" lon="-2.15967">
        <ele>26.5</ele>
        <time>2021-05-08T13:31:07Z</time>
      </trkpt>
      <trkpt lat="47.55779" lon="-2.15969">
        <ele>26.5</ele>
        <time>2021-05-08T13:31:08Z</time>
      </trkpt>
      <trkpt lat="47.5578" lon="-2.15974">
        <ele>26.3</ele>
        <time>2021-05-08T13:31:09Z</time>
      </trkpt>
      <trkpt lat="47.55782" lon="-2.15979">
        <ele>26.1</ele>
        <time>2021-05-08T13:31:11Z</time>
      </trkpt>
      <trkpt lat="47.55784" lon="-2.15984">
        <ele>25.9</ele>
        <time>2021-05-08T13:31:12Z</time>
      </trkpt>
      <trkpt lat="47.55786" lon="-2.15989">
        <ele>25.7</ele>
        <time>2021-05-08T13:31:13Z</time>
      </trkpt>
      <trkpt lat="47.5579" lon="-2.15997">
        <ele>25.2</ele>
        <time>2021-05-08T13:31:15Z</time>
      </trkpt>
      <trkpt lat="47.55793" lon="-2.16002">
        <ele>24.9</ele>
        <time>2021-05-08T13:31:16Z</time>
      </trkpt>
      <trkpt lat="47.55794" lon="-2.16007">
        <ele>24.7</ele>
        <time>2021-05-08T13:31:17Z</time>
      </trkpt>
      <trkpt lat="47.55797" lon="-2.16013">
        <ele>24.4</ele>
        <time>2021-05-08T13:31:18Z</time>
      </trkpt>
      <trkpt lat="47.558" lon="-2.16021">
        <ele>24.1</ele>
        <time>2021-05-08T13:31:20Z</time>
      </trkpt>
      <trkpt lat="47.55804" lon="-2.16025">
        <ele>23.8</ele>
        <time>2021-05-08T13:31:21Z</time>
      </trkpt>
      <trkpt lat="47.55808" lon="-2.16029">
        <ele>23.6</ele>
        <time>2021-05-08T13:31:22Z</time>
      </trkpt>
      <trkpt lat="47.55812" lon="-2.16032">
        <ele>23.5</ele>
        <time>2021-05-08T13:31:24Z</time>
      </trkpt>
      <trkpt lat="47.55815" lon="-2.16033">
        <ele>23.4</ele>
        <time>2021-05-08T13:31:25Z</time>
      </trkpt>
      <trkpt lat="47.55819" lon="-2.16034">
        <ele>23.4</ele>
        <time>2021-05-08T13:31:26Z</time>
      </trkpt>
      <trkpt lat="47.55822" lon="-2.16035">
        <ele>23.4</ele>
        <time>2021-05-08T13:31:27Z</time>
      </trkpt>
      <trkpt lat="47.55825" lon="-2.16036">
        <ele>23.4</ele>
        <time>2021-05-08T13:31:29Z</time>
      </trkpt>
      <trkpt lat="47.55828" lon="-2.16037">
        <ele>23.5</ele>
        <time>2021-05-08T13:31:30Z</time>
      </trkpt>
      <trkpt lat="47.55831" lon="-2.16037">
        <ele>23.6</ele>
        <time>2021-05-08T13:31:31Z</time>
      </trkpt>
      <trkpt lat="47.55834" lon="-2.16038">
        <ele>23.7</ele>
        <time>2021-05-08T13:31:32Z</time>
      </trkpt>
      <trkpt lat="47.55838" lon="-2.16041">
        <ele>23.9</ele>
        <time>2021-05-08T13:31:35Z</time>
      </trkpt>
      <trkpt lat="47.5584" lon="-2.16042">
        <ele>24</ele>
        <time>2021-05-08T13:31:36Z</time>
      </trkpt>
      <trkpt lat="47.55841" lon="-2.16042">
        <ele>24</ele>
        <time>2021-05-08T13:31:37Z</time>
      </trkpt>
      <trkpt lat="47.55842" lon="-2.16041">
        <ele>24.1</ele>
        <time>2021-05-08T13:31:38Z</time>
      </trkpt>
      <trkpt lat="47.55843" lon="-2.16041">
        <ele>24.1</ele>
        <time>2021-05-08T13:31:39Z</time>
      </trkpt>
      <trkpt lat="47.55845" lon="-2.1604">
        <ele>24.2</ele>
        <time>2021-05-08T13:31:41Z</time>
      </trkpt>
      <trkpt lat="47.55849" lon="-2.1604">
        <ele>24.4</ele>
        <time>2021-05-08T13:31:43Z</time>
      </trkpt>
      <trkpt lat="47.55854" lon="-2.16039">
        <ele>24.6</ele>
        <time>2021-05-08T13:31:45Z</time>
      </trkpt>
      <trkpt lat="47.55856" lon="-2.16038">
        <ele>24.7</ele>
        <time>2021-05-08T13:31:46Z</time>
      </trkpt>
      <trkpt lat="47.5586" lon="-2.16037">
        <ele>24.9</ele>
        <time>2021-05-08T13:31:47Z</time>
      </trkpt>
      <trkpt lat="47.55861" lon="-2.16036">
        <ele>24.9</ele>
        <time>2021-05-08T13:31:48Z</time>
      </trkpt>
      <trkpt lat="47.55863" lon="-2.16036">
        <ele>25</ele>
        <time>2021-05-08T13:31:49Z</time>
      </trkpt>
      <trkpt lat="47.55867" lon="-2.16033">
        <ele>25.2</ele>
        <time>2021-05-08T13:31:51Z</time>
      </trkpt>
      <trkpt lat="47.55871" lon="-2.16031">
        <ele>25.4</ele>
        <time>2021-05-08T13:31:53Z</time>
      </trkpt>
      <trkpt lat="47.55873" lon="-2.16031">
        <ele>25.4</ele>
        <time>2021-05-08T13:31:54Z</time>
      </trkpt>
      <trkpt lat="47.55874" lon="-2.16031">
        <ele>25.5</ele>
        <time>2021-05-08T13:31:55Z</time>
      </trkpt>
      <trkpt lat="47.55877" lon="-2.1603">
        <ele>25.7</ele>
        <time>2021-05-08T13:31:56Z</time>
      </trkpt>
      <trkpt lat="47.55879" lon="-2.1603">
        <ele>25.9</ele>
        <time>2021-05-08T13:31:57Z</time>
      </trkpt>
      <trkpt lat="47.55882" lon="-2.16028">
        <ele>26.1</ele>
        <time>2021-05-08T13:31:59Z</time>
      </trkpt>
      <trkpt lat="47.55883" lon="-2.16027">
        <ele>26.2</ele>
        <time>2021-05-08T13:32:00Z</time>
      </trkpt>
      <trkpt lat="47.55882" lon="-2.16026">
        <ele>26.3</ele>
        <time>2021-05-08T13:32:02Z</time>
      </trkpt>
      <trkpt lat="47.55882" lon="-2.16026">
        <ele>26.3</ele>
        <time>2021-05-08T13:32:04Z</time>
      </trkpt>
      <trkpt lat="47.55882" lon="-2.16026">
        <ele>26.3</ele>
        <time>2021-05-08T13:32:05Z</time>
      </trkpt>
      <trkpt lat="47.55882" lon="-2.16026">
        <ele>26.3</ele>
        <time>2021-05-08T13:32:06Z</time>
      </trkpt>
      <trkpt lat="47.55882" lon="-2.16026">
        <ele>26.3</ele>
        <time>2021-05-08T13:32:08Z</time>
      </trkpt>
      <trkpt lat="47.55882" lon="-2.16026">
        <ele>26.3</ele>
        <time>2021-05-08T13:32:10Z</time>
      </trkpt>
      <trkpt lat="47.55882" lon="-2.16023">
        <ele>26.5</ele>
        <time>2021-05-08T13:32:13Z</time>
      </trkpt>
      <trkpt lat="47.55882" lon="-2.16021">
        <ele>26.7</ele>
        <time>2021-05-08T13:32:15Z</time>
      </trkpt>
      <trkpt lat="47.55881" lon="-2.16019">
        <ele>26.8</ele>
        <time>2021-05-08T13:32:16Z</time>
      </trkpt>
      <trkpt lat="47.55879" lon="-2.16013">
        <ele>27.3</ele>
        <time>2021-05-08T13:32:18Z</time>
      </trkpt>
      <trkpt lat="47.55878" lon="-2.16012">
        <ele>27.4</ele>
        <time>2021-05-08T13:32:19Z</time>
      </trkpt>
      <trkpt lat="47.55878" lon="-2.16011">
        <ele>27.5</ele>
        <time>2021-05-08T13:32:20Z</time>
      </trkpt>
      <trkpt lat="47.55877" lon="-2.16009">
        <ele>27.6</ele>
        <time>2021-05-08T13:32:21Z</time>
      </trkpt>
      <trkpt lat="47.55875" lon="-2.16006">
        <ele>27.8</ele>
        <time>2021-05-08T13:32:22Z</time>
      </trkpt>
      <trkpt lat="47.55874" lon="-2.16005">
        <ele>27.8</ele>
        <time>2021-05-08T13:32:23Z</time>
      </trkpt>
      <trkpt lat="47.55873" lon="-2.16003">
        <ele>28</ele>
        <time>2021-05-08T13:32:24Z</time>
      </trkpt>
      <trkpt lat="47.55872" lon="-2.16">
        <ele>28.1</ele>
        <time>2021-05-08T13:32:26Z</time>
      </trkpt>
      <trkpt lat="47.55869" lon="-2.15995">
        <ele>28.4</ele>
        <time>2021-05-08T13:32:28Z</time>
      </trkpt>
      <trkpt lat="47.55868" lon="-2.15994">
        <ele>28.5</ele>
        <time>2021-05-08T13:32:29Z</time>
      </trkpt>
      <trkpt lat="47.55866" lon="-2.15993">
        <ele>28.6</ele>
        <time>2021-05-08T13:32:30Z</time>
      </trkpt>
      <trkpt lat="47.55865" lon="-2.15989">
        <ele>28.8</ele>
        <time>2021-05-08T13:32:32Z</time>
      </trkpt>
      <trkpt lat="47.55861" lon="-2.15983">
        <ele>29</ele>
        <time>2021-05-08T13:32:34Z</time>
      </trkpt>
      <trkpt lat="47.5586" lon="-2.15982">
        <ele>29.1</ele>
        <time>2021-05-08T13:32:36Z</time>
      </trkpt>
      <trkpt lat="47.55859" lon="-2.1598">
        <ele>29.2</ele>
        <time>2021-05-08T13:32:37Z</time>
      </trkpt>
      <trkpt lat="47.55859" lon="-2.15977">
        <ele>29.3</ele>
        <time>2021-05-08T13:32:39Z</time>
      </trkpt>
      <trkpt lat="47.55859" lon="-2.15977">
        <ele>29.3</ele>
        <time>2021-05-08T13:32:40Z</time>
      </trkpt>
      <trkpt lat="47.55858" lon="-2.15975">
        <ele>29.4</ele>
        <time>2021-05-08T13:32:41Z</time>
      </trkpt>
      <trkpt lat="47.55856" lon="-2.15969">
        <ele>29.6</ele>
        <time>2021-05-08T13:32:43Z</time>
      </trkpt>
      <trkpt lat="47.55855" lon="-2.15967">
        <ele>29.7</ele>
        <time>2021-05-08T13:32:44Z</time>
      </trkpt>
      <trkpt lat="47.55855" lon="-2.15965">
        <ele>29.8</ele>
        <time>2021-05-08T13:32:45Z</time>
      </trkpt>
      <trkpt lat="47.55854" lon="-2.15962">
        <ele>29.9</ele>
        <time>2021-05-08T13:32:47Z</time>
      </trkpt>
      <trkpt lat="47.55852" lon="-2.15957">
        <ele>30.1</ele>
        <time>2021-05-08T13:32:49Z</time>
      </trkpt>
      <trkpt lat="47.55852" lon="-2.15952">
        <ele>30.2</ele>
        <time>2021-05-08T13:32:50Z</time>
      </trkpt>
      <trkpt lat="47.55851" lon="-2.15951">
        <ele>30.3</ele>
        <time>2021-05-08T13:32:51Z</time>
      </trkpt>
      <trkpt lat="47.55851" lon="-2.15947">
        <ele>30.4</ele>
        <time>2021-05-08T13:32:52Z</time>
      </trkpt>
      <trkpt lat="47.55851" lon="-2.15943">
        <ele>30.6</ele>
        <time>2021-05-08T13:32:54Z</time>
      </trkpt>
      <trkpt lat="47.55851" lon="-2.15941">
        <ele>30.7</ele>
        <time>2021-05-08T13:32:55Z</time>
      </trkpt>
      <trkpt lat="47.55851" lon="-2.15938">
        <ele>30.8</ele>
        <time>2021-05-08T13:32:57Z</time>
      </trkpt>
      <trkpt lat="47.5585" lon="-2.15936">
        <ele>30.8</ele>
        <time>2021-05-08T13:32:58Z</time>
      </trkpt>
      <trkpt lat="47.55849" lon="-2.15934">
        <ele>30.9</ele>
        <time>2021-05-08T13:32:59Z</time>
      </trkpt>
      <trkpt lat="47.55848" lon="-2.1593">
        <ele>31.1</ele>
        <time>2021-05-08T13:33:01Z</time>
      </trkpt>
      <trkpt lat="47.55847" lon="-2.15929">
        <ele>31.1</ele>
        <time>2021-05-08T13:33:02Z</time>
      </trkpt>
      <trkpt lat="47.55846" lon="-2.15926">
        <ele>31.3</ele>
        <time>2021-05-08T13:33:03Z</time>
      </trkpt>
      <trkpt lat="47.55845" lon="-2.15922">
        <ele>31.5</ele>
        <time>2021-05-08T13:33:05Z</time>
      </trkpt>
      <trkpt lat="47.55844" lon="-2.15918">
        <ele>31.7</ele>
        <time>2021-05-08T13:33:06Z</time>
      </trkpt>
      <trkpt lat="47.55844" lon="-2.15916">
        <ele>31.7</ele>
        <time>2021-05-08T13:33:07Z</time>
      </trkpt>
      <trkpt lat="47.55844" lon="-2.15913">
        <ele>31.9</ele>
        <time>2021-05-08T13:33:08Z</time>
      </trkpt>
      <trkpt lat="47.55844" lon="-2.15911">
        <ele>32</ele>
        <time>2021-05-08T13:33:09Z</time>
      </trkpt>
      <trkpt lat="47.55843" lon="-2.15909">
        <ele>32.1</ele>
        <time>2021-05-08T13:33:11Z</time>
      </trkpt>
      <trkpt lat="47.55843" lon="-2.15907">
        <ele>32.2</ele>
        <time>2021-05-08T13:33:12Z</time>
      </trkpt>
      <trkpt lat="47.55843" lon="-2.15902">
        <ele>32.4</ele>
        <time>2021-05-08T13:33:14Z</time>
      </trkpt>
      <trkpt lat="47.55843" lon="-2.159">
        <ele>32.5</ele>
        <time>2021-05-08T13:33:15Z</time>
      </trkpt>
      <trkpt lat="47.55842" lon="-2.15898">
        <ele>32.6</ele>
        <time>2021-05-08T13:33:16Z</time>
      </trkpt>
      <trkpt lat="47.55842" lon="-2.15894">
        <ele>32.9</ele>
        <time>2021-05-08T13:33:18Z</time>
      </trkpt>
      <trkpt lat="47.55842" lon="-2.15892">
        <ele>33</ele>
        <time>2021-05-08T13:33:19Z</time>
      </trkpt>
      <trkpt lat="47.55841" lon="-2.1589">
        <ele>33.1</ele>
        <time>2021-05-08T13:33:21Z</time>
      </trkpt>
      <trkpt lat="47.55841" lon="-2.15888">
        <ele>33.3</ele>
        <time>2021-05-08T13:33:22Z</time>
      </trkpt>
      <trkpt lat="47.55841" lon="-2.15887">
        <ele>33.3</ele>
        <time>2021-05-08T13:33:24Z</time>
      </trkpt>
      <trkpt lat="47.5584" lon="-2.15886">
        <ele>33.4</ele>
        <time>2021-05-08T13:33:25Z</time>
      </trkpt>
      <trkpt lat="47.55839" lon="-2.15885">
        <ele>33.5</ele>
        <time>2021-05-08T13:33:26Z</time>
      </trkpt>
      <trkpt lat="47.55839" lon="-2.15884">
        <ele>33.6</ele>
        <time>2021-05-08T13:33:27Z</time>
      </trkpt>
      <trkpt lat="47.55838" lon="-2.15884">
        <ele>33.7</ele>
        <time>2021-05-08T13:33:28Z</time>
      </trkpt>
      <trkpt lat="47.55837" lon="-2.15883">
        <ele>33.8</ele>
        <time>2021-05-08T13:33:30Z</time>
      </trkpt>
      <trkpt lat="47.55836" lon="-2.15882">
        <ele>33.9</ele>
        <time>2021-05-08T13:33:31Z</time>
      </trkpt>
      <trkpt lat="47.55835" lon="-2.1588">
        <ele>34.1</ele>
        <time>2021-05-08T13:33:32Z</time>
      </trkpt>
      <trkpt lat="47.55834" lon="-2.15876">
        <ele>34.3</ele>
        <time>2021-05-08T13:33:33Z</time>
      </trkpt>
      <trkpt lat="47.55833" lon="-2.15871">
        <ele>34.6</ele>
        <time>2021-05-08T13:33:36Z</time>
      </trkpt>
      <trkpt lat="47.55833" lon="-2.15869">
        <ele>34.7</ele>
        <time>2021-05-08T13:33:37Z</time>
      </trkpt>
      <trkpt lat="47.55833" lon="-2.15866">
        <ele>34.8</ele>
        <time>2021-05-08T13:33:38Z</time>
      </trkpt>
      <trkpt lat="47.55833" lon="-2.15858">
        <ele>35.1</ele>
        <time>2021-05-08T13:33:40Z</time>
      </trkpt>
      <trkpt lat="47.55833" lon="-2.15856">
        <ele>35.2</ele>
        <time>2021-05-08T13:33:41Z</time>
      </trkpt>
      <trkpt lat="47.55835" lon="-2.1585">
        <ele>35.3</ele>
        <time>2021-05-08T13:33:43Z</time>
      </trkpt>
      <trkpt lat="47.55835" lon="-2.15848">
        <ele>35.3</ele>
        <time>2021-05-08T13:33:45Z</time>
      </trkpt>
      <trkpt lat="47.55836" lon="-2.15847">
        <ele>35.3</ele>
        <time>2021-05-08T13:33:46Z</time>
      </trkpt>
      <trkpt lat="47.55836" lon="-2.15844">
        <ele>35.3</ele>
        <time>2021-05-08T13:33:48Z</time>
      </trkpt>
      <trkpt lat="47.55834" lon="-2.15837">
        <ele>35.4</ele>
        <time>2021-05-08T13:33:50Z</time>
      </trkpt>
      <trkpt lat="47.55832" lon="-2.15833">
        <ele>35.4</ele>
        <time>2021-05-08T13:33:52Z</time>
      </trkpt>
      <trkpt lat="47.55832" lon="-2.15829">
        <ele>35.4</ele>
        <time>2021-05-08T13:33:53Z</time>
      </trkpt>
      <trkpt lat="47.55832" lon="-2.15827">
        <ele>35.5</ele>
        <time>2021-05-08T13:33:55Z</time>
      </trkpt>
      <trkpt lat="47.55832" lon="-2.15824">
        <ele>35.5</ele>
        <time>2021-05-08T13:33:56Z</time>
      </trkpt>
      <trkpt lat="47.55833" lon="-2.15821">
        <ele>35.5</ele>
        <time>2021-05-08T13:33:58Z</time>
      </trkpt>
      <trkpt lat="47.55833" lon="-2.1582">
        <ele>35.5</ele>
        <time>2021-05-08T13:33:59Z</time>
      </trkpt>
      <trkpt lat="47.55833" lon="-2.15816">
        <ele>35.6</ele>
        <time>2021-05-08T13:34:01Z</time>
      </trkpt>
      <trkpt lat="47.55834" lon="-2.15813">
        <ele>35.6</ele>
        <time>2021-05-08T13:34:02Z</time>
      </trkpt>
      <trkpt lat="47.55834" lon="-2.15812">
        <ele>35.7</ele>
        <time>2021-05-08T13:34:03Z</time>
      </trkpt>
      <trkpt lat="47.55834" lon="-2.15811">
        <ele>35.7</ele>
        <time>2021-05-08T13:34:04Z</time>
      </trkpt>
      <trkpt lat="47.55837" lon="-2.15808">
        <ele>35.8</ele>
        <time>2021-05-08T13:34:06Z</time>
      </trkpt>
      <trkpt lat="47.55838" lon="-2.15804">
        <ele>36</ele>
        <time>2021-05-08T13:34:07Z</time>
      </trkpt>
      <trkpt lat="47.55838" lon="-2.158">
        <ele>36.1</ele>
        <time>2021-05-08T13:34:09Z</time>
      </trkpt>
      <trkpt lat="47.55838" lon="-2.15796">
        <ele>36.2</ele>
        <time>2021-05-08T13:34:10Z</time>
      </trkpt>
      <trkpt lat="47.5584" lon="-2.15788">
        <ele>36.5</ele>
        <time>2021-05-08T13:34:12Z</time>
      </trkpt>
      <trkpt lat="47.55845" lon="-2.15781">
        <ele>36.8</ele>
        <time>2021-05-08T13:34:14Z</time>
      </trkpt>
      <trkpt lat="47.55848" lon="-2.15779">
        <ele>36.9</ele>
        <time>2021-05-08T13:34:15Z</time>
      </trkpt>
      <trkpt lat="47.55849" lon="-2.15779">
        <ele>36.9</ele>
        <time>2021-05-08T13:34:16Z</time>
      </trkpt>
      <trkpt lat="47.55849" lon="-2.15778">
        <ele>36.9</ele>
        <time>2021-05-08T13:34:17Z</time>
      </trkpt>
      <trkpt lat="47.55849" lon="-2.15778">
        <ele>37</ele>
        <time>2021-05-08T13:34:18Z</time>
      </trkpt>
      <trkpt lat="47.5585" lon="-2.15778">
        <ele>37</ele>
        <time>2021-05-08T13:34:20Z</time>
      </trkpt>
      <trkpt lat="47.5585" lon="-2.15778">
        <ele>37</ele>
        <time>2021-05-08T13:34:21Z</time>
      </trkpt>
      <trkpt lat="47.5585" lon="-2.15777">
        <ele>37</ele>
        <time>2021-05-08T13:34:23Z</time>
      </trkpt>
      <trkpt lat="47.55852" lon="-2.15777">
        <ele>37</ele>
        <time>2021-05-08T13:34:24Z</time>
      </trkpt>
      <trkpt lat="47.55856" lon="-2.15776">
        <ele>37.1</ele>
        <time>2021-05-08T13:34:26Z</time>
      </trkpt>
      <trkpt lat="47.55861" lon="-2.15773">
        <ele>37.2</ele>
        <time>2021-05-08T13:34:28Z</time>
      </trkpt>
      <trkpt lat="47.55863" lon="-2.15772">
        <ele>37.3</ele>
        <time>2021-05-08T13:34:29Z</time>
      </trkpt>
      <trkpt lat="47.55865" lon="-2.15771">
        <ele>37.3</ele>
        <time>2021-05-08T13:34:30Z</time>
      </trkpt>
      <trkpt lat="47.55869" lon="-2.15769">
        <ele>37.3</ele>
        <time>2021-05-08T13:34:31Z</time>
      </trkpt>
      <trkpt lat="47.55873" lon="-2.15767">
        <ele>37.4</ele>
        <time>2021-05-08T13:34:33Z</time>
      </trkpt>
      <trkpt lat="47.55878" lon="-2.15767">
        <ele>37.4</ele>
        <time>2021-05-08T13:34:34Z</time>
      </trkpt>
      <trkpt lat="47.5588" lon="-2.15769">
        <ele>37.5</ele>
        <time>2021-05-08T13:34:36Z</time>
      </trkpt>
      <trkpt lat="47.55883" lon="-2.15771">
        <ele>37.5</ele>
        <time>2021-05-08T13:34:38Z</time>
      </trkpt>
      <trkpt lat="47.55887" lon="-2.15774">
        <ele>37.6</ele>
        <time>2021-05-08T13:34:39Z</time>
      </trkpt>
      <trkpt lat="47.55888" lon="-2.15775">
        <ele>37.6</ele>
        <time>2021-05-08T13:34:40Z</time>
      </trkpt>
      <trkpt lat="47.5589" lon="-2.15777">
        <ele>37.7</ele>
        <time>2021-05-08T13:34:42Z</time>
      </trkpt>
      <trkpt lat="47.55894" lon="-2.15778">
        <ele>37.7</ele>
        <time>2021-05-08T13:34:43Z</time>
      </trkpt>
      <trkpt lat="47.55897" lon="-2.15779">
        <ele>37.8</ele>
        <time>2021-05-08T13:34:44Z</time>
      </trkpt>
      <trkpt lat="47.55899" lon="-2.1578">
        <ele>37.8</ele>
        <time>2021-05-08T13:34:45Z</time>
      </trkpt>
      <trkpt lat="47.55902" lon="-2.15781">
        <ele>37.8</ele>
        <time>2021-05-08T13:34:47Z</time>
      </trkpt>
      <trkpt lat="47.55905" lon="-2.15782">
        <ele>37.8</ele>
        <time>2021-05-08T13:34:48Z</time>
      </trkpt>
      <trkpt lat="47.55906" lon="-2.15782">
        <ele>37.8</ele>
        <time>2021-05-08T13:34:49Z</time>
      </trkpt>
      <trkpt lat="47.55909" lon="-2.15783">
        <ele>37.8</ele>
        <time>2021-05-08T13:34:50Z</time>
      </trkpt>
      <trkpt lat="47.55914" lon="-2.15785">
        <ele>37.8</ele>
        <time>2021-05-08T13:34:52Z</time>
      </trkpt>
      <trkpt lat="47.55917" lon="-2.15786">
        <ele>37.7</ele>
        <time>2021-05-08T13:34:53Z</time>
      </trkpt>
      <trkpt lat="47.5592" lon="-2.15788">
        <ele>37.7</ele>
        <time>2021-05-08T13:34:54Z</time>
      </trkpt>
      <trkpt lat="47.55923" lon="-2.1579">
        <ele>37.6</ele>
        <time>2021-05-08T13:34:55Z</time>
      </trkpt>
      <trkpt lat="47.55926" lon="-2.15793">
        <ele>37.6</ele>
        <time>2021-05-08T13:34:57Z</time>
      </trkpt>
      <trkpt lat="47.5593" lon="-2.15793">
        <ele>37.6</ele>
        <time>2021-05-08T13:34:59Z</time>
      </trkpt>
      <trkpt lat="47.55931" lon="-2.15794">
        <ele>37.6</ele>
        <time>2021-05-08T13:35:00Z</time>
      </trkpt>
      <trkpt lat="47.55934" lon="-2.15795">
        <ele>37.5</ele>
        <time>2021-05-08T13:35:02Z</time>
      </trkpt>
      <trkpt lat="47.55935" lon="-2.15796">
        <ele>37.5</ele>
        <time>2021-05-08T13:35:03Z</time>
      </trkpt>
      <trkpt lat="47.55936" lon="-2.15796">
        <ele>37.5</ele>
        <time>2021-05-08T13:35:04Z</time>
      </trkpt>
      <trkpt lat="47.55937" lon="-2.15796">
        <ele>37.5</ele>
        <time>2021-05-08T13:35:05Z</time>
      </trkpt>
      <trkpt lat="47.5594" lon="-2.15798">
        <ele>37.5</ele>
        <time>2021-05-08T13:35:06Z</time>
      </trkpt>
      <trkpt lat="47.55941" lon="-2.15798">
        <ele>37.4</ele>
        <time>2021-05-08T13:35:07Z</time>
      </trkpt>
      <trkpt lat="47.55943" lon="-2.15799">
        <ele>37.4</ele>
        <time>2021-05-08T13:35:08Z</time>
      </trkpt>
      <trkpt lat="47.55944" lon="-2.158">
        <ele>37.4</ele>
        <time>2021-05-08T13:35:09Z</time>
      </trkpt>
      <trkpt lat="47.55945" lon="-2.15802">
        <ele>37.4</ele>
        <time>2021-05-08T13:35:11Z</time>
      </trkpt>
      <trkpt lat="47.55945" lon="-2.15804">
        <ele>37.3</ele>
        <time>2021-05-08T13:35:12Z</time>
      </trkpt>
      <trkpt lat="47.55947" lon="-2.15806">
        <ele>37.3</ele>
        <time>2021-05-08T13:35:13Z</time>
      </trkpt>
      <trkpt lat="47.55949" lon="-2.15804">
        <ele>37.2</ele>
        <time>2021-05-08T13:35:15Z</time>
      </trkpt>
      <trkpt lat="47.55951" lon="-2.15801">
        <ele>37.1</ele>
        <time>2021-05-08T13:35:16Z</time>
      </trkpt>
      <trkpt lat="47.55954" lon="-2.15799">
        <ele>37</ele>
        <time>2021-05-08T13:35:18Z</time>
      </trkpt>
      <trkpt lat="47.55954" lon="-2.15799">
        <ele>37</ele>
        <time>2021-05-08T13:35:19Z</time>
      </trkpt>
      <trkpt lat="47.55958" lon="-2.15801">
        <ele>36.8</ele>
        <time>2021-05-08T13:35:21Z</time>
      </trkpt>
      <trkpt lat="47.55961" lon="-2.15802">
        <ele>36.7</ele>
        <time>2021-05-08T13:35:22Z</time>
      </trkpt>
      <trkpt lat="47.55964" lon="-2.15803">
        <ele>36.6</ele>
        <time>2021-05-08T13:35:24Z</time>
      </trkpt>
      <trkpt lat="47.55968" lon="-2.15806">
        <ele>36.4</ele>
        <time>2021-05-08T13:35:25Z</time>
      </trkpt>
      <trkpt lat="47.55971" lon="-2.15808">
        <ele>36.3</ele>
        <time>2021-05-08T13:35:27Z</time>
      </trkpt>
      <trkpt lat="47.55972" lon="-2.15809">
        <ele>36.2</ele>
        <time>2021-05-08T13:35:28Z</time>
      </trkpt>
      <trkpt lat="47.55977" lon="-2.15812">
        <ele>35.9</ele>
        <time>2021-05-08T13:35:30Z</time>
      </trkpt>
      <trkpt lat="47.55982" lon="-2.15815">
        <ele>35.7</ele>
        <time>2021-05-08T13:35:32Z</time>
      </trkpt>
      <trkpt lat="47.55986" lon="-2.15817">
        <ele>35.5</ele>
        <time>2021-05-08T13:35:33Z</time>
      </trkpt>
      <trkpt lat="47.5599" lon="-2.15818">
        <ele>35.3</ele>
        <time>2021-05-08T13:35:34Z</time>
      </trkpt>
      <trkpt lat="47.55996" lon="-2.1582">
        <ele>35.1</ele>
        <time>2021-05-08T13:35:35Z</time>
      </trkpt>
      <trkpt lat="47.56002" lon="-2.15821">
        <ele>34.8</ele>
        <time>2021-05-08T13:35:37Z</time>
      </trkpt>
      <trkpt lat="47.56007" lon="-2.15822">
        <ele>34.6</ele>
        <time>2021-05-08T13:35:38Z</time>
      </trkpt>
      <trkpt lat="47.56012" lon="-2.15822">
        <ele>34.3</ele>
        <time>2021-05-08T13:35:39Z</time>
      </trkpt>
      <trkpt lat="47.56018" lon="-2.15824">
        <ele>34</ele>
        <time>2021-05-08T13:35:40Z</time>
      </trkpt>
      <trkpt lat="47.56023" lon="-2.15825">
        <ele>33.7</ele>
        <time>2021-05-08T13:35:42Z</time>
      </trkpt>
      <trkpt lat="47.5603" lon="-2.15828">
        <ele>33.3</ele>
        <time>2021-05-08T13:35:43Z</time>
      </trkpt>
      <trkpt lat="47.56037" lon="-2.15831">
        <ele>32.9</ele>
        <time>2021-05-08T13:35:45Z</time>
      </trkpt>
      <trkpt lat="47.56046" lon="-2.15836">
        <ele>32.3</ele>
        <time>2021-05-08T13:35:46Z</time>
      </trkpt>
      <trkpt lat="47.56062" lon="-2.15844">
        <ele>31</ele>
        <time>2021-05-08T13:35:48Z</time>
      </trkpt>
      <trkpt lat="47.56068" lon="-2.15847">
        <ele>30.5</ele>
        <time>2021-05-08T13:35:49Z</time>
      </trkpt>
      <trkpt lat="47.5608" lon="-2.1585">
        <ele>29.6</ele>
        <time>2021-05-08T13:35:51Z</time>
      </trkpt>
      <trkpt lat="47.56086" lon="-2.15851">
        <ele>29.1</ele>
        <time>2021-05-08T13:35:52Z</time>
      </trkpt>
      <trkpt lat="47.56098" lon="-2.15853">
        <ele>28.5</ele>
        <time>2021-05-08T13:35:54Z</time>
      </trkpt>
      <trkpt lat="47.56108" lon="-2.15855">
        <ele>28</ele>
        <time>2021-05-08T13:35:56Z</time>
      </trkpt>
      <trkpt lat="47.56115" lon="-2.15856">
        <ele>27.8</ele>
        <time>2021-05-08T13:35:57Z</time>
      </trkpt>
      <trkpt lat="47.5612" lon="-2.15857">
        <ele>27.7</ele>
        <time>2021-05-08T13:35:58Z</time>
      </trkpt>
      <trkpt lat="47.56125" lon="-2.15858">
        <ele>27.7</ele>
        <time>2021-05-08T13:36:00Z</time>
      </trkpt>
      <trkpt lat="47.56128" lon="-2.15858">
        <ele>27.7</ele>
        <time>2021-05-08T13:36:01Z</time>
      </trkpt>
      <trkpt lat="47.56131" lon="-2.15858">
        <ele>27.7</ele>
        <time>2021-05-08T13:36:02Z</time>
      </trkpt>
      <trkpt lat="47.56134" lon="-2.15858">
        <ele>27.7</ele>
        <time>2021-05-08T13:36:03Z</time>
      </trkpt>
      <trkpt lat="47.56139" lon="-2.15858">
        <ele>27.7</ele>
        <time>2021-05-08T13:36:05Z</time>
      </trkpt>
      <trkpt lat="47.5614" lon="-2.15858">
        <ele>27.7</ele>
        <time>2021-05-08T13:36:06Z</time>
      </trkpt>
      <trkpt lat="47.56142" lon="-2.15859">
        <ele>27.7</ele>
        <time>2021-05-08T13:36:07Z</time>
      </trkpt>
      <trkpt lat="47.56146" lon="-2.1586">
        <ele>27.8</ele>
        <time>2021-05-08T13:36:09Z</time>
      </trkpt>
      <trkpt lat="47.56149" lon="-2.15861">
        <ele>27.8</ele>
        <time>2021-05-08T13:36:10Z</time>
      </trkpt>
      <trkpt lat="47.56151" lon="-2.15861">
        <ele>27.8</ele>
        <time>2021-05-08T13:36:11Z</time>
      </trkpt>
      <trkpt lat="47.5615" lon="-2.15861">
        <ele>27.9</ele>
        <time>2021-05-08T13:36:12Z</time>
      </trkpt>
      <trkpt lat="47.56151" lon="-2.15861">
        <ele>27.9</ele>
        <time>2021-05-08T13:36:14Z</time>
      </trkpt>
      <trkpt lat="47.56151" lon="-2.15861">
        <ele>27.9</ele>
        <time>2021-05-08T13:36:16Z</time>
      </trkpt>
      <trkpt lat="47.56151" lon="-2.15861">
        <ele>27.9</ele>
        <time>2021-05-08T13:36:18Z</time>
      </trkpt>
      <trkpt lat="47.56151" lon="-2.15861">
        <ele>27.9</ele>
        <time>2021-05-08T13:36:19Z</time>
      </trkpt>
      <trkpt lat="47.56151" lon="-2.15861">
        <ele>27.9</ele>
        <time>2021-05-08T13:36:20Z</time>
      </trkpt>
      <trkpt lat="47.56151" lon="-2.15861">
        <ele>27.9</ele>
        <time>2021-05-08T13:36:21Z</time>
      </trkpt>
      <trkpt lat="47.56153" lon="-2.15861">
        <ele>27.9</ele>
        <time>2021-05-08T13:36:23Z</time>
      </trkpt>
      <trkpt lat="47.56155" lon="-2.15861">
        <ele>27.9</ele>
        <time>2021-05-08T13:36:24Z</time>
      </trkpt>
      <trkpt lat="47.56157" lon="-2.15862">
        <ele>27.9</ele>
        <time>2021-05-08T13:36:26Z</time>
      </trkpt>
      <trkpt lat="47.56159" lon="-2.15862">
        <ele>28</ele>
        <time>2021-05-08T13:36:28Z</time>
      </trkpt>
      <trkpt lat="47.5616" lon="-2.15863">
        <ele>28</ele>
        <time>2021-05-08T13:36:29Z</time>
      </trkpt>
      <trkpt lat="47.56162" lon="-2.15863">
        <ele>28</ele>
        <time>2021-05-08T13:36:30Z</time>
      </trkpt>
      <trkpt lat="47.56163" lon="-2.15863">
        <ele>28</ele>
        <time>2021-05-08T13:36:31Z</time>
      </trkpt>
      <trkpt lat="47.56164" lon="-2.15864">
        <ele>28</ele>
        <time>2021-05-08T13:36:32Z</time>
      </trkpt>
      <trkpt lat="47.56166" lon="-2.15864">
        <ele>28</ele>
        <time>2021-05-08T13:36:34Z</time>
      </trkpt>
      <trkpt lat="47.56166" lon="-2.15864">
        <ele>27.9</ele>
        <time>2021-05-08T13:36:35Z</time>
      </trkpt>
      <trkpt lat="47.56167" lon="-2.15865">
        <ele>27.9</ele>
        <time>2021-05-08T13:36:36Z</time>
      </trkpt>
      <trkpt lat="47.56171" lon="-2.15865">
        <ele>27.8</ele>
        <time>2021-05-08T13:36:38Z</time>
      </trkpt>
      <trkpt lat="47.56174" lon="-2.15866">
        <ele>27.7</ele>
        <time>2021-05-08T13:38:02Z</time>
      </trkpt>
      <trkpt lat="47.56178" lon="-2.15867">
        <ele>27.5</ele>
        <time>2021-05-08T13:38:03Z</time>
      </trkpt>
      <trkpt lat="47.56181" lon="-2.15867">
        <ele>27.2</ele>
        <time>2021-05-08T13:38:04Z</time>
      </trkpt>
      <trkpt lat="47.56182" lon="-2.15867">
        <ele>27</ele>
        <time>2021-05-08T13:38:05Z</time>
      </trkpt>
      <trkpt lat="47.56184" lon="-2.15867">
        <ele>26.9</ele>
        <time>2021-05-08T13:38:06Z</time>
      </trkpt>
      <trkpt lat="47.56184" lon="-2.15866">
        <ele>26.8</ele>
        <time>2021-05-08T13:38:08Z</time>
      </trkpt>
      <trkpt lat="47.56184" lon="-2.15866">
        <ele>26.8</ele>
        <time>2021-05-08T13:38:09Z</time>
      </trkpt>
      <trkpt lat="47.56186" lon="-2.15864">
        <ele>26.5</ele>
        <time>2021-05-08T13:38:11Z</time>
      </trkpt>
      <trkpt lat="47.56187" lon="-2.15863">
        <ele>26.3</ele>
        <time>2021-05-08T13:38:12Z</time>
      </trkpt>
      <trkpt lat="47.5619" lon="-2.15862">
        <ele>23.6</ele>
        <time>2021-05-08T13:38:13Z</time>
      </trkpt>
      <trkpt lat="47.56193" lon="-2.1586">
        <ele>23.6</ele>
        <time>2021-05-08T13:38:15Z</time>
      </trkpt>
      <trkpt lat="47.56193" lon="-2.15859">
        <ele>23.6</ele>
        <time>2021-05-08T13:38:16Z</time>
      </trkpt>
      <trkpt lat="47.56199" lon="-2.1585">
        <ele>18.7</ele>
        <time>2021-05-08T13:38:18Z</time>
      </trkpt>
      <trkpt lat="47.56201" lon="-2.15847">
        <ele>18.9</ele>
        <time>2021-05-08T13:38:19Z</time>
      </trkpt>
      <trkpt lat="47.56202" lon="-2.15845">
        <ele>19.1</ele>
        <time>2021-05-08T13:38:20Z</time>
      </trkpt>
      <trkpt lat="47.56204" lon="-2.15843">
        <ele>19.2</ele>
        <time>2021-05-08T13:38:21Z</time>
      </trkpt>
      <trkpt lat="47.56206" lon="-2.15839">
        <ele>27.4</ele>
        <time>2021-05-08T13:38:23Z</time>
      </trkpt>
      <trkpt lat="47.56206" lon="-2.15834">
        <ele>27.5</ele>
        <time>2021-05-08T13:38:24Z</time>
      </trkpt>
      <trkpt lat="47.56206" lon="-2.1583">
        <ele>27.5</ele>
        <time>2021-05-08T13:38:25Z</time>
      </trkpt>
      <trkpt lat="47.56206" lon="-2.15828">
        <ele>27.6</ele>
        <time>2021-05-08T13:38:27Z</time>
      </trkpt>
      <trkpt lat="47.56206" lon="-2.15826">
        <ele>27.6</ele>
        <time>2021-05-08T13:38:28Z</time>
      </trkpt>
      <trkpt lat="47.56205" lon="-2.15824">
        <ele>27.6</ele>
        <time>2021-05-08T13:38:29Z</time>
      </trkpt>
      <trkpt lat="47.56204" lon="-2.15818">
        <ele>27.7</ele>
        <time>2021-05-08T13:38:30Z</time>
      </trkpt>
      <trkpt lat="47.56203" lon="-2.15816">
        <ele>27.8</ele>
        <time>2021-05-08T13:38:31Z</time>
      </trkpt>
      <trkpt lat="47.56202" lon="-2.15814">
        <ele>27.8</ele>
        <time>2021-05-08T13:38:33Z</time>
      </trkpt>
      <trkpt lat="47.56201" lon="-2.15812">
        <ele>27.8</ele>
        <time>2021-05-08T13:38:34Z</time>
      </trkpt>
      <trkpt lat="47.56199" lon="-2.15806">
        <ele>27.9</ele>
        <time>2021-05-08T13:38:35Z</time>
      </trkpt>
      <trkpt lat="47.56197" lon="-2.15802">
        <ele>28.1</ele>
        <time>2021-05-08T13:38:37Z</time>
      </trkpt>
      <trkpt lat="47.56196" lon="-2.15798">
        <ele>28.2</ele>
        <time>2021-05-08T13:38:39Z</time>
      </trkpt>
      <trkpt lat="47.56194" lon="-2.15795">
        <ele>28.3</ele>
        <time>2021-05-08T13:38:40Z</time>
      </trkpt>
      <trkpt lat="47.56193" lon="-2.15794">
        <ele>28.3</ele>
        <time>2021-05-08T13:38:42Z</time>
      </trkpt>
      <trkpt lat="47.56192" lon="-2.15793">
        <ele>28.4</ele>
        <time>2021-05-08T13:38:43Z</time>
      </trkpt>
      <trkpt lat="47.5619" lon="-2.1579">
        <ele>28.5</ele>
        <time>2021-05-08T13:38:45Z</time>
      </trkpt>
      <trkpt lat="47.56188" lon="-2.15785">
        <ele>28.7</ele>
        <time>2021-05-08T13:38:46Z</time>
      </trkpt>
      <trkpt lat="47.56188" lon="-2.15784">
        <ele>28.8</ele>
        <time>2021-05-08T13:38:47Z</time>
      </trkpt>
      <trkpt lat="47.56186" lon="-2.1578">
        <ele>29</ele>
        <time>2021-05-08T13:38:49Z</time>
      </trkpt>
      <trkpt lat="47.56185" lon="-2.15778">
        <ele>29.1</ele>
        <time>2021-05-08T13:38:51Z</time>
      </trkpt>
      <trkpt lat="47.56184" lon="-2.15775">
        <ele>29.2</ele>
        <time>2021-05-08T13:38:52Z</time>
      </trkpt>
      <trkpt lat="47.56183" lon="-2.15774">
        <ele>29.3</ele>
        <time>2021-05-08T13:38:53Z</time>
      </trkpt>
      <trkpt lat="47.56183" lon="-2.1577">
        <ele>29.5</ele>
        <time>2021-05-08T13:38:55Z</time>
      </trkpt>
      <trkpt lat="47.56182" lon="-2.15769">
        <ele>29.6</ele>
        <time>2021-05-08T13:38:56Z</time>
      </trkpt>
      <trkpt lat="47.56182" lon="-2.15767">
        <ele>29.7</ele>
        <time>2021-05-08T13:38:57Z</time>
      </trkpt>
      <trkpt lat="47.56182" lon="-2.15766">
        <ele>29.8</ele>
        <time>2021-05-08T13:38:58Z</time>
      </trkpt>
      <trkpt lat="47.56182" lon="-2.15764">
        <ele>29.9</ele>
        <time>2021-05-08T13:38:59Z</time>
      </trkpt>
      <trkpt lat="47.56182" lon="-2.15762">
        <ele>30</ele>
        <time>2021-05-08T13:39:01Z</time>
      </trkpt>
      <trkpt lat="47.56182" lon="-2.15761">
        <ele>30.1</ele>
        <time>2021-05-08T13:39:03Z</time>
      </trkpt>
      <trkpt lat="47.56181" lon="-2.15759">
        <ele>30.1</ele>
        <time>2021-05-08T13:39:04Z</time>
      </trkpt>
      <trkpt lat="47.56181" lon="-2.15756">
        <ele>30.3</ele>
        <time>2021-05-08T13:39:05Z</time>
      </trkpt>
      <trkpt lat="47.56181" lon="-2.15751">
        <ele>30.6</ele>
        <time>2021-05-08T13:39:07Z</time>
      </trkpt>
      <trkpt lat="47.56181" lon="-2.15745">
        <ele>30.9</ele>
        <time>2021-05-08T13:39:09Z</time>
      </trkpt>
      <trkpt lat="47.56183" lon="-2.15736">
        <ele>31.4</ele>
        <time>2021-05-08T13:39:11Z</time>
      </trkpt>
      <trkpt lat="47.56185" lon="-2.15731">
        <ele>31.7</ele>
        <time>2021-05-08T13:39:12Z</time>
      </trkpt>
      <trkpt lat="47.56186" lon="-2.15725">
        <ele>32</ele>
        <time>2021-05-08T13:39:14Z</time>
      </trkpt>
      <trkpt lat="47.56187" lon="-2.15722">
        <ele>32.2</ele>
        <time>2021-05-08T13:39:16Z</time>
      </trkpt>
      <trkpt lat="47.56187" lon="-2.1572">
        <ele>32.3</ele>
        <time>2021-05-08T13:39:17Z</time>
      </trkpt>
      <trkpt lat="47.56187" lon="-2.15719">
        <ele>32.4</ele>
        <time>2021-05-08T13:39:18Z</time>
      </trkpt>
      <trkpt lat="47.56187" lon="-2.15717">
        <ele>32.5</ele>
        <time>2021-05-08T13:39:20Z</time>
      </trkpt>
      <trkpt lat="47.56187" lon="-2.15716">
        <ele>32.5</ele>
        <time>2021-05-08T13:39:21Z</time>
      </trkpt>
      <trkpt lat="47.56186" lon="-2.15711">
        <ele>32.8</ele>
        <time>2021-05-08T13:39:22Z</time>
      </trkpt>
      <trkpt lat="47.56186" lon="-2.1571">
        <ele>32.9</ele>
        <time>2021-05-08T13:39:23Z</time>
      </trkpt>
      <trkpt lat="47.56185" lon="-2.15703">
        <ele>33.3</ele>
        <time>2021-05-08T13:39:25Z</time>
      </trkpt>
      <trkpt lat="47.56184" lon="-2.157">
        <ele>33.4</ele>
        <time>2021-05-08T13:39:26Z</time>
      </trkpt>
      <trkpt lat="47.56184" lon="-2.15696">
        <ele>33.7</ele>
        <time>2021-05-08T13:39:28Z</time>
      </trkpt>
      <trkpt lat="47.56184" lon="-2.15694">
        <ele>33.8</ele>
        <time>2021-05-08T13:39:29Z</time>
      </trkpt>
      <trkpt lat="47.56183" lon="-2.15692">
        <ele>33.9</ele>
        <time>2021-05-08T13:39:30Z</time>
      </trkpt>
      <trkpt lat="47.56182" lon="-2.15687">
        <ele>34.2</ele>
        <time>2021-05-08T13:39:32Z</time>
      </trkpt>
      <trkpt lat="47.56182" lon="-2.15683">
        <ele>34.4</ele>
        <time>2021-05-08T13:39:34Z</time>
      </trkpt>
      <trkpt lat="47.56182" lon="-2.15681">
        <ele>34.5</ele>
        <time>2021-05-08T13:39:35Z</time>
      </trkpt>
      <trkpt lat="47.56181" lon="-2.15679">
        <ele>34.6</ele>
        <time>2021-05-08T13:39:36Z</time>
      </trkpt>
      <trkpt lat="47.56181" lon="-2.15676">
        <ele>34.7</ele>
        <time>2021-05-08T13:39:38Z</time>
      </trkpt>
      <trkpt lat="47.56179" lon="-2.15668">
        <ele>35.1</ele>
        <time>2021-05-08T13:39:40Z</time>
      </trkpt>
      <trkpt lat="47.56179" lon="-2.15666">
        <ele>35.2</ele>
        <time>2021-05-08T13:39:41Z</time>
      </trkpt>
      <trkpt lat="47.56178" lon="-2.15663">
        <ele>35.4</ele>
        <time>2021-05-08T13:39:42Z</time>
      </trkpt>
      <trkpt lat="47.56177" lon="-2.15659">
        <ele>35.6</ele>
        <time>2021-05-08T13:39:43Z</time>
      </trkpt>
      <trkpt lat="47.56177" lon="-2.15658">
        <ele>35.7</ele>
        <time>2021-05-08T13:39:44Z</time>
      </trkpt>
      <trkpt lat="47.56176" lon="-2.15655">
        <ele>35.8</ele>
        <time>2021-05-08T13:39:46Z</time>
      </trkpt>
      <trkpt lat="47.56176" lon="-2.15655">
        <ele>35.8</ele>
        <time>2021-05-08T13:39:48Z</time>
      </trkpt>
      <trkpt lat="47.56176" lon="-2.15654">
        <ele>35.9</ele>
        <time>2021-05-08T13:39:49Z</time>
      </trkpt>
      <trkpt lat="47.56176" lon="-2.15652">
        <ele>36</ele>
        <time>2021-05-08T13:39:51Z</time>
      </trkpt>
      <trkpt lat="47.56175" lon="-2.15647">
        <ele>36.3</ele>
        <time>2021-05-08T13:39:53Z</time>
      </trkpt>
      <trkpt lat="47.56175" lon="-2.15646">
        <ele>36.4</ele>
        <time>2021-05-08T13:39:54Z</time>
      </trkpt>
      <trkpt lat="47.56174" lon="-2.15643">
        <ele>36.6</ele>
        <time>2021-05-08T13:39:55Z</time>
      </trkpt>
      <trkpt lat="47.56173" lon="-2.15639">
        <ele>36.8</ele>
        <time>2021-05-08T13:39:56Z</time>
      </trkpt>
      <trkpt lat="47.56172" lon="-2.15636">
        <ele>37.1</ele>
        <time>2021-05-08T13:39:58Z</time>
      </trkpt>
      <trkpt lat="47.5617" lon="-2.15632">
        <ele>37.4</ele>
        <time>2021-05-08T13:39:59Z</time>
      </trkpt>
      <trkpt lat="47.5617" lon="-2.15631">
        <ele>37.6</ele>
        <time>2021-05-08T13:40:00Z</time>
      </trkpt>
      <trkpt lat="47.56169" lon="-2.15629">
        <ele>37.7</ele>
        <time>2021-05-08T13:40:02Z</time>
      </trkpt>
      <trkpt lat="47.56168" lon="-2.15627">
        <ele>37.9</ele>
        <time>2021-05-08T13:40:03Z</time>
      </trkpt>
      <trkpt lat="47.56167" lon="-2.15625">
        <ele>38.1</ele>
        <time>2021-05-08T13:40:05Z</time>
      </trkpt>
      <trkpt lat="47.56167" lon="-2.15623">
        <ele>38.3</ele>
        <time>2021-05-08T13:40:06Z</time>
      </trkpt>
      <trkpt lat="47.56166" lon="-2.15619">
        <ele>38.6</ele>
        <time>2021-05-08T13:40:08Z</time>
      </trkpt>
      <trkpt lat="47.56165" lon="-2.15617">
        <ele>38.8</ele>
        <time>2021-05-08T13:40:10Z</time>
      </trkpt>
      <trkpt lat="47.56165" lon="-2.15614">
        <ele>39</ele>
        <time>2021-05-08T13:40:12Z</time>
      </trkpt>
      <trkpt lat="47.56165" lon="-2.1561">
        <ele>39</ele>
        <time>2021-05-08T13:40:13Z</time>
      </trkpt>
      <trkpt lat="47.56166" lon="-2.15607">
        <ele>39.1</ele>
        <time>2021-05-08T13:40:15Z</time>
      </trkpt>
      <trkpt lat="47.56167" lon="-2.15605">
        <ele>39.1</ele>
        <time>2021-05-08T13:40:16Z</time>
      </trkpt>
      <trkpt lat="47.56169" lon="-2.15601">
        <ele>39.2</ele>
        <time>2021-05-08T13:40:18Z</time>
      </trkpt>
      <trkpt lat="47.56173" lon="-2.15599">
        <ele>39.4</ele>
        <time>2021-05-08T13:40:19Z</time>
      </trkpt>
      <trkpt lat="47.56174" lon="-2.15599">
        <ele>39.6</ele>
        <time>2021-05-08T13:40:20Z</time>
      </trkpt>
      <trkpt lat="47.56178" lon="-2.15596">
        <ele>39.7</ele>
        <time>2021-05-08T13:40:22Z</time>
      </trkpt>
      <trkpt lat="47.5618" lon="-2.15596">
        <ele>39.8</ele>
        <time>2021-05-08T13:40:23Z</time>
      </trkpt>
      <trkpt lat="47.56181" lon="-2.15595">
        <ele>39.8</ele>
        <time>2021-05-08T13:40:24Z</time>
      </trkpt>
      <trkpt lat="47.56184" lon="-2.15593">
        <ele>39.9</ele>
        <time>2021-05-08T13:40:25Z</time>
      </trkpt>
      <trkpt lat="47.56185" lon="-2.15592">
        <ele>40.1</ele>
        <time>2021-05-08T13:40:26Z</time>
      </trkpt>
      <trkpt lat="47.56188" lon="-2.15589">
        <ele>40.2</ele>
        <time>2021-05-08T13:40:28Z</time>
      </trkpt>
      <trkpt lat="47.5619" lon="-2.15587">
        <ele>40.2</ele>
        <time>2021-05-08T13:40:29Z</time>
      </trkpt>
      <trkpt lat="47.56192" lon="-2.15585">
        <ele>40.3</ele>
        <time>2021-05-08T13:40:30Z</time>
      </trkpt>
      <trkpt lat="47.56194" lon="-2.15583">
        <ele>40.4</ele>
        <time>2021-05-08T13:40:32Z</time>
      </trkpt>
      <trkpt lat="47.56197" lon="-2.15582">
        <ele>40.6</ele>
        <time>2021-05-08T13:40:33Z</time>
      </trkpt>
      <trkpt lat="47.56201" lon="-2.15583">
        <ele>40.7</ele>
        <time>2021-05-08T13:40:35Z</time>
      </trkpt>
      <trkpt lat="47.56205" lon="-2.15584">
        <ele>40.9</ele>
        <time>2021-05-08T13:40:36Z</time>
      </trkpt>
      <trkpt lat="47.5621" lon="-2.15584">
        <ele>41.1</ele>
        <time>2021-05-08T13:40:38Z</time>
      </trkpt>
      <trkpt lat="47.56213" lon="-2.15582">
        <ele>41.2</ele>
        <time>2021-05-08T13:40:39Z</time>
      </trkpt>
      <trkpt lat="47.56214" lon="-2.15582">
        <ele>41.3</ele>
        <time>2021-05-08T13:40:40Z</time>
      </trkpt>
      <trkpt lat="47.56217" lon="-2.15579">
        <ele>41.3</ele>
        <time>2021-05-08T13:40:42Z</time>
      </trkpt>
      <trkpt lat="47.56217" lon="-2.15578">
        <ele>41.4</ele>
        <time>2021-05-08T13:40:43Z</time>
      </trkpt>
      <trkpt lat="47.5622" lon="-2.15573">
        <ele>41.4</ele>
        <time>2021-05-08T13:40:45Z</time>
      </trkpt>
      <trkpt lat="47.5622" lon="-2.15571">
        <ele>41.3</ele>
        <time>2021-05-08T13:40:46Z</time>
      </trkpt>
      <trkpt lat="47.56222" lon="-2.15566">
        <ele>41.3</ele>
        <time>2021-05-08T13:40:48Z</time>
      </trkpt>
      <trkpt lat="47.56222" lon="-2.15565">
        <ele>41.3</ele>
        <time>2021-05-08T13:40:49Z</time>
      </trkpt>
      <trkpt lat="47.56225" lon="-2.1556">
        <ele>41.3</ele>
        <time>2021-05-08T13:40:50Z</time>
      </trkpt>
      <trkpt lat="47.56226" lon="-2.15554">
        <ele>41.2</ele>
        <time>2021-05-08T13:40:52Z</time>
      </trkpt>
      <trkpt lat="47.56225" lon="-2.15549">
        <ele>41.1</ele>
        <time>2021-05-08T13:40:53Z</time>
      </trkpt>
      <trkpt lat="47.56226" lon="-2.15543">
        <ele>41</ele>
        <time>2021-05-08T13:40:55Z</time>
      </trkpt>
      <trkpt lat="47.56227" lon="-2.1554">
        <ele>40.8</ele>
        <time>2021-05-08T13:40:56Z</time>
      </trkpt>
      <trkpt lat="47.56229" lon="-2.15536">
        <ele>40.8</ele>
        <time>2021-05-08T13:40:57Z</time>
      </trkpt>
      <trkpt lat="47.56229" lon="-2.15535">
        <ele>40.8</ele>
        <time>2021-05-08T13:40:58Z</time>
      </trkpt>
      <trkpt lat="47.56231" lon="-2.1553">
        <ele>40.8</ele>
        <time>2021-05-08T13:41:00Z</time>
      </trkpt>
      <trkpt lat="47.56232" lon="-2.15528">
        <ele>40.6</ele>
        <time>2021-05-08T13:41:01Z</time>
      </trkpt>
      <trkpt lat="47.56234" lon="-2.15525">
        <ele>40.6</ele>
        <time>2021-05-08T13:41:03Z</time>
      </trkpt>
      <trkpt lat="47.56235" lon="-2.15524">
        <ele>40.6</ele>
        <time>2021-05-08T13:41:04Z</time>
      </trkpt>
      <trkpt lat="47.56236" lon="-2.15523">
        <ele>40.6</ele>
        <time>2021-05-08T13:41:05Z</time>
      </trkpt>
      <trkpt lat="47.56239" lon="-2.15525">
        <ele>40.7</ele>
        <time>2021-05-08T13:41:07Z</time>
      </trkpt>
      <trkpt lat="47.56242" lon="-2.15526">
        <ele>40.9</ele>
        <time>2021-05-08T13:41:09Z</time>
      </trkpt>
      <trkpt lat="47.56243" lon="-2.15527">
        <ele>41</ele>
        <time>2021-05-08T13:41:10Z</time>
      </trkpt>
      <trkpt lat="47.56244" lon="-2.15526">
        <ele>41</ele>
        <time>2021-05-08T13:41:11Z</time>
      </trkpt>
      <trkpt lat="47.56247" lon="-2.15522">
        <ele>40.9</ele>
        <time>2021-05-08T13:41:13Z</time>
      </trkpt>
      <trkpt lat="47.56248" lon="-2.15518">
        <ele>40.8</ele>
        <time>2021-05-08T13:41:14Z</time>
      </trkpt>
      <trkpt lat="47.56248" lon="-2.15516">
        <ele>40.7</ele>
        <time>2021-05-08T13:41:15Z</time>
      </trkpt>
      <trkpt lat="47.56251" lon="-2.1551">
        <ele>40.6</ele>
        <time>2021-05-08T13:41:17Z</time>
      </trkpt>
      <trkpt lat="47.56254" lon="-2.15505">
        <ele>40.5</ele>
        <time>2021-05-08T13:41:19Z</time>
      </trkpt>
      <trkpt lat="47.56256" lon="-2.15502">
        <ele>40.4</ele>
        <time>2021-05-08T13:41:20Z</time>
      </trkpt>
      <trkpt lat="47.56257" lon="-2.15501">
        <ele>40.5</ele>
        <time>2021-05-08T13:41:21Z</time>
      </trkpt>
      <trkpt lat="47.56258" lon="-2.15502">
        <ele>40.6</ele>
        <time>2021-05-08T13:41:22Z</time>
      </trkpt>
      <trkpt lat="47.5626" lon="-2.15504">
        <ele>40.7</ele>
        <time>2021-05-08T13:41:23Z</time>
      </trkpt>
      <trkpt lat="47.56263" lon="-2.15503">
        <ele>40.7</ele>
        <time>2021-05-08T13:41:25Z</time>
      </trkpt>
      <trkpt lat="47.56264" lon="-2.15502">
        <ele>40.8</ele>
        <time>2021-05-08T13:41:26Z</time>
      </trkpt>
      <trkpt lat="47.56266" lon="-2.15499">
        <ele>40.8</ele>
        <time>2021-05-08T13:41:28Z</time>
      </trkpt>
      <trkpt lat="47.5627" lon="-2.15497">
        <ele>40.9</ele>
        <time>2021-05-08T13:41:29Z</time>
      </trkpt>
      <trkpt lat="47.56273" lon="-2.15497">
        <ele>41.1</ele>
        <time>2021-05-08T13:41:31Z</time>
      </trkpt>
      <trkpt lat="47.56277" lon="-2.15496">
        <ele>41.2</ele>
        <time>2021-05-08T13:41:33Z</time>
      </trkpt>
      <trkpt lat="47.56281" lon="-2.15496">
        <ele>41.5</ele>
        <time>2021-05-08T13:41:34Z</time>
      </trkpt>
      <trkpt lat="47.56285" lon="-2.15497">
        <ele>41.6</ele>
        <time>2021-05-08T13:41:36Z</time>
      </trkpt>
      <trkpt lat="47.56288" lon="-2.15497">
        <ele>41.7</ele>
        <time>2021-05-08T13:41:37Z</time>
      </trkpt>
      <trkpt lat="47.56293" lon="-2.15494">
        <ele>41.8</ele>
        <time>2021-05-08T13:41:38Z</time>
      </trkpt>
      <trkpt lat="47.56297" lon="-2.15491">
        <ele>41.8</ele>
        <time>2021-05-08T13:41:40Z</time>
      </trkpt>
      <trkpt lat="47.563" lon="-2.15489">
        <ele>41.8</ele>
        <time>2021-05-08T13:41:41Z</time>
      </trkpt>
      <trkpt lat="47.56302" lon="-2.15487">
        <ele>41.8</ele>
        <time>2021-05-08T13:41:42Z</time>
      </trkpt>
      <trkpt lat="47.56306" lon="-2.15483">
        <ele>41.7</ele>
        <time>2021-05-08T13:41:43Z</time>
      </trkpt>
      <trkpt lat="47.56308" lon="-2.15479">
        <ele>41.6</ele>
        <time>2021-05-08T13:41:45Z</time>
      </trkpt>
      <trkpt lat="47.56311" lon="-2.15476">
        <ele>41.5</ele>
        <time>2021-05-08T13:41:46Z</time>
      </trkpt>
      <trkpt lat="47.56313" lon="-2.15475">
        <ele>41.4</ele>
        <time>2021-05-08T13:41:47Z</time>
      </trkpt>
      <trkpt lat="47.56315" lon="-2.15474">
        <ele>41.4</ele>
        <time>2021-05-08T13:41:49Z</time>
      </trkpt>
      <trkpt lat="47.56318" lon="-2.15473">
        <ele>41.2</ele>
        <time>2021-05-08T13:41:50Z</time>
      </trkpt>
      <trkpt lat="47.5632" lon="-2.1547">
        <ele>41.3</ele>
        <time>2021-05-08T13:41:52Z</time>
      </trkpt>
      <trkpt lat="47.56321" lon="-2.15469">
        <ele>41.1</ele>
        <time>2021-05-08T13:41:53Z</time>
      </trkpt>
      <trkpt lat="47.56323" lon="-2.15465">
        <ele>41.2</ele>
        <time>2021-05-08T13:41:54Z</time>
      </trkpt>
      <trkpt lat="47.56324" lon="-2.15464">
        <ele>41</ele>
        <time>2021-05-08T13:41:55Z</time>
      </trkpt>
      <trkpt lat="47.56327" lon="-2.15462">
        <ele>41</ele>
        <time>2021-05-08T13:41:57Z</time>
      </trkpt>
      <trkpt lat="47.56328" lon="-2.15461">
        <ele>41</ele>
        <time>2021-05-08T13:41:58Z</time>
      </trkpt>
      <trkpt lat="47.5633" lon="-2.15457">
        <ele>40.8</ele>
        <time>2021-05-08T13:42:00Z</time>
      </trkpt>
      <trkpt lat="47.56332" lon="-2.15454">
        <ele>40.8</ele>
        <time>2021-05-08T13:42:01Z</time>
      </trkpt>
      <trkpt lat="47.56333" lon="-2.15451">
        <ele>40.6</ele>
        <time>2021-05-08T13:42:02Z</time>
      </trkpt>
      <trkpt lat="47.56335" lon="-2.15447">
        <ele>40.5</ele>
        <time>2021-05-08T13:42:04Z</time>
      </trkpt>
      <trkpt lat="47.56336" lon="-2.15442">
        <ele>40.3</ele>
        <time>2021-05-08T13:42:05Z</time>
      </trkpt>
      <trkpt lat="47.56336" lon="-2.1544">
        <ele>40.3</ele>
        <time>2021-05-08T13:42:06Z</time>
      </trkpt>
      <trkpt lat="47.56336" lon="-2.15437">
        <ele>40.3</ele>
        <time>2021-05-08T13:42:07Z</time>
      </trkpt>
      <trkpt lat="47.56337" lon="-2.15433">
        <ele>40.2</ele>
        <time>2021-05-08T13:42:09Z</time>
      </trkpt>
      <trkpt lat="47.56337" lon="-2.15429">
        <ele>40.1</ele>
        <time>2021-05-08T13:42:11Z</time>
      </trkpt>
      <trkpt lat="47.56335" lon="-2.15424">
        <ele>40.2</ele>
        <time>2021-05-08T13:42:12Z</time>
      </trkpt>
      <trkpt lat="47.56333" lon="-2.15421">
        <ele>40.2</ele>
        <time>2021-05-08T13:42:14Z</time>
      </trkpt>
      <trkpt lat="47.56331" lon="-2.15416">
        <ele>40.3</ele>
        <time>2021-05-08T13:42:16Z</time>
      </trkpt>
      <trkpt lat="47.56332" lon="-2.15412">
        <ele>40.3</ele>
        <time>2021-05-08T13:42:17Z</time>
      </trkpt>
      <trkpt lat="47.56332" lon="-2.15411">
        <ele>40.3</ele>
        <time>2021-05-08T13:42:19Z</time>
      </trkpt>
      <trkpt lat="47.56333" lon="-2.1541">
        <ele>40.2</ele>
        <time>2021-05-08T13:42:21Z</time>
      </trkpt>
      <trkpt lat="47.56334" lon="-2.15408">
        <ele>40.2</ele>
        <time>2021-05-08T13:42:22Z</time>
      </trkpt>
      <trkpt lat="47.56334" lon="-2.15407">
        <ele>40.2</ele>
        <time>2021-05-08T13:42:23Z</time>
      </trkpt>
      <trkpt lat="47.56337" lon="-2.15402">
        <ele>40</ele>
        <time>2021-05-08T13:42:25Z</time>
      </trkpt>
      <trkpt lat="47.56339" lon="-2.15397">
        <ele>39.8</ele>
        <time>2021-05-08T13:42:26Z</time>
      </trkpt>
      <trkpt lat="47.56342" lon="-2.15392">
        <ele>39.5</ele>
        <time>2021-05-08T13:42:27Z</time>
      </trkpt>
      <trkpt lat="47.56345" lon="-2.15387">
        <ele>39.1</ele>
        <time>2021-05-08T13:42:28Z</time>
      </trkpt>
      <trkpt lat="47.56345" lon="-2.15382">
        <ele>39</ele>
        <time>2021-05-08T13:42:30Z</time>
      </trkpt>
      <trkpt lat="47.56343" lon="-2.15379">
        <ele>39.2</ele>
        <time>2021-05-08T13:42:31Z</time>
      </trkpt>
      <trkpt lat="47.56339" lon="-2.15379">
        <ele>39.2</ele>
        <time>2021-05-08T13:42:32Z</time>
      </trkpt>
      <trkpt lat="47.56335" lon="-2.15383">
        <ele>39.8</ele>
        <time>2021-05-08T13:42:34Z</time>
      </trkpt>
      <trkpt lat="47.56334" lon="-2.15384">
        <ele>39.9</ele>
        <time>2021-05-08T13:42:35Z</time>
      </trkpt>
      <trkpt lat="47.56332" lon="-2.15385">
        <ele>39.9</ele>
        <time>2021-05-08T13:42:36Z</time>
      </trkpt>
      <trkpt lat="47.5633" lon="-2.15386">
        <ele>40.1</ele>
        <time>2021-05-08T13:42:37Z</time>
      </trkpt>
      <trkpt lat="47.56327" lon="-2.15382">
        <ele>40.2</ele>
        <time>2021-05-08T13:42:39Z</time>
      </trkpt>
      <trkpt lat="47.56327" lon="-2.15376">
        <ele>40.1</ele>
        <time>2021-05-08T13:42:41Z</time>
      </trkpt>
      <trkpt lat="47.56328" lon="-2.15372">
        <ele>40.1</ele>
        <time>2021-05-08T13:42:42Z</time>
      </trkpt>
      <trkpt lat="47.56328" lon="-2.15366">
        <ele>40</ele>
        <time>2021-05-08T13:42:44Z</time>
      </trkpt>
      <trkpt lat="47.56328" lon="-2.1536">
        <ele>40</ele>
        <time>2021-05-08T13:42:45Z</time>
      </trkpt>
      <trkpt lat="47.56327" lon="-2.15353">
        <ele>39.8</ele>
        <time>2021-05-08T13:42:47Z</time>
      </trkpt>
      <trkpt lat="47.56327" lon="-2.1535">
        <ele>39.9</ele>
        <time>2021-05-08T13:42:48Z</time>
      </trkpt>
      <trkpt lat="47.56326" lon="-2.15348">
        <ele>40.1</ele>
        <time>2021-05-08T13:42:49Z</time>
      </trkpt>
      <trkpt lat="47.56324" lon="-2.15344">
        <ele>40</ele>
        <time>2021-05-08T13:42:50Z</time>
      </trkpt>
      <trkpt lat="47.56323" lon="-2.15343">
        <ele>40.3</ele>
        <time>2021-05-08T13:42:51Z</time>
      </trkpt>
      <trkpt lat="47.5632" lon="-2.1534">
        <ele>40.5</ele>
        <time>2021-05-08T13:42:53Z</time>
      </trkpt>
      <trkpt lat="47.5632" lon="-2.15336">
        <ele>40.4</ele>
        <time>2021-05-08T13:42:54Z</time>
      </trkpt>
      <trkpt lat="47.5632" lon="-2.15334">
        <ele>40.4</ele>
        <time>2021-05-08T13:42:55Z</time>
      </trkpt>
      <trkpt lat="47.56319" lon="-2.15327">
        <ele>40</ele>
        <time>2021-05-08T13:42:57Z</time>
      </trkpt>
      <trkpt lat="47.56318" lon="-2.15324">
        <ele>40.1</ele>
        <time>2021-05-08T13:42:58Z</time>
      </trkpt>
      <trkpt lat="47.56318" lon="-2.15321">
        <ele>40.3</ele>
        <time>2021-05-08T13:42:59Z</time>
      </trkpt>
      <trkpt lat="47.56318" lon="-2.15318">
        <ele>39.8</ele>
        <time>2021-05-08T13:43:00Z</time>
      </trkpt>
      <trkpt lat="47.56319" lon="-2.15314">
        <ele>39.7</ele>
        <time>2021-05-08T13:43:02Z</time>
      </trkpt>
      <trkpt lat="47.56319" lon="-2.15309">
        <ele>39.6</ele>
        <time>2021-05-08T13:43:03Z</time>
      </trkpt>
      <trkpt lat="47.56318" lon="-2.15305">
        <ele>39.8</ele>
        <time>2021-05-08T13:43:05Z</time>
      </trkpt>
      <trkpt lat="47.56318" lon="-2.15301">
        <ele>39.7</ele>
        <time>2021-05-08T13:43:06Z</time>
      </trkpt>
      <trkpt lat="47.56317" lon="-2.15295">
        <ele>39.5</ele>
        <time>2021-05-08T13:43:07Z</time>
      </trkpt>
      <trkpt lat="47.56317" lon="-2.15294">
        <ele>39.5</ele>
        <time>2021-05-08T13:43:08Z</time>
      </trkpt>
      <trkpt lat="47.56315" lon="-2.15288">
        <ele>39</ele>
        <time>2021-05-08T13:43:10Z</time>
      </trkpt>
      <trkpt lat="47.56314" lon="-2.15284">
        <ele>39.1</ele>
        <time>2021-05-08T13:43:11Z</time>
      </trkpt>
      <trkpt lat="47.56313" lon="-2.1528">
        <ele>38.8</ele>
        <time>2021-05-08T13:43:12Z</time>
      </trkpt>
      <trkpt lat="47.56311" lon="-2.15277">
        <ele>39.3</ele>
        <time>2021-05-08T13:43:13Z</time>
      </trkpt>
      <trkpt lat="47.56307" lon="-2.15275">
        <ele>39.5</ele>
        <time>2021-05-08T13:43:15Z</time>
      </trkpt>
      <trkpt lat="47.56304" lon="-2.15274">
        <ele>40</ele>
        <time>2021-05-08T13:43:16Z</time>
      </trkpt>
      <trkpt lat="47.56301" lon="-2.15272">
        <ele>40.5</ele>
        <time>2021-05-08T13:43:17Z</time>
      </trkpt>
      <trkpt lat="47.56298" lon="-2.15271">
        <ele>40.8</ele>
        <time>2021-05-08T13:43:18Z</time>
      </trkpt>
      <trkpt lat="47.56295" lon="-2.15268">
        <ele>41.2</ele>
        <time>2021-05-08T13:43:20Z</time>
      </trkpt>
      <trkpt lat="47.56294" lon="-2.15266">
        <ele>41.5</ele>
        <time>2021-05-08T13:43:21Z</time>
      </trkpt>
      <trkpt lat="47.56297" lon="-2.15261">
        <ele>41</ele>
        <time>2021-05-08T13:43:23Z</time>
      </trkpt>
      <trkpt lat="47.56298" lon="-2.15258">
        <ele>40.5</ele>
        <time>2021-05-08T13:43:24Z</time>
      </trkpt>
      <trkpt lat="47.563" lon="-2.15253">
        <ele>40.4</ele>
        <time>2021-05-08T13:43:26Z</time>
      </trkpt>
      <trkpt lat="47.56304" lon="-2.15253">
        <ele>39.4</ele>
        <time>2021-05-08T13:43:28Z</time>
      </trkpt>
      <trkpt lat="47.56306" lon="-2.15253">
        <ele>39.4</ele>
        <time>2021-05-08T13:43:29Z</time>
      </trkpt>
      <trkpt lat="47.56307" lon="-2.15253">
        <ele>38.9</ele>
        <time>2021-05-08T13:43:30Z</time>
      </trkpt>
      <trkpt lat="47.56311" lon="-2.15253">
        <ele>38.4</ele>
        <time>2021-05-08T13:43:32Z</time>
      </trkpt>
      <trkpt lat="47.56313" lon="-2.15254">
        <ele>38</ele>
        <time>2021-05-08T13:43:33Z</time>
      </trkpt>
      <trkpt lat="47.56317" lon="-2.15253">
        <ele>37.6</ele>
        <time>2021-05-08T13:43:35Z</time>
      </trkpt>
      <trkpt lat="47.56323" lon="-2.15256">
        <ele>37</ele>
        <time>2021-05-08T13:43:37Z</time>
      </trkpt>
      <trkpt lat="47.56325" lon="-2.15258">
        <ele>36.7</ele>
        <time>2021-05-08T13:43:38Z</time>
      </trkpt>
      <trkpt lat="47.56331" lon="-2.15259">
        <ele>36.2</ele>
        <time>2021-05-08T13:43:39Z</time>
      </trkpt>
      <trkpt lat="47.56337" lon="-2.1526">
        <ele>35.8</ele>
        <time>2021-05-08T13:43:41Z</time>
      </trkpt>
      <trkpt lat="47.56342" lon="-2.15264">
        <ele>35.5</ele>
        <time>2021-05-08T13:43:43Z</time>
      </trkpt>
      <trkpt lat="47.56343" lon="-2.15267">
        <ele>35.5</ele>
        <time>2021-05-08T13:43:45Z</time>
      </trkpt>
      <trkpt lat="47.56342" lon="-2.15263">
        <ele>35.4</ele>
        <time>2021-05-08T13:43:47Z</time>
      </trkpt>
      <trkpt lat="47.56342" lon="-2.15262">
        <ele>35.4</ele>
        <time>2021-05-08T13:43:48Z</time>
      </trkpt>
      <trkpt lat="47.56342" lon="-2.15261">
        <ele>35.4</ele>
        <time>2021-05-08T13:43:50Z</time>
      </trkpt>
      <trkpt lat="47.56342" lon="-2.15261">
        <ele>35.4</ele>
        <time>2021-05-08T13:43:51Z</time>
      </trkpt>
      <trkpt lat="47.56342" lon="-2.15261">
        <ele>35.4</ele>
        <time>2021-05-08T13:43:53Z</time>
      </trkpt>
      <trkpt lat="47.56342" lon="-2.15261">
        <ele>35.4</ele>
        <time>2021-05-08T13:43:55Z</time>
      </trkpt>
      <trkpt lat="47.56343" lon="-2.15261">
        <ele>35.5</ele>
        <time>2021-05-08T13:43:56Z</time>
      </trkpt>
      <trkpt lat="47.56343" lon="-2.15261">
        <ele>35.5</ele>
        <time>2021-05-08T13:43:57Z</time>
      </trkpt>
      <trkpt lat="47.56348" lon="-2.15265">
        <ele>35</ele>
        <time>2021-05-08T13:44:25Z</time>
      </trkpt>
      <trkpt lat="47.5635" lon="-2.15268">
        <ele>34.7</ele>
        <time>2021-05-08T13:44:26Z</time>
      </trkpt>
      <trkpt lat="47.56352" lon="-2.15271">
        <ele>34.7</ele>
        <time>2021-05-08T13:44:28Z</time>
      </trkpt>
      <trkpt lat="47.56354" lon="-2.15276">
        <ele>34.3</ele>
        <time>2021-05-08T13:44:29Z</time>
      </trkpt>
      <trkpt lat="47.56356" lon="-2.1528">
        <ele>34</ele>
        <time>2021-05-08T13:44:31Z</time>
      </trkpt>
      <trkpt lat="47.56357" lon="-2.15281">
        <ele>34.1</ele>
        <time>2021-05-08T13:44:32Z</time>
      </trkpt>
      <trkpt lat="47.56359" lon="-2.15282">
        <ele>33.6</ele>
        <time>2021-05-08T13:44:33Z</time>
      </trkpt>
      <trkpt lat="47.5636" lon="-2.15282">
        <ele>33.6</ele>
        <time>2021-05-08T13:44:35Z</time>
      </trkpt>
      <trkpt lat="47.56361" lon="-2.15281">
        <ele>33.2</ele>
        <time>2021-05-08T13:44:36Z</time>
      </trkpt>
      <trkpt lat="47.56364" lon="-2.1528">
        <ele>33.1</ele>
        <time>2021-05-08T13:44:38Z</time>
      </trkpt>
      <trkpt lat="47.56365" lon="-2.15281">
        <ele>32.8</ele>
        <time>2021-05-08T13:44:39Z</time>
      </trkpt>
      <trkpt lat="47.56366" lon="-2.15281">
        <ele>32.8</ele>
        <time>2021-05-08T13:44:40Z</time>
      </trkpt>
      <trkpt lat="47.56367" lon="-2.1528">
        <ele>32.7</ele>
        <time>2021-05-08T13:44:42Z</time>
      </trkpt>
      <trkpt lat="47.56367" lon="-2.1528">
        <ele>32.7</ele>
        <time>2021-05-08T13:44:43Z</time>
      </trkpt>
      <trkpt lat="47.56367" lon="-2.1528">
        <ele>32.3</ele>
        <time>2021-05-08T13:44:45Z</time>
      </trkpt>
      <trkpt lat="47.56368" lon="-2.1528">
        <ele>32.3</ele>
        <time>2021-05-08T13:44:46Z</time>
      </trkpt>
      <trkpt lat="47.56368" lon="-2.1528">
        <ele>32.3</ele>
        <time>2021-05-08T13:44:48Z</time>
      </trkpt>
      <trkpt lat="47.56368" lon="-2.1528">
        <ele>32.3</ele>
        <time>2021-05-08T13:44:49Z</time>
      </trkpt>
      <trkpt lat="47.56369" lon="-2.1528">
        <ele>32.4</ele>
        <time>2021-05-08T13:44:51Z</time>
      </trkpt>
      <trkpt lat="47.56373" lon="-2.15278">
        <ele>31.6</ele>
        <time>2021-05-08T13:45:04Z</time>
      </trkpt>
      <trkpt lat="47.56377" lon="-2.15274">
        <ele>31.1</ele>
        <time>2021-05-08T13:45:06Z</time>
      </trkpt>
      <trkpt lat="47.56379" lon="-2.15272">
        <ele>30.8</ele>
        <time>2021-05-08T13:45:08Z</time>
      </trkpt>
      <trkpt lat="47.56379" lon="-2.15273">
        <ele>30.8</ele>
        <time>2021-05-08T13:45:09Z</time>
      </trkpt>
      <trkpt lat="47.56379" lon="-2.15273">
        <ele>30.9</ele>
        <time>2021-05-08T13:45:10Z</time>
      </trkpt>
      <trkpt lat="47.56379" lon="-2.15273">
        <ele>30.9</ele>
        <time>2021-05-08T13:45:12Z</time>
      </trkpt>
      <trkpt lat="47.56379" lon="-2.15273">
        <ele>30.9</ele>
        <time>2021-05-08T13:45:13Z</time>
      </trkpt>
      <trkpt lat="47.56379" lon="-2.15273">
        <ele>30.9</ele>
        <time>2021-05-08T13:45:14Z</time>
      </trkpt>
      <trkpt lat="47.5638" lon="-2.15272">
        <ele>30.9</ele>
        <time>2021-05-08T13:45:16Z</time>
      </trkpt>
      <trkpt lat="47.5638" lon="-2.15272">
        <ele>30.8</ele>
        <time>2021-05-08T13:45:18Z</time>
      </trkpt>
      <trkpt lat="47.5638" lon="-2.15271">
        <ele>30.8</ele>
        <time>2021-05-08T13:45:19Z</time>
      </trkpt>
      <trkpt lat="47.5638" lon="-2.15271">
        <ele>30.8</ele>
        <time>2021-05-08T13:45:20Z</time>
      </trkpt>
      <trkpt lat="47.5638" lon="-2.15271">
        <ele>30.8</ele>
        <time>2021-05-08T13:45:22Z</time>
      </trkpt>
      <trkpt lat="47.56383" lon="-2.15272">
        <ele>30.7</ele>
        <time>2021-05-08T13:45:33Z</time>
      </trkpt>
      <trkpt lat="47.56388" lon="-2.15271">
        <ele>30</ele>
        <time>2021-05-08T13:45:35Z</time>
      </trkpt>
      <trkpt lat="47.56391" lon="-2.15271">
        <ele>29.7</ele>
        <time>2021-05-08T13:45:36Z</time>
      </trkpt>
      <trkpt lat="47.56393" lon="-2.15272">
        <ele>29.4</ele>
        <time>2021-05-08T13:45:37Z</time>
      </trkpt>
      <trkpt lat="47.56398" lon="-2.15274">
        <ele>29.2</ele>
        <time>2021-05-08T13:45:39Z</time>
      </trkpt>
      <trkpt lat="47.56401" lon="-2.15277">
        <ele>29</ele>
        <time>2021-05-08T13:45:40Z</time>
      </trkpt>
      <trkpt lat="47.56401" lon="-2.15278">
        <ele>29</ele>
        <time>2021-05-08T13:45:41Z</time>
      </trkpt>
      <trkpt lat="47.56404" lon="-2.15282">
        <ele>28.7</ele>
        <time>2021-05-08T13:45:43Z</time>
      </trkpt>
      <trkpt lat="47.56407" lon="-2.15285">
        <ele>28.4</ele>
        <time>2021-05-08T13:45:45Z</time>
      </trkpt>
      <trkpt lat="47.56408" lon="-2.15285">
        <ele>28.1</ele>
        <time>2021-05-08T13:45:46Z</time>
      </trkpt>
      <trkpt lat="47.56409" lon="-2.15285">
        <ele>28.1</ele>
        <time>2021-05-08T13:45:48Z</time>
      </trkpt>
      <trkpt lat="47.5641" lon="-2.15285">
        <ele>28</ele>
        <time>2021-05-08T13:45:49Z</time>
      </trkpt>
      <trkpt lat="47.56411" lon="-2.15285">
        <ele>27.9</ele>
        <time>2021-05-08T13:45:50Z</time>
      </trkpt>
      <trkpt lat="47.56412" lon="-2.15285">
        <ele>27.7</ele>
        <time>2021-05-08T13:45:51Z</time>
      </trkpt>
      <trkpt lat="47.56415" lon="-2.15283">
        <ele>27.1</ele>
        <time>2021-05-08T13:45:53Z</time>
      </trkpt>
      <trkpt lat="47.56417" lon="-2.15281">
        <ele>26.6</ele>
        <time>2021-05-08T13:45:54Z</time>
      </trkpt>
      <trkpt lat="47.56422" lon="-2.15278">
        <ele>25.5</ele>
        <time>2021-05-08T13:45:56Z</time>
      </trkpt>
      <trkpt lat="47.56428" lon="-2.15279">
        <ele>24.3</ele>
        <time>2021-05-08T13:45:58Z</time>
      </trkpt>
      <trkpt lat="47.56432" lon="-2.1528">
        <ele>23.4</ele>
        <time>2021-05-08T13:45:59Z</time>
      </trkpt>
      <trkpt lat="47.56437" lon="-2.15281">
        <ele>22.4</ele>
        <time>2021-05-08T13:46:00Z</time>
      </trkpt>
      <trkpt lat="47.56447" lon="-2.15285">
        <ele>20.7</ele>
        <time>2021-05-08T13:46:02Z</time>
      </trkpt>
      <trkpt lat="47.56451" lon="-2.15286">
        <ele>20.1</ele>
        <time>2021-05-08T13:46:03Z</time>
      </trkpt>
      <trkpt lat="47.56456" lon="-2.15286">
        <ele>19.3</ele>
        <time>2021-05-08T13:46:05Z</time>
      </trkpt>
      <trkpt lat="47.56459" lon="-2.15282">
        <ele>18.8</ele>
        <time>2021-05-08T13:46:07Z</time>
      </trkpt>
      <trkpt lat="47.56459" lon="-2.15277">
        <ele>18.6</ele>
        <time>2021-05-08T13:46:08Z</time>
      </trkpt>
      <trkpt lat="47.56459" lon="-2.15276">
        <ele>18.6</ele>
        <time>2021-05-08T13:46:09Z</time>
      </trkpt>
      <trkpt lat="47.56457" lon="-2.15271">
        <ele>18.7</ele>
        <time>2021-05-08T13:46:11Z</time>
      </trkpt>
      <trkpt lat="47.56456" lon="-2.15269">
        <ele>18.7</ele>
        <time>2021-05-08T13:46:12Z</time>
      </trkpt>
      <trkpt lat="47.56456" lon="-2.15266">
        <ele>18.8</ele>
        <time>2021-05-08T13:46:13Z</time>
      </trkpt>
      <trkpt lat="47.56455" lon="-2.15262">
        <ele>18.9</ele>
        <time>2021-05-08T13:46:14Z</time>
      </trkpt>
      <trkpt lat="47.56454" lon="-2.15261">
        <ele>18.9</ele>
        <time>2021-05-08T13:46:15Z</time>
      </trkpt>
      <trkpt lat="47.56453" lon="-2.15256">
        <ele>19.1</ele>
        <time>2021-05-08T13:46:17Z</time>
      </trkpt>
      <trkpt lat="47.56452" lon="-2.15252">
        <ele>19.2</ele>
        <time>2021-05-08T13:46:18Z</time>
      </trkpt>
      <trkpt lat="47.56451" lon="-2.15251">
        <ele>19.2</ele>
        <time>2021-05-08T13:46:19Z</time>
      </trkpt>
      <trkpt lat="47.56449" lon="-2.15246">
        <ele>19.5</ele>
        <time>2021-05-08T13:46:21Z</time>
      </trkpt>
      <trkpt lat="47.56448" lon="-2.15243">
        <ele>19.6</ele>
        <time>2021-05-08T13:46:22Z</time>
      </trkpt>
      <trkpt lat="47.56447" lon="-2.15237">
        <ele>19.8</ele>
        <time>2021-05-08T13:46:24Z</time>
      </trkpt>
      <trkpt lat="47.56446" lon="-2.15232">
        <ele>20</ele>
        <time>2021-05-08T13:46:26Z</time>
      </trkpt>
      <trkpt lat="47.56444" lon="-2.15227">
        <ele>20.3</ele>
        <time>2021-05-08T13:46:28Z</time>
      </trkpt>
      <trkpt lat="47.56442" lon="-2.15222">
        <ele>20.6</ele>
        <time>2021-05-08T13:46:30Z</time>
      </trkpt>
      <trkpt lat="47.56441" lon="-2.1522">
        <ele>20.7</ele>
        <time>2021-05-08T13:46:31Z</time>
      </trkpt>
      <trkpt lat="47.5644" lon="-2.15215">
        <ele>21</ele>
        <time>2021-05-08T13:46:33Z</time>
      </trkpt>
      <trkpt lat="47.56438" lon="-2.15211">
        <ele>21.2</ele>
        <time>2021-05-08T13:46:35Z</time>
      </trkpt>
      <trkpt lat="47.56437" lon="-2.15208">
        <ele>21.4</ele>
        <time>2021-05-08T13:46:36Z</time>
      </trkpt>
      <trkpt lat="47.56435" lon="-2.15203">
        <ele>21.7</ele>
        <time>2021-05-08T13:46:38Z</time>
      </trkpt>
      <trkpt lat="47.56433" lon="-2.15198">
        <ele>22</ele>
        <time>2021-05-08T13:46:40Z</time>
      </trkpt>
      <trkpt lat="47.56432" lon="-2.15193">
        <ele>22.3</ele>
        <time>2021-05-08T13:46:42Z</time>
      </trkpt>
      <trkpt lat="47.56431" lon="-2.15189">
        <ele>22.6</ele>
        <time>2021-05-08T13:46:44Z</time>
      </trkpt>
      <trkpt lat="47.5643" lon="-2.15186">
        <ele>22.7</ele>
        <time>2021-05-08T13:46:45Z</time>
      </trkpt>
      <trkpt lat="47.56428" lon="-2.15181">
        <ele>23.1</ele>
        <time>2021-05-08T13:46:47Z</time>
      </trkpt>
      <trkpt lat="47.56428" lon="-2.15179">
        <ele>23.2</ele>
        <time>2021-05-08T13:46:48Z</time>
      </trkpt>
      <trkpt lat="47.56426" lon="-2.15174">
        <ele>23.5</ele>
        <time>2021-05-08T13:46:50Z</time>
      </trkpt>
      <trkpt lat="47.56425" lon="-2.1517">
        <ele>23.8</ele>
        <time>2021-05-08T13:46:51Z</time>
      </trkpt>
      <trkpt lat="47.56425" lon="-2.15169">
        <ele>23.9</ele>
        <time>2021-05-08T13:46:52Z</time>
      </trkpt>
      <trkpt lat="47.56423" lon="-2.15164">
        <ele>24.2</ele>
        <time>2021-05-08T13:46:54Z</time>
      </trkpt>
      <trkpt lat="47.56422" lon="-2.15161">
        <ele>24.4</ele>
        <time>2021-05-08T13:46:55Z</time>
      </trkpt>
      <trkpt lat="47.56421" lon="-2.15158">
        <ele>24.6</ele>
        <time>2021-05-08T13:46:57Z</time>
      </trkpt>
      <trkpt lat="47.56418" lon="-2.15152">
        <ele>25.1</ele>
        <time>2021-05-08T13:46:59Z</time>
      </trkpt>
      <trkpt lat="47.56418" lon="-2.1515">
        <ele>25.2</ele>
        <time>2021-05-08T13:47:00Z</time>
      </trkpt>
      <trkpt lat="47.56417" lon="-2.15148">
        <ele>25.3</ele>
        <time>2021-05-08T13:47:01Z</time>
      </trkpt>
      <trkpt lat="47.56416" lon="-2.15143">
        <ele>25.6</ele>
        <time>2021-05-08T13:47:03Z</time>
      </trkpt>
      <trkpt lat="47.56416" lon="-2.15142">
        <ele>25.7</ele>
        <time>2021-05-08T13:47:04Z</time>
      </trkpt>
      <trkpt lat="47.56415" lon="-2.15139">
        <ele>25.9</ele>
        <time>2021-05-08T13:47:05Z</time>
      </trkpt>
      <trkpt lat="47.56414" lon="-2.15136">
        <ele>26.2</ele>
        <time>2021-05-08T13:47:07Z</time>
      </trkpt>
      <trkpt lat="47.56413" lon="-2.15133">
        <ele>26.4</ele>
        <time>2021-05-08T13:47:08Z</time>
      </trkpt>
      <trkpt lat="47.56412" lon="-2.15129">
        <ele>26.7</ele>
        <time>2021-05-08T13:47:10Z</time>
      </trkpt>
      <trkpt lat="47.56411" lon="-2.15125">
        <ele>27</ele>
        <time>2021-05-08T13:47:12Z</time>
      </trkpt>
      <trkpt lat="47.5641" lon="-2.15123">
        <ele>27.2</ele>
        <time>2021-05-08T13:47:13Z</time>
      </trkpt>
      <trkpt lat="47.56409" lon="-2.1512">
        <ele>27.4</ele>
        <time>2021-05-08T13:47:15Z</time>
      </trkpt>
      <trkpt lat="47.56407" lon="-2.15116">
        <ele>27.8</ele>
        <time>2021-05-08T13:47:16Z</time>
      </trkpt>
      <trkpt lat="47.56407" lon="-2.15115">
        <ele>27.8</ele>
        <time>2021-05-08T13:47:17Z</time>
      </trkpt>
      <trkpt lat="47.56406" lon="-2.15112">
        <ele>28.1</ele>
        <time>2021-05-08T13:47:19Z</time>
      </trkpt>
      <trkpt lat="47.56405" lon="-2.15108">
        <ele>28.4</ele>
        <time>2021-05-08T13:47:21Z</time>
      </trkpt>
      <trkpt lat="47.56405" lon="-2.15104">
        <ele>28.7</ele>
        <time>2021-05-08T13:47:22Z</time>
      </trkpt>
      <trkpt lat="47.56405" lon="-2.15102">
        <ele>28.9</ele>
        <time>2021-05-08T13:47:23Z</time>
      </trkpt>
      <trkpt lat="47.56404" lon="-2.15099">
        <ele>29.1</ele>
        <time>2021-05-08T13:47:24Z</time>
      </trkpt>
      <trkpt lat="47.56404" lon="-2.15097">
        <ele>29.3</ele>
        <time>2021-05-08T13:47:26Z</time>
      </trkpt>
      <trkpt lat="47.56403" lon="-2.15095">
        <ele>29.5</ele>
        <time>2021-05-08T13:47:27Z</time>
      </trkpt>
      <trkpt lat="47.56403" lon="-2.15092">
        <ele>29.7</ele>
        <time>2021-05-08T13:47:28Z</time>
      </trkpt>
      <trkpt lat="47.56401" lon="-2.15087">
        <ele>30.1</ele>
        <time>2021-05-08T13:47:30Z</time>
      </trkpt>
      <trkpt lat="47.56401" lon="-2.15086">
        <ele>30.2</ele>
        <time>2021-05-08T13:47:31Z</time>
      </trkpt>
      <trkpt lat="47.56399" lon="-2.15081">
        <ele>30.7</ele>
        <time>2021-05-08T13:47:33Z</time>
      </trkpt>
      <trkpt lat="47.56398" lon="-2.15079">
        <ele>30.8</ele>
        <time>2021-05-08T13:47:35Z</time>
      </trkpt>
      <trkpt lat="47.56397" lon="-2.15077">
        <ele>31</ele>
        <time>2021-05-08T13:47:36Z</time>
      </trkpt>
      <trkpt lat="47.56396" lon="-2.15073">
        <ele>31.3</ele>
        <time>2021-05-08T13:47:37Z</time>
      </trkpt>
      <trkpt lat="47.56396" lon="-2.15072">
        <ele>31.4</ele>
        <time>2021-05-08T13:47:38Z</time>
      </trkpt>
      <trkpt lat="47.56395" lon="-2.15069">
        <ele>31.6</ele>
        <time>2021-05-08T13:47:40Z</time>
      </trkpt>
      <trkpt lat="47.56394" lon="-2.15067">
        <ele>31.7</ele>
        <time>2021-05-08T13:47:41Z</time>
      </trkpt>
      <trkpt lat="47.56392" lon="-2.15064">
        <ele>32.1</ele>
        <time>2021-05-08T13:47:42Z</time>
      </trkpt>
      <trkpt lat="47.56391" lon="-2.15062">
        <ele>32.2</ele>
        <time>2021-05-08T13:47:44Z</time>
      </trkpt>
      <trkpt lat="47.5639" lon="-2.15059">
        <ele>32.4</ele>
        <time>2021-05-08T13:47:46Z</time>
      </trkpt>
      <trkpt lat="47.56389" lon="-2.15057">
        <ele>32.6</ele>
        <time>2021-05-08T13:47:47Z</time>
      </trkpt>
      <trkpt lat="47.56388" lon="-2.15055">
        <ele>32.8</ele>
        <time>2021-05-08T13:47:48Z</time>
      </trkpt>
      <trkpt lat="47.56385" lon="-2.15051">
        <ele>33.1</ele>
        <time>2021-05-08T13:47:50Z</time>
      </trkpt>
      <trkpt lat="47.56384" lon="-2.15049">
        <ele>33.3</ele>
        <time>2021-05-08T13:47:51Z</time>
      </trkpt>
      <trkpt lat="47.56382" lon="-2.15046">
        <ele>33.6</ele>
        <time>2021-05-08T13:47:53Z</time>
      </trkpt>
      <trkpt lat="47.56381" lon="-2.15045">
        <ele>33.7</ele>
        <time>2021-05-08T13:47:54Z</time>
      </trkpt>
      <trkpt lat="47.56379" lon="-2.15042">
        <ele>34</ele>
        <time>2021-05-08T13:47:55Z</time>
      </trkpt>
      <trkpt lat="47.56378" lon="-2.15041">
        <ele>34.1</ele>
        <time>2021-05-08T13:47:56Z</time>
      </trkpt>
      <trkpt lat="47.56376" lon="-2.15036">
        <ele>34.5</ele>
        <time>2021-05-08T13:47:58Z</time>
      </trkpt>
      <trkpt lat="47.56375" lon="-2.15035">
        <ele>34.6</ele>
        <time>2021-05-08T13:47:59Z</time>
      </trkpt>
      <trkpt lat="47.56374" lon="-2.15034">
        <ele>34.7</ele>
        <time>2021-05-08T13:48:00Z</time>
      </trkpt>
      <trkpt lat="47.56372" lon="-2.15031">
        <ele>35</ele>
        <time>2021-05-08T13:48:02Z</time>
      </trkpt>
      <trkpt lat="47.5637" lon="-2.15028">
        <ele>35.3</ele>
        <time>2021-05-08T13:48:04Z</time>
      </trkpt>
      <trkpt lat="47.56369" lon="-2.15026">
        <ele>35.5</ele>
        <time>2021-05-08T13:48:05Z</time>
      </trkpt>
      <trkpt lat="47.56368" lon="-2.15025">
        <ele>35.6</ele>
        <time>2021-05-08T13:48:06Z</time>
      </trkpt>
      <trkpt lat="47.56365" lon="-2.15021">
        <ele>36</ele>
        <time>2021-05-08T13:48:08Z</time>
      </trkpt>
      <trkpt lat="47.56365" lon="-2.1502">
        <ele>36.1</ele>
        <time>2021-05-08T13:48:09Z</time>
      </trkpt>
      <trkpt lat="47.56362" lon="-2.15016">
        <ele>36.4</ele>
        <time>2021-05-08T13:48:11Z</time>
      </trkpt>
      <trkpt lat="47.56362" lon="-2.15015">
        <ele>36.5</ele>
        <time>2021-05-08T13:48:12Z</time>
      </trkpt>
      <trkpt lat="47.56361" lon="-2.15013">
        <ele>36.7</ele>
        <time>2021-05-08T13:48:13Z</time>
      </trkpt>
      <trkpt lat="47.56359" lon="-2.15011">
        <ele>37</ele>
        <time>2021-05-08T13:48:15Z</time>
      </trkpt>
      <trkpt lat="47.56357" lon="-2.1501">
        <ele>37.1</ele>
        <time>2021-05-08T13:48:16Z</time>
      </trkpt>
      <trkpt lat="47.56356" lon="-2.15009">
        <ele>37.3</ele>
        <time>2021-05-08T13:48:17Z</time>
      </trkpt>
      <trkpt lat="47.56354" lon="-2.15008">
        <ele>37.7</ele>
        <time>2021-05-08T13:48:19Z</time>
      </trkpt>
      <trkpt lat="47.56351" lon="-2.15009">
        <ele>37.8</ele>
        <time>2021-05-08T13:48:21Z</time>
      </trkpt>
      <trkpt lat="47.56349" lon="-2.1501">
        <ele>38</ele>
        <time>2021-05-08T13:48:22Z</time>
      </trkpt>
      <trkpt lat="47.56348" lon="-2.1501">
        <ele>38</ele>
        <time>2021-05-08T13:48:23Z</time>
      </trkpt>
      <trkpt lat="47.56347" lon="-2.1501">
        <ele>38.1</ele>
        <time>2021-05-08T13:48:24Z</time>
      </trkpt>
      <trkpt lat="47.56346" lon="-2.15011">
        <ele>38.1</ele>
        <time>2021-05-08T13:48:25Z</time>
      </trkpt>
      <trkpt lat="47.56345" lon="-2.15012">
        <ele>38.2</ele>
        <time>2021-05-08T13:48:26Z</time>
      </trkpt>
      <trkpt lat="47.56342" lon="-2.15014">
        <ele>38.4</ele>
        <time>2021-05-08T13:48:28Z</time>
      </trkpt>
      <trkpt lat="47.56341" lon="-2.15015">
        <ele>38.4</ele>
        <time>2021-05-08T13:48:29Z</time>
      </trkpt>
      <trkpt lat="47.56339" lon="-2.15016">
        <ele>38.5</ele>
        <time>2021-05-08T13:48:30Z</time>
      </trkpt>
      <trkpt lat="47.56339" lon="-2.15017">
        <ele>38.6</ele>
        <time>2021-05-08T13:48:31Z</time>
      </trkpt>
      <trkpt lat="47.56338" lon="-2.15018">
        <ele>38.6</ele>
        <time>2021-05-08T13:48:32Z</time>
      </trkpt>
      <trkpt lat="47.56336" lon="-2.15019">
        <ele>38.7</ele>
        <time>2021-05-08T13:48:33Z</time>
      </trkpt>
      <trkpt lat="47.56334" lon="-2.1502">
        <ele>38.8</ele>
        <time>2021-05-08T13:48:35Z</time>
      </trkpt>
      <trkpt lat="47.56331" lon="-2.15022">
        <ele>39</ele>
        <time>2021-05-08T13:48:36Z</time>
      </trkpt>
      <trkpt lat="47.56331" lon="-2.15022">
        <ele>39</ele>
        <time>2021-05-08T13:48:37Z</time>
      </trkpt>
      <trkpt lat="47.56329" lon="-2.15023">
        <ele>39.1</ele>
        <time>2021-05-08T13:48:39Z</time>
      </trkpt>
      <trkpt lat="47.56327" lon="-2.15024">
        <ele>39.2</ele>
        <time>2021-05-08T13:48:40Z</time>
      </trkpt>
      <trkpt lat="47.56325" lon="-2.15025">
        <ele>39.3</ele>
        <time>2021-05-08T13:48:41Z</time>
      </trkpt>
      <trkpt lat="47.56323" lon="-2.15027">
        <ele>39.4</ele>
        <time>2021-05-08T13:48:43Z</time>
      </trkpt>
      <trkpt lat="47.56322" lon="-2.15028">
        <ele>39.5</ele>
        <time>2021-05-08T13:48:44Z</time>
      </trkpt>
      <trkpt lat="47.5632" lon="-2.15028">
        <ele>39.6</ele>
        <time>2021-05-08T13:48:45Z</time>
      </trkpt>
      <trkpt lat="47.56318" lon="-2.1503">
        <ele>39.7</ele>
        <time>2021-05-08T13:48:47Z</time>
      </trkpt>
      <trkpt lat="47.56316" lon="-2.15031">
        <ele>39.8</ele>
        <time>2021-05-08T13:48:48Z</time>
      </trkpt>
      <trkpt lat="47.56314" lon="-2.15033">
        <ele>40</ele>
        <time>2021-05-08T13:48:50Z</time>
      </trkpt>
      <trkpt lat="47.5631" lon="-2.15034">
        <ele>40.1</ele>
        <time>2021-05-08T13:48:51Z</time>
      </trkpt>
      <trkpt lat="47.56309" lon="-2.15034">
        <ele>40.2</ele>
        <time>2021-05-08T13:48:52Z</time>
      </trkpt>
      <trkpt lat="47.56306" lon="-2.15035">
        <ele>40.3</ele>
        <time>2021-05-08T13:48:54Z</time>
      </trkpt>
      <trkpt lat="47.56305" lon="-2.15035">
        <ele>40.4</ele>
        <time>2021-05-08T13:48:55Z</time>
      </trkpt>
      <trkpt lat="47.56302" lon="-2.15036">
        <ele>40.5</ele>
        <time>2021-05-08T13:48:56Z</time>
      </trkpt>
      <trkpt lat="47.56301" lon="-2.15036">
        <ele>40.6</ele>
        <time>2021-05-08T13:48:57Z</time>
      </trkpt>
      <trkpt lat="47.56299" lon="-2.15037">
        <ele>40.7</ele>
        <time>2021-05-08T13:48:59Z</time>
      </trkpt>
      <trkpt lat="47.56298" lon="-2.15037">
        <ele>40.8</ele>
        <time>2021-05-08T13:49:00Z</time>
      </trkpt>
      <trkpt lat="47.56296" lon="-2.15037">
        <ele>40.8</ele>
        <time>2021-05-08T13:49:01Z</time>
      </trkpt>
      <trkpt lat="47.56294" lon="-2.15038">
        <ele>40.9</ele>
        <time>2021-05-08T13:49:02Z</time>
      </trkpt>
      <trkpt lat="47.56291" lon="-2.15038">
        <ele>41.1</ele>
        <time>2021-05-08T13:49:04Z</time>
      </trkpt>
      <trkpt lat="47.56289" lon="-2.15038">
        <ele>41.2</ele>
        <time>2021-05-08T13:49:05Z</time>
      </trkpt>
      <trkpt lat="47.56286" lon="-2.15039">
        <ele>41.3</ele>
        <time>2021-05-08T13:49:07Z</time>
      </trkpt>
      <trkpt lat="47.56285" lon="-2.15039">
        <ele>41.4</ele>
        <time>2021-05-08T13:49:08Z</time>
      </trkpt>
      <trkpt lat="47.56282" lon="-2.1504">
        <ele>41.5</ele>
        <time>2021-05-08T13:49:09Z</time>
      </trkpt>
      <trkpt lat="47.56281" lon="-2.1504">
        <ele>41.6</ele>
        <time>2021-05-08T13:49:10Z</time>
      </trkpt>
      <trkpt lat="47.56278" lon="-2.15041">
        <ele>41.7</ele>
        <time>2021-05-08T13:49:12Z</time>
      </trkpt>
      <trkpt lat="47.56277" lon="-2.15041">
        <ele>41.8</ele>
        <time>2021-05-08T13:49:13Z</time>
      </trkpt>
      <trkpt lat="47.56274" lon="-2.15042">
        <ele>41.9</ele>
        <time>2021-05-08T13:49:14Z</time>
      </trkpt>
      <trkpt lat="47.56273" lon="-2.15043">
        <ele>41.9</ele>
        <time>2021-05-08T13:49:15Z</time>
      </trkpt>
      <trkpt lat="47.5627" lon="-2.15047">
        <ele>42.1</ele>
        <time>2021-05-08T13:49:17Z</time>
      </trkpt>
      <trkpt lat="47.5627" lon="-2.15048">
        <ele>42.1</ele>
        <time>2021-05-08T13:49:18Z</time>
      </trkpt>
      <trkpt lat="47.56269" lon="-2.1505">
        <ele>42.2</ele>
        <time>2021-05-08T13:49:19Z</time>
      </trkpt>
      <trkpt lat="47.56268" lon="-2.15054">
        <ele>42.3</ele>
        <time>2021-05-08T13:49:21Z</time>
      </trkpt>
      <trkpt lat="47.56268" lon="-2.15059">
        <ele>42.4</ele>
        <time>2021-05-08T13:49:23Z</time>
      </trkpt>
      <trkpt lat="47.56268" lon="-2.15065">
        <ele>42.4</ele>
        <time>2021-05-08T13:49:25Z</time>
      </trkpt>
      <trkpt lat="47.56268" lon="-2.15069">
        <ele>42.5</ele>
        <time>2021-05-08T13:49:27Z</time>
      </trkpt>
      <trkpt lat="47.56269" lon="-2.15073">
        <ele>42.5</ele>
        <time>2021-05-08T13:49:28Z</time>
      </trkpt>
      <trkpt lat="47.5627" lon="-2.15077">
        <ele>42.6</ele>
        <time>2021-05-08T13:49:30Z</time>
      </trkpt>
      <trkpt lat="47.5627" lon="-2.15079">
        <ele>42.6</ele>
        <time>2021-05-08T13:49:31Z</time>
      </trkpt>
      <trkpt lat="47.56272" lon="-2.15085">
        <ele>42.6</ele>
        <time>2021-05-08T13:49:33Z</time>
      </trkpt>
      <trkpt lat="47.56272" lon="-2.15087">
        <ele>42.6</ele>
        <time>2021-05-08T13:49:34Z</time>
      </trkpt>
      <trkpt lat="47.56272" lon="-2.15089">
        <ele>42.6</ele>
        <time>2021-05-08T13:49:35Z</time>
      </trkpt>
      <trkpt lat="47.56273" lon="-2.15094">
        <ele>42.6</ele>
        <time>2021-05-08T13:49:37Z</time>
      </trkpt>
      <trkpt lat="47.56274" lon="-2.15096">
        <ele>42.6</ele>
        <time>2021-05-08T13:49:38Z</time>
      </trkpt>
      <trkpt lat="47.56274" lon="-2.15098">
        <ele>42.6</ele>
        <time>2021-05-08T13:49:39Z</time>
      </trkpt>
      <trkpt lat="47.56275" lon="-2.15103">
        <ele>42.7</ele>
        <time>2021-05-08T13:49:41Z</time>
      </trkpt>
      <trkpt lat="47.56276" lon="-2.15108">
        <ele>42.7</ele>
        <time>2021-05-08T13:49:43Z</time>
      </trkpt>
      <trkpt lat="47.56278" lon="-2.15113">
        <ele>42.7</ele>
        <time>2021-05-08T13:49:45Z</time>
      </trkpt>
      <trkpt lat="47.56279" lon="-2.15116">
        <ele>42.8</ele>
        <time>2021-05-08T13:49:46Z</time>
      </trkpt>
      <trkpt lat="47.56279" lon="-2.1512">
        <ele>42.8</ele>
        <time>2021-05-08T13:49:48Z</time>
      </trkpt>
      <trkpt lat="47.56279" lon="-2.15123">
        <ele>42.8</ele>
        <time>2021-05-08T13:49:49Z</time>
      </trkpt>
      <trkpt lat="47.5628" lon="-2.15127">
        <ele>42.9</ele>
        <time>2021-05-08T13:49:51Z</time>
      </trkpt>
      <trkpt lat="47.5628" lon="-2.15131">
        <ele>42.9</ele>
        <time>2021-05-08T13:49:52Z</time>
      </trkpt>
      <trkpt lat="47.56281" lon="-2.15134">
        <ele>43</ele>
        <time>2021-05-08T13:49:54Z</time>
      </trkpt>
      <trkpt lat="47.5628" lon="-2.15139">
        <ele>43.1</ele>
        <time>2021-05-08T13:49:55Z</time>
      </trkpt>
      <trkpt lat="47.56279" lon="-2.1514">
        <ele>43.1</ele>
        <time>2021-05-08T13:49:56Z</time>
      </trkpt>
      <trkpt lat="47.56278" lon="-2.15144">
        <ele>43.2</ele>
        <time>2021-05-08T13:49:58Z</time>
      </trkpt>
      <trkpt lat="47.56277" lon="-2.15145">
        <ele>43.2</ele>
        <time>2021-05-08T13:49:59Z</time>
      </trkpt>
      <trkpt lat="47.56276" lon="-2.15147">
        <ele>43.2</ele>
        <time>2021-05-08T13:50:00Z</time>
      </trkpt>
      <trkpt lat="47.56273" lon="-2.1515">
        <ele>43.3</ele>
        <time>2021-05-08T13:50:02Z</time>
      </trkpt>
      <trkpt lat="47.56268" lon="-2.15152">
        <ele>43.5</ele>
        <time>2021-05-08T13:50:04Z</time>
      </trkpt>
      <trkpt lat="47.56267" lon="-2.15153">
        <ele>43.5</ele>
        <time>2021-05-08T13:50:05Z</time>
      </trkpt>
      <trkpt lat="47.56265" lon="-2.15153">
        <ele>43.6</ele>
        <time>2021-05-08T13:50:06Z</time>
      </trkpt>
      <trkpt lat="47.56263" lon="-2.15155">
        <ele>43.7</ele>
        <time>2021-05-08T13:50:08Z</time>
      </trkpt>
      <trkpt lat="47.56261" lon="-2.15155">
        <ele>43.7</ele>
        <time>2021-05-08T13:50:09Z</time>
      </trkpt>
      <trkpt lat="47.56259" lon="-2.15155">
        <ele>43.8</ele>
        <time>2021-05-08T13:50:10Z</time>
      </trkpt>
      <trkpt lat="47.56256" lon="-2.15156">
        <ele>43.9</ele>
        <time>2021-05-08T13:50:11Z</time>
      </trkpt>
      <trkpt lat="47.56255" lon="-2.15156">
        <ele>44</ele>
        <time>2021-05-08T13:50:12Z</time>
      </trkpt>
      <trkpt lat="47.56251" lon="-2.15157">
        <ele>44.1</ele>
        <time>2021-05-08T13:50:14Z</time>
      </trkpt>
      <trkpt lat="47.5625" lon="-2.15157">
        <ele>44.2</ele>
        <time>2021-05-08T13:50:15Z</time>
      </trkpt>
      <trkpt lat="47.56247" lon="-2.15158">
        <ele>44.3</ele>
        <time>2021-05-08T13:50:17Z</time>
      </trkpt>
      <trkpt lat="47.56246" lon="-2.15158">
        <ele>44.3</ele>
        <time>2021-05-08T13:50:18Z</time>
      </trkpt>
      <trkpt lat="47.56245" lon="-2.15158">
        <ele>44.4</ele>
        <time>2021-05-08T13:50:19Z</time>
      </trkpt>
      <trkpt lat="47.56243" lon="-2.15158">
        <ele>44.5</ele>
        <time>2021-05-08T13:50:20Z</time>
      </trkpt>
      <trkpt lat="47.56241" lon="-2.15159">
        <ele>44.5</ele>
        <time>2021-05-08T13:50:21Z</time>
      </trkpt>
      <trkpt lat="47.56239" lon="-2.1516">
        <ele>44.6</ele>
        <time>2021-05-08T13:50:23Z</time>
      </trkpt>
      <trkpt lat="47.56237" lon="-2.15161">
        <ele>44.7</ele>
        <time>2021-05-08T13:50:24Z</time>
      </trkpt>
      <trkpt lat="47.56236" lon="-2.15161">
        <ele>44.8</ele>
        <time>2021-05-08T13:50:25Z</time>
      </trkpt>
      <trkpt lat="47.56235" lon="-2.15161">
        <ele>44.8</ele>
        <time>2021-05-08T13:50:26Z</time>
      </trkpt>
      <trkpt lat="47.56231" lon="-2.15162">
        <ele>45</ele>
        <time>2021-05-08T13:50:28Z</time>
      </trkpt>
      <trkpt lat="47.5623" lon="-2.15162">
        <ele>45</ele>
        <time>2021-05-08T13:50:29Z</time>
      </trkpt>
      <trkpt lat="47.56229" lon="-2.15163">
        <ele>45.1</ele>
        <time>2021-05-08T13:50:30Z</time>
      </trkpt>
      <trkpt lat="47.56226" lon="-2.15164">
        <ele>45.2</ele>
        <time>2021-05-08T13:50:31Z</time>
      </trkpt>
      <trkpt lat="47.56222" lon="-2.15167">
        <ele>45.2</ele>
        <time>2021-05-08T13:50:33Z</time>
      </trkpt>
      <trkpt lat="47.56221" lon="-2.15168">
        <ele>45.2</ele>
        <time>2021-05-08T13:50:34Z</time>
      </trkpt>
      <trkpt lat="47.5622" lon="-2.15169">
        <ele>45.2</ele>
        <time>2021-05-08T13:50:35Z</time>
      </trkpt>
      <trkpt lat="47.5622" lon="-2.15171">
        <ele>45.2</ele>
        <time>2021-05-08T13:50:36Z</time>
      </trkpt>
      <trkpt lat="47.56219" lon="-2.15175">
        <ele>45.1</ele>
        <time>2021-05-08T13:50:38Z</time>
      </trkpt>
      <trkpt lat="47.5622" lon="-2.15179">
        <ele>45.1</ele>
        <time>2021-05-08T13:50:39Z</time>
      </trkpt>
      <trkpt lat="47.56222" lon="-2.15182">
        <ele>45.1</ele>
        <time>2021-05-08T13:50:41Z</time>
      </trkpt>
      <trkpt lat="47.56223" lon="-2.15188">
        <ele>45</ele>
        <time>2021-05-08T13:50:43Z</time>
      </trkpt>
      <trkpt lat="47.56224" lon="-2.15193">
        <ele>45</ele>
        <time>2021-05-08T13:50:44Z</time>
      </trkpt>
      <trkpt lat="47.56225" lon="-2.15194">
        <ele>45</ele>
        <time>2021-05-08T13:50:45Z</time>
      </trkpt>
      <trkpt lat="47.56226" lon="-2.152">
        <ele>44.9</ele>
        <time>2021-05-08T13:50:47Z</time>
      </trkpt>
      <trkpt lat="47.56227" lon="-2.15205">
        <ele>44.8</ele>
        <time>2021-05-08T13:50:48Z</time>
      </trkpt>
      <trkpt lat="47.56228" lon="-2.15208">
        <ele>44.8</ele>
        <time>2021-05-08T13:50:49Z</time>
      </trkpt>
      <trkpt lat="47.56229" lon="-2.15211">
        <ele>44.8</ele>
        <time>2021-05-08T13:50:50Z</time>
      </trkpt>
      <trkpt lat="47.56231" lon="-2.15216">
        <ele>44.7</ele>
        <time>2021-05-08T13:50:52Z</time>
      </trkpt>
      <trkpt lat="47.56232" lon="-2.15218">
        <ele>44.7</ele>
        <time>2021-05-08T13:50:53Z</time>
      </trkpt>
      <trkpt lat="47.56233" lon="-2.15224">
        <ele>44.6</ele>
        <time>2021-05-08T13:50:55Z</time>
      </trkpt>
      <trkpt lat="47.56235" lon="-2.1523">
        <ele>44.6</ele>
        <time>2021-05-08T13:50:56Z</time>
      </trkpt>
      <trkpt lat="47.56236" lon="-2.15234">
        <ele>44.5</ele>
        <time>2021-05-08T13:50:57Z</time>
      </trkpt>
      <trkpt lat="47.56238" lon="-2.15239">
        <ele>44.4</ele>
        <time>2021-05-08T13:50:59Z</time>
      </trkpt>
      <trkpt lat="47.56239" lon="-2.15243">
        <ele>44.4</ele>
        <time>2021-05-08T13:51:00Z</time>
      </trkpt>
      <trkpt lat="47.56241" lon="-2.15247">
        <ele>44.3</ele>
        <time>2021-05-08T13:51:01Z</time>
      </trkpt>
      <trkpt lat="47.56243" lon="-2.15254">
        <ele>44.3</ele>
        <time>2021-05-08T13:51:02Z</time>
      </trkpt>
      <trkpt lat="47.56245" lon="-2.1526">
        <ele>44.2</ele>
        <time>2021-05-08T13:51:04Z</time>
      </trkpt>
      <trkpt lat="47.56248" lon="-2.15267">
        <ele>44.1</ele>
        <time>2021-05-08T13:51:06Z</time>
      </trkpt>
      <trkpt lat="47.56251" lon="-2.15276">
        <ele>44</ele>
        <time>2021-05-08T13:51:08Z</time>
      </trkpt>
      <trkpt lat="47.56254" lon="-2.15285">
        <ele>43.9</ele>
        <time>2021-05-08T13:51:10Z</time>
      </trkpt>
      <trkpt lat="47.56256" lon="-2.15294">
        <ele>43.8</ele>
        <time>2021-05-08T13:51:12Z</time>
      </trkpt>
      <trkpt lat="47.56258" lon="-2.153">
        <ele>43.8</ele>
        <time>2021-05-08T13:51:13Z</time>
      </trkpt>
      <trkpt lat="47.5626" lon="-2.15305">
        <ele>43.7</ele>
        <time>2021-05-08T13:51:14Z</time>
      </trkpt>
      <trkpt lat="47.56262" lon="-2.15311">
        <ele>43.7</ele>
        <time>2021-05-08T13:51:15Z</time>
      </trkpt>
      <trkpt lat="47.56265" lon="-2.15318">
        <ele>43.7</ele>
        <time>2021-05-08T13:51:17Z</time>
      </trkpt>
      <trkpt lat="47.56267" lon="-2.15323">
        <ele>43.6</ele>
        <time>2021-05-08T13:51:18Z</time>
      </trkpt>
      <trkpt lat="47.56268" lon="-2.15329">
        <ele>43.6</ele>
        <time>2021-05-08T13:51:19Z</time>
      </trkpt>
      <trkpt lat="47.56271" lon="-2.15336">
        <ele>43.5</ele>
        <time>2021-05-08T13:51:20Z</time>
      </trkpt>
      <trkpt lat="47.56273" lon="-2.15342">
        <ele>43.4</ele>
        <time>2021-05-08T13:51:22Z</time>
      </trkpt>
      <trkpt lat="47.56275" lon="-2.15349">
        <ele>43.3</ele>
        <time>2021-05-08T13:51:23Z</time>
      </trkpt>
      <trkpt lat="47.56277" lon="-2.15357">
        <ele>43.2</ele>
        <time>2021-05-08T13:51:24Z</time>
      </trkpt>
      <trkpt lat="47.56279" lon="-2.15364">
        <ele>43.1</ele>
        <time>2021-05-08T13:51:26Z</time>
      </trkpt>
      <trkpt lat="47.56282" lon="-2.15371">
        <ele>43</ele>
        <time>2021-05-08T13:51:27Z</time>
      </trkpt>
      <trkpt lat="47.56285" lon="-2.15381">
        <ele>42.8</ele>
        <time>2021-05-08T13:51:29Z</time>
      </trkpt>
      <trkpt lat="47.56287" lon="-2.1539">
        <ele>42.7</ele>
        <time>2021-05-08T13:51:31Z</time>
      </trkpt>
      <trkpt lat="47.56291" lon="-2.15401">
        <ele>42.6</ele>
        <time>2021-05-08T13:51:33Z</time>
      </trkpt>
      <trkpt lat="47.56293" lon="-2.1541">
        <ele>42.5</ele>
        <time>2021-05-08T13:51:35Z</time>
      </trkpt>
      <trkpt lat="47.56297" lon="-2.1542">
        <ele>42.4</ele>
        <time>2021-05-08T13:51:37Z</time>
      </trkpt>
      <trkpt lat="47.56298" lon="-2.15425">
        <ele>42.4</ele>
        <time>2021-05-08T13:51:38Z</time>
      </trkpt>
      <trkpt lat="47.56301" lon="-2.15435">
        <ele>42.3</ele>
        <time>2021-05-08T13:51:40Z</time>
      </trkpt>
      <trkpt lat="47.56303" lon="-2.15439">
        <ele>42.3</ele>
        <time>2021-05-08T13:51:41Z</time>
      </trkpt>
      <trkpt lat="47.56306" lon="-2.15448">
        <ele>42.2</ele>
        <time>2021-05-08T13:51:43Z</time>
      </trkpt>
      <trkpt lat="47.56308" lon="-2.15455">
        <ele>42.1</ele>
        <time>2021-05-08T13:51:45Z</time>
      </trkpt>
      <trkpt lat="47.56309" lon="-2.15457">
        <ele>42.1</ele>
        <time>2021-05-08T13:51:46Z</time>
      </trkpt>
      <trkpt lat="47.56309" lon="-2.15458">
        <ele>42.1</ele>
        <time>2021-05-08T13:51:47Z</time>
      </trkpt>
      <trkpt lat="47.56309" lon="-2.15459">
        <ele>42</ele>
        <time>2021-05-08T13:51:49Z</time>
      </trkpt>
      <trkpt lat="47.5631" lon="-2.1546">
        <ele>42</ele>
        <time>2021-05-08T13:51:50Z</time>
      </trkpt>
      <trkpt lat="47.5631" lon="-2.1546">
        <ele>42</ele>
        <time>2021-05-08T13:51:52Z</time>
      </trkpt>
      <trkpt lat="47.56311" lon="-2.15461">
        <ele>42</ele>
        <time>2021-05-08T13:51:54Z</time>
      </trkpt>
      <trkpt lat="47.56311" lon="-2.15462">
        <ele>42</ele>
        <time>2021-05-08T13:51:56Z</time>
      </trkpt>
      <trkpt lat="47.56312" lon="-2.15463">
        <ele>42</ele>
        <time>2021-05-08T13:51:57Z</time>
      </trkpt>
      <trkpt lat="47.56312" lon="-2.15464">
        <ele>42</ele>
        <time>2021-05-08T13:51:59Z</time>
      </trkpt>
      <trkpt lat="47.56312" lon="-2.15465">
        <ele>41.9</ele>
        <time>2021-05-08T13:52:00Z</time>
      </trkpt>
      <trkpt lat="47.56313" lon="-2.15465">
        <ele>41.9</ele>
        <time>2021-05-08T13:53:02Z</time>
      </trkpt>
      <trkpt lat="47.56313" lon="-2.15466">
        <ele>41.9</ele>
        <time>2021-05-08T13:53:04Z</time>
      </trkpt>
      <trkpt lat="47.56314" lon="-2.15467">
        <ele>41.9</ele>
        <time>2021-05-08T13:53:05Z</time>
      </trkpt>
      <trkpt lat="47.56316" lon="-2.15474">
        <ele>42.4</ele>
        <time>2021-05-08T13:53:07Z</time>
      </trkpt>
      <trkpt lat="47.56318" lon="-2.1548">
        <ele>43.1</ele>
        <time>2021-05-08T13:53:08Z</time>
      </trkpt>
      <trkpt lat="47.56316" lon="-2.15479">
        <ele>43.2</ele>
        <time>2021-05-08T14:07:09Z</time>
      </trkpt>
      <trkpt lat="47.56319" lon="-2.15476">
        <ele>43</ele>
        <time>2021-05-08T14:07:11Z</time>
      </trkpt>
      <trkpt lat="47.56321" lon="-2.15475">
        <ele>42.9</ele>
        <time>2021-05-08T14:07:14Z</time>
      </trkpt>
      <trkpt lat="47.56323" lon="-2.15475">
        <ele>42.9</ele>
        <time>2021-05-08T14:07:15Z</time>
      </trkpt>
      <trkpt lat="47.56325" lon="-2.15474">
        <ele>42.7</ele>
        <time>2021-05-08T14:07:17Z</time>
      </trkpt>
      <trkpt lat="47.56327" lon="-2.15473">
        <ele>42.5</ele>
        <time>2021-05-08T14:07:20Z</time>
      </trkpt>
      <trkpt lat="47.56329" lon="-2.15473">
        <ele>42.5</ele>
        <time>2021-05-08T14:08:49Z</time>
      </trkpt>
      <trkpt lat="47.56331" lon="-2.15472">
        <ele>42.3</ele>
        <time>2021-05-08T14:08:51Z</time>
      </trkpt>
      <trkpt lat="47.56333" lon="-2.15471">
        <ele>42.2</ele>
        <time>2021-05-08T14:08:52Z</time>
      </trkpt>
      <trkpt lat="47.56337" lon="-2.15471">
        <ele>42</ele>
        <time>2021-05-08T14:08:53Z</time>
      </trkpt>
      <trkpt lat="47.56344" lon="-2.15471">
        <ele>41.8</ele>
        <time>2021-05-08T14:08:55Z</time>
      </trkpt>
      <trkpt lat="47.5635" lon="-2.15472">
        <ele>41.5</ele>
        <time>2021-05-08T14:08:56Z</time>
      </trkpt>
      <trkpt lat="47.5636" lon="-2.15472">
        <ele>41</ele>
        <time>2021-05-08T14:08:57Z</time>
      </trkpt>
      <trkpt lat="47.56367" lon="-2.15469">
        <ele>40.6</ele>
        <time>2021-05-08T14:08:59Z</time>
      </trkpt>
      <trkpt lat="47.56372" lon="-2.15467">
        <ele>40.2</ele>
        <time>2021-05-08T14:09:00Z</time>
      </trkpt>
      <trkpt lat="47.5638" lon="-2.15464">
        <ele>39.5</ele>
        <time>2021-05-08T14:09:01Z</time>
      </trkpt>
      <trkpt lat="47.56386" lon="-2.15457">
        <ele>38.7</ele>
        <time>2021-05-08T14:09:03Z</time>
      </trkpt>
      <trkpt lat="47.5639" lon="-2.15451">
        <ele>37.6</ele>
        <time>2021-05-08T14:09:04Z</time>
      </trkpt>
      <trkpt lat="47.56396" lon="-2.15442">
        <ele>36.9</ele>
        <time>2021-05-08T14:09:05Z</time>
      </trkpt>
      <trkpt lat="47.56405" lon="-2.1543">
        <ele>34.7</ele>
        <time>2021-05-08T14:09:07Z</time>
      </trkpt>
      <trkpt lat="47.56411" lon="-2.15421">
        <ele>33.2</ele>
        <time>2021-05-08T14:09:09Z</time>
      </trkpt>
      <trkpt lat="47.56414" lon="-2.1542">
        <ele>32.6</ele>
        <time>2021-05-08T14:09:10Z</time>
      </trkpt>
      <trkpt lat="47.56417" lon="-2.15418">
        <ele>31.9</ele>
        <time>2021-05-08T14:09:11Z</time>
      </trkpt>
      <trkpt lat="47.5642" lon="-2.15416">
        <ele>31</ele>
        <time>2021-05-08T14:09:12Z</time>
      </trkpt>
      <trkpt lat="47.56421" lon="-2.15415">
        <ele>31</ele>
        <time>2021-05-08T14:09:13Z</time>
      </trkpt>
      <trkpt lat="47.56423" lon="-2.15411">
        <ele>30.1</ele>
        <time>2021-05-08T14:09:14Z</time>
      </trkpt>
      <trkpt lat="47.56424" lon="-2.15411">
        <ele>30.1</ele>
        <time>2021-05-08T14:09:15Z</time>
      </trkpt>
      <trkpt lat="47.56428" lon="-2.15412">
        <ele>28.7</ele>
        <time>2021-05-08T14:09:17Z</time>
      </trkpt>
      <trkpt lat="47.56432" lon="-2.15414">
        <ele>28.1</ele>
        <time>2021-05-08T14:09:18Z</time>
      </trkpt>
      <trkpt lat="47.56434" lon="-2.15416">
        <ele>27.4</ele>
        <time>2021-05-08T14:09:19Z</time>
      </trkpt>
      <trkpt lat="47.56437" lon="-2.15419">
        <ele>26.8</ele>
        <time>2021-05-08T14:09:21Z</time>
      </trkpt>
      <trkpt lat="47.56438" lon="-2.15419">
        <ele>26.7</ele>
        <time>2021-05-08T14:09:22Z</time>
      </trkpt>
      <trkpt lat="47.56443" lon="-2.1542">
        <ele>25.2</ele>
        <time>2021-05-08T14:09:24Z</time>
      </trkpt>
      <trkpt lat="47.56446" lon="-2.1542">
        <ele>24.4</ele>
        <time>2021-05-08T14:09:25Z</time>
      </trkpt>
      <trkpt lat="47.56448" lon="-2.15421">
        <ele>24.3</ele>
        <time>2021-05-08T14:09:26Z</time>
      </trkpt>
      <trkpt lat="47.5645" lon="-2.15423">
        <ele>23.7</ele>
        <time>2021-05-08T14:09:28Z</time>
      </trkpt>
      <trkpt lat="47.56452" lon="-2.15425">
        <ele>22.9</ele>
        <time>2021-05-08T14:09:30Z</time>
      </trkpt>
      <trkpt lat="47.56454" lon="-2.15428">
        <ele>22.2</ele>
        <time>2021-05-08T14:09:31Z</time>
      </trkpt>
      <trkpt lat="47.56455" lon="-2.15429">
        <ele>22.2</ele>
        <time>2021-05-08T14:09:32Z</time>
      </trkpt>
      <trkpt lat="47.56458" lon="-2.1543">
        <ele>21.5</ele>
        <time>2021-05-08T14:09:34Z</time>
      </trkpt>
      <trkpt lat="47.56459" lon="-2.15432">
        <ele>21.5</ele>
        <time>2021-05-08T14:09:35Z</time>
      </trkpt>
      <trkpt lat="47.5646" lon="-2.15433">
        <ele>20.8</ele>
        <time>2021-05-08T14:09:36Z</time>
      </trkpt>
      <trkpt lat="47.56462" lon="-2.15438">
        <ele>20.8</ele>
        <time>2021-05-08T14:09:38Z</time>
      </trkpt>
      <trkpt lat="47.56463" lon="-2.15441">
        <ele>20</ele>
        <time>2021-05-08T14:09:39Z</time>
      </trkpt>
      <trkpt lat="47.56464" lon="-2.15445">
        <ele>19.9</ele>
        <time>2021-05-08T14:09:40Z</time>
      </trkpt>
      <trkpt lat="47.56465" lon="-2.15448">
        <ele>19.8</ele>
        <time>2021-05-08T14:09:41Z</time>
      </trkpt>
      <trkpt lat="47.56466" lon="-2.15452">
        <ele>19</ele>
        <time>2021-05-08T14:09:43Z</time>
      </trkpt>
      <trkpt lat="47.56467" lon="-2.15456">
        <ele>18.9</ele>
        <time>2021-05-08T14:09:45Z</time>
      </trkpt>
      <trkpt lat="47.56468" lon="-2.15459">
        <ele>18.8</ele>
        <time>2021-05-08T14:09:46Z</time>
      </trkpt>
      <trkpt lat="47.56469" lon="-2.15463">
        <ele>17.9</ele>
        <time>2021-05-08T14:09:48Z</time>
      </trkpt>
      <trkpt lat="47.5647" lon="-2.15467">
        <ele>17.9</ele>
        <time>2021-05-08T14:11:47Z</time>
      </trkpt>
      <trkpt lat="47.56471" lon="-2.1547">
        <ele>17.8</ele>
        <time>2021-05-08T14:11:48Z</time>
      </trkpt>
      <trkpt lat="47.56474" lon="-2.15475">
        <ele>16.3</ele>
        <time>2021-05-08T14:11:50Z</time>
      </trkpt>
      <trkpt lat="47.56478" lon="-2.15479">
        <ele>15.6</ele>
        <time>2021-05-08T14:11:51Z</time>
      </trkpt>
      <trkpt lat="47.56482" lon="-2.15482">
        <ele>14.9</ele>
        <time>2021-05-08T14:11:52Z</time>
      </trkpt>
      <trkpt lat="47.56485" lon="-2.15484">
        <ele>14.3</ele>
        <time>2021-05-08T14:11:54Z</time>
      </trkpt>
      <trkpt lat="47.5649" lon="-2.15486">
        <ele>13.1</ele>
        <time>2021-05-08T14:11:56Z</time>
      </trkpt>
      <trkpt lat="47.56495" lon="-2.15488">
        <ele>11.9</ele>
        <time>2021-05-08T14:11:57Z</time>
      </trkpt>
      <trkpt lat="47.56498" lon="-2.15488">
        <ele>11.3</ele>
        <time>2021-05-08T14:11:59Z</time>
      </trkpt>
      <trkpt lat="47.565" lon="-2.15487">
        <ele>11.3</ele>
        <time>2021-05-08T14:12:00Z</time>
      </trkpt>
      <trkpt lat="47.56504" lon="-2.15486">
        <ele>10.2</ele>
        <time>2021-05-08T14:12:02Z</time>
      </trkpt>
      <trkpt lat="47.56507" lon="-2.15482">
        <ele>9.7</ele>
        <time>2021-05-08T14:12:03Z</time>
      </trkpt>
      <trkpt lat="47.56508" lon="-2.15481">
        <ele>9.7</ele>
        <time>2021-05-08T14:12:04Z</time>
      </trkpt>
      <trkpt lat="47.56508" lon="-2.15475">
        <ele>9.7</ele>
        <time>2021-05-08T14:12:05Z</time>
      </trkpt>
      <trkpt lat="47.56508" lon="-2.15473">
        <ele>9.8</ele>
        <time>2021-05-08T14:12:06Z</time>
      </trkpt>
      <trkpt lat="47.56508" lon="-2.15468">
        <ele>9.8</ele>
        <time>2021-05-08T14:12:08Z</time>
      </trkpt>
      <trkpt lat="47.56508" lon="-2.15467">
        <ele>9.8</ele>
        <time>2021-05-08T14:12:09Z</time>
      </trkpt>
      <trkpt lat="47.56507" lon="-2.15462">
        <ele>9.9</ele>
        <time>2021-05-08T14:12:10Z</time>
      </trkpt>
      <trkpt lat="47.56506" lon="-2.1546">
        <ele>9.9</ele>
        <time>2021-05-08T14:12:11Z</time>
      </trkpt>
      <trkpt lat="47.56505" lon="-2.15456">
        <ele>10</ele>
        <time>2021-05-08T14:12:13Z</time>
      </trkpt>
      <trkpt lat="47.56502" lon="-2.1545">
        <ele>10.1</ele>
        <time>2021-05-08T14:12:15Z</time>
      </trkpt>
      <trkpt lat="47.565" lon="-2.15445">
        <ele>10.2</ele>
        <time>2021-05-08T14:12:16Z</time>
      </trkpt>
      <trkpt lat="47.56499" lon="-2.15442">
        <ele>10.2</ele>
        <time>2021-05-08T14:12:17Z</time>
      </trkpt>
      <trkpt lat="47.56498" lon="-2.15439">
        <ele>10.3</ele>
        <time>2021-05-08T14:12:18Z</time>
      </trkpt>
      <trkpt lat="47.56499" lon="-2.15432">
        <ele>10.4</ele>
        <time>2021-05-08T14:12:20Z</time>
      </trkpt>
      <trkpt lat="47.56499" lon="-2.15429">
        <ele>10.4</ele>
        <time>2021-05-08T14:12:21Z</time>
      </trkpt>
      <trkpt lat="47.565" lon="-2.15427">
        <ele>10.5</ele>
        <time>2021-05-08T14:12:22Z</time>
      </trkpt>
      <trkpt lat="47.56502" lon="-2.15423">
        <ele>10.6</ele>
        <time>2021-05-08T14:12:23Z</time>
      </trkpt>
      <trkpt lat="47.56504" lon="-2.1542">
        <ele>10.6</ele>
        <time>2021-05-08T14:12:24Z</time>
      </trkpt>
      <trkpt lat="47.56507" lon="-2.15416">
        <ele>10.6</ele>
        <time>2021-05-08T14:12:26Z</time>
      </trkpt>
      <trkpt lat="47.56514" lon="-2.15423">
        <ele>17.6</ele>
      </trkpt>
      <trkpt lat="47.56518" lon="-2.15426">
        <ele>17.3</ele>
      </trkpt>
      <trkpt lat="47.56518" lon="-2.15425">
        <ele>17.2</ele>
      </trkpt>
      <trkpt lat="47.56518" lon="-2.15426">
        <ele>17.3</ele>
      </trkpt>
      <trkpt lat="47.56517" lon="-2.15437">
        <ele>17.9</ele>
      </trkpt>
      <trkpt lat="47.5652" lon="-2.15462">
        <ele>18.7</ele>
      </trkpt>
      <trkpt lat="47.56527" lon="-2.15489">
        <ele>18.7</ele>
      </trkpt>
      <trkpt lat="47.56529" lon="-2.15507">
        <ele>18.6</ele>
      </trkpt>
      <trkpt lat="47.56528" lon="-2.1551">
        <ele>18.6</ele>
      </trkpt>
      <trkpt lat="47.56528" lon="-2.15523">
        <ele>18.2</ele>
      </trkpt>
      <trkpt lat="47.56517" lon="-2.15601">
        <ele>17.2</ele>
      </trkpt>
      <trkpt lat="47.56511" lon="-2.15657">
        <ele>15.1</ele>
      </trkpt>
      <trkpt lat="47.56502" lon="-2.15703">
        <ele>14</ele>
      </trkpt>
      <trkpt lat="47.56498" lon="-2.15728">
        <ele>13.6</ele>
      </trkpt>
      <trkpt lat="47.56496" lon="-2.15746">
        <ele>13.2</ele>
      </trkpt>
      <trkpt lat="47.56497" lon="-2.15748">
        <ele>12.8</ele>
      </trkpt>
      <trkpt lat="47.56498" lon="-2.15762">
        <ele>12.2</ele>
      </trkpt>
      <trkpt lat="47.565" lon="-2.15774">
        <ele>11.4</ele>
      </trkpt>
      <trkpt lat="47.56501" lon="-2.15778">
        <ele>11.3</ele>
      </trkpt>
      <trkpt lat="47.56504" lon="-2.15787">
        <ele>10.9</ele>
      </trkpt>
      <trkpt lat="47.56506" lon="-2.15789">
        <ele>10.8</ele>
      </trkpt>
      <trkpt lat="47.56511" lon="-2.15799">
        <ele>10.5</ele>
      </trkpt>
      <trkpt lat="47.56541" lon="-2.1583">
        <ele>10.4</ele>
      </trkpt>
      <trkpt lat="47.56542" lon="-2.15831">
        <ele>10.4</ele>
      </trkpt>
      <trkpt lat="47.56556" lon="-2.1584">
        <ele>11.4</ele>
      </trkpt>
      <trkpt lat="47.56562" lon="-2.15844">
        <ele>11.9</ele>
      </trkpt>
      <trkpt lat="47.56577" lon="-2.15853">
        <ele>13</ele>
      </trkpt>
      <trkpt lat="47.56583" lon="-2.15857">
        <ele>13.6</ele>
      </trkpt>
      <trkpt lat="47.56584" lon="-2.15863">
        <ele>14.2</ele>
      </trkpt>
      <trkpt lat="47.56588" lon="-2.15876">
        <ele>15.6</ele>
      </trkpt>
      <trkpt lat="47.566" lon="-2.15903">
        <ele>18.3</ele>
      </trkpt>
      <trkpt lat="47.56607" lon="-2.1593">
        <ele>20.3</ele>
      </trkpt>
      <trkpt lat="47.56611" lon="-2.16009">
        <ele>24.7</ele>
      </trkpt>
      <trkpt lat="47.56608" lon="-2.1605">
        <ele>26.6</ele>
      </trkpt>
      <trkpt lat="47.56606" lon="-2.16073">
        <ele>27.7</ele>
      </trkpt>
      <trkpt lat="47.56596" lon="-2.16082">
        <ele>28.1</ele>
        <time>2021-05-08T14:19:51Z</time>
      </trkpt>
      <trkpt lat="47.56595" lon="-2.16082">
        <ele>28.2</ele>
        <time>2021-05-08T14:19:52Z</time>
      </trkpt>
      <trkpt lat="47.56594" lon="-2.16083">
        <ele>28.2</ele>
        <time>2021-05-08T14:19:54Z</time>
      </trkpt>
      <trkpt lat="47.56593" lon="-2.16084">
        <ele>28.3</ele>
        <time>2021-05-08T14:19:55Z</time>
      </trkpt>
      <trkpt lat="47.56591" lon="-2.16085">
        <ele>28.5</ele>
        <time>2021-05-08T14:19:57Z</time>
      </trkpt>
      <trkpt lat="47.56589" lon="-2.16085">
        <ele>28.6</ele>
        <time>2021-05-08T14:19:58Z</time>
      </trkpt>
      <trkpt lat="47.56587" lon="-2.16086">
        <ele>28.7</ele>
        <time>2021-05-08T14:20:00Z</time>
      </trkpt>
      <trkpt lat="47.56586" lon="-2.16087">
        <ele>28.9</ele>
        <time>2021-05-08T14:20:01Z</time>
      </trkpt>
      <trkpt lat="47.56581" lon="-2.16088">
        <ele>29.2</ele>
        <time>2021-05-08T14:20:04Z</time>
      </trkpt>
      <trkpt lat="47.56577" lon="-2.16087">
        <ele>29.4</ele>
        <time>2021-05-08T14:20:06Z</time>
      </trkpt>
      <trkpt lat="47.56576" lon="-2.16087">
        <ele>29.5</ele>
        <time>2021-05-08T14:20:07Z</time>
      </trkpt>
      <trkpt lat="47.56573" lon="-2.16087">
        <ele>29.8</ele>
        <time>2021-05-08T14:20:09Z</time>
      </trkpt>
      <trkpt lat="47.56572" lon="-2.16088">
        <ele>29.9</ele>
        <time>2021-05-08T14:20:10Z</time>
      </trkpt>
      <trkpt lat="47.56569" lon="-2.16088">
        <ele>30.2</ele>
        <time>2021-05-08T14:20:12Z</time>
      </trkpt>
      <trkpt lat="47.56567" lon="-2.16089">
        <ele>30.2</ele>
        <time>2021-05-08T14:20:13Z</time>
      </trkpt>
      <trkpt lat="47.56564" lon="-2.16089">
        <ele>30.5</ele>
        <time>2021-05-08T14:20:15Z</time>
      </trkpt>
      <trkpt lat="47.56563" lon="-2.16089">
        <ele>30.6</ele>
        <time>2021-05-08T14:20:16Z</time>
      </trkpt>
      <trkpt lat="47.56559" lon="-2.1609">
        <ele>30.9</ele>
        <time>2021-05-08T14:20:18Z</time>
      </trkpt>
      <trkpt lat="47.56558" lon="-2.16091">
        <ele>31.1</ele>
        <time>2021-05-08T14:20:20Z</time>
      </trkpt>
      <trkpt lat="47.56557" lon="-2.16091">
        <ele>31.2</ele>
        <time>2021-05-08T14:20:21Z</time>
      </trkpt>
      <trkpt lat="47.56555" lon="-2.16092">
        <ele>31.4</ele>
        <time>2021-05-08T14:20:22Z</time>
      </trkpt>
      <trkpt lat="47.56554" lon="-2.16092">
        <ele>31.5</ele>
        <time>2021-05-08T14:20:23Z</time>
      </trkpt>
      <trkpt lat="47.56552" lon="-2.16093">
        <ele>31.6</ele>
        <time>2021-05-08T14:20:24Z</time>
      </trkpt>
      <trkpt lat="47.56551" lon="-2.16093">
        <ele>31.7</ele>
        <time>2021-05-08T14:20:26Z</time>
      </trkpt>
      <trkpt lat="47.56548" lon="-2.16094">
        <ele>31.9</ele>
        <time>2021-05-08T14:20:27Z</time>
      </trkpt>
      <trkpt lat="47.56547" lon="-2.16095">
        <ele>32</ele>
        <time>2021-05-08T14:20:29Z</time>
      </trkpt>
      <trkpt lat="47.56544" lon="-2.16096">
        <ele>32.2</ele>
        <time>2021-05-08T14:20:30Z</time>
      </trkpt>
      <trkpt lat="47.56543" lon="-2.16096">
        <ele>32.3</ele>
        <time>2021-05-08T14:20:31Z</time>
      </trkpt>
      <trkpt lat="47.56542" lon="-2.16096">
        <ele>32.4</ele>
        <time>2021-05-08T14:20:32Z</time>
      </trkpt>
      <trkpt lat="47.56539" lon="-2.16097">
        <ele>32.7</ele>
        <time>2021-05-08T14:20:34Z</time>
      </trkpt>
      <trkpt lat="47.56537" lon="-2.16097">
        <ele>32.8</ele>
        <time>2021-05-08T14:20:35Z</time>
      </trkpt>
      <trkpt lat="47.56535" lon="-2.16098">
        <ele>33.1</ele>
        <time>2021-05-08T14:20:36Z</time>
      </trkpt>
      <trkpt lat="47.56532" lon="-2.161">
        <ele>33.3</ele>
        <time>2021-05-08T14:20:38Z</time>
      </trkpt>
      <trkpt lat="47.5653" lon="-2.16101">
        <ele>33.5</ele>
        <time>2021-05-08T14:20:39Z</time>
      </trkpt>
      <trkpt lat="47.56529" lon="-2.16102">
        <ele>33.6</ele>
        <time>2021-05-08T14:20:40Z</time>
      </trkpt>
      <trkpt lat="47.56527" lon="-2.16103">
        <ele>33.8</ele>
        <time>2021-05-08T14:20:42Z</time>
      </trkpt>
      <trkpt lat="47.56525" lon="-2.16105">
        <ele>34</ele>
        <time>2021-05-08T14:20:44Z</time>
      </trkpt>
      <trkpt lat="47.56523" lon="-2.16106">
        <ele>34.1</ele>
        <time>2021-05-08T14:20:45Z</time>
      </trkpt>
      <trkpt lat="47.56522" lon="-2.16107">
        <ele>34.3</ele>
        <time>2021-05-08T14:20:46Z</time>
      </trkpt>
      <trkpt lat="47.5652" lon="-2.16109">
        <ele>34.5</ele>
        <time>2021-05-08T14:20:47Z</time>
      </trkpt>
      <trkpt lat="47.56518" lon="-2.1611">
        <ele>34.6</ele>
        <time>2021-05-08T14:20:49Z</time>
      </trkpt>
      <trkpt lat="47.56516" lon="-2.16112">
        <ele>34.8</ele>
        <time>2021-05-08T14:20:50Z</time>
      </trkpt>
      <trkpt lat="47.56514" lon="-2.16113">
        <ele>34.9</ele>
        <time>2021-05-08T14:20:52Z</time>
      </trkpt>
      <trkpt lat="47.56512" lon="-2.16115">
        <ele>35.2</ele>
        <time>2021-05-08T14:20:53Z</time>
      </trkpt>
      <trkpt lat="47.56511" lon="-2.16116">
        <ele>35.3</ele>
        <time>2021-05-08T14:20:54Z</time>
      </trkpt>
      <trkpt lat="47.56509" lon="-2.16118">
        <ele>35.4</ele>
        <time>2021-05-08T14:20:56Z</time>
      </trkpt>
      <trkpt lat="47.56508" lon="-2.16119">
        <ele>35.5</ele>
        <time>2021-05-08T14:20:57Z</time>
      </trkpt>
      <trkpt lat="47.56506" lon="-2.1612">
        <ele>35.7</ele>
        <time>2021-05-08T14:20:58Z</time>
      </trkpt>
      <trkpt lat="47.56504" lon="-2.16124">
        <ele>35.9</ele>
        <time>2021-05-08T14:21:00Z</time>
      </trkpt>
      <trkpt lat="47.56502" lon="-2.16126">
        <ele>36.1</ele>
        <time>2021-05-08T14:21:01Z</time>
      </trkpt>
      <trkpt lat="47.56502" lon="-2.16128">
        <ele>36.2</ele>
        <time>2021-05-08T14:21:02Z</time>
      </trkpt>
      <trkpt lat="47.56501" lon="-2.16129">
        <ele>36.2</ele>
        <time>2021-05-08T14:21:03Z</time>
      </trkpt>
      <trkpt lat="47.565" lon="-2.16132">
        <ele>36.4</ele>
        <time>2021-05-08T14:21:04Z</time>
      </trkpt>
      <trkpt lat="47.56498" lon="-2.16137">
        <ele>36.7</ele>
        <time>2021-05-08T14:21:07Z</time>
      </trkpt>
      <trkpt lat="47.56496" lon="-2.1614">
        <ele>36.9</ele>
        <time>2021-05-08T14:21:08Z</time>
      </trkpt>
      <trkpt lat="47.56494" lon="-2.16143">
        <ele>37</ele>
        <time>2021-05-08T14:21:10Z</time>
      </trkpt>
      <trkpt lat="47.56492" lon="-2.16147">
        <ele>37.2</ele>
        <time>2021-05-08T14:21:11Z</time>
      </trkpt>
      <trkpt lat="47.5649" lon="-2.16151">
        <ele>37.5</ele>
        <time>2021-05-08T14:21:13Z</time>
      </trkpt>
      <trkpt lat="47.56488" lon="-2.16154">
        <ele>37.6</ele>
        <time>2021-05-08T14:21:14Z</time>
      </trkpt>
      <trkpt lat="47.56486" lon="-2.16158">
        <ele>37.8</ele>
        <time>2021-05-08T14:21:16Z</time>
      </trkpt>
      <trkpt lat="47.56485" lon="-2.16159">
        <ele>37.9</ele>
        <time>2021-05-08T14:21:17Z</time>
      </trkpt>
      <trkpt lat="47.56482" lon="-2.16163">
        <ele>38.2</ele>
        <time>2021-05-08T14:21:19Z</time>
      </trkpt>
      <trkpt lat="47.56481" lon="-2.16165">
        <ele>38.3</ele>
        <time>2021-05-08T14:21:20Z</time>
      </trkpt>
      <trkpt lat="47.56479" lon="-2.16169">
        <ele>38.5</ele>
        <time>2021-05-08T14:21:22Z</time>
      </trkpt>
      <trkpt lat="47.56476" lon="-2.16172">
        <ele>38.6</ele>
        <time>2021-05-08T14:21:23Z</time>
      </trkpt>
      <trkpt lat="47.56474" lon="-2.16175">
        <ele>38.9</ele>
        <time>2021-05-08T14:21:25Z</time>
      </trkpt>
      <trkpt lat="47.56434" lon="-2.162">
        <ele>39.8</ele>
      </trkpt>
      <trkpt lat="47.56435" lon="-2.16206">
        <ele>40</ele>
      </trkpt>
      <trkpt lat="47.56434" lon="-2.162">
        <ele>39.8</ele>
      </trkpt>
      <trkpt lat="47.56434" lon="-2.16161">
        <ele>38.6</ele>
      </trkpt>
      <trkpt lat="47.56427" lon="-2.16149">
        <ele>38.2</ele>
      </trkpt>
      <trkpt lat="47.56423" lon="-2.16129">
        <ele>37.3</ele>
      </trkpt>
      <trkpt lat="47.56421" lon="-2.16115">
        <ele>36.6</ele>
      </trkpt>
      <trkpt lat="47.56422" lon="-2.16092">
        <ele>35.6</ele>
      </trkpt>
      <trkpt lat="47.5642" lon="-2.16075">
        <ele>34.1</ele>
      </trkpt>
      <trkpt lat="47.56423" lon="-2.16064">
        <ele>32.8</ele>
      </trkpt>
      <trkpt lat="47.56431" lon="-2.16056">
        <ele>32.2</ele>
      </trkpt>
      <trkpt lat="47.56435" lon="-2.16047">
        <ele>31.4</ele>
      </trkpt>
      <trkpt lat="47.56435" lon="-2.16036">
        <ele>30</ele>
      </trkpt>
      <trkpt lat="47.56428" lon="-2.16013">
        <ele>26.6</ele>
      </trkpt>
      <trkpt lat="47.56428" lon="-2.16005">
        <ele>25.6</ele>
      </trkpt>
      <trkpt lat="47.5643" lon="-2.16005">
        <ele>25.8</ele>
      </trkpt>
      <trkpt lat="47.56428" lon="-2.16005">
        <ele>25.6</ele>
      </trkpt>
      <trkpt lat="47.56428" lon="-2.16013">
        <ele>26.6</ele>
      </trkpt>
      <trkpt lat="47.56435" lon="-2.16036">
        <ele>30</ele>
      </trkpt>
      <trkpt lat="47.56435" lon="-2.16047">
        <ele>31.4</ele>
      </trkpt>
      <trkpt lat="47.56431" lon="-2.16056">
        <ele>32.2</ele>
      </trkpt>
      <trkpt lat="47.56423" lon="-2.16064">
        <ele>32.8</ele>
      </trkpt>
      <trkpt lat="47.5642" lon="-2.16075">
        <ele>34.1</ele>
      </trkpt>
      <trkpt lat="47.56422" lon="-2.16092">
        <ele>35.6</ele>
      </trkpt>
      <trkpt lat="47.56421" lon="-2.16115">
        <ele>36.6</ele>
      </trkpt>
      <trkpt lat="47.56423" lon="-2.16129">
        <ele>37.3</ele>
      </trkpt>
      <trkpt lat="47.56427" lon="-2.16149">
        <ele>38.2</ele>
      </trkpt>
      <trkpt lat="47.56434" lon="-2.16161">
        <ele>38.6</ele>
      </trkpt>
      <trkpt lat="47.56434" lon="-2.162">
        <ele>39.8</ele>
      </trkpt>
      <trkpt lat="47.56435" lon="-2.16206">
        <ele>40</ele>
      </trkpt>
      <trkpt lat="47.56412" lon="-2.16239">
        <ele>40.4</ele>
        <time>2021-05-08T14:22:03Z</time>
      </trkpt>
      <trkpt lat="47.56408" lon="-2.16241">
        <ele>40.4</ele>
        <time>2021-05-08T14:22:04Z</time>
      </trkpt>
      <trkpt lat="47.56405" lon="-2.16245">
        <ele>40.4</ele>
        <time>2021-05-08T14:22:06Z</time>
      </trkpt>
      <trkpt lat="47.56399" lon="-2.16246">
        <ele>40.4</ele>
        <time>2021-05-08T14:22:08Z</time>
      </trkpt>
      <trkpt lat="47.56394" lon="-2.16244">
        <ele>40.4</ele>
        <time>2021-05-08T14:22:10Z</time>
      </trkpt>
      <trkpt lat="47.5639" lon="-2.16243">
        <ele>40.4</ele>
        <time>2021-05-08T14:22:12Z</time>
      </trkpt>
      <trkpt lat="47.56386" lon="-2.16242">
        <ele>40.4</ele>
        <time>2021-05-08T14:22:14Z</time>
      </trkpt>
      <trkpt lat="47.56382" lon="-2.16242">
        <ele>40.4</ele>
        <time>2021-05-08T14:22:15Z</time>
      </trkpt>
      <trkpt lat="47.5638" lon="-2.16243">
        <ele>40.4</ele>
        <time>2021-05-08T14:22:16Z</time>
      </trkpt>
      <trkpt lat="47.56377" lon="-2.16244">
        <ele>40.4</ele>
        <time>2021-05-08T14:22:18Z</time>
      </trkpt>
      <trkpt lat="47.56374" lon="-2.16243">
        <ele>40.5</ele>
        <time>2021-05-08T14:22:20Z</time>
      </trkpt>
      <trkpt lat="47.56371" lon="-2.16244">
        <ele>40.5</ele>
        <time>2021-05-08T14:22:21Z</time>
      </trkpt>
      <trkpt lat="47.5637" lon="-2.16244">
        <ele>40.5</ele>
        <time>2021-05-08T14:22:22Z</time>
      </trkpt>
      <trkpt lat="47.56368" lon="-2.16245">
        <ele>40.6</ele>
        <time>2021-05-08T14:22:24Z</time>
      </trkpt>
      <trkpt lat="47.56365" lon="-2.16247">
        <ele>40.6</ele>
        <time>2021-05-08T14:22:26Z</time>
      </trkpt>
      <trkpt lat="47.56361" lon="-2.16248">
        <ele>40.7</ele>
        <time>2021-05-08T14:22:27Z</time>
      </trkpt>
      <trkpt lat="47.5636" lon="-2.16249">
        <ele>40.7</ele>
        <time>2021-05-08T14:22:28Z</time>
      </trkpt>
      <trkpt lat="47.56356" lon="-2.1625">
        <ele>40.8</ele>
        <time>2021-05-08T14:22:30Z</time>
      </trkpt>
      <trkpt lat="47.56354" lon="-2.16251">
        <ele>40.9</ele>
        <time>2021-05-08T14:22:31Z</time>
      </trkpt>
      <trkpt lat="47.56352" lon="-2.16252">
        <ele>41</ele>
        <time>2021-05-08T14:22:33Z</time>
      </trkpt>
      <trkpt lat="47.56349" lon="-2.16254">
        <ele>41.1</ele>
        <time>2021-05-08T14:22:35Z</time>
      </trkpt>
      <trkpt lat="47.56347" lon="-2.16255">
        <ele>41.2</ele>
        <time>2021-05-08T14:22:36Z</time>
      </trkpt>
      <trkpt lat="47.56343" lon="-2.16256">
        <ele>41.3</ele>
        <time>2021-05-08T14:22:38Z</time>
      </trkpt>
      <trkpt lat="47.5634" lon="-2.16258">
        <ele>41.3</ele>
        <time>2021-05-08T14:22:39Z</time>
      </trkpt>
      <trkpt lat="47.56337" lon="-2.16259">
        <ele>41.4</ele>
        <time>2021-05-08T14:22:41Z</time>
      </trkpt>
      <trkpt lat="47.56334" lon="-2.1626">
        <ele>41.5</ele>
        <time>2021-05-08T14:22:43Z</time>
      </trkpt>
      <trkpt lat="47.56331" lon="-2.16262">
        <ele>41.6</ele>
        <time>2021-05-08T14:22:44Z</time>
      </trkpt>
      <trkpt lat="47.56328" lon="-2.16265">
        <ele>41.7</ele>
        <time>2021-05-08T14:22:46Z</time>
      </trkpt>
      <trkpt lat="47.56325" lon="-2.16267">
        <ele>41.8</ele>
        <time>2021-05-08T14:22:47Z</time>
      </trkpt>
      <trkpt lat="47.56323" lon="-2.16269">
        <ele>42</ele>
        <time>2021-05-08T14:22:49Z</time>
      </trkpt>
      <trkpt lat="47.56322" lon="-2.1627">
        <ele>42</ele>
        <time>2021-05-08T14:22:50Z</time>
      </trkpt>
      <trkpt lat="47.5632" lon="-2.16272">
        <ele>42.1</ele>
        <time>2021-05-08T14:22:51Z</time>
      </trkpt>
      <trkpt lat="47.56317" lon="-2.16275">
        <ele>42.4</ele>
        <time>2021-05-08T14:22:53Z</time>
      </trkpt>
      <trkpt lat="47.56316" lon="-2.16277">
        <ele>42.5</ele>
        <time>2021-05-08T14:22:54Z</time>
      </trkpt>
      <trkpt lat="47.56314" lon="-2.1628">
        <ele>42.7</ele>
        <time>2021-05-08T14:22:56Z</time>
      </trkpt>
      <trkpt lat="47.56312" lon="-2.16281">
        <ele>42.8</ele>
        <time>2021-05-08T14:22:57Z</time>
      </trkpt>
      <trkpt lat="47.56311" lon="-2.16285">
        <ele>43.1</ele>
        <time>2021-05-08T14:22:59Z</time>
      </trkpt>
      <trkpt lat="47.56309" lon="-2.16289">
        <ele>43.3</ele>
        <time>2021-05-08T14:23:00Z</time>
      </trkpt>
      <trkpt lat="47.56308" lon="-2.16295">
        <ele>43.7</ele>
        <time>2021-05-08T14:23:02Z</time>
      </trkpt>
      <trkpt lat="47.56307" lon="-2.16296">
        <ele>43.8</ele>
        <time>2021-05-08T14:23:03Z</time>
      </trkpt>
      <trkpt lat="47.56307" lon="-2.16298">
        <ele>43.9</ele>
        <time>2021-05-08T14:23:04Z</time>
      </trkpt>
      <trkpt lat="47.56307" lon="-2.16303">
        <ele>44.1</ele>
        <time>2021-05-08T14:23:05Z</time>
      </trkpt>
      <trkpt lat="47.56307" lon="-2.16305">
        <ele>44.3</ele>
        <time>2021-05-08T14:23:06Z</time>
      </trkpt>
      <trkpt lat="47.56307" lon="-2.16312">
        <ele>44.6</ele>
        <time>2021-05-08T14:23:08Z</time>
      </trkpt>
      <trkpt lat="47.56307" lon="-2.16314">
        <ele>44.7</ele>
        <time>2021-05-08T14:23:09Z</time>
      </trkpt>
      <trkpt lat="47.56307" lon="-2.16316">
        <ele>44.8</ele>
        <time>2021-05-08T14:23:10Z</time>
      </trkpt>
      <trkpt lat="47.56307" lon="-2.16319">
        <ele>45</ele>
        <time>2021-05-08T14:23:12Z</time>
      </trkpt>
      <trkpt lat="47.56307" lon="-2.16326">
        <ele>45.3</ele>
        <time>2021-05-08T14:23:14Z</time>
      </trkpt>
      <trkpt lat="47.56308" lon="-2.16333">
        <ele>45.6</ele>
        <time>2021-05-08T14:23:16Z</time>
      </trkpt>
      <trkpt lat="47.56309" lon="-2.16335">
        <ele>45.7</ele>
        <time>2021-05-08T14:23:17Z</time>
      </trkpt>
      <trkpt lat="47.56309" lon="-2.16337">
        <ele>45.8</ele>
        <time>2021-05-08T14:23:18Z</time>
      </trkpt>
      <trkpt lat="47.5631" lon="-2.16341">
        <ele>45.9</ele>
        <time>2021-05-08T14:23:19Z</time>
      </trkpt>
      <trkpt lat="47.56311" lon="-2.16347">
        <ele>46.1</ele>
        <time>2021-05-08T14:23:21Z</time>
      </trkpt>
      <trkpt lat="47.56311" lon="-2.1635">
        <ele>46.3</ele>
        <time>2021-05-08T14:23:22Z</time>
      </trkpt>
      <trkpt lat="47.56312" lon="-2.16353">
        <ele>46.4</ele>
        <time>2021-05-08T14:23:24Z</time>
      </trkpt>
      <trkpt lat="47.56312" lon="-2.16357">
        <ele>46.5</ele>
        <time>2021-05-08T14:23:25Z</time>
      </trkpt>
      <trkpt lat="47.56314" lon="-2.16362">
        <ele>46.7</ele>
        <time>2021-05-08T14:23:27Z</time>
      </trkpt>
      <trkpt lat="47.56315" lon="-2.16366">
        <ele>46.9</ele>
        <time>2021-05-08T14:23:29Z</time>
      </trkpt>
      <trkpt lat="47.56316" lon="-2.16368">
        <ele>46.9</ele>
        <time>2021-05-08T14:23:30Z</time>
      </trkpt>
      <trkpt lat="47.56316" lon="-2.1637">
        <ele>47</ele>
        <time>2021-05-08T14:23:31Z</time>
      </trkpt>
      <trkpt lat="47.56318" lon="-2.16373">
        <ele>47.1</ele>
        <time>2021-05-08T14:23:32Z</time>
      </trkpt>
      <trkpt lat="47.5632" lon="-2.16379">
        <ele>47.3</ele>
        <time>2021-05-08T14:23:35Z</time>
      </trkpt>
      <trkpt lat="47.56321" lon="-2.16381">
        <ele>47.4</ele>
        <time>2021-05-08T14:23:36Z</time>
      </trkpt>
      <trkpt lat="47.56321" lon="-2.16383">
        <ele>47.4</ele>
        <time>2021-05-08T14:23:37Z</time>
      </trkpt>
      <trkpt lat="47.56322" lon="-2.16386">
        <ele>47.5</ele>
        <time>2021-05-08T14:23:38Z</time>
      </trkpt>
      <trkpt lat="47.56322" lon="-2.16393">
        <ele>47.7</ele>
        <time>2021-05-08T14:23:41Z</time>
      </trkpt>
      <trkpt lat="47.56323" lon="-2.16397">
        <ele>47.8</ele>
        <time>2021-05-08T14:23:42Z</time>
      </trkpt>
      <trkpt lat="47.56323" lon="-2.16403">
        <ele>48</ele>
        <time>2021-05-08T14:23:44Z</time>
      </trkpt>
      <trkpt lat="47.56324" lon="-2.16405">
        <ele>48</ele>
        <time>2021-05-08T14:23:45Z</time>
      </trkpt>
      <trkpt lat="47.56324" lon="-2.16413">
        <ele>48.2</ele>
        <time>2021-05-08T14:23:47Z</time>
      </trkpt>
      <trkpt lat="47.56326" lon="-2.16421">
        <ele>48.3</ele>
        <time>2021-05-08T14:23:49Z</time>
      </trkpt>
      <trkpt lat="47.56326" lon="-2.16424">
        <ele>48.4</ele>
        <time>2021-05-08T14:23:50Z</time>
      </trkpt>
      <trkpt lat="47.56327" lon="-2.16427">
        <ele>48.5</ele>
        <time>2021-05-08T14:23:51Z</time>
      </trkpt>
      <trkpt lat="47.56328" lon="-2.16432">
        <ele>48.5</ele>
        <time>2021-05-08T14:23:53Z</time>
      </trkpt>
      <trkpt lat="47.56329" lon="-2.16437">
        <ele>48.6</ele>
        <time>2021-05-08T14:23:54Z</time>
      </trkpt>
      <trkpt lat="47.56329" lon="-2.16442">
        <ele>48.7</ele>
        <time>2021-05-08T14:23:56Z</time>
      </trkpt>
      <trkpt lat="47.5633" lon="-2.1645">
        <ele>48.8</ele>
        <time>2021-05-08T14:23:58Z</time>
      </trkpt>
      <trkpt lat="47.56331" lon="-2.16458">
        <ele>48.9</ele>
        <time>2021-05-08T14:23:59Z</time>
      </trkpt>
      <trkpt lat="47.56331" lon="-2.16463">
        <ele>48.9</ele>
        <time>2021-05-08T14:24:01Z</time>
      </trkpt>
      <trkpt lat="47.56332" lon="-2.1647">
        <ele>49</ele>
        <time>2021-05-08T14:24:02Z</time>
      </trkpt>
      <trkpt lat="47.56332" lon="-2.16476">
        <ele>49</ele>
        <time>2021-05-08T14:24:04Z</time>
      </trkpt>
      <trkpt lat="47.56333" lon="-2.16484">
        <ele>49</ele>
        <time>2021-05-08T14:24:06Z</time>
      </trkpt>
      <trkpt lat="47.56333" lon="-2.16489">
        <ele>49.1</ele>
        <time>2021-05-08T14:24:07Z</time>
      </trkpt>
      <trkpt lat="47.56333" lon="-2.16493">
        <ele>49.1</ele>
        <time>2021-05-08T14:24:08Z</time>
      </trkpt>
      <trkpt lat="47.56334" lon="-2.165">
        <ele>49.1</ele>
        <time>2021-05-08T14:24:09Z</time>
      </trkpt>
      <trkpt lat="47.56335" lon="-2.16505">
        <ele>49.2</ele>
        <time>2021-05-08T14:24:11Z</time>
      </trkpt>
      <trkpt lat="47.56336" lon="-2.16509">
        <ele>49.2</ele>
        <time>2021-05-08T14:24:12Z</time>
      </trkpt>
      <trkpt lat="47.56338" lon="-2.16511">
        <ele>49.2</ele>
        <time>2021-05-08T14:24:13Z</time>
      </trkpt>
      <trkpt lat="47.56342" lon="-2.16513">
        <ele>49.2</ele>
        <time>2021-05-08T14:24:15Z</time>
      </trkpt>
      <trkpt lat="47.56346" lon="-2.16517">
        <ele>49.2</ele>
        <time>2021-05-08T14:24:16Z</time>
      </trkpt>
      <trkpt lat="47.56349" lon="-2.1652">
        <ele>49.3</ele>
        <time>2021-05-08T14:24:18Z</time>
      </trkpt>
      <trkpt lat="47.56352" lon="-2.16523">
        <ele>49.3</ele>
        <time>2021-05-08T14:24:19Z</time>
      </trkpt>
      <trkpt lat="47.56354" lon="-2.16525">
        <ele>49.3</ele>
        <time>2021-05-08T14:24:20Z</time>
      </trkpt>
      <trkpt lat="47.56355" lon="-2.16529">
        <ele>49.3</ele>
        <time>2021-05-08T14:24:21Z</time>
      </trkpt>
      <trkpt lat="47.56357" lon="-2.16534">
        <ele>49.3</ele>
        <time>2021-05-08T14:24:23Z</time>
      </trkpt>
      <trkpt lat="47.56358" lon="-2.16539">
        <ele>49.4</ele>
        <time>2021-05-08T14:24:24Z</time>
      </trkpt>
      <trkpt lat="47.56359" lon="-2.16545">
        <ele>49.4</ele>
        <time>2021-05-08T14:24:25Z</time>
      </trkpt>
      <trkpt lat="47.56362" lon="-2.16552">
        <ele>49.4</ele>
        <time>2021-05-08T14:24:27Z</time>
      </trkpt>
      <trkpt lat="47.56363" lon="-2.16555">
        <ele>49.4</ele>
        <time>2021-05-08T14:24:28Z</time>
      </trkpt>
      <trkpt lat="47.56364" lon="-2.16558">
        <ele>49.4</ele>
        <time>2021-05-08T14:24:29Z</time>
      </trkpt>
      <trkpt lat="47.56367" lon="-2.16565">
        <ele>49.4</ele>
        <time>2021-05-08T14:24:31Z</time>
      </trkpt>
      <trkpt lat="47.56368" lon="-2.16568">
        <ele>49.4</ele>
        <time>2021-05-08T14:24:32Z</time>
      </trkpt>
      <trkpt lat="47.56369" lon="-2.16571">
        <ele>49.3</ele>
        <time>2021-05-08T14:24:33Z</time>
      </trkpt>
      <trkpt lat="47.5637" lon="-2.16576">
        <ele>49.3</ele>
        <time>2021-05-08T14:24:35Z</time>
      </trkpt>
      <trkpt lat="47.56372" lon="-2.16581">
        <ele>49.3</ele>
        <time>2021-05-08T14:24:36Z</time>
      </trkpt>
      <trkpt lat="47.56374" lon="-2.16588">
        <ele>49.3</ele>
        <time>2021-05-08T14:24:37Z</time>
      </trkpt>
      <trkpt lat="47.56375" lon="-2.16591">
        <ele>49.3</ele>
        <time>2021-05-08T14:24:38Z</time>
      </trkpt>
      <trkpt lat="47.56376" lon="-2.16597">
        <ele>49.4</ele>
        <time>2021-05-08T14:24:40Z</time>
      </trkpt>
      <trkpt lat="47.56377" lon="-2.16601">
        <ele>49.4</ele>
        <time>2021-05-08T14:24:41Z</time>
      </trkpt>
      <trkpt lat="47.56379" lon="-2.16608">
        <ele>49.4</ele>
        <time>2021-05-08T14:24:42Z</time>
      </trkpt>
      <trkpt lat="47.5638" lon="-2.16614">
        <ele>49.4</ele>
        <time>2021-05-08T14:24:44Z</time>
      </trkpt>
      <trkpt lat="47.56382" lon="-2.16619">
        <ele>49.4</ele>
        <time>2021-05-08T14:24:45Z</time>
      </trkpt>
      <trkpt lat="47.56384" lon="-2.16624">
        <ele>49.4</ele>
        <time>2021-05-08T14:24:47Z</time>
      </trkpt>
      <trkpt lat="47.56386" lon="-2.16628">
        <ele>49.5</ele>
        <time>2021-05-08T14:24:48Z</time>
      </trkpt>
      <trkpt lat="47.56389" lon="-2.16632">
        <ele>49.5</ele>
        <time>2021-05-08T14:24:50Z</time>
      </trkpt>
      <trkpt lat="47.56391" lon="-2.16637">
        <ele>49.5</ele>
        <time>2021-05-08T14:24:52Z</time>
      </trkpt>
      <trkpt lat="47.56392" lon="-2.16641">
        <ele>49.6</ele>
        <time>2021-05-08T14:24:53Z</time>
      </trkpt>
      <trkpt lat="47.56393" lon="-2.16648">
        <ele>49.6</ele>
        <time>2021-05-08T14:24:55Z</time>
      </trkpt>
      <trkpt lat="47.56393" lon="-2.16654">
        <ele>49.7</ele>
        <time>2021-05-08T14:24:56Z</time>
      </trkpt>
      <trkpt lat="47.56394" lon="-2.16658">
        <ele>49.8</ele>
        <time>2021-05-08T14:24:58Z</time>
      </trkpt>
      <trkpt lat="47.56397" lon="-2.16663">
        <ele>49.9</ele>
        <time>2021-05-08T14:25:00Z</time>
      </trkpt>
      <trkpt lat="47.56401" lon="-2.16666">
        <ele>49.9</ele>
        <time>2021-05-08T14:25:02Z</time>
      </trkpt>
      <trkpt lat="47.56403" lon="-2.16668">
        <ele>50</ele>
        <time>2021-05-08T14:25:03Z</time>
      </trkpt>
      <trkpt lat="47.56405" lon="-2.16673">
        <ele>50</ele>
        <time>2021-05-08T14:25:05Z</time>
      </trkpt>
      <trkpt lat="47.56404" lon="-2.16679">
        <ele>50.1</ele>
        <time>2021-05-08T14:25:07Z</time>
      </trkpt>
      <trkpt lat="47.56404" lon="-2.16682">
        <ele>50.1</ele>
        <time>2021-05-08T14:25:08Z</time>
      </trkpt>
      <trkpt lat="47.56404" lon="-2.16687">
        <ele>50.1</ele>
        <time>2021-05-08T14:25:10Z</time>
      </trkpt>
      <trkpt lat="47.56404" lon="-2.16691">
        <ele>50</ele>
        <time>2021-05-08T14:25:11Z</time>
      </trkpt>
      <trkpt lat="47.56402" lon="-2.16696">
        <ele>50</ele>
        <time>2021-05-08T14:25:12Z</time>
      </trkpt>
      <trkpt lat="47.564" lon="-2.16698">
        <ele>50</ele>
        <time>2021-05-08T14:25:14Z</time>
      </trkpt>
      <trkpt lat="47.56399" lon="-2.16699">
        <ele>49.9</ele>
        <time>2021-05-08T14:25:16Z</time>
      </trkpt>
      <trkpt lat="47.56397" lon="-2.16701">
        <ele>49.8</ele>
        <time>2021-05-08T14:25:18Z</time>
      </trkpt>
      <trkpt lat="47.56395" lon="-2.16703">
        <ele>49.7</ele>
        <time>2021-05-08T14:25:19Z</time>
      </trkpt>
      <trkpt lat="47.56394" lon="-2.16705">
        <ele>49.6</ele>
        <time>2021-05-08T14:25:20Z</time>
      </trkpt>
      <trkpt lat="47.56388" lon="-2.16708">
        <ele>49.2</ele>
        <time>2021-05-08T14:25:22Z</time>
      </trkpt>
      <trkpt lat="47.56384" lon="-2.1671">
        <ele>48.9</ele>
        <time>2021-05-08T14:25:23Z</time>
      </trkpt>
      <trkpt lat="47.56381" lon="-2.16709">
        <ele>48.7</ele>
        <time>2021-05-08T14:25:24Z</time>
      </trkpt>
      <trkpt lat="47.56377" lon="-2.1671">
        <ele>48.4</ele>
        <time>2021-05-08T14:25:26Z</time>
      </trkpt>
      <trkpt lat="47.56373" lon="-2.1671">
        <ele>48</ele>
        <time>2021-05-08T14:25:27Z</time>
      </trkpt>
      <trkpt lat="47.56369" lon="-2.1671">
        <ele>47.6</ele>
        <time>2021-05-08T14:25:28Z</time>
      </trkpt>
      <trkpt lat="47.56366" lon="-2.1671">
        <ele>47.2</ele>
        <time>2021-05-08T14:25:30Z</time>
      </trkpt>
      <trkpt lat="47.56362" lon="-2.16712">
        <ele>46.7</ele>
        <time>2021-05-08T14:25:31Z</time>
      </trkpt>
      <trkpt lat="47.56356" lon="-2.16714">
        <ele>46</ele>
        <time>2021-05-08T14:25:32Z</time>
      </trkpt>
      <trkpt lat="47.56351" lon="-2.16714">
        <ele>45.3</ele>
        <time>2021-05-08T14:25:34Z</time>
      </trkpt>
      <trkpt lat="47.56345" lon="-2.16715">
        <ele>44.7</ele>
        <time>2021-05-08T14:25:35Z</time>
      </trkpt>
      <trkpt lat="47.5634" lon="-2.16717">
        <ele>44.2</ele>
        <time>2021-05-08T14:25:36Z</time>
      </trkpt>
      <trkpt lat="47.56336" lon="-2.1672">
        <ele>43.8</ele>
        <time>2021-05-08T14:25:38Z</time>
      </trkpt>
      <trkpt lat="47.56329" lon="-2.16721">
        <ele>43.2</ele>
        <time>2021-05-08T14:25:39Z</time>
      </trkpt>
      <trkpt lat="47.56325" lon="-2.16721">
        <ele>42.8</ele>
        <time>2021-05-08T14:25:41Z</time>
      </trkpt>
      <trkpt lat="47.5632" lon="-2.16722">
        <ele>42.3</ele>
        <time>2021-05-08T14:25:43Z</time>
      </trkpt>
      <trkpt lat="47.56316" lon="-2.16721">
        <ele>41.9</ele>
        <time>2021-05-08T14:25:44Z</time>
      </trkpt>
      <trkpt lat="47.56313" lon="-2.16721">
        <ele>41.5</ele>
        <time>2021-05-08T14:25:45Z</time>
      </trkpt>
      <trkpt lat="47.56307" lon="-2.16722">
        <ele>40.8</ele>
        <time>2021-05-08T14:25:46Z</time>
      </trkpt>
      <trkpt lat="47.56304" lon="-2.16723">
        <ele>40.4</ele>
        <time>2021-05-08T14:25:48Z</time>
      </trkpt>
      <trkpt lat="47.56301" lon="-2.16724">
        <ele>39.9</ele>
        <time>2021-05-08T14:25:49Z</time>
      </trkpt>
      <trkpt lat="47.56296" lon="-2.16726">
        <ele>39.3</ele>
        <time>2021-05-08T14:25:50Z</time>
      </trkpt>
      <trkpt lat="47.56293" lon="-2.16728">
        <ele>38.8</ele>
        <time>2021-05-08T14:25:51Z</time>
      </trkpt>
      <trkpt lat="47.5629" lon="-2.1673">
        <ele>38.4</ele>
        <time>2021-05-08T14:25:52Z</time>
      </trkpt>
      <trkpt lat="47.56285" lon="-2.16733">
        <ele>37.6</ele>
        <time>2021-05-08T14:25:54Z</time>
      </trkpt>
      <trkpt lat="47.56279" lon="-2.16736">
        <ele>36.8</ele>
        <time>2021-05-08T14:25:55Z</time>
      </trkpt>
      <trkpt lat="47.56276" lon="-2.16738">
        <ele>36.3</ele>
        <time>2021-05-08T14:25:56Z</time>
      </trkpt>
      <trkpt lat="47.56268" lon="-2.16743">
        <ele>35.4</ele>
        <time>2021-05-08T14:25:58Z</time>
      </trkpt>
      <trkpt lat="47.56263" lon="-2.16747">
        <ele>34.7</ele>
        <time>2021-05-08T14:25:59Z</time>
      </trkpt>
      <trkpt lat="47.56258" lon="-2.16751">
        <ele>34.1</ele>
        <time>2021-05-08T14:26:00Z</time>
      </trkpt>
      <trkpt lat="47.56252" lon="-2.16755">
        <ele>33.4</ele>
        <time>2021-05-08T14:26:01Z</time>
      </trkpt>
      <trkpt lat="47.56246" lon="-2.16761">
        <ele>32.6</ele>
        <time>2021-05-08T14:26:02Z</time>
      </trkpt>
      <trkpt lat="47.56241" lon="-2.16765">
        <ele>32</ele>
        <time>2021-05-08T14:26:04Z</time>
      </trkpt>
      <trkpt lat="47.56236" lon="-2.16769">
        <ele>31.4</ele>
        <time>2021-05-08T14:26:05Z</time>
      </trkpt>
      <trkpt lat="47.5623" lon="-2.16772">
        <ele>30.8</ele>
        <time>2021-05-08T14:26:06Z</time>
      </trkpt>
      <trkpt lat="47.56221" lon="-2.16777">
        <ele>29.9</ele>
        <time>2021-05-08T14:26:07Z</time>
      </trkpt>
      <trkpt lat="47.56216" lon="-2.1678">
        <ele>29.4</ele>
        <time>2021-05-08T14:26:09Z</time>
      </trkpt>
      <trkpt lat="47.56212" lon="-2.16783">
        <ele>28.9</ele>
        <time>2021-05-08T14:26:10Z</time>
      </trkpt>
      <trkpt lat="47.56207" lon="-2.16787">
        <ele>28.4</ele>
        <time>2021-05-08T14:26:11Z</time>
      </trkpt>
      <trkpt lat="47.56202" lon="-2.16791">
        <ele>27.8</ele>
        <time>2021-05-08T14:26:13Z</time>
      </trkpt>
      <trkpt lat="47.56198" lon="-2.16794">
        <ele>27.1</ele>
        <time>2021-05-08T14:26:14Z</time>
      </trkpt>
      <trkpt lat="47.56195" lon="-2.16798">
        <ele>26.6</ele>
        <time>2021-05-08T14:26:16Z</time>
      </trkpt>
      <trkpt lat="47.56192" lon="-2.168">
        <ele>26.2</ele>
        <time>2021-05-08T14:26:17Z</time>
      </trkpt>
      <trkpt lat="47.56188" lon="-2.16804">
        <ele>25.5</ele>
        <time>2021-05-08T14:26:18Z</time>
      </trkpt>
      <trkpt lat="47.56183" lon="-2.16808">
        <ele>24.8</ele>
        <time>2021-05-08T14:26:20Z</time>
      </trkpt>
      <trkpt lat="47.56179" lon="-2.16813">
        <ele>24.2</ele>
        <time>2021-05-08T14:26:21Z</time>
      </trkpt>
      <trkpt lat="47.56176" lon="-2.16816">
        <ele>23.9</ele>
        <time>2021-05-08T14:26:23Z</time>
      </trkpt>
      <trkpt lat="47.56172" lon="-2.16819">
        <ele>23.4</ele>
        <time>2021-05-08T14:26:24Z</time>
      </trkpt>
      <trkpt lat="47.56168" lon="-2.16822">
        <ele>23</ele>
        <time>2021-05-08T14:26:25Z</time>
      </trkpt>
      <trkpt lat="47.56164" lon="-2.16825">
        <ele>22.5</ele>
        <time>2021-05-08T14:26:26Z</time>
      </trkpt>
      <trkpt lat="47.56159" lon="-2.1683">
        <ele>21.8</ele>
        <time>2021-05-08T14:26:27Z</time>
      </trkpt>
      <trkpt lat="47.56153" lon="-2.16833">
        <ele>21.1</ele>
        <time>2021-05-08T14:26:29Z</time>
      </trkpt>
      <trkpt lat="47.56148" lon="-2.16837">
        <ele>20.4</ele>
        <time>2021-05-08T14:26:30Z</time>
      </trkpt>
      <trkpt lat="47.56116" lon="-2.16851">
        <ele>15.9</ele>
        <time>2021-05-08T14:26:32Z</time>
      </trkpt>
      <trkpt lat="47.56099" lon="-2.16862">
        <ele>13.5</ele>
        <time>2021-05-08T14:26:34Z</time>
      </trkpt>
      <trkpt lat="47.56091" lon="-2.16869">
        <ele>12.6</ele>
        <time>2021-05-08T14:26:35Z</time>
      </trkpt>
      <trkpt lat="47.56083" lon="-2.16875">
        <ele>11.8</ele>
        <time>2021-05-08T14:26:36Z</time>
      </trkpt>
      <trkpt lat="47.56076" lon="-2.16881">
        <ele>11.3</ele>
        <time>2021-05-08T14:26:38Z</time>
      </trkpt>
      <trkpt lat="47.56074" lon="-2.16885">
        <ele>11</ele>
        <time>2021-05-08T14:26:39Z</time>
      </trkpt>
      <trkpt lat="47.56072" lon="-2.16886">
        <ele>11</ele>
        <time>2021-05-08T14:26:40Z</time>
      </trkpt>
      <trkpt lat="47.56066" lon="-2.16888">
        <ele>10.7</ele>
        <time>2021-05-08T14:26:42Z</time>
      </trkpt>
      <trkpt lat="47.56063" lon="-2.1689">
        <ele>10.6</ele>
        <time>2021-05-08T14:26:43Z</time>
      </trkpt>
      <trkpt lat="47.56061" lon="-2.16893">
        <ele>10.5</ele>
        <time>2021-05-08T14:26:44Z</time>
      </trkpt>
      <trkpt lat="47.56055" lon="-2.16899">
        <ele>10.3</ele>
        <time>2021-05-08T14:26:46Z</time>
      </trkpt>
      <trkpt lat="47.5605" lon="-2.16903">
        <ele>10.1</ele>
        <time>2021-05-08T14:26:48Z</time>
      </trkpt>
      <trkpt lat="47.56046" lon="-2.16907">
        <ele>10</ele>
        <time>2021-05-08T14:26:50Z</time>
      </trkpt>
      <trkpt lat="47.56044" lon="-2.16909">
        <ele>9.9</ele>
        <time>2021-05-08T14:26:51Z</time>
      </trkpt>
      <trkpt lat="47.56038" lon="-2.16912">
        <ele>9.9</ele>
        <time>2021-05-08T14:26:53Z</time>
      </trkpt>
      <trkpt lat="47.56035" lon="-2.16914">
        <ele>9.9</ele>
        <time>2021-05-08T14:26:55Z</time>
      </trkpt>
      <trkpt lat="47.56034" lon="-2.16916">
        <ele>9.9</ele>
        <time>2021-05-08T14:26:56Z</time>
      </trkpt>
      <trkpt lat="47.56033" lon="-2.1692">
        <ele>10</ele>
        <time>2021-05-08T14:26:58Z</time>
      </trkpt>
      <trkpt lat="47.56034" lon="-2.16921">
        <ele>10</ele>
        <time>2021-05-08T14:26:59Z</time>
      </trkpt>
      <trkpt lat="47.56034" lon="-2.16921">
        <ele>10</ele>
        <time>2021-05-08T14:27:00Z</time>
      </trkpt>
      <trkpt lat="47.56034" lon="-2.16918">
        <ele>10</ele>
        <time>2021-05-08T14:27:01Z</time>
      </trkpt>
      <trkpt lat="47.56035" lon="-2.16918">
        <ele>10</ele>
        <time>2021-05-08T14:27:02Z</time>
      </trkpt>
      <trkpt lat="47.56036" lon="-2.16919">
        <ele>10</ele>
        <time>2021-05-08T14:27:03Z</time>
      </trkpt>
      <trkpt lat="47.56036" lon="-2.16919">
        <ele>10</ele>
        <time>2021-05-08T14:27:05Z</time>
      </trkpt>
      <trkpt lat="47.56036" lon="-2.16919">
        <ele>10</ele>
        <time>2021-05-08T14:27:06Z</time>
      </trkpt>
      <trkpt lat="47.56036" lon="-2.16918">
        <ele>10</ele>
        <time>2021-05-08T14:27:07Z</time>
      </trkpt>
      <trkpt lat="47.56036" lon="-2.16918">
        <ele>10</ele>
        <time>2021-05-08T14:27:09Z</time>
      </trkpt>
      <trkpt lat="47.56036" lon="-2.16916">
        <ele>10</ele>
        <time>2021-05-08T14:27:11Z</time>
      </trkpt>
      <trkpt lat="47.56036" lon="-2.16915">
        <ele>10</ele>
        <time>2021-05-08T14:27:12Z</time>
      </trkpt>
      <trkpt lat="47.56036" lon="-2.16914">
        <ele>10</ele>
        <time>2021-05-08T14:27:14Z</time>
      </trkpt>
      <trkpt lat="47.56036" lon="-2.16913">
        <ele>10</ele>
        <time>2021-05-08T14:27:15Z</time>
      </trkpt>
      <trkpt lat="47.56036" lon="-2.16913">
        <ele>10</ele>
        <time>2021-05-08T14:27:16Z</time>
      </trkpt>
      <trkpt lat="47.56036" lon="-2.16913">
        <ele>10</ele>
        <time>2021-05-08T14:27:17Z</time>
      </trkpt>
      <trkpt lat="47.56037" lon="-2.16914">
        <ele>10</ele>
        <time>2021-05-08T14:27:19Z</time>
      </trkpt>
      <trkpt lat="47.56036" lon="-2.16924">
        <ele>10</ele>
        <time>2021-05-08T14:33:22Z</time>
      </trkpt>
      <trkpt lat="47.56031" lon="-2.16925">
        <ele>10</ele>
        <time>2021-05-08T14:33:24Z</time>
      </trkpt>
      <trkpt lat="47.56027" lon="-2.16924">
        <ele>10</ele>
        <time>2021-05-08T14:33:26Z</time>
      </trkpt>
      <trkpt lat="47.56022" lon="-2.16922">
        <ele>10</ele>
        <time>2021-05-08T14:33:27Z</time>
      </trkpt>
      <trkpt lat="47.56019" lon="-2.1692">
        <ele>10</ele>
        <time>2021-05-08T14:33:29Z</time>
      </trkpt>
      <trkpt lat="47.56016" lon="-2.16919">
        <ele>10</ele>
        <time>2021-05-08T14:33:30Z</time>
      </trkpt>
      <trkpt lat="47.56014" lon="-2.16919">
        <ele>9.9</ele>
        <time>2021-05-08T14:33:31Z</time>
      </trkpt>
      <trkpt lat="47.56011" lon="-2.16918">
        <ele>9.9</ele>
        <time>2021-05-08T14:33:33Z</time>
      </trkpt>
      <trkpt lat="47.56006" lon="-2.16917">
        <ele>9.9</ele>
        <time>2021-05-08T14:33:34Z</time>
      </trkpt>
      <trkpt lat="47.56004" lon="-2.16917">
        <ele>9.9</ele>
        <time>2021-05-08T14:33:35Z</time>
      </trkpt>
      <trkpt lat="47.55999" lon="-2.16916">
        <ele>9.8</ele>
        <time>2021-05-08T14:33:37Z</time>
      </trkpt>
      <trkpt lat="47.55997" lon="-2.16916">
        <ele>9.8</ele>
        <time>2021-05-08T14:33:38Z</time>
      </trkpt>
      <trkpt lat="47.55995" lon="-2.16916">
        <ele>9.8</ele>
        <time>2021-05-08T14:33:39Z</time>
      </trkpt>
      <trkpt lat="47.55991" lon="-2.16915">
        <ele>9.8</ele>
        <time>2021-05-08T14:33:41Z</time>
      </trkpt>
      <trkpt lat="47.55984" lon="-2.16913">
        <ele>9.8</ele>
        <time>2021-05-08T14:33:42Z</time>
      </trkpt>
      <trkpt lat="47.55979" lon="-2.16912">
        <ele>9.8</ele>
        <time>2021-05-08T14:33:44Z</time>
      </trkpt>
      <trkpt lat="47.55976" lon="-2.16912">
        <ele>9.8</ele>
        <time>2021-05-08T14:33:45Z</time>
      </trkpt>
      <trkpt lat="47.55972" lon="-2.16911">
        <ele>9.8</ele>
        <time>2021-05-08T14:33:46Z</time>
      </trkpt>
      <trkpt lat="47.55967" lon="-2.1691">
        <ele>9.8</ele>
        <time>2021-05-08T14:33:47Z</time>
      </trkpt>
      <trkpt lat="47.55962" lon="-2.16909">
        <ele>9.8</ele>
        <time>2021-05-08T14:33:49Z</time>
      </trkpt>
      <trkpt lat="47.55958" lon="-2.16908">
        <ele>9.8</ele>
        <time>2021-05-08T14:33:50Z</time>
      </trkpt>
      <trkpt lat="47.55955" lon="-2.16908">
        <ele>9.8</ele>
        <time>2021-05-08T14:33:52Z</time>
      </trkpt>
      <trkpt lat="47.5595" lon="-2.16908">
        <ele>9.9</ele>
        <time>2021-05-08T14:33:54Z</time>
      </trkpt>
      <trkpt lat="47.55947" lon="-2.16908">
        <ele>9.9</ele>
        <time>2021-05-08T14:33:55Z</time>
      </trkpt>
      <trkpt lat="47.55946" lon="-2.16908">
        <ele>9.9</ele>
        <time>2021-05-08T14:33:56Z</time>
      </trkpt>
      <trkpt lat="47.55942" lon="-2.16908">
        <ele>9.9</ele>
        <time>2021-05-08T14:33:58Z</time>
      </trkpt>
      <trkpt lat="47.55939" lon="-2.16908">
        <ele>9.9</ele>
        <time>2021-05-08T14:34:00Z</time>
      </trkpt>
      <trkpt lat="47.55935" lon="-2.16909">
        <ele>9.9</ele>
        <time>2021-05-08T14:34:01Z</time>
      </trkpt>
      <trkpt lat="47.55931" lon="-2.16909">
        <ele>9.9</ele>
        <time>2021-05-08T14:34:03Z</time>
      </trkpt>
      <trkpt lat="47.55927" lon="-2.16909">
        <ele>9.9</ele>
        <time>2021-05-08T14:34:05Z</time>
      </trkpt>
      <trkpt lat="47.55924" lon="-2.16909">
        <ele>9.9</ele>
        <time>2021-05-08T14:34:06Z</time>
      </trkpt>
      <trkpt lat="47.55919" lon="-2.16909">
        <ele>9.9</ele>
        <time>2021-05-08T14:34:07Z</time>
      </trkpt>
      <trkpt lat="47.55917" lon="-2.16909">
        <ele>9.9</ele>
        <time>2021-05-08T14:34:08Z</time>
      </trkpt>
      <trkpt lat="47.55913" lon="-2.16909">
        <ele>9.9</ele>
        <time>2021-05-08T14:34:10Z</time>
      </trkpt>
      <trkpt lat="47.55908" lon="-2.1691">
        <ele>9.9</ele>
        <time>2021-05-08T14:34:12Z</time>
      </trkpt>
      <trkpt lat="47.55905" lon="-2.16911">
        <ele>9.9</ele>
        <time>2021-05-08T14:34:13Z</time>
      </trkpt>
      <trkpt lat="47.559" lon="-2.1691">
        <ele>10</ele>
        <time>2021-05-08T14:34:14Z</time>
      </trkpt>
      <trkpt lat="47.55896" lon="-2.1691">
        <ele>10</ele>
        <time>2021-05-08T14:34:16Z</time>
      </trkpt>
      <trkpt lat="47.55891" lon="-2.1691">
        <ele>10</ele>
        <time>2021-05-08T14:34:17Z</time>
      </trkpt>
      <trkpt lat="47.55887" lon="-2.16909">
        <ele>10</ele>
        <time>2021-05-08T14:34:19Z</time>
      </trkpt>
      <trkpt lat="47.55884" lon="-2.16908">
        <ele>10</ele>
        <time>2021-05-08T14:34:20Z</time>
      </trkpt>
      <trkpt lat="47.55877" lon="-2.16908">
        <ele>9.9</ele>
        <time>2021-05-08T14:34:22Z</time>
      </trkpt>
      <trkpt lat="47.55874" lon="-2.16908">
        <ele>9.9</ele>
        <time>2021-05-08T14:34:23Z</time>
      </trkpt>
      <trkpt lat="47.55868" lon="-2.16907">
        <ele>9.9</ele>
        <time>2021-05-08T14:34:24Z</time>
      </trkpt>
      <trkpt lat="47.55863" lon="-2.16906">
        <ele>9.9</ele>
        <time>2021-05-08T14:34:26Z</time>
      </trkpt>
      <trkpt lat="47.55856" lon="-2.16905">
        <ele>9.9</ele>
        <time>2021-05-08T14:34:28Z</time>
      </trkpt>
      <trkpt lat="47.55851" lon="-2.16904">
        <ele>9.9</ele>
        <time>2021-05-08T14:34:29Z</time>
      </trkpt>
      <trkpt lat="47.55848" lon="-2.16903">
        <ele>9.9</ele>
        <time>2021-05-08T14:34:30Z</time>
      </trkpt>
      <trkpt lat="47.55841" lon="-2.16901">
        <ele>9.9</ele>
        <time>2021-05-08T14:34:31Z</time>
      </trkpt>
      <trkpt lat="47.55836" lon="-2.169">
        <ele>9.9</ele>
        <time>2021-05-08T14:34:33Z</time>
      </trkpt>
      <trkpt lat="47.5583" lon="-2.16898">
        <ele>9.9</ele>
        <time>2021-05-08T14:34:34Z</time>
      </trkpt>
      <trkpt lat="47.55824" lon="-2.16897">
        <ele>9.9</ele>
        <time>2021-05-08T14:34:36Z</time>
      </trkpt>
      <trkpt lat="47.55818" lon="-2.16896">
        <ele>10</ele>
        <time>2021-05-08T14:34:37Z</time>
      </trkpt>
      <trkpt lat="47.55814" lon="-2.16895">
        <ele>10</ele>
        <time>2021-05-08T14:34:39Z</time>
      </trkpt>
      <trkpt lat="47.55811" lon="-2.16895">
        <ele>10.1</ele>
        <time>2021-05-08T14:34:40Z</time>
      </trkpt>
      <trkpt lat="47.55805" lon="-2.16893">
        <ele>10.2</ele>
        <time>2021-05-08T14:34:41Z</time>
      </trkpt>
      <trkpt lat="47.55801" lon="-2.16892">
        <ele>10.3</ele>
        <time>2021-05-08T14:34:43Z</time>
      </trkpt>
      <trkpt lat="47.55798" lon="-2.16891">
        <ele>10.4</ele>
        <time>2021-05-08T14:34:44Z</time>
      </trkpt>
      <trkpt lat="47.55793" lon="-2.1689">
        <ele>10.5</ele>
        <time>2021-05-08T14:34:46Z</time>
      </trkpt>
      <trkpt lat="47.55788" lon="-2.16891">
        <ele>10.6</ele>
        <time>2021-05-08T14:34:47Z</time>
      </trkpt>
      <trkpt lat="47.55785" lon="-2.16892">
        <ele>10.7</ele>
        <time>2021-05-08T14:34:49Z</time>
      </trkpt>
      <trkpt lat="47.55782" lon="-2.16895">
        <ele>10.8</ele>
        <time>2021-05-08T14:34:51Z</time>
      </trkpt>
      <trkpt lat="47.5578" lon="-2.16897">
        <ele>10.9</ele>
        <time>2021-05-08T14:34:52Z</time>
      </trkpt>
      <trkpt lat="47.55776" lon="-2.169">
        <ele>10.9</ele>
        <time>2021-05-08T14:34:53Z</time>
      </trkpt>
      <trkpt lat="47.55774" lon="-2.16901">
        <ele>10.9</ele>
        <time>2021-05-08T14:34:54Z</time>
      </trkpt>
      <trkpt lat="47.55771" lon="-2.16905">
        <ele>10.8</ele>
        <time>2021-05-08T14:34:56Z</time>
      </trkpt>
      <trkpt lat="47.55768" lon="-2.16909">
        <ele>10.8</ele>
        <time>2021-05-08T14:34:57Z</time>
      </trkpt>
      <trkpt lat="47.55766" lon="-2.16913">
        <ele>10.8</ele>
        <time>2021-05-08T14:34:59Z</time>
      </trkpt>
      <trkpt lat="47.55762" lon="-2.16919">
        <ele>10.8</ele>
        <time>2021-05-08T14:35:00Z</time>
      </trkpt>
      <trkpt lat="47.55759" lon="-2.16923">
        <ele>10.8</ele>
        <time>2021-05-08T14:35:02Z</time>
      </trkpt>
      <trkpt lat="47.55754" lon="-2.16928">
        <ele>10.8</ele>
        <time>2021-05-08T14:35:03Z</time>
      </trkpt>
      <trkpt lat="47.5575" lon="-2.16932">
        <ele>10.8</ele>
        <time>2021-05-08T14:35:05Z</time>
      </trkpt>
      <trkpt lat="47.55743" lon="-2.16938">
        <ele>10.8</ele>
        <time>2021-05-08T14:35:07Z</time>
      </trkpt>
      <trkpt lat="47.55739" lon="-2.16943">
        <ele>10.9</ele>
        <time>2021-05-08T14:35:08Z</time>
      </trkpt>
      <trkpt lat="47.55736" lon="-2.16945">
        <ele>10.9</ele>
        <time>2021-05-08T14:35:09Z</time>
      </trkpt>
      <trkpt lat="47.55732" lon="-2.16949">
        <ele>11</ele>
        <time>2021-05-08T14:35:10Z</time>
      </trkpt>
      <trkpt lat="47.55729" lon="-2.16953">
        <ele>11</ele>
        <time>2021-05-08T14:35:12Z</time>
      </trkpt>
      <trkpt lat="47.55723" lon="-2.16958">
        <ele>11.1</ele>
        <time>2021-05-08T14:35:13Z</time>
      </trkpt>
      <trkpt lat="47.55718" lon="-2.16964">
        <ele>11.1</ele>
        <time>2021-05-08T14:35:15Z</time>
      </trkpt>
      <trkpt lat="47.55712" lon="-2.1697">
        <ele>11.2</ele>
        <time>2021-05-08T14:35:16Z</time>
      </trkpt>
      <trkpt lat="47.55707" lon="-2.16975">
        <ele>11.2</ele>
        <time>2021-05-08T14:35:18Z</time>
      </trkpt>
      <trkpt lat="47.557" lon="-2.1698">
        <ele>11.4</ele>
        <time>2021-05-08T14:35:20Z</time>
      </trkpt>
      <trkpt lat="47.55696" lon="-2.16983">
        <ele>11.5</ele>
        <time>2021-05-08T14:35:21Z</time>
      </trkpt>
      <trkpt lat="47.55693" lon="-2.16986">
        <ele>11.5</ele>
        <time>2021-05-08T14:35:22Z</time>
      </trkpt>
      <trkpt lat="47.55689" lon="-2.16991">
        <ele>11.6</ele>
        <time>2021-05-08T14:35:23Z</time>
      </trkpt>
      <trkpt lat="47.55685" lon="-2.16994">
        <ele>11.7</ele>
        <time>2021-05-08T14:35:25Z</time>
      </trkpt>
      <trkpt lat="47.55681" lon="-2.16998">
        <ele>11.8</ele>
        <time>2021-05-08T14:35:26Z</time>
      </trkpt>
      <trkpt lat="47.55677" lon="-2.17002">
        <ele>11.9</ele>
        <time>2021-05-08T14:35:28Z</time>
      </trkpt>
      <trkpt lat="47.55673" lon="-2.17006">
        <ele>12</ele>
        <time>2021-05-08T14:35:29Z</time>
      </trkpt>
      <trkpt lat="47.55669" lon="-2.17009">
        <ele>12.1</ele>
        <time>2021-05-08T14:35:31Z</time>
      </trkpt>
      <trkpt lat="47.55664" lon="-2.17013">
        <ele>12.2</ele>
        <time>2021-05-08T14:35:32Z</time>
      </trkpt>
      <trkpt lat="47.5566" lon="-2.17015">
        <ele>12.3</ele>
        <time>2021-05-08T14:35:34Z</time>
      </trkpt>
      <trkpt lat="47.55654" lon="-2.1702">
        <ele>12.5</ele>
        <time>2021-05-08T14:35:36Z</time>
      </trkpt>
      <trkpt lat="47.55649" lon="-2.17023">
        <ele>12.6</ele>
        <time>2021-05-08T14:35:38Z</time>
      </trkpt>
      <trkpt lat="47.55646" lon="-2.17025">
        <ele>12.7</ele>
        <time>2021-05-08T14:35:39Z</time>
      </trkpt>
      <trkpt lat="47.55643" lon="-2.17028">
        <ele>12.8</ele>
        <time>2021-05-08T14:35:40Z</time>
      </trkpt>
      <trkpt lat="47.55639" lon="-2.1703">
        <ele>12.9</ele>
        <time>2021-05-08T14:35:41Z</time>
      </trkpt>
      <trkpt lat="47.55635" lon="-2.17033">
        <ele>13</ele>
        <time>2021-05-08T14:35:43Z</time>
      </trkpt>
      <trkpt lat="47.55631" lon="-2.17035">
        <ele>13.1</ele>
        <time>2021-05-08T14:35:44Z</time>
      </trkpt>
      <trkpt lat="47.55628" lon="-2.17038">
        <ele>13.2</ele>
        <time>2021-05-08T14:35:46Z</time>
      </trkpt>
      <trkpt lat="47.55624" lon="-2.17042">
        <ele>13.3</ele>
        <time>2021-05-08T14:35:47Z</time>
      </trkpt>
      <trkpt lat="47.55621" lon="-2.17045">
        <ele>13.4</ele>
        <time>2021-05-08T14:35:49Z</time>
      </trkpt>
      <trkpt lat="47.55617" lon="-2.17048">
        <ele>13.5</ele>
        <time>2021-05-08T14:35:50Z</time>
      </trkpt>
      <trkpt lat="47.55613" lon="-2.17051">
        <ele>13.7</ele>
        <time>2021-05-08T14:35:52Z</time>
      </trkpt>
      <trkpt lat="47.5561" lon="-2.17053">
        <ele>13.7</ele>
        <time>2021-05-08T14:35:53Z</time>
      </trkpt>
      <trkpt lat="47.55606" lon="-2.17055">
        <ele>13.9</ele>
        <time>2021-05-08T14:35:55Z</time>
      </trkpt>
      <trkpt lat="47.55603" lon="-2.17057">
        <ele>14</ele>
        <time>2021-05-08T14:35:56Z</time>
      </trkpt>
      <trkpt lat="47.55598" lon="-2.1706">
        <ele>14.2</ele>
        <time>2021-05-08T14:35:58Z</time>
      </trkpt>
      <trkpt lat="47.55594" lon="-2.17063">
        <ele>14.3</ele>
        <time>2021-05-08T14:35:59Z</time>
      </trkpt>
      <trkpt lat="47.55593" lon="-2.17064">
        <ele>14.3</ele>
        <time>2021-05-08T14:36:00Z</time>
      </trkpt>
      <trkpt lat="47.5559" lon="-2.17066">
        <ele>14.5</ele>
        <time>2021-05-08T14:36:01Z</time>
      </trkpt>
      <trkpt lat="47.55586" lon="-2.17068">
        <ele>14.6</ele>
        <time>2021-05-08T14:36:03Z</time>
      </trkpt>
      <trkpt lat="47.55582" lon="-2.17072">
        <ele>14.8</ele>
        <time>2021-05-08T14:36:04Z</time>
      </trkpt>
      <trkpt lat="47.55579" lon="-2.17074">
        <ele>14.9</ele>
        <time>2021-05-08T14:36:06Z</time>
      </trkpt>
      <trkpt lat="47.55576" lon="-2.17076">
        <ele>15</ele>
        <time>2021-05-08T14:36:07Z</time>
      </trkpt>
      <trkpt lat="47.55573" lon="-2.17078">
        <ele>15.1</ele>
        <time>2021-05-08T14:36:08Z</time>
      </trkpt>
      <trkpt lat="47.55567" lon="-2.17082">
        <ele>15.3</ele>
        <time>2021-05-08T14:36:10Z</time>
      </trkpt>
      <trkpt lat="47.55563" lon="-2.17084">
        <ele>15.4</ele>
        <time>2021-05-08T14:36:11Z</time>
      </trkpt>
      <trkpt lat="47.55561" lon="-2.17085">
        <ele>15.4</ele>
        <time>2021-05-08T14:36:12Z</time>
      </trkpt>
      <trkpt lat="47.55556" lon="-2.17088">
        <ele>15.5</ele>
        <time>2021-05-08T14:36:13Z</time>
      </trkpt>
      <trkpt lat="47.55552" lon="-2.17089">
        <ele>15.6</ele>
        <time>2021-05-08T14:36:15Z</time>
      </trkpt>
      <trkpt lat="47.55547" lon="-2.17092">
        <ele>15.7</ele>
        <time>2021-05-08T14:36:17Z</time>
      </trkpt>
      <trkpt lat="47.55544" lon="-2.17094">
        <ele>15.8</ele>
        <time>2021-05-08T14:36:18Z</time>
      </trkpt>
      <trkpt lat="47.55541" lon="-2.17096">
        <ele>15.9</ele>
        <time>2021-05-08T14:36:19Z</time>
      </trkpt>
      <trkpt lat="47.55537" lon="-2.17098">
        <ele>16</ele>
        <time>2021-05-08T14:36:20Z</time>
      </trkpt>
      <trkpt lat="47.55533" lon="-2.171">
        <ele>16.1</ele>
        <time>2021-05-08T14:36:22Z</time>
      </trkpt>
      <trkpt lat="47.55529" lon="-2.17102">
        <ele>16.2</ele>
        <time>2021-05-08T14:36:24Z</time>
      </trkpt>
      <trkpt lat="47.55526" lon="-2.17104">
        <ele>16.2</ele>
        <time>2021-05-08T14:36:25Z</time>
      </trkpt>
      <trkpt lat="47.55523" lon="-2.17106">
        <ele>16.3</ele>
        <time>2021-05-08T14:36:26Z</time>
      </trkpt>
      <trkpt lat="47.55519" lon="-2.17109">
        <ele>16.4</ele>
        <time>2021-05-08T14:36:27Z</time>
      </trkpt>
      <trkpt lat="47.55515" lon="-2.17111">
        <ele>16.5</ele>
        <time>2021-05-08T14:36:29Z</time>
      </trkpt>
      <trkpt lat="47.55513" lon="-2.17112">
        <ele>16.6</ele>
        <time>2021-05-08T14:36:30Z</time>
      </trkpt>
      <trkpt lat="47.55512" lon="-2.17113">
        <ele>16.6</ele>
        <time>2021-05-08T14:36:31Z</time>
      </trkpt>
      <trkpt lat="47.5551" lon="-2.17114">
        <ele>16.6</ele>
        <time>2021-05-08T14:36:32Z</time>
      </trkpt>
      <trkpt lat="47.55507" lon="-2.17116">
        <ele>16.7</ele>
        <time>2021-05-08T14:36:34Z</time>
      </trkpt>
      <trkpt lat="47.55506" lon="-2.17116">
        <ele>16.7</ele>
        <time>2021-05-08T14:36:36Z</time>
      </trkpt>
      <trkpt lat="47.55506" lon="-2.17116">
        <ele>16.8</ele>
        <time>2021-05-08T14:36:37Z</time>
      </trkpt>
      <trkpt lat="47.55506" lon="-2.17116">
        <ele>16.8</ele>
        <time>2021-05-08T14:36:38Z</time>
      </trkpt>
      <trkpt lat="47.55506" lon="-2.17116">
        <ele>16.8</ele>
        <time>2021-05-08T14:36:40Z</time>
      </trkpt>
      <trkpt lat="47.55506" lon="-2.17116">
        <ele>16.8</ele>
        <time>2021-05-08T14:36:41Z</time>
      </trkpt>
      <trkpt lat="47.55506" lon="-2.17116">
        <ele>16.8</ele>
        <time>2021-05-08T14:36:43Z</time>
      </trkpt>
      <trkpt lat="47.55505" lon="-2.17116">
        <ele>16.8</ele>
        <time>2021-05-08T14:36:44Z</time>
      </trkpt>
      <trkpt lat="47.55504" lon="-2.17117">
        <ele>16.8</ele>
        <time>2021-05-08T14:36:45Z</time>
      </trkpt>
      <trkpt lat="47.55504" lon="-2.17117">
        <ele>16.8</ele>
        <time>2021-05-08T14:36:47Z</time>
      </trkpt>
      <trkpt lat="47.55503" lon="-2.17117">
        <ele>16.8</ele>
        <time>2021-05-08T14:36:49Z</time>
      </trkpt>
      <trkpt lat="47.55503" lon="-2.17117">
        <ele>16.8</ele>
        <time>2021-05-08T14:36:50Z</time>
      </trkpt>
      <trkpt lat="47.55503" lon="-2.17117">
        <ele>16.8</ele>
        <time>2021-05-08T14:36:52Z</time>
      </trkpt>
      <trkpt lat="47.55502" lon="-2.17117">
        <ele>16.9</ele>
        <time>2021-05-08T14:36:53Z</time>
      </trkpt>
      <trkpt lat="47.55502" lon="-2.17117">
        <ele>16.9</ele>
        <time>2021-05-08T14:36:55Z</time>
      </trkpt>
      <trkpt lat="47.55502" lon="-2.17117">
        <ele>16.9</ele>
        <time>2021-05-08T14:36:56Z</time>
      </trkpt>
      <trkpt lat="47.555" lon="-2.17117">
        <ele>16.9</ele>
        <time>2021-05-08T14:36:58Z</time>
      </trkpt>
      <trkpt lat="47.55501" lon="-2.17113">
        <ele>17</ele>
        <time>2021-05-08T14:37:08Z</time>
      </trkpt>
      <trkpt lat="47.55501" lon="-2.17112">
        <ele>17</ele>
        <time>2021-05-08T14:37:09Z</time>
      </trkpt>
      <trkpt lat="47.55501" lon="-2.1711">
        <ele>17</ele>
        <time>2021-05-08T14:37:10Z</time>
      </trkpt>
      <trkpt lat="47.55501" lon="-2.17108">
        <ele>17.1</ele>
        <time>2021-05-08T14:37:11Z</time>
      </trkpt>
      <trkpt lat="47.55501" lon="-2.17107">
        <ele>17.1</ele>
        <time>2021-05-08T14:37:13Z</time>
      </trkpt>
      <trkpt lat="47.555" lon="-2.17106">
        <ele>17.1</ele>
        <time>2021-05-08T14:37:15Z</time>
      </trkpt>
      <trkpt lat="47.555" lon="-2.17105">
        <ele>17.1</ele>
        <time>2021-05-08T14:37:16Z</time>
      </trkpt>
      <trkpt lat="47.555" lon="-2.17105">
        <ele>17.1</ele>
        <time>2021-05-08T14:37:17Z</time>
      </trkpt>
      <trkpt lat="47.555" lon="-2.17103">
        <ele>17.1</ele>
        <time>2021-05-08T14:37:18Z</time>
      </trkpt>
      <trkpt lat="47.55501" lon="-2.171">
        <ele>17.2</ele>
        <time>2021-05-08T14:37:19Z</time>
      </trkpt>
      <trkpt lat="47.55502" lon="-2.17099">
        <ele>17.2</ele>
        <time>2021-05-08T14:37:21Z</time>
      </trkpt>
      <trkpt lat="47.55502" lon="-2.17098">
        <ele>17.2</ele>
        <time>2021-05-08T14:37:22Z</time>
      </trkpt>
      <trkpt lat="47.55503" lon="-2.17097">
        <ele>17.3</ele>
        <time>2021-05-08T14:37:24Z</time>
      </trkpt>
      <trkpt lat="47.55504" lon="-2.17096">
        <ele>17.3</ele>
        <time>2021-05-08T14:37:26Z</time>
      </trkpt>
      <trkpt lat="47.55505" lon="-2.17097">
        <ele>17.3</ele>
        <time>2021-05-08T14:37:28Z</time>
      </trkpt>
      <trkpt lat="47.55505" lon="-2.17098">
        <ele>17.3</ele>
        <time>2021-05-08T14:37:30Z</time>
      </trkpt>
      <trkpt lat="47.55506" lon="-2.17099">
        <ele>17.3</ele>
        <time>2021-05-08T14:37:31Z</time>
      </trkpt>
      <trkpt lat="47.55506" lon="-2.17099">
        <ele>17.4</ele>
        <time>2021-05-08T14:37:33Z</time>
      </trkpt>
      <trkpt lat="47.55506" lon="-2.17099">
        <ele>17.4</ele>
        <time>2021-05-08T14:37:34Z</time>
      </trkpt>
      <trkpt lat="47.55508" lon="-2.17112">
        <ele>17.6</ele>
        <time>2021-05-08T14:39:26Z</time>
      </trkpt>
      <trkpt lat="47.55506" lon="-2.17114">
        <ele>17.6</ele>
        <time>2021-05-08T14:39:27Z</time>
      </trkpt>
      <trkpt lat="47.55503" lon="-2.17117">
        <ele>17.7</ele>
        <time>2021-05-08T14:39:28Z</time>
      </trkpt>
      <trkpt lat="47.55502" lon="-2.17118">
        <ele>17.7</ele>
        <time>2021-05-08T14:39:29Z</time>
      </trkpt>
      <trkpt lat="47.55499" lon="-2.17122">
        <ele>17.8</ele>
        <time>2021-05-08T14:39:31Z</time>
      </trkpt>
      <trkpt lat="47.55497" lon="-2.17123">
        <ele>17.9</ele>
        <time>2021-05-08T14:39:32Z</time>
      </trkpt>
      <trkpt lat="47.55494" lon="-2.17126">
        <ele>18</ele>
        <time>2021-05-08T14:39:34Z</time>
      </trkpt>
      <trkpt lat="47.55493" lon="-2.17127">
        <ele>18</ele>
        <time>2021-05-08T14:39:35Z</time>
      </trkpt>
      <trkpt lat="47.55489" lon="-2.1713">
        <ele>18.1</ele>
        <time>2021-05-08T14:39:37Z</time>
      </trkpt>
      <trkpt lat="47.55484" lon="-2.17134">
        <ele>18.2</ele>
        <time>2021-05-08T14:39:39Z</time>
      </trkpt>
      <trkpt lat="47.55479" lon="-2.17138">
        <ele>18.4</ele>
        <time>2021-05-08T14:39:41Z</time>
      </trkpt>
      <trkpt lat="47.55476" lon="-2.1714">
        <ele>18.4</ele>
        <time>2021-05-08T14:39:42Z</time>
      </trkpt>
      <trkpt lat="47.55472" lon="-2.17142">
        <ele>18.5</ele>
        <time>2021-05-08T14:39:44Z</time>
      </trkpt>
      <trkpt lat="47.55471" lon="-2.17143">
        <ele>18.6</ele>
        <time>2021-05-08T14:39:45Z</time>
      </trkpt>
      <trkpt lat="47.55468" lon="-2.17146">
        <ele>18.6</ele>
        <time>2021-05-08T14:39:46Z</time>
      </trkpt>
      <trkpt lat="47.55464" lon="-2.17148">
        <ele>18.7</ele>
        <time>2021-05-08T14:39:48Z</time>
      </trkpt>
      <trkpt lat="47.5546" lon="-2.1715">
        <ele>18.8</ele>
        <time>2021-05-08T14:39:49Z</time>
      </trkpt>
      <trkpt lat="47.55457" lon="-2.17152">
        <ele>18.9</ele>
        <time>2021-05-08T14:39:51Z</time>
      </trkpt>
      <trkpt lat="47.55453" lon="-2.17155">
        <ele>19</ele>
        <time>2021-05-08T14:39:53Z</time>
      </trkpt>
      <trkpt lat="47.5545" lon="-2.17157">
        <ele>19.1</ele>
        <time>2021-05-08T14:39:54Z</time>
      </trkpt>
      <trkpt lat="47.55446" lon="-2.1716">
        <ele>19.2</ele>
        <time>2021-05-08T14:39:56Z</time>
      </trkpt>
      <trkpt lat="47.55442" lon="-2.17162">
        <ele>19.4</ele>
        <time>2021-05-08T14:39:57Z</time>
      </trkpt>
      <trkpt lat="47.55438" lon="-2.17164">
        <ele>19.5</ele>
        <time>2021-05-08T14:39:59Z</time>
      </trkpt>
      <trkpt lat="47.55436" lon="-2.17166">
        <ele>19.5</ele>
        <time>2021-05-08T14:40:00Z</time>
      </trkpt>
      <trkpt lat="47.55431" lon="-2.17169">
        <ele>19.7</ele>
        <time>2021-05-08T14:40:01Z</time>
      </trkpt>
      <trkpt lat="47.55428" lon="-2.17171">
        <ele>19.8</ele>
        <time>2021-05-08T14:40:03Z</time>
      </trkpt>
      <trkpt lat="47.55425" lon="-2.17173">
        <ele>19.8</ele>
        <time>2021-05-08T14:40:04Z</time>
      </trkpt>
      <trkpt lat="47.5542" lon="-2.17176">
        <ele>20</ele>
        <time>2021-05-08T14:40:05Z</time>
      </trkpt>
      <trkpt lat="47.55417" lon="-2.1718">
        <ele>20.1</ele>
        <time>2021-05-08T14:40:07Z</time>
      </trkpt>
      <trkpt lat="47.55412" lon="-2.17183">
        <ele>20.3</ele>
        <time>2021-05-08T14:40:08Z</time>
      </trkpt>
      <trkpt lat="47.55409" lon="-2.17187">
        <ele>20.4</ele>
        <time>2021-05-08T14:40:10Z</time>
      </trkpt>
      <trkpt lat="47.55407" lon="-2.1719">
        <ele>20.5</ele>
        <time>2021-05-08T14:40:11Z</time>
      </trkpt>
      <trkpt lat="47.55403" lon="-2.17195">
        <ele>20.7</ele>
        <time>2021-05-08T14:40:12Z</time>
      </trkpt>
      <trkpt lat="47.55399" lon="-2.17198">
        <ele>20.9</ele>
        <time>2021-05-08T14:40:14Z</time>
      </trkpt>
      <trkpt lat="47.55395" lon="-2.17202">
        <ele>21.1</ele>
        <time>2021-05-08T14:40:15Z</time>
      </trkpt>
      <trkpt lat="47.55392" lon="-2.17206">
        <ele>21.3</ele>
        <time>2021-05-08T14:40:17Z</time>
      </trkpt>
      <trkpt lat="47.55389" lon="-2.1721">
        <ele>21.5</ele>
        <time>2021-05-08T14:40:18Z</time>
      </trkpt>
      <trkpt lat="47.55386" lon="-2.17213">
        <ele>21.6</ele>
        <time>2021-05-08T14:40:20Z</time>
      </trkpt>
      <trkpt lat="47.55384" lon="-2.17216">
        <ele>21.8</ele>
        <time>2021-05-08T14:40:21Z</time>
      </trkpt>
      <trkpt lat="47.55382" lon="-2.17221">
        <ele>22</ele>
        <time>2021-05-08T14:40:22Z</time>
      </trkpt>
      <trkpt lat="47.55379" lon="-2.17228">
        <ele>22.2</ele>
        <time>2021-05-08T14:40:24Z</time>
      </trkpt>
      <trkpt lat="47.55378" lon="-2.17231">
        <ele>22.3</ele>
        <time>2021-05-08T14:40:25Z</time>
      </trkpt>
      <trkpt lat="47.55377" lon="-2.17233">
        <ele>22.4</ele>
        <time>2021-05-08T14:40:26Z</time>
      </trkpt>
      <trkpt lat="47.55375" lon="-2.17238">
        <ele>22.6</ele>
        <time>2021-05-08T14:40:28Z</time>
      </trkpt>
      <trkpt lat="47.55372" lon="-2.17243">
        <ele>22.8</ele>
        <time>2021-05-08T14:40:29Z</time>
      </trkpt>
      <trkpt lat="47.5537" lon="-2.17248">
        <ele>23</ele>
        <time>2021-05-08T14:40:31Z</time>
      </trkpt>
      <trkpt lat="47.55367" lon="-2.17253">
        <ele>23.2</ele>
        <time>2021-05-08T14:40:32Z</time>
      </trkpt>
      <trkpt lat="47.55365" lon="-2.17257">
        <ele>23.4</ele>
        <time>2021-05-08T14:40:34Z</time>
      </trkpt>
      <trkpt lat="47.55363" lon="-2.17261">
        <ele>23.5</ele>
        <time>2021-05-08T14:40:35Z</time>
      </trkpt>
      <trkpt lat="47.5536" lon="-2.17266">
        <ele>23.7</ele>
        <time>2021-05-08T14:40:36Z</time>
      </trkpt>
      <trkpt lat="47.55357" lon="-2.1727">
        <ele>23.9</ele>
        <time>2021-05-08T14:40:38Z</time>
      </trkpt>
      <trkpt lat="47.55354" lon="-2.17275">
        <ele>24.1</ele>
        <time>2021-05-08T14:40:39Z</time>
      </trkpt>
      <trkpt lat="47.55351" lon="-2.1728">
        <ele>24.3</ele>
        <time>2021-05-08T14:40:41Z</time>
      </trkpt>
      <trkpt lat="47.55349" lon="-2.17285">
        <ele>24.6</ele>
        <time>2021-05-08T14:40:42Z</time>
      </trkpt>
      <trkpt lat="47.55346" lon="-2.1729">
        <ele>24.7</ele>
        <time>2021-05-08T14:40:44Z</time>
      </trkpt>
      <trkpt lat="47.55344" lon="-2.17295">
        <ele>24.9</ele>
        <time>2021-05-08T14:40:45Z</time>
      </trkpt>
      <trkpt lat="47.55342" lon="-2.173">
        <ele>25.1</ele>
        <time>2021-05-08T14:40:47Z</time>
      </trkpt>
      <trkpt lat="47.55341" lon="-2.17305">
        <ele>25.2</ele>
        <time>2021-05-08T14:40:48Z</time>
      </trkpt>
      <trkpt lat="47.5534" lon="-2.17309">
        <ele>25.3</ele>
        <time>2021-05-08T14:40:49Z</time>
      </trkpt>
      <trkpt lat="47.55338" lon="-2.17314">
        <ele>25.5</ele>
        <time>2021-05-08T14:40:50Z</time>
      </trkpt>
      <trkpt lat="47.55335" lon="-2.17319">
        <ele>25.6</ele>
        <time>2021-05-08T14:40:52Z</time>
      </trkpt>
      <trkpt lat="47.55332" lon="-2.17325">
        <ele>25.7</ele>
        <time>2021-05-08T14:40:53Z</time>
      </trkpt>
      <trkpt lat="47.5533" lon="-2.17331">
        <ele>25.9</ele>
        <time>2021-05-08T14:40:55Z</time>
      </trkpt>
      <trkpt lat="47.55328" lon="-2.17336">
        <ele>26</ele>
        <time>2021-05-08T14:40:56Z</time>
      </trkpt>
      <trkpt lat="47.55325" lon="-2.17341">
        <ele>26.1</ele>
        <time>2021-05-08T14:40:57Z</time>
      </trkpt>
      <trkpt lat="47.55323" lon="-2.17347">
        <ele>26.2</ele>
        <time>2021-05-08T14:40:59Z</time>
      </trkpt>
      <trkpt lat="47.55319" lon="-2.17353">
        <ele>26.3</ele>
        <time>2021-05-08T14:41:00Z</time>
      </trkpt>
      <trkpt lat="47.55316" lon="-2.17358">
        <ele>26.4</ele>
        <time>2021-05-08T14:41:01Z</time>
      </trkpt>
      <trkpt lat="47.55313" lon="-2.17362">
        <ele>26.5</ele>
        <time>2021-05-08T14:41:03Z</time>
      </trkpt>
      <trkpt lat="47.5531" lon="-2.17365">
        <ele>26.6</ele>
        <time>2021-05-08T14:41:04Z</time>
      </trkpt>
      <trkpt lat="47.55305" lon="-2.17371">
        <ele>26.7</ele>
        <time>2021-05-08T14:41:06Z</time>
      </trkpt>
      <trkpt lat="47.55301" lon="-2.17377">
        <ele>26.9</ele>
        <time>2021-05-08T14:41:07Z</time>
      </trkpt>
      <trkpt lat="47.55298" lon="-2.17381">
        <ele>27.3</ele>
        <time>2021-05-08T14:41:09Z</time>
      </trkpt>
      <trkpt lat="47.55296" lon="-2.17384">
        <ele>27.3</ele>
        <time>2021-05-08T14:41:10Z</time>
      </trkpt>
      <trkpt lat="47.55295" lon="-2.17388">
        <ele>27.3</ele>
        <time>2021-05-08T14:41:11Z</time>
      </trkpt>
      <trkpt lat="47.55294" lon="-2.17394">
        <ele>27.4</ele>
        <time>2021-05-08T14:41:12Z</time>
      </trkpt>
      <trkpt lat="47.55293" lon="-2.17398">
        <ele>27.4</ele>
        <time>2021-05-08T14:41:14Z</time>
      </trkpt>
      <trkpt lat="47.55293" lon="-2.17402">
        <ele>27.5</ele>
        <time>2021-05-08T14:41:15Z</time>
      </trkpt>
      <trkpt lat="47.55293" lon="-2.17409">
        <ele>27.5</ele>
        <time>2021-05-08T14:41:17Z</time>
      </trkpt>
      <trkpt lat="47.55294" lon="-2.17412">
        <ele>27.6</ele>
        <time>2021-05-08T14:41:18Z</time>
      </trkpt>
      <trkpt lat="47.55294" lon="-2.17416">
        <ele>27.6</ele>
        <time>2021-05-08T14:41:19Z</time>
      </trkpt>
      <trkpt lat="47.55294" lon="-2.17422">
        <ele>27.7</ele>
        <time>2021-05-08T14:41:20Z</time>
      </trkpt>
      <trkpt lat="47.55294" lon="-2.17424">
        <ele>27.7</ele>
        <time>2021-05-08T14:41:21Z</time>
      </trkpt>
      <trkpt lat="47.55294" lon="-2.1743">
        <ele>27.8</ele>
        <time>2021-05-08T14:41:23Z</time>
      </trkpt>
      <trkpt lat="47.55294" lon="-2.17435">
        <ele>27.8</ele>
        <time>2021-05-08T14:41:24Z</time>
      </trkpt>
      <trkpt lat="47.55294" lon="-2.1744">
        <ele>27.9</ele>
        <time>2021-05-08T14:41:26Z</time>
      </trkpt>
      <trkpt lat="47.55294" lon="-2.17444">
        <ele>27.9</ele>
        <time>2021-05-08T14:41:27Z</time>
      </trkpt>
      <trkpt lat="47.55293" lon="-2.1745">
        <ele>28</ele>
        <time>2021-05-08T14:41:29Z</time>
      </trkpt>
      <trkpt lat="47.55293" lon="-2.17455">
        <ele>28.1</ele>
        <time>2021-05-08T14:41:30Z</time>
      </trkpt>
      <trkpt lat="47.55292" lon="-2.17459">
        <ele>28.2</ele>
        <time>2021-05-08T14:41:31Z</time>
      </trkpt>
      <trkpt lat="47.55292" lon="-2.17465">
        <ele>28.3</ele>
        <time>2021-05-08T14:41:33Z</time>
      </trkpt>
      <trkpt lat="47.55292" lon="-2.1747">
        <ele>28.4</ele>
        <time>2021-05-08T14:41:34Z</time>
      </trkpt>
      <trkpt lat="47.55291" lon="-2.17473">
        <ele>28.4</ele>
        <time>2021-05-08T14:41:35Z</time>
      </trkpt>
      <trkpt lat="47.5529" lon="-2.17479">
        <ele>28.5</ele>
        <time>2021-05-08T14:41:37Z</time>
      </trkpt>
      <trkpt lat="47.5529" lon="-2.17485">
        <ele>28.6</ele>
        <time>2021-05-08T14:41:38Z</time>
      </trkpt>
      <trkpt lat="47.55289" lon="-2.17489">
        <ele>28.7</ele>
        <time>2021-05-08T14:41:39Z</time>
      </trkpt>
      <trkpt lat="47.55289" lon="-2.17496">
        <ele>28.9</ele>
        <time>2021-05-08T14:41:41Z</time>
      </trkpt>
      <trkpt lat="47.55288" lon="-2.17501">
        <ele>29</ele>
        <time>2021-05-08T14:41:42Z</time>
      </trkpt>
      <trkpt lat="47.55288" lon="-2.17505">
        <ele>29.1</ele>
        <time>2021-05-08T14:41:43Z</time>
      </trkpt>
      <trkpt lat="47.55287" lon="-2.1751">
        <ele>29.1</ele>
        <time>2021-05-08T14:41:44Z</time>
      </trkpt>
      <trkpt lat="47.55287" lon="-2.17514">
        <ele>29.2</ele>
        <time>2021-05-08T14:41:45Z</time>
      </trkpt>
      <trkpt lat="47.55288" lon="-2.17519">
        <ele>29.3</ele>
        <time>2021-05-08T14:41:46Z</time>
      </trkpt>
      <trkpt lat="47.55288" lon="-2.17525">
        <ele>29.4</ele>
        <time>2021-05-08T14:41:47Z</time>
      </trkpt>
      <trkpt lat="47.55287" lon="-2.17531">
        <ele>29.5</ele>
        <time>2021-05-08T14:41:49Z</time>
      </trkpt>
      <trkpt lat="47.55287" lon="-2.17535">
        <ele>29.6</ele>
        <time>2021-05-08T14:41:50Z</time>
      </trkpt>
      <trkpt lat="47.55287" lon="-2.17542">
        <ele>29.8</ele>
        <time>2021-05-08T14:41:52Z</time>
      </trkpt>
      <trkpt lat="47.55286" lon="-2.17547">
        <ele>29.9</ele>
        <time>2021-05-08T14:41:53Z</time>
      </trkpt>
      <trkpt lat="47.55286" lon="-2.17551">
        <ele>30</ele>
        <time>2021-05-08T14:41:54Z</time>
      </trkpt>
      <trkpt lat="47.55286" lon="-2.17558">
        <ele>30.2</ele>
        <time>2021-05-08T14:41:55Z</time>
      </trkpt>
      <trkpt lat="47.55286" lon="-2.17564">
        <ele>30.3</ele>
        <time>2021-05-08T14:41:57Z</time>
      </trkpt>
      <trkpt lat="47.55286" lon="-2.17572">
        <ele>30.5</ele>
        <time>2021-05-08T14:41:59Z</time>
      </trkpt>
      <trkpt lat="47.55285" lon="-2.17579">
        <ele>30.7</ele>
        <time>2021-05-08T14:42:00Z</time>
      </trkpt>
      <trkpt lat="47.55284" lon="-2.17587">
        <ele>30.8</ele>
        <time>2021-05-08T14:42:02Z</time>
      </trkpt>
      <trkpt lat="47.55283" lon="-2.17595">
        <ele>31</ele>
        <time>2021-05-08T14:42:03Z</time>
      </trkpt>
      <trkpt lat="47.55282" lon="-2.17601">
        <ele>31.1</ele>
        <time>2021-05-08T14:42:05Z</time>
      </trkpt>
      <trkpt lat="47.55281" lon="-2.17606">
        <ele>31.2</ele>
        <time>2021-05-08T14:42:06Z</time>
      </trkpt>
      <trkpt lat="47.55281" lon="-2.17613">
        <ele>31.4</ele>
        <time>2021-05-08T14:42:07Z</time>
      </trkpt>
      <trkpt lat="47.55281" lon="-2.17619">
        <ele>31.5</ele>
        <time>2021-05-08T14:42:09Z</time>
      </trkpt>
      <trkpt lat="47.55281" lon="-2.17623">
        <ele>31.6</ele>
        <time>2021-05-08T14:42:10Z</time>
      </trkpt>
      <trkpt lat="47.55281" lon="-2.1763">
        <ele>31.7</ele>
        <time>2021-05-08T14:42:11Z</time>
      </trkpt>
      <trkpt lat="47.5528" lon="-2.17637">
        <ele>31.9</ele>
        <time>2021-05-08T14:42:13Z</time>
      </trkpt>
      <trkpt lat="47.5528" lon="-2.17645">
        <ele>32</ele>
        <time>2021-05-08T14:42:14Z</time>
      </trkpt>
      <trkpt lat="47.5528" lon="-2.1765">
        <ele>32.1</ele>
        <time>2021-05-08T14:42:16Z</time>
      </trkpt>
      <trkpt lat="47.5528" lon="-2.17658">
        <ele>32.3</ele>
        <time>2021-05-08T14:42:18Z</time>
      </trkpt>
      <trkpt lat="47.5528" lon="-2.17664">
        <ele>32.4</ele>
        <time>2021-05-08T14:42:19Z</time>
      </trkpt>
      <trkpt lat="47.5528" lon="-2.17672">
        <ele>32.6</ele>
        <time>2021-05-08T14:42:21Z</time>
      </trkpt>
      <trkpt lat="47.5528" lon="-2.17677">
        <ele>32.7</ele>
        <time>2021-05-08T14:42:22Z</time>
      </trkpt>
      <trkpt lat="47.55279" lon="-2.17683">
        <ele>32.8</ele>
        <time>2021-05-08T14:42:23Z</time>
      </trkpt>
      <trkpt lat="47.5528" lon="-2.17691">
        <ele>33</ele>
        <time>2021-05-08T14:42:25Z</time>
      </trkpt>
      <trkpt lat="47.5528" lon="-2.17698">
        <ele>33.2</ele>
        <time>2021-05-08T14:42:26Z</time>
      </trkpt>
      <trkpt lat="47.55281" lon="-2.17704">
        <ele>33.3</ele>
        <time>2021-05-08T14:42:28Z</time>
      </trkpt>
      <trkpt lat="47.55282" lon="-2.17712">
        <ele>33.5</ele>
        <time>2021-05-08T14:42:30Z</time>
      </trkpt>
      <trkpt lat="47.55282" lon="-2.17717">
        <ele>33.6</ele>
        <time>2021-05-08T14:42:31Z</time>
      </trkpt>
      <trkpt lat="47.55283" lon="-2.17722">
        <ele>33.7</ele>
        <time>2021-05-08T14:42:32Z</time>
      </trkpt>
      <trkpt lat="47.55285" lon="-2.17729">
        <ele>33.9</ele>
        <time>2021-05-08T14:42:34Z</time>
      </trkpt>
      <trkpt lat="47.55286" lon="-2.17735">
        <ele>34</ele>
        <time>2021-05-08T14:42:35Z</time>
      </trkpt>
      <trkpt lat="47.55287" lon="-2.17742">
        <ele>34.1</ele>
        <time>2021-05-08T14:42:37Z</time>
      </trkpt>
      <trkpt lat="47.55288" lon="-2.17746">
        <ele>34.2</ele>
        <time>2021-05-08T14:42:38Z</time>
      </trkpt>
      <trkpt lat="47.55289" lon="-2.17753">
        <ele>34.4</ele>
        <time>2021-05-08T14:42:39Z</time>
      </trkpt>
      <trkpt lat="47.5529" lon="-2.17758">
        <ele>34.5</ele>
        <time>2021-05-08T14:42:41Z</time>
      </trkpt>
      <trkpt lat="47.5529" lon="-2.17762">
        <ele>34.6</ele>
        <time>2021-05-08T14:42:42Z</time>
      </trkpt>
      <trkpt lat="47.55291" lon="-2.1777">
        <ele>34.7</ele>
        <time>2021-05-08T14:42:44Z</time>
      </trkpt>
      <trkpt lat="47.55293" lon="-2.17775">
        <ele>34.8</ele>
        <time>2021-05-08T14:42:45Z</time>
      </trkpt>
      <trkpt lat="47.55295" lon="-2.17783">
        <ele>35</ele>
        <time>2021-05-08T14:42:47Z</time>
      </trkpt>
      <trkpt lat="47.55295" lon="-2.17789">
        <ele>35.1</ele>
        <time>2021-05-08T14:42:48Z</time>
      </trkpt>
      <trkpt lat="47.55296" lon="-2.17795">
        <ele>35.2</ele>
        <time>2021-05-08T14:42:50Z</time>
      </trkpt>
      <trkpt lat="47.55297" lon="-2.17799">
        <ele>35.3</ele>
        <time>2021-05-08T14:42:51Z</time>
      </trkpt>
      <trkpt lat="47.55297" lon="-2.17806">
        <ele>35.4</ele>
        <time>2021-05-08T14:42:52Z</time>
      </trkpt>
      <trkpt lat="47.55298" lon="-2.17812">
        <ele>35.5</ele>
        <time>2021-05-08T14:42:54Z</time>
      </trkpt>
      <trkpt lat="47.55298" lon="-2.17816">
        <ele>35.6</ele>
        <time>2021-05-08T14:42:55Z</time>
      </trkpt>
      <trkpt lat="47.55299" lon="-2.17823">
        <ele>35.8</ele>
        <time>2021-05-08T14:42:57Z</time>
      </trkpt>
      <trkpt lat="47.553" lon="-2.17828">
        <ele>35.9</ele>
        <time>2021-05-08T14:42:58Z</time>
      </trkpt>
      <trkpt lat="47.55301" lon="-2.17836">
        <ele>36</ele>
        <time>2021-05-08T14:43:00Z</time>
      </trkpt>
      <trkpt lat="47.55301" lon="-2.1784">
        <ele>36.1</ele>
        <time>2021-05-08T14:43:01Z</time>
      </trkpt>
      <trkpt lat="47.55302" lon="-2.17848">
        <ele>36.3</ele>
        <time>2021-05-08T14:43:03Z</time>
      </trkpt>
      <trkpt lat="47.55302" lon="-2.17854">
        <ele>36.4</ele>
        <time>2021-05-08T14:43:04Z</time>
      </trkpt>
      <trkpt lat="47.55303" lon="-2.17855">
        <ele>36.4</ele>
        <time>2021-05-08T14:43:05Z</time>
      </trkpt>
      <trkpt lat="47.55303" lon="-2.17859">
        <ele>36.5</ele>
        <time>2021-05-08T14:43:06Z</time>
      </trkpt>
      <trkpt lat="47.55303" lon="-2.17865">
        <ele>36.6</ele>
        <time>2021-05-08T14:43:08Z</time>
      </trkpt>
      <trkpt lat="47.55303" lon="-2.17868">
        <ele>36.7</ele>
        <time>2021-05-08T14:43:09Z</time>
      </trkpt>
      <trkpt lat="47.55302" lon="-2.17871">
        <ele>36.7</ele>
        <time>2021-05-08T14:43:11Z</time>
      </trkpt>
      <trkpt lat="47.553" lon="-2.17873">
        <ele>36.7</ele>
        <time>2021-05-08T14:43:13Z</time>
      </trkpt>
      <trkpt lat="47.55297" lon="-2.17871">
        <ele>36.7</ele>
        <time>2021-05-08T14:43:15Z</time>
      </trkpt>
      <trkpt lat="47.55295" lon="-2.17866">
        <ele>36.7</ele>
        <time>2021-05-08T14:43:17Z</time>
      </trkpt>
      <trkpt lat="47.55293" lon="-2.17864">
        <ele>36.7</ele>
        <time>2021-05-08T14:43:18Z</time>
      </trkpt>
      <trkpt lat="47.55292" lon="-2.17863">
        <ele>36.7</ele>
        <time>2021-05-08T14:43:19Z</time>
      </trkpt>
      <trkpt lat="47.55291" lon="-2.17862">
        <ele>36.7</ele>
        <time>2021-05-08T14:43:20Z</time>
      </trkpt>
      <trkpt lat="47.55291" lon="-2.17858">
        <ele>36.7</ele>
        <time>2021-05-08T14:43:22Z</time>
      </trkpt>
      <trkpt lat="47.55292" lon="-2.17855">
        <ele>36.7</ele>
        <time>2021-05-08T14:43:23Z</time>
      </trkpt>
      <trkpt lat="47.55294" lon="-2.17853">
        <ele>36.7</ele>
        <time>2021-05-08T14:43:24Z</time>
      </trkpt>
      <trkpt lat="47.55297" lon="-2.1785">
        <ele>36.7</ele>
        <time>2021-05-08T14:43:26Z</time>
      </trkpt>
      <trkpt lat="47.55299" lon="-2.17851">
        <ele>36.7</ele>
        <time>2021-05-08T14:43:27Z</time>
      </trkpt>
      <trkpt lat="47.55302" lon="-2.17853">
        <ele>36.7</ele>
        <time>2021-05-08T14:43:29Z</time>
      </trkpt>
      <trkpt lat="47.55304" lon="-2.17853">
        <ele>36.7</ele>
        <time>2021-05-08T14:43:30Z</time>
      </trkpt>
      <trkpt lat="47.55307" lon="-2.17854">
        <ele>36.7</ele>
        <time>2021-05-08T14:43:32Z</time>
      </trkpt>
      <trkpt lat="47.55307" lon="-2.17858">
        <ele>36.7</ele>
        <time>2021-05-08T14:43:34Z</time>
      </trkpt>
      <trkpt lat="47.55307" lon="-2.1786">
        <ele>36.7</ele>
        <time>2021-05-08T14:43:35Z</time>
      </trkpt>
      <trkpt lat="47.55306" lon="-2.17864">
        <ele>36.7</ele>
        <time>2021-05-08T14:43:37Z</time>
      </trkpt>
      <trkpt lat="47.55305" lon="-2.17867">
        <ele>36.7</ele>
        <time>2021-05-08T14:43:39Z</time>
      </trkpt>
      <trkpt lat="47.55305" lon="-2.17868">
        <ele>36.7</ele>
        <time>2021-05-08T14:43:41Z</time>
      </trkpt>
      <trkpt lat="47.55305" lon="-2.17869">
        <ele>36.7</ele>
        <time>2021-05-08T14:43:42Z</time>
      </trkpt>
      <trkpt lat="47.55303" lon="-2.1787">
        <ele>36.7</ele>
        <time>2021-05-08T14:43:43Z</time>
      </trkpt>
      <trkpt lat="47.553" lon="-2.1787">
        <ele>36.7</ele>
        <time>2021-05-08T14:43:45Z</time>
      </trkpt>
      <trkpt lat="47.55299" lon="-2.17869">
        <ele>36.6</ele>
        <time>2021-05-08T14:43:46Z</time>
      </trkpt>
      <trkpt lat="47.55297" lon="-2.17866">
        <ele>36.6</ele>
        <time>2021-05-08T14:43:48Z</time>
      </trkpt>
      <trkpt lat="47.55294" lon="-2.17864">
        <ele>36.6</ele>
        <time>2021-05-08T14:43:50Z</time>
      </trkpt>
      <trkpt lat="47.55289" lon="-2.17862">
        <ele>36.5</ele>
        <time>2021-05-08T14:43:51Z</time>
      </trkpt>
      <trkpt lat="47.55286" lon="-2.1786">
        <ele>36.5</ele>
        <time>2021-05-08T14:43:53Z</time>
      </trkpt>
      <trkpt lat="47.55283" lon="-2.1786">
        <ele>36.5</ele>
        <time>2021-05-08T14:43:54Z</time>
      </trkpt>
      <trkpt lat="47.55279" lon="-2.1786">
        <ele>36.5</ele>
        <time>2021-05-08T14:43:56Z</time>
      </trkpt>
      <trkpt lat="47.55275" lon="-2.1786">
        <ele>36.5</ele>
        <time>2021-05-08T14:43:57Z</time>
      </trkpt>
      <trkpt lat="47.55274" lon="-2.1786">
        <ele>36.5</ele>
        <time>2021-05-08T14:43:58Z</time>
      </trkpt>
      <trkpt lat="47.55271" lon="-2.1786">
        <ele>36.5</ele>
        <time>2021-05-08T14:43:59Z</time>
      </trkpt>
      <trkpt lat="47.55266" lon="-2.1786">
        <ele>36.5</ele>
        <time>2021-05-08T14:44:01Z</time>
      </trkpt>
      <trkpt lat="47.55261" lon="-2.17862">
        <ele>36.5</ele>
        <time>2021-05-08T14:44:02Z</time>
      </trkpt>
      <trkpt lat="47.55257" lon="-2.17863">
        <ele>36.5</ele>
        <time>2021-05-08T14:44:04Z</time>
      </trkpt>
      <trkpt lat="47.55253" lon="-2.17863">
        <ele>36.5</ele>
        <time>2021-05-08T14:44:05Z</time>
      </trkpt>
      <trkpt lat="47.55248" lon="-2.17863">
        <ele>36.5</ele>
        <time>2021-05-08T14:44:07Z</time>
      </trkpt>
      <trkpt lat="47.55242" lon="-2.17864">
        <ele>36.5</ele>
        <time>2021-05-08T14:44:08Z</time>
      </trkpt>
      <trkpt lat="47.55238" lon="-2.17865">
        <ele>36.5</ele>
        <time>2021-05-08T14:44:10Z</time>
      </trkpt>
      <trkpt lat="47.55234" lon="-2.17865">
        <ele>36.5</ele>
        <time>2021-05-08T14:44:11Z</time>
      </trkpt>
      <trkpt lat="47.55228" lon="-2.17865">
        <ele>36.5</ele>
        <time>2021-05-08T14:44:13Z</time>
      </trkpt>
      <trkpt lat="47.55225" lon="-2.17866">
        <ele>36.5</ele>
        <time>2021-05-08T14:44:14Z</time>
      </trkpt>
      <trkpt lat="47.55219" lon="-2.17865">
        <ele>36.5</ele>
        <time>2021-05-08T14:44:15Z</time>
      </trkpt>
      <trkpt lat="47.55214" lon="-2.17866">
        <ele>36.4</ele>
        <time>2021-05-08T14:44:17Z</time>
      </trkpt>
      <trkpt lat="47.55207" lon="-2.17866">
        <ele>36.4</ele>
        <time>2021-05-08T14:44:19Z</time>
      </trkpt>
      <trkpt lat="47.552" lon="-2.17866">
        <ele>36.4</ele>
        <time>2021-05-08T14:44:20Z</time>
      </trkpt>
      <trkpt lat="47.55194" lon="-2.17866">
        <ele>36.3</ele>
        <time>2021-05-08T14:44:22Z</time>
      </trkpt>
      <trkpt lat="47.5519" lon="-2.17866">
        <ele>36.3</ele>
        <time>2021-05-08T14:44:23Z</time>
      </trkpt>
      <trkpt lat="47.55186" lon="-2.17866">
        <ele>36.3</ele>
        <time>2021-05-08T14:44:24Z</time>
      </trkpt>
      <trkpt lat="47.55178" lon="-2.17867">
        <ele>36.3</ele>
        <time>2021-05-08T14:44:25Z</time>
      </trkpt>
      <trkpt lat="47.55173" lon="-2.17867">
        <ele>36.2</ele>
        <time>2021-05-08T14:44:27Z</time>
      </trkpt>
      <trkpt lat="47.55168" lon="-2.17867">
        <ele>36.2</ele>
        <time>2021-05-08T14:44:28Z</time>
      </trkpt>
      <trkpt lat="47.5516" lon="-2.17868">
        <ele>36.1</ele>
        <time>2021-05-08T14:44:29Z</time>
      </trkpt>
      <trkpt lat="47.55153" lon="-2.17868">
        <ele>36</ele>
        <time>2021-05-08T14:44:31Z</time>
      </trkpt>
      <trkpt lat="47.55144" lon="-2.17869">
        <ele>36</ele>
        <time>2021-05-08T14:44:33Z</time>
      </trkpt>
      <trkpt lat="47.55136" lon="-2.17868">
        <ele>35.9</ele>
        <time>2021-05-08T14:44:34Z</time>
      </trkpt>
      <trkpt lat="47.55129" lon="-2.17868">
        <ele>35.8</ele>
        <time>2021-05-08T14:44:36Z</time>
      </trkpt>
      <trkpt lat="47.55124" lon="-2.17868">
        <ele>35.7</ele>
        <time>2021-05-08T14:44:37Z</time>
      </trkpt>
      <trkpt lat="47.55108" lon="-2.17868">
        <ele>35.5</ele>
        <time>2021-05-08T14:44:39Z</time>
      </trkpt>
      <trkpt lat="47.55103" lon="-2.17867">
        <ele>35.4</ele>
        <time>2021-05-08T14:44:40Z</time>
      </trkpt>
      <trkpt lat="47.55101" lon="-2.17867">
        <ele>35.4</ele>
        <time>2021-05-08T14:44:41Z</time>
      </trkpt>
      <trkpt lat="47.55096" lon="-2.17868">
        <ele>35.4</ele>
        <time>2021-05-08T14:44:43Z</time>
      </trkpt>
      <trkpt lat="47.5509" lon="-2.17868">
        <ele>35.3</ele>
        <time>2021-05-08T14:44:44Z</time>
      </trkpt>
      <trkpt lat="47.55086" lon="-2.17869">
        <ele>35.3</ele>
        <time>2021-05-08T14:44:45Z</time>
      </trkpt>
      <trkpt lat="47.55078" lon="-2.1787">
        <ele>35.2</ele>
        <time>2021-05-08T14:44:47Z</time>
      </trkpt>
      <trkpt lat="47.55074" lon="-2.1787">
        <ele>35.1</ele>
        <time>2021-05-08T14:44:48Z</time>
      </trkpt>
      <trkpt lat="47.55065" lon="-2.17871">
        <ele>34.9</ele>
        <time>2021-05-08T14:44:50Z</time>
      </trkpt>
      <trkpt lat="47.55056" lon="-2.17871">
        <ele>34.6</ele>
        <time>2021-05-08T14:44:51Z</time>
      </trkpt>
      <trkpt lat="47.55043" lon="-2.17871">
        <ele>34.2</ele>
        <time>2021-05-08T14:44:53Z</time>
      </trkpt>
      <trkpt lat="47.55037" lon="-2.17871">
        <ele>34</ele>
        <time>2021-05-08T14:44:54Z</time>
      </trkpt>
      <trkpt lat="47.5503" lon="-2.17871">
        <ele>33.9</ele>
        <time>2021-05-08T14:44:55Z</time>
      </trkpt>
      <trkpt lat="47.55018" lon="-2.1787">
        <ele>33.5</ele>
        <time>2021-05-08T14:44:57Z</time>
      </trkpt>
      <trkpt lat="47.55012" lon="-2.1787">
        <ele>33.3</ele>
        <time>2021-05-08T14:44:58Z</time>
      </trkpt>
      <trkpt lat="47.54999" lon="-2.1787">
        <ele>32.7</ele>
        <time>2021-05-08T14:45:00Z</time>
      </trkpt>
      <trkpt lat="47.54987" lon="-2.1787">
        <ele>32.3</ele>
        <time>2021-05-08T14:45:02Z</time>
      </trkpt>
      <trkpt lat="47.54973" lon="-2.17871">
        <ele>31.9</ele>
        <time>2021-05-08T14:45:04Z</time>
      </trkpt>
      <trkpt lat="47.54959" lon="-2.17872">
        <ele>31.5</ele>
        <time>2021-05-08T14:45:06Z</time>
      </trkpt>
      <trkpt lat="47.54953" lon="-2.17872">
        <ele>31.3</ele>
        <time>2021-05-08T14:45:07Z</time>
      </trkpt>
      <trkpt lat="47.5494" lon="-2.17873">
        <ele>31.2</ele>
        <time>2021-05-08T14:45:09Z</time>
      </trkpt>
      <trkpt lat="47.54934" lon="-2.17873">
        <ele>31.2</ele>
        <time>2021-05-08T14:45:10Z</time>
      </trkpt>
      <trkpt lat="47.54922" lon="-2.17873">
        <ele>31.2</ele>
        <time>2021-05-08T14:45:12Z</time>
      </trkpt>
      <trkpt lat="47.54917" lon="-2.17873">
        <ele>31.2</ele>
        <time>2021-05-08T14:45:13Z</time>
      </trkpt>
      <trkpt lat="47.54906" lon="-2.17874">
        <ele>31.3</ele>
        <time>2021-05-08T14:45:15Z</time>
      </trkpt>
      <trkpt lat="47.54901" lon="-2.17874">
        <ele>31.4</ele>
        <time>2021-05-08T14:45:16Z</time>
      </trkpt>
      <trkpt lat="47.54893" lon="-2.17874">
        <ele>31.5</ele>
        <time>2021-05-08T14:45:18Z</time>
      </trkpt>
      <trkpt lat="47.54885" lon="-2.17874">
        <ele>31.7</ele>
        <time>2021-05-08T14:45:20Z</time>
      </trkpt>
      <trkpt lat="47.5488" lon="-2.17874">
        <ele>31.9</ele>
        <time>2021-05-08T14:45:21Z</time>
      </trkpt>
      <trkpt lat="47.54875" lon="-2.17874">
        <ele>32.1</ele>
        <time>2021-05-08T14:45:22Z</time>
      </trkpt>
      <trkpt lat="47.5487" lon="-2.17875">
        <ele>32.3</ele>
        <time>2021-05-08T14:45:23Z</time>
      </trkpt>
      <trkpt lat="47.5486" lon="-2.17876">
        <ele>32.8</ele>
        <time>2021-05-08T14:45:25Z</time>
      </trkpt>
      <trkpt lat="47.54855" lon="-2.17877">
        <ele>32.9</ele>
        <time>2021-05-08T14:45:26Z</time>
      </trkpt>
      <trkpt lat="47.5485" lon="-2.17877">
        <ele>33</ele>
        <time>2021-05-08T14:45:27Z</time>
      </trkpt>
      <trkpt lat="47.5484" lon="-2.17877">
        <ele>33.3</ele>
        <time>2021-05-08T14:45:29Z</time>
      </trkpt>
      <trkpt lat="47.54835" lon="-2.17877">
        <ele>33.4</ele>
        <time>2021-05-08T14:45:30Z</time>
      </trkpt>
      <trkpt lat="47.54827" lon="-2.17877">
        <ele>33.7</ele>
        <time>2021-05-08T14:45:32Z</time>
      </trkpt>
      <trkpt lat="47.54821" lon="-2.17877">
        <ele>33.8</ele>
        <time>2021-05-08T14:45:33Z</time>
      </trkpt>
      <trkpt lat="47.54813" lon="-2.17877">
        <ele>34</ele>
        <time>2021-05-08T14:45:35Z</time>
      </trkpt>
      <trkpt lat="47.54808" lon="-2.17877">
        <ele>34.2</ele>
        <time>2021-05-08T14:45:36Z</time>
      </trkpt>
      <trkpt lat="47.54799" lon="-2.17877">
        <ele>34.4</ele>
        <time>2021-05-08T14:45:38Z</time>
      </trkpt>
      <trkpt lat="47.54788" lon="-2.1788">
        <ele>34.7</ele>
        <time>2021-05-08T14:45:40Z</time>
      </trkpt>
      <trkpt lat="47.54779" lon="-2.17885">
        <ele>34.9</ele>
        <time>2021-05-08T14:45:42Z</time>
      </trkpt>
      <trkpt lat="47.54775" lon="-2.17888">
        <ele>34.9</ele>
        <time>2021-05-08T14:45:43Z</time>
      </trkpt>
      <trkpt lat="47.54766" lon="-2.17895">
        <ele>35</ele>
        <time>2021-05-08T14:45:45Z</time>
      </trkpt>
      <trkpt lat="47.54762" lon="-2.17899">
        <ele>35</ele>
        <time>2021-05-08T14:45:46Z</time>
      </trkpt>
      <trkpt lat="47.54755" lon="-2.17907">
        <ele>35.1</ele>
        <time>2021-05-08T14:45:48Z</time>
      </trkpt>
      <trkpt lat="47.54752" lon="-2.17912">
        <ele>35.1</ele>
        <time>2021-05-08T14:45:49Z</time>
      </trkpt>
      <trkpt lat="47.54748" lon="-2.17916">
        <ele>35.1</ele>
        <time>2021-05-08T14:45:50Z</time>
      </trkpt>
      <trkpt lat="47.54745" lon="-2.1792">
        <ele>35.1</ele>
        <time>2021-05-08T14:45:51Z</time>
      </trkpt>
      <trkpt lat="47.5474" lon="-2.17926">
        <ele>35.2</ele>
        <time>2021-05-08T14:45:53Z</time>
      </trkpt>
      <trkpt lat="47.54737" lon="-2.17928">
        <ele>35.2</ele>
        <time>2021-05-08T14:45:54Z</time>
      </trkpt>
      <trkpt lat="47.5473" lon="-2.1793">
        <ele>35.2</ele>
        <time>2021-05-08T14:45:56Z</time>
      </trkpt>
      <trkpt lat="47.54723" lon="-2.17931">
        <ele>35.2</ele>
        <time>2021-05-08T14:45:57Z</time>
      </trkpt>
      <trkpt lat="47.54717" lon="-2.1793">
        <ele>35.1</ele>
        <time>2021-05-08T14:45:59Z</time>
      </trkpt>
      <trkpt lat="47.54713" lon="-2.17928">
        <ele>35.1</ele>
        <time>2021-05-08T14:46:00Z</time>
      </trkpt>
      <trkpt lat="47.54708" lon="-2.17927">
        <ele>35.1</ele>
        <time>2021-05-08T14:46:01Z</time>
      </trkpt>
      <trkpt lat="47.547" lon="-2.17925">
        <ele>35</ele>
        <time>2021-05-08T14:46:03Z</time>
      </trkpt>
      <trkpt lat="47.54695" lon="-2.17925">
        <ele>35</ele>
        <time>2021-05-08T14:46:04Z</time>
      </trkpt>
      <trkpt lat="47.5469" lon="-2.17925">
        <ele>35</ele>
        <time>2021-05-08T14:46:05Z</time>
      </trkpt>
      <trkpt lat="47.54682" lon="-2.17924">
        <ele>35</ele>
        <time>2021-05-08T14:46:07Z</time>
      </trkpt>
      <trkpt lat="47.54674" lon="-2.17922">
        <ele>34.9</ele>
        <time>2021-05-08T14:46:09Z</time>
      </trkpt>
      <trkpt lat="47.54669" lon="-2.1792">
        <ele>34.9</ele>
        <time>2021-05-08T14:46:10Z</time>
      </trkpt>
      <trkpt lat="47.54662" lon="-2.17917">
        <ele>34.8</ele>
        <time>2021-05-08T14:46:12Z</time>
      </trkpt>
      <trkpt lat="47.54658" lon="-2.17916">
        <ele>34.7</ele>
        <time>2021-05-08T14:46:13Z</time>
      </trkpt>
      <trkpt lat="47.54651" lon="-2.17913">
        <ele>34.7</ele>
        <time>2021-05-08T14:46:15Z</time>
      </trkpt>
      <trkpt lat="47.54647" lon="-2.17911">
        <ele>34.6</ele>
        <time>2021-05-08T14:46:16Z</time>
      </trkpt>
      <trkpt lat="47.5464" lon="-2.17909">
        <ele>34.5</ele>
        <time>2021-05-08T14:46:18Z</time>
      </trkpt>
      <trkpt lat="47.54634" lon="-2.17908">
        <ele>34.4</ele>
        <time>2021-05-08T14:46:19Z</time>
      </trkpt>
      <trkpt lat="47.54623" lon="-2.17905">
        <ele>34.2</ele>
        <time>2021-05-08T14:46:21Z</time>
      </trkpt>
      <trkpt lat="47.54612" lon="-2.17901">
        <ele>33.9</ele>
        <time>2021-05-08T14:46:23Z</time>
      </trkpt>
      <trkpt lat="47.54607" lon="-2.17899">
        <ele>33.8</ele>
        <time>2021-05-08T14:46:24Z</time>
      </trkpt>
      <trkpt lat="47.54601" lon="-2.17905">
        <ele>33.7</ele>
        <time>2021-05-08T14:46:26Z</time>
      </trkpt>
      <trkpt lat="47.54598" lon="-2.17904">
        <ele>33.6</ele>
        <time>2021-05-08T14:46:28Z</time>
      </trkpt>
      <trkpt lat="47.54597" lon="-2.17904">
        <ele>33.6</ele>
        <time>2021-05-08T14:46:29Z</time>
      </trkpt>
      <trkpt lat="47.54599" lon="-2.17902">
        <ele>33.5</ele>
        <time>2021-05-08T14:46:31Z</time>
      </trkpt>
      <trkpt lat="47.546" lon="-2.17901">
        <ele>33.5</ele>
        <time>2021-05-08T14:46:33Z</time>
      </trkpt>
      <trkpt lat="47.546" lon="-2.17899">
        <ele>33.4</ele>
        <time>2021-05-08T14:46:35Z</time>
      </trkpt>
      <trkpt lat="47.546" lon="-2.17897">
        <ele>33.4</ele>
        <time>2021-05-08T14:46:37Z</time>
      </trkpt>
      <trkpt lat="47.546" lon="-2.17894">
        <ele>33.4</ele>
        <time>2021-05-08T14:46:39Z</time>
      </trkpt>
      <trkpt lat="47.546" lon="-2.17894">
        <ele>33.4</ele>
        <time>2021-05-08T14:46:41Z</time>
      </trkpt>
      <trkpt lat="47.54599" lon="-2.17894">
        <ele>33.3</ele>
        <time>2021-05-08T14:46:43Z</time>
      </trkpt>
      <trkpt lat="47.54599" lon="-2.17894">
        <ele>33.3</ele>
        <time>2021-05-08T14:46:45Z</time>
      </trkpt>
      <trkpt lat="47.54598" lon="-2.17894">
        <ele>33.3</ele>
        <time>2021-05-08T14:46:47Z</time>
      </trkpt>
      <trkpt lat="47.54602" lon="-2.17895">
        <ele>33.2</ele>
        <time>2021-05-08T14:46:59Z</time>
      </trkpt>
      <trkpt lat="47.54605" lon="-2.17896">
        <ele>33.2</ele>
        <time>2021-05-08T14:47:01Z</time>
      </trkpt>
      <trkpt lat="47.54608" lon="-2.17897">
        <ele>33.1</ele>
        <time>2021-05-08T14:47:02Z</time>
      </trkpt>
      <trkpt lat="47.54612" lon="-2.17898">
        <ele>33.3</ele>
        <time>2021-05-08T14:47:03Z</time>
      </trkpt>
      <trkpt lat="47.54614" lon="-2.17898">
        <ele>33.3</ele>
        <time>2021-05-08T14:47:04Z</time>
      </trkpt>
      <trkpt lat="47.54617" lon="-2.17897">
        <ele>33.4</ele>
        <time>2021-05-08T14:47:05Z</time>
      </trkpt>
      <trkpt lat="47.5462" lon="-2.17897">
        <ele>33.5</ele>
        <time>2021-05-08T14:47:06Z</time>
      </trkpt>
      <trkpt lat="47.54625" lon="-2.17896">
        <ele>33.7</ele>
        <time>2021-05-08T14:47:08Z</time>
      </trkpt>
      <trkpt lat="47.54628" lon="-2.17895">
        <ele>33.7</ele>
        <time>2021-05-08T14:47:09Z</time>
      </trkpt>
      <trkpt lat="47.5463" lon="-2.17895">
        <ele>33.8</ele>
        <time>2021-05-08T14:47:10Z</time>
      </trkpt>
      <trkpt lat="47.54634" lon="-2.17894">
        <ele>34</ele>
        <time>2021-05-08T14:47:12Z</time>
      </trkpt>
      <trkpt lat="47.54638" lon="-2.17894">
        <ele>34.1</ele>
        <time>2021-05-08T14:47:13Z</time>
      </trkpt>
      <trkpt lat="47.54643" lon="-2.17895">
        <ele>34.2</ele>
        <time>2021-05-08T14:47:14Z</time>
      </trkpt>
      <trkpt lat="47.54647" lon="-2.17897">
        <ele>34.3</ele>
        <time>2021-05-08T14:47:16Z</time>
      </trkpt>
      <trkpt lat="47.54652" lon="-2.17899">
        <ele>34.4</ele>
        <time>2021-05-08T14:47:17Z</time>
      </trkpt>
      <trkpt lat="47.54654" lon="-2.179">
        <ele>34.5</ele>
        <time>2021-05-08T14:47:18Z</time>
      </trkpt>
      <trkpt lat="47.54658" lon="-2.17901">
        <ele>34.6</ele>
        <time>2021-05-08T14:47:19Z</time>
      </trkpt>
      <trkpt lat="47.54659" lon="-2.17902">
        <ele>34.6</ele>
        <time>2021-05-08T14:47:20Z</time>
      </trkpt>
      <trkpt lat="47.54663" lon="-2.17905">
        <ele>34.7</ele>
        <time>2021-05-08T14:47:22Z</time>
      </trkpt>
      <trkpt lat="47.54665" lon="-2.17905">
        <ele>34.7</ele>
        <time>2021-05-08T14:47:23Z</time>
      </trkpt>
      <trkpt lat="47.54666" lon="-2.17906">
        <ele>34.7</ele>
        <time>2021-05-08T14:47:24Z</time>
      </trkpt>
      <trkpt lat="47.5467" lon="-2.17906">
        <ele>34.8</ele>
        <time>2021-05-08T14:47:26Z</time>
      </trkpt>
      <trkpt lat="47.54673" lon="-2.17908">
        <ele>34.8</ele>
        <time>2021-05-08T14:47:28Z</time>
      </trkpt>
      <trkpt lat="47.54676" lon="-2.17909">
        <ele>34.9</ele>
        <time>2021-05-08T14:47:30Z</time>
      </trkpt>
      <trkpt lat="47.54679" lon="-2.17908">
        <ele>34.9</ele>
        <time>2021-05-08T14:47:32Z</time>
      </trkpt>
      <trkpt lat="47.54683" lon="-2.17907">
        <ele>35</ele>
        <time>2021-05-08T14:47:34Z</time>
      </trkpt>
      <trkpt lat="47.54685" lon="-2.17908">
        <ele>35</ele>
        <time>2021-05-08T14:47:36Z</time>
      </trkpt>
      <trkpt lat="47.54687" lon="-2.17909">
        <ele>35</ele>
        <time>2021-05-08T14:47:37Z</time>
      </trkpt>
      <trkpt lat="47.54689" lon="-2.17908">
        <ele>35</ele>
        <time>2021-05-08T14:47:39Z</time>
      </trkpt>
      <trkpt lat="47.54691" lon="-2.17909">
        <ele>34.9</ele>
        <time>2021-05-08T14:47:41Z</time>
      </trkpt>
      <trkpt lat="47.54691" lon="-2.1791">
        <ele>34.9</ele>
        <time>2021-05-08T14:47:42Z</time>
      </trkpt>
      <trkpt lat="47.54691" lon="-2.17911">
        <ele>34.9</ele>
        <time>2021-05-08T14:47:43Z</time>
      </trkpt>
      <trkpt lat="47.54689" lon="-2.17913">
        <ele>34.9</ele>
        <time>2021-05-08T14:47:45Z</time>
      </trkpt>
      <trkpt lat="47.54688" lon="-2.17913">
        <ele>34.9</ele>
        <time>2021-05-08T14:47:46Z</time>
      </trkpt>
      <trkpt lat="47.54687" lon="-2.17913">
        <ele>34.9</ele>
        <time>2021-05-08T14:47:47Z</time>
      </trkpt>
      <trkpt lat="47.54682" lon="-2.17915">
        <ele>34.9</ele>
        <time>2021-05-08T14:47:49Z</time>
      </trkpt>
      <trkpt lat="47.54678" lon="-2.17916">
        <ele>34.9</ele>
        <time>2021-05-08T14:47:51Z</time>
      </trkpt>
      <trkpt lat="47.54675" lon="-2.17915">
        <ele>34.9</ele>
        <time>2021-05-08T14:47:53Z</time>
      </trkpt>
      <trkpt lat="47.54673" lon="-2.17914">
        <ele>34.9</ele>
        <time>2021-05-08T14:47:54Z</time>
      </trkpt>
      <trkpt lat="47.54669" lon="-2.17912">
        <ele>34.8</ele>
        <time>2021-05-08T14:47:56Z</time>
      </trkpt>
      <trkpt lat="47.54665" lon="-2.17912">
        <ele>34.7</ele>
        <time>2021-05-08T14:47:58Z</time>
      </trkpt>
      <trkpt lat="47.54661" lon="-2.17912">
        <ele>34.7</ele>
        <time>2021-05-08T14:48:00Z</time>
      </trkpt>
      <trkpt lat="47.54657" lon="-2.17911">
        <ele>34.6</ele>
        <time>2021-05-08T14:48:02Z</time>
      </trkpt>
      <trkpt lat="47.54654" lon="-2.17911">
        <ele>34.5</ele>
        <time>2021-05-08T14:48:03Z</time>
      </trkpt>
      <trkpt lat="47.54653" lon="-2.17911">
        <ele>34.5</ele>
        <time>2021-05-08T14:48:04Z</time>
      </trkpt>
      <trkpt lat="47.54649" lon="-2.17911">
        <ele>34.4</ele>
        <time>2021-05-08T14:48:06Z</time>
      </trkpt>
      <trkpt lat="47.54646" lon="-2.1791">
        <ele>34.4</ele>
        <time>2021-05-08T14:48:07Z</time>
      </trkpt>
      <trkpt lat="47.54642" lon="-2.1791">
        <ele>34.3</ele>
        <time>2021-05-08T14:48:09Z</time>
      </trkpt>
      <trkpt lat="47.54636" lon="-2.17909">
        <ele>34.1</ele>
        <time>2021-05-08T14:48:11Z</time>
      </trkpt>
      <trkpt lat="47.54632" lon="-2.17908">
        <ele>34</ele>
        <time>2021-05-08T14:48:12Z</time>
      </trkpt>
      <trkpt lat="47.54629" lon="-2.17908">
        <ele>33.8</ele>
        <time>2021-05-08T14:48:13Z</time>
      </trkpt>
      <trkpt lat="47.54624" lon="-2.17908">
        <ele>33.7</ele>
        <time>2021-05-08T14:48:15Z</time>
      </trkpt>
      <trkpt lat="47.54621" lon="-2.17907">
        <ele>33.6</ele>
        <time>2021-05-08T14:48:16Z</time>
      </trkpt>
      <trkpt lat="47.54618" lon="-2.17906">
        <ele>33.5</ele>
        <time>2021-05-08T14:48:17Z</time>
      </trkpt>
      <trkpt lat="47.54617" lon="-2.17906">
        <ele>33.4</ele>
        <time>2021-05-08T14:48:18Z</time>
      </trkpt>
      <trkpt lat="47.54613" lon="-2.17906">
        <ele>33.3</ele>
        <time>2021-05-08T14:48:20Z</time>
      </trkpt>
      <trkpt lat="47.54611" lon="-2.17905">
        <ele>33.3</ele>
        <time>2021-05-08T14:48:21Z</time>
      </trkpt>
      <trkpt lat="47.54609" lon="-2.17905">
        <ele>33.2</ele>
        <time>2021-05-08T14:48:23Z</time>
      </trkpt>
      <trkpt lat="47.54605" lon="-2.17903">
        <ele>33</ele>
        <time>2021-05-08T14:48:24Z</time>
      </trkpt>
      <trkpt lat="47.54602" lon="-2.17902">
        <ele>32.9</ele>
        <time>2021-05-08T14:48:26Z</time>
      </trkpt>
      <trkpt lat="47.54598" lon="-2.17899">
        <ele>32.7</ele>
        <time>2021-05-08T14:48:27Z</time>
      </trkpt>
      <trkpt lat="47.54594" lon="-2.17892">
        <ele>32.3</ele>
        <time>2021-05-08T14:48:28Z</time>
      </trkpt>
      <trkpt lat="47.54588" lon="-2.17878">
        <ele>31.5</ele>
        <time>2021-05-08T14:48:30Z</time>
      </trkpt>
      <trkpt lat="47.54584" lon="-2.17871">
        <ele>31</ele>
        <time>2021-05-08T14:48:31Z</time>
      </trkpt>
      <trkpt lat="47.54581" lon="-2.17863">
        <ele>30.5</ele>
        <time>2021-05-08T14:48:32Z</time>
      </trkpt>
      <trkpt lat="47.54574" lon="-2.17849">
        <ele>29.6</ele>
        <time>2021-05-08T14:48:34Z</time>
      </trkpt>
      <trkpt lat="47.5457" lon="-2.1784">
        <ele>29</ele>
        <time>2021-05-08T14:48:35Z</time>
      </trkpt>
      <trkpt lat="47.54564" lon="-2.17821">
        <ele>27.7</ele>
        <time>2021-05-08T14:48:37Z</time>
      </trkpt>
      <trkpt lat="47.5456" lon="-2.17811">
        <ele>27</ele>
        <time>2021-05-08T14:48:38Z</time>
      </trkpt>
      <trkpt lat="47.54556" lon="-2.17788">
        <ele>25.6</ele>
        <time>2021-05-08T14:48:40Z</time>
      </trkpt>
      <trkpt lat="47.54553" lon="-2.17767">
        <ele>24.3</ele>
        <time>2021-05-08T14:48:42Z</time>
      </trkpt>
      <trkpt lat="47.54552" lon="-2.17755">
        <ele>23.7</ele>
        <time>2021-05-08T14:48:43Z</time>
      </trkpt>
      <trkpt lat="47.54549" lon="-2.17729">
        <ele>22.4</ele>
        <time>2021-05-08T14:48:45Z</time>
      </trkpt>
      <trkpt lat="47.54549" lon="-2.17717">
        <ele>21.8</ele>
        <time>2021-05-08T14:48:46Z</time>
      </trkpt>
      <trkpt lat="47.54547" lon="-2.17694">
        <ele>20.8</ele>
        <time>2021-05-08T14:48:48Z</time>
      </trkpt>
      <trkpt lat="47.54547" lon="-2.17682">
        <ele>20.4</ele>
        <time>2021-05-08T14:48:49Z</time>
      </trkpt>
      <trkpt lat="47.54546" lon="-2.1767">
        <ele>19.9</ele>
        <time>2021-05-08T14:48:50Z</time>
      </trkpt>
      <trkpt lat="47.54545" lon="-2.17659">
        <ele>19.5</ele>
        <time>2021-05-08T14:48:51Z</time>
      </trkpt>
      <trkpt lat="47.54543" lon="-2.17637">
        <ele>18.8</ele>
        <time>2021-05-08T14:48:53Z</time>
      </trkpt>
      <trkpt lat="47.54542" lon="-2.17626">
        <ele>18.4</ele>
        <time>2021-05-08T14:48:54Z</time>
      </trkpt>
      <trkpt lat="47.54541" lon="-2.17614">
        <ele>18</ele>
        <time>2021-05-08T14:48:55Z</time>
      </trkpt>
      <trkpt lat="47.54539" lon="-2.17594">
        <ele>17.4</ele>
        <time>2021-05-08T14:48:57Z</time>
      </trkpt>
      <trkpt lat="47.54538" lon="-2.17584">
        <ele>17</ele>
        <time>2021-05-08T14:48:58Z</time>
      </trkpt>
      <trkpt lat="47.54537" lon="-2.17574">
        <ele>16.7</ele>
        <time>2021-05-08T14:48:59Z</time>
      </trkpt>
      <trkpt lat="47.54535" lon="-2.17556">
        <ele>15.9</ele>
        <time>2021-05-08T14:49:01Z</time>
      </trkpt>
      <trkpt lat="47.54533" lon="-2.17545">
        <ele>15.6</ele>
        <time>2021-05-08T14:49:02Z</time>
      </trkpt>
      <trkpt lat="47.54532" lon="-2.17535">
        <ele>15.2</ele>
        <time>2021-05-08T14:49:03Z</time>
      </trkpt>
      <trkpt lat="47.54532" lon="-2.17516">
        <ele>14.6</ele>
        <time>2021-05-08T14:49:05Z</time>
      </trkpt>
      <trkpt lat="47.54533" lon="-2.17498">
        <ele>13.9</ele>
        <time>2021-05-08T14:49:07Z</time>
      </trkpt>
      <trkpt lat="47.5453" lon="-2.17488">
        <ele>13.3</ele>
        <time>2021-05-08T14:49:09Z</time>
      </trkpt>
      <trkpt lat="47.54527" lon="-2.17484">
        <ele>13.1</ele>
        <time>2021-05-08T14:49:10Z</time>
      </trkpt>
      <trkpt lat="47.54522" lon="-2.17478">
        <ele>12.9</ele>
        <time>2021-05-08T14:49:11Z</time>
      </trkpt>
      <trkpt lat="47.54516" lon="-2.17459">
        <ele>12.4</ele>
        <time>2021-05-08T14:49:13Z</time>
      </trkpt>
      <trkpt lat="47.54515" lon="-2.17449">
        <ele>12.2</ele>
        <time>2021-05-08T14:49:14Z</time>
      </trkpt>
      <trkpt lat="47.54514" lon="-2.17433">
        <ele>11.9</ele>
        <time>2021-05-08T14:49:16Z</time>
      </trkpt>
      <trkpt lat="47.54513" lon="-2.1743">
        <ele>11.9</ele>
        <time>2021-05-08T14:49:17Z</time>
      </trkpt>
      <trkpt lat="47.54511" lon="-2.17421">
        <ele>11.7</ele>
        <time>2021-05-08T14:49:19Z</time>
      </trkpt>
      <trkpt lat="47.54509" lon="-2.17416">
        <ele>11.7</ele>
        <time>2021-05-08T14:49:20Z</time>
      </trkpt>
      <trkpt lat="47.54508" lon="-2.17414">
        <ele>11.6</ele>
        <time>2021-05-08T14:49:21Z</time>
      </trkpt>
      <trkpt lat="47.54504" lon="-2.1741">
        <ele>11.6</ele>
        <time>2021-05-08T14:49:23Z</time>
      </trkpt>
      <trkpt lat="47.54503" lon="-2.17408">
        <ele>11.5</ele>
        <time>2021-05-08T14:49:25Z</time>
      </trkpt>
      <trkpt lat="47.54503" lon="-2.1741">
        <ele>11.5</ele>
        <time>2021-05-08T14:49:26Z</time>
      </trkpt>
      <trkpt lat="47.54503" lon="-2.17412">
        <ele>11.5</ele>
        <time>2021-05-08T14:49:28Z</time>
      </trkpt>
      <trkpt lat="47.54503" lon="-2.17413">
        <ele>11.5</ele>
        <time>2021-05-08T14:49:29Z</time>
      </trkpt>
      <trkpt lat="47.54503" lon="-2.17413">
        <ele>11.5</ele>
        <time>2021-05-08T14:49:31Z</time>
      </trkpt>
      <trkpt lat="47.54503" lon="-2.17414">
        <ele>11.5</ele>
        <time>2021-05-08T14:49:32Z</time>
      </trkpt>
      <trkpt lat="47.54504" lon="-2.17414">
        <ele>11.5</ele>
        <time>2021-05-08T14:49:34Z</time>
      </trkpt>
      <trkpt lat="47.54503" lon="-2.17397">
        <ele>11.2</ele>
        <time>2021-05-08T14:51:22Z</time>
      </trkpt>
      <trkpt lat="47.54504" lon="-2.17393">
        <ele>11.1</ele>
        <time>2021-05-08T14:51:23Z</time>
      </trkpt>
      <trkpt lat="47.54505" lon="-2.17387">
        <ele>11</ele>
        <time>2021-05-08T14:51:25Z</time>
      </trkpt>
      <trkpt lat="47.54506" lon="-2.17384">
        <ele>10.9</ele>
        <time>2021-05-08T14:51:26Z</time>
      </trkpt>
      <trkpt lat="47.54507" lon="-2.17379">
        <ele>10.8</ele>
        <time>2021-05-08T14:51:27Z</time>
      </trkpt>
      <trkpt lat="47.54509" lon="-2.17375">
        <ele>10.8</ele>
        <time>2021-05-08T14:51:28Z</time>
      </trkpt>
      <trkpt lat="47.54511" lon="-2.17369">
        <ele>10.7</ele>
        <time>2021-05-08T14:51:30Z</time>
      </trkpt>
      <trkpt lat="47.54513" lon="-2.17364">
        <ele>10.7</ele>
        <time>2021-05-08T14:51:32Z</time>
      </trkpt>
      <trkpt lat="47.54515" lon="-2.1736">
        <ele>10.7</ele>
        <time>2021-05-08T14:51:33Z</time>
      </trkpt>
      <trkpt lat="47.54518" lon="-2.17354">
        <ele>10.7</ele>
        <time>2021-05-08T14:51:35Z</time>
      </trkpt>
      <trkpt lat="47.54519" lon="-2.17351">
        <ele>10.7</ele>
        <time>2021-05-08T14:51:36Z</time>
      </trkpt>
      <trkpt lat="47.5452" lon="-2.17343">
        <ele>10.7</ele>
        <time>2021-05-08T14:51:38Z</time>
      </trkpt>
      <trkpt lat="47.54521" lon="-2.17335">
        <ele>10.7</ele>
        <time>2021-05-08T14:51:39Z</time>
      </trkpt>
      <trkpt lat="47.54523" lon="-2.1733">
        <ele>10.7</ele>
        <time>2021-05-08T14:51:41Z</time>
      </trkpt>
      <trkpt lat="47.54525" lon="-2.17327">
        <ele>10.7</ele>
        <time>2021-05-08T14:51:42Z</time>
      </trkpt>
      <trkpt lat="47.54531" lon="-2.17321">
        <ele>10.7</ele>
        <time>2021-05-08T14:51:44Z</time>
      </trkpt>
      <trkpt lat="47.54534" lon="-2.17319">
        <ele>10.7</ele>
        <time>2021-05-08T14:51:45Z</time>
      </trkpt>
      <trkpt lat="47.54538" lon="-2.17316">
        <ele>10.7</ele>
        <time>2021-05-08T14:51:46Z</time>
      </trkpt>
      <trkpt lat="47.54543" lon="-2.17313">
        <ele>10.7</ele>
        <time>2021-05-08T14:51:47Z</time>
      </trkpt>
      <trkpt lat="47.54548" lon="-2.17309">
        <ele>10.7</ele>
        <time>2021-05-08T14:51:49Z</time>
      </trkpt>
      <trkpt lat="47.54553" lon="-2.17305">
        <ele>10.7</ele>
        <time>2021-05-08T14:51:50Z</time>
      </trkpt>
      <trkpt lat="47.54556" lon="-2.17303">
        <ele>10.7</ele>
        <time>2021-05-08T14:51:51Z</time>
      </trkpt>
      <trkpt lat="47.5456" lon="-2.173">
        <ele>10.6</ele>
        <time>2021-05-08T14:51:52Z</time>
      </trkpt>
      <trkpt lat="47.54564" lon="-2.17297">
        <ele>10.6</ele>
        <time>2021-05-08T14:51:54Z</time>
      </trkpt>
      <trkpt lat="47.54569" lon="-2.17293">
        <ele>10.6</ele>
        <time>2021-05-08T14:51:56Z</time>
      </trkpt>
      <trkpt lat="47.54574" lon="-2.17288">
        <ele>10.7</ele>
        <time>2021-05-08T14:51:58Z</time>
      </trkpt>
      <trkpt lat="47.5458" lon="-2.17287">
        <ele>10.8</ele>
        <time>2021-05-08T14:51:59Z</time>
      </trkpt>
      <trkpt lat="47.54583" lon="-2.17287">
        <ele>10.8</ele>
        <time>2021-05-08T14:52:01Z</time>
      </trkpt>
      <trkpt lat="47.54588" lon="-2.17288">
        <ele>10.9</ele>
        <time>2021-05-08T14:52:03Z</time>
      </trkpt>
      <trkpt lat="47.54591" lon="-2.17288">
        <ele>11</ele>
        <time>2021-05-08T14:52:04Z</time>
      </trkpt>
      <trkpt lat="47.54595" lon="-2.17288">
        <ele>11.1</ele>
        <time>2021-05-08T14:52:06Z</time>
      </trkpt>
      <trkpt lat="47.54598" lon="-2.17286">
        <ele>11.1</ele>
        <time>2021-05-08T14:52:07Z</time>
      </trkpt>
      <trkpt lat="47.546" lon="-2.17284">
        <ele>11.2</ele>
        <time>2021-05-08T14:52:09Z</time>
      </trkpt>
      <trkpt lat="47.54603" lon="-2.17282">
        <ele>11.2</ele>
        <time>2021-05-08T14:52:10Z</time>
      </trkpt>
      <trkpt lat="47.54606" lon="-2.17282">
        <ele>11.2</ele>
        <time>2021-05-08T14:52:12Z</time>
      </trkpt>
      <trkpt lat="47.54609" lon="-2.17281">
        <ele>11.3</ele>
        <time>2021-05-08T14:52:13Z</time>
      </trkpt>
      <trkpt lat="47.54611" lon="-2.17281">
        <ele>11.3</ele>
        <time>2021-05-08T14:52:14Z</time>
      </trkpt>
      <trkpt lat="47.54614" lon="-2.17281">
        <ele>11.3</ele>
        <time>2021-05-08T14:52:16Z</time>
      </trkpt>
      <trkpt lat="47.54616" lon="-2.1728">
        <ele>11.3</ele>
        <time>2021-05-08T14:52:17Z</time>
      </trkpt>
      <trkpt lat="47.54622" lon="-2.1728">
        <ele>11.2</ele>
        <time>2021-05-08T14:52:19Z</time>
      </trkpt>
      <trkpt lat="47.54626" lon="-2.17279">
        <ele>11.2</ele>
        <time>2021-05-08T14:52:20Z</time>
      </trkpt>
      <trkpt lat="47.54629" lon="-2.17278">
        <ele>11.2</ele>
        <time>2021-05-08T14:52:21Z</time>
      </trkpt>
      <trkpt lat="47.54633" lon="-2.17277">
        <ele>11.2</ele>
        <time>2021-05-08T14:52:23Z</time>
      </trkpt>
      <trkpt lat="47.54637" lon="-2.17275">
        <ele>11.2</ele>
        <time>2021-05-08T14:52:24Z</time>
      </trkpt>
      <trkpt lat="47.54641" lon="-2.17273">
        <ele>11.2</ele>
        <time>2021-05-08T14:52:26Z</time>
      </trkpt>
      <trkpt lat="47.54643" lon="-2.17273">
        <ele>11.2</ele>
        <time>2021-05-08T14:52:27Z</time>
      </trkpt>
      <trkpt lat="47.54646" lon="-2.17272">
        <ele>11.2</ele>
        <time>2021-05-08T14:52:28Z</time>
      </trkpt>
      <trkpt lat="47.54649" lon="-2.17271">
        <ele>11.2</ele>
        <time>2021-05-08T14:52:30Z</time>
      </trkpt>
      <trkpt lat="47.5465" lon="-2.17271">
        <ele>11.2</ele>
        <time>2021-05-08T14:52:31Z</time>
      </trkpt>
      <trkpt lat="47.54654" lon="-2.17272">
        <ele>11.2</ele>
        <time>2021-05-08T14:52:33Z</time>
      </trkpt>
      <trkpt lat="47.54656" lon="-2.17272">
        <ele>11.2</ele>
        <time>2021-05-08T14:52:34Z</time>
      </trkpt>
      <trkpt lat="47.54659" lon="-2.17271">
        <ele>11.3</ele>
        <time>2021-05-08T14:52:36Z</time>
      </trkpt>
      <trkpt lat="47.5466" lon="-2.17271">
        <ele>11.3</ele>
        <time>2021-05-08T14:52:37Z</time>
      </trkpt>
      <trkpt lat="47.54662" lon="-2.17271">
        <ele>11.3</ele>
        <time>2021-05-08T14:52:38Z</time>
      </trkpt>
      <trkpt lat="47.54665" lon="-2.17271">
        <ele>11.5</ele>
        <time>2021-05-08T14:52:39Z</time>
      </trkpt>
      <trkpt lat="47.54668" lon="-2.1727">
        <ele>11.6</ele>
        <time>2021-05-08T14:52:41Z</time>
      </trkpt>
      <trkpt lat="47.54669" lon="-2.17269">
        <ele>11.6</ele>
        <time>2021-05-08T14:52:42Z</time>
      </trkpt>
      <trkpt lat="47.5467" lon="-2.17268">
        <ele>11.7</ele>
        <time>2021-05-08T14:52:43Z</time>
      </trkpt>
      <trkpt lat="47.54672" lon="-2.17267">
        <ele>11.8</ele>
        <time>2021-05-08T14:52:44Z</time>
      </trkpt>
      <trkpt lat="47.54674" lon="-2.17265">
        <ele>11.8</ele>
        <time>2021-05-08T14:52:45Z</time>
      </trkpt>
      <trkpt lat="47.54676" lon="-2.17263">
        <ele>11.9</ele>
        <time>2021-05-08T14:52:47Z</time>
      </trkpt>
      <trkpt lat="47.54678" lon="-2.17261">
        <ele>11.9</ele>
        <time>2021-05-08T14:52:48Z</time>
      </trkpt>
      <trkpt lat="47.54679" lon="-2.17261">
        <ele>11.9</ele>
        <time>2021-05-08T14:52:49Z</time>
      </trkpt>
      <trkpt lat="47.54683" lon="-2.17259">
        <ele>12</ele>
        <time>2021-05-08T14:52:51Z</time>
      </trkpt>
      <trkpt lat="47.54685" lon="-2.17256">
        <ele>12</ele>
        <time>2021-05-08T14:52:52Z</time>
      </trkpt>
      <trkpt lat="47.54688" lon="-2.17254">
        <ele>12</ele>
        <time>2021-05-08T14:52:54Z</time>
      </trkpt>
      <trkpt lat="47.5469" lon="-2.17253">
        <ele>11.9</ele>
        <time>2021-05-08T14:52:55Z</time>
      </trkpt>
      <trkpt lat="47.54694" lon="-2.17252">
        <ele>11.9</ele>
        <time>2021-05-08T14:52:57Z</time>
      </trkpt>
      <trkpt lat="47.54698" lon="-2.1725">
        <ele>11.9</ele>
        <time>2021-05-08T14:52:58Z</time>
      </trkpt>
      <trkpt lat="47.54699" lon="-2.1725">
        <ele>11.8</ele>
        <time>2021-05-08T14:52:59Z</time>
      </trkpt>
      <trkpt lat="47.54702" lon="-2.1725">
        <ele>11.8</ele>
        <time>2021-05-08T14:53:00Z</time>
      </trkpt>
      <trkpt lat="47.54705" lon="-2.17249">
        <ele>11.8</ele>
        <time>2021-05-08T14:53:02Z</time>
      </trkpt>
      <trkpt lat="47.54708" lon="-2.17249">
        <ele>11.8</ele>
        <time>2021-05-08T14:53:03Z</time>
      </trkpt>
      <trkpt lat="47.54712" lon="-2.17249">
        <ele>11.7</ele>
        <time>2021-05-08T14:53:04Z</time>
      </trkpt>
      <trkpt lat="47.54715" lon="-2.17249">
        <ele>11.7</ele>
        <time>2021-05-08T14:53:06Z</time>
      </trkpt>
      <trkpt lat="47.5472" lon="-2.17249">
        <ele>11.7</ele>
        <time>2021-05-08T14:53:08Z</time>
      </trkpt>
      <trkpt lat="47.54724" lon="-2.17249">
        <ele>11.7</ele>
        <time>2021-05-08T14:53:09Z</time>
      </trkpt>
      <trkpt lat="47.54728" lon="-2.17248">
        <ele>11.7</ele>
        <time>2021-05-08T14:53:10Z</time>
      </trkpt>
      <trkpt lat="47.54732" lon="-2.17247">
        <ele>11.7</ele>
        <time>2021-05-08T14:53:12Z</time>
      </trkpt>
      <trkpt lat="47.54735" lon="-2.17245">
        <ele>11.7</ele>
        <time>2021-05-08T14:53:13Z</time>
      </trkpt>
      <trkpt lat="47.54739" lon="-2.17245">
        <ele>11.7</ele>
        <time>2021-05-08T14:53:15Z</time>
      </trkpt>
      <trkpt lat="47.54741" lon="-2.17245">
        <ele>11.7</ele>
        <time>2021-05-08T14:53:16Z</time>
      </trkpt>
      <trkpt lat="47.54744" lon="-2.17243">
        <ele>11.7</ele>
        <time>2021-05-08T14:53:17Z</time>
      </trkpt>
      <trkpt lat="47.54744" lon="-2.17242">
        <ele>11.7</ele>
        <time>2021-05-08T14:53:18Z</time>
      </trkpt>
      <trkpt lat="47.54747" lon="-2.17241">
        <ele>11.8</ele>
        <time>2021-05-08T14:53:20Z</time>
      </trkpt>
      <trkpt lat="47.54752" lon="-2.17243">
        <ele>11.9</ele>
        <time>2021-05-08T14:53:22Z</time>
      </trkpt>
      <trkpt lat="47.54755" lon="-2.17244">
        <ele>12</ele>
        <time>2021-05-08T14:53:23Z</time>
      </trkpt>
      <trkpt lat="47.54758" lon="-2.17244">
        <ele>12.1</ele>
        <time>2021-05-08T14:53:25Z</time>
      </trkpt>
      <trkpt lat="47.54759" lon="-2.17245">
        <ele>12.1</ele>
        <time>2021-05-08T14:53:26Z</time>
      </trkpt>
      <trkpt lat="47.54763" lon="-2.17246">
        <ele>12.4</ele>
        <time>2021-05-08T14:53:28Z</time>
      </trkpt>
      <trkpt lat="47.54767" lon="-2.17245">
        <ele>12.6</ele>
        <time>2021-05-08T14:53:29Z</time>
      </trkpt>
      <trkpt lat="47.54768" lon="-2.17245">
        <ele>12.7</ele>
        <time>2021-05-08T14:53:30Z</time>
      </trkpt>
      <trkpt lat="47.54772" lon="-2.17245">
        <ele>13.1</ele>
        <time>2021-05-08T14:53:32Z</time>
      </trkpt>
      <trkpt lat="47.54774" lon="-2.17246">
        <ele>13.2</ele>
        <time>2021-05-08T14:53:33Z</time>
      </trkpt>
      <trkpt lat="47.54777" lon="-2.17245">
        <ele>13.5</ele>
        <time>2021-05-08T14:53:35Z</time>
      </trkpt>
      <trkpt lat="47.54779" lon="-2.17244">
        <ele>13.8</ele>
        <time>2021-05-08T14:53:36Z</time>
      </trkpt>
      <trkpt lat="47.5478" lon="-2.17243">
        <ele>13.9</ele>
        <time>2021-05-08T14:53:38Z</time>
      </trkpt>
      <trkpt lat="47.54782" lon="-2.17243">
        <ele>14.1</ele>
        <time>2021-05-08T14:53:40Z</time>
      </trkpt>
      <trkpt lat="47.54783" lon="-2.17243">
        <ele>14.2</ele>
        <time>2021-05-08T14:53:41Z</time>
      </trkpt>
      <trkpt lat="47.54784" lon="-2.17243">
        <ele>14.4</ele>
        <time>2021-05-08T14:53:43Z</time>
      </trkpt>
      <trkpt lat="47.54792" lon="-2.17246">
        <ele>15.5</ele>
        <time>2021-05-08T14:53:53Z</time>
      </trkpt>
      <trkpt lat="47.54793" lon="-2.17246">
        <ele>15.7</ele>
        <time>2021-05-08T14:53:55Z</time>
      </trkpt>
      <trkpt lat="47.54795" lon="-2.17245">
        <ele>15.9</ele>
        <time>2021-05-08T14:53:56Z</time>
      </trkpt>
      <trkpt lat="47.54798" lon="-2.17243">
        <ele>16.4</ele>
        <time>2021-05-08T14:53:58Z</time>
      </trkpt>
      <trkpt lat="47.548" lon="-2.17242">
        <ele>16.5</ele>
        <time>2021-05-08T14:53:59Z</time>
      </trkpt>
      <trkpt lat="47.54804" lon="-2.17241">
        <ele>17.1</ele>
        <time>2021-05-08T14:54:01Z</time>
      </trkpt>
      <trkpt lat="47.54805" lon="-2.17241">
        <ele>17.3</ele>
        <time>2021-05-08T14:54:02Z</time>
      </trkpt>
      <trkpt lat="47.54807" lon="-2.17241">
        <ele>17.5</ele>
        <time>2021-05-08T14:54:03Z</time>
      </trkpt>
      <trkpt lat="47.5481" lon="-2.17241">
        <ele>17.8</ele>
        <time>2021-05-08T14:54:05Z</time>
      </trkpt>
      <trkpt lat="47.54811" lon="-2.1724">
        <ele>17.9</ele>
        <time>2021-05-08T14:54:06Z</time>
      </trkpt>
      <trkpt lat="47.54815" lon="-2.17239">
        <ele>18.5</ele>
        <time>2021-05-08T14:54:08Z</time>
      </trkpt>
      <trkpt lat="47.54817" lon="-2.17238">
        <ele>18.6</ele>
        <time>2021-05-08T14:54:09Z</time>
      </trkpt>
      <trkpt lat="47.54818" lon="-2.17237">
        <ele>18.8</ele>
        <time>2021-05-08T14:54:10Z</time>
      </trkpt>
      <trkpt lat="47.54821" lon="-2.17235">
        <ele>19.2</ele>
        <time>2021-05-08T14:54:12Z</time>
      </trkpt>
      <trkpt lat="47.54831" lon="-2.17229">
        <ele>20.5</ele>
        <time>2021-05-08T14:54:24Z</time>
      </trkpt>
      <trkpt lat="47.54833" lon="-2.17228">
        <ele>20.7</ele>
        <time>2021-05-08T14:54:25Z</time>
      </trkpt>
      <trkpt lat="47.54834" lon="-2.17228">
        <ele>20.8</ele>
        <time>2021-05-08T14:54:26Z</time>
      </trkpt>
      <trkpt lat="47.54836" lon="-2.17227">
        <ele>21.1</ele>
        <time>2021-05-08T14:54:27Z</time>
      </trkpt>
      <trkpt lat="47.54838" lon="-2.17226">
        <ele>21.3</ele>
        <time>2021-05-08T14:54:28Z</time>
      </trkpt>
      <trkpt lat="47.54841" lon="-2.17224">
        <ele>21.8</ele>
        <time>2021-05-08T14:54:30Z</time>
      </trkpt>
      <trkpt lat="47.54843" lon="-2.17223">
        <ele>22</ele>
        <time>2021-05-08T14:54:31Z</time>
      </trkpt>
      <trkpt lat="47.54846" lon="-2.1722">
        <ele>22.4</ele>
        <time>2021-05-08T14:54:33Z</time>
      </trkpt>
      <trkpt lat="47.54847" lon="-2.17219">
        <ele>22.5</ele>
        <time>2021-05-08T14:54:34Z</time>
      </trkpt>
      <trkpt lat="47.5485" lon="-2.17216">
        <ele>22.9</ele>
        <time>2021-05-08T14:54:36Z</time>
      </trkpt>
      <trkpt lat="47.54851" lon="-2.17215">
        <ele>23</ele>
        <time>2021-05-08T14:54:37Z</time>
      </trkpt>
      <trkpt lat="47.54853" lon="-2.17213">
        <ele>23.2</ele>
        <time>2021-05-08T14:54:38Z</time>
      </trkpt>
      <trkpt lat="47.54855" lon="-2.1721">
        <ele>23.4</ele>
        <time>2021-05-08T14:54:40Z</time>
      </trkpt>
      <trkpt lat="47.54857" lon="-2.17207">
        <ele>23.7</ele>
        <time>2021-05-08T14:54:41Z</time>
      </trkpt>
      <trkpt lat="47.54858" lon="-2.17206">
        <ele>23.8</ele>
        <time>2021-05-08T14:54:42Z</time>
      </trkpt>
      <trkpt lat="47.54861" lon="-2.17203">
        <ele>24</ele>
        <time>2021-05-08T14:54:44Z</time>
      </trkpt>
      <trkpt lat="47.54862" lon="-2.17202">
        <ele>24.1</ele>
        <time>2021-05-08T14:54:45Z</time>
      </trkpt>
      <trkpt lat="47.54865" lon="-2.17198">
        <ele>24.3</ele>
        <time>2021-05-08T14:54:47Z</time>
      </trkpt>
      <trkpt lat="47.54865" lon="-2.17197">
        <ele>24.4</ele>
        <time>2021-05-08T14:54:48Z</time>
      </trkpt>
      <trkpt lat="47.54868" lon="-2.17191">
        <ele>24.6</ele>
        <time>2021-05-08T14:54:50Z</time>
      </trkpt>
      <trkpt lat="47.54869" lon="-2.1719">
        <ele>24.6</ele>
        <time>2021-05-08T14:54:51Z</time>
      </trkpt>
      <trkpt lat="47.5487" lon="-2.17188">
        <ele>24.6</ele>
        <time>2021-05-08T14:54:52Z</time>
      </trkpt>
      <trkpt lat="47.54871" lon="-2.17185">
        <ele>24.7</ele>
        <time>2021-05-08T14:54:54Z</time>
      </trkpt>
      <trkpt lat="47.54873" lon="-2.17181">
        <ele>24.8</ele>
        <time>2021-05-08T14:54:56Z</time>
      </trkpt>
      <trkpt lat="47.54874" lon="-2.17177">
        <ele>24.8</ele>
        <time>2021-05-08T14:54:57Z</time>
      </trkpt>
      <trkpt lat="47.54875" lon="-2.17176">
        <ele>24.8</ele>
        <time>2021-05-08T14:54:58Z</time>
      </trkpt>
      <trkpt lat="47.54876" lon="-2.17173">
        <ele>24.9</ele>
        <time>2021-05-08T14:55:00Z</time>
      </trkpt>
      <trkpt lat="47.54878" lon="-2.17168">
        <ele>24.9</ele>
        <time>2021-05-08T14:55:02Z</time>
      </trkpt>
      <trkpt lat="47.54879" lon="-2.17165">
        <ele>24.8</ele>
        <time>2021-05-08T14:55:03Z</time>
      </trkpt>
      <trkpt lat="47.54879" lon="-2.17161">
        <ele>24.8</ele>
        <time>2021-05-08T14:55:05Z</time>
      </trkpt>
      <trkpt lat="47.5488" lon="-2.17157">
        <ele>24.8</ele>
        <time>2021-05-08T14:55:06Z</time>
      </trkpt>
      <trkpt lat="47.5488" lon="-2.17152">
        <ele>24.7</ele>
        <time>2021-05-08T14:55:08Z</time>
      </trkpt>
      <trkpt lat="47.54881" lon="-2.17149">
        <ele>24.7</ele>
        <time>2021-05-08T14:55:09Z</time>
      </trkpt>
      <trkpt lat="47.54882" lon="-2.17144">
        <ele>24.6</ele>
        <time>2021-05-08T14:55:11Z</time>
      </trkpt>
      <trkpt lat="47.54882" lon="-2.17141">
        <ele>24.6</ele>
        <time>2021-05-08T14:55:12Z</time>
      </trkpt>
      <trkpt lat="47.54884" lon="-2.17134">
        <ele>24.5</ele>
        <time>2021-05-08T14:55:14Z</time>
      </trkpt>
      <trkpt lat="47.54885" lon="-2.17129">
        <ele>24.4</ele>
        <time>2021-05-08T14:55:15Z</time>
      </trkpt>
      <trkpt lat="47.54886" lon="-2.17124">
        <ele>24.4</ele>
        <time>2021-05-08T14:55:16Z</time>
      </trkpt>
      <trkpt lat="47.54887" lon="-2.17121">
        <ele>24.4</ele>
        <time>2021-05-08T14:55:17Z</time>
      </trkpt>
      <trkpt lat="47.54889" lon="-2.17116">
        <ele>24.3</ele>
        <time>2021-05-08T14:55:19Z</time>
      </trkpt>
      <trkpt lat="47.54891" lon="-2.17109">
        <ele>24.2</ele>
        <time>2021-05-08T14:55:20Z</time>
      </trkpt>
      <trkpt lat="47.54894" lon="-2.17104">
        <ele>24.2</ele>
        <time>2021-05-08T14:55:22Z</time>
      </trkpt>
      <trkpt lat="47.54897" lon="-2.17097">
        <ele>24.1</ele>
        <time>2021-05-08T14:55:24Z</time>
      </trkpt>
      <trkpt lat="47.54899" lon="-2.17091">
        <ele>24.1</ele>
        <time>2021-05-08T14:55:25Z</time>
      </trkpt>
      <trkpt lat="47.549" lon="-2.17086">
        <ele>24</ele>
        <time>2021-05-08T14:55:26Z</time>
      </trkpt>
      <trkpt lat="47.54902" lon="-2.1708">
        <ele>24</ele>
        <time>2021-05-08T14:55:27Z</time>
      </trkpt>
      <trkpt lat="47.54904" lon="-2.17075">
        <ele>23.9</ele>
        <time>2021-05-08T14:55:29Z</time>
      </trkpt>
      <trkpt lat="47.54904" lon="-2.17071">
        <ele>23.9</ele>
        <time>2021-05-08T14:55:30Z</time>
      </trkpt>
      <trkpt lat="47.54902" lon="-2.17067">
        <ele>23.9</ele>
        <time>2021-05-08T14:55:31Z</time>
      </trkpt>
      <trkpt lat="47.54901" lon="-2.17067">
        <ele>23.9</ele>
        <time>2021-05-08T14:55:33Z</time>
      </trkpt>
      <trkpt lat="47.549" lon="-2.17067">
        <ele>23.8</ele>
        <time>2021-05-08T14:55:34Z</time>
      </trkpt>
      <trkpt lat="47.549" lon="-2.17066">
        <ele>23.8</ele>
        <time>2021-05-08T14:55:35Z</time>
      </trkpt>
      <trkpt lat="47.54899" lon="-2.17066">
        <ele>23.8</ele>
        <time>2021-05-08T14:55:37Z</time>
      </trkpt>
      <trkpt lat="47.54898" lon="-2.17066">
        <ele>23.8</ele>
        <time>2021-05-08T14:55:38Z</time>
      </trkpt>
      <trkpt lat="47.54896" lon="-2.17065">
        <ele>23.8</ele>
        <time>2021-05-08T14:55:39Z</time>
      </trkpt>
      <trkpt lat="47.54893" lon="-2.17064">
        <ele>23.8</ele>
        <time>2021-05-08T14:55:41Z</time>
      </trkpt>
      <trkpt lat="47.54892" lon="-2.17064">
        <ele>23.8</ele>
        <time>2021-05-08T14:55:42Z</time>
      </trkpt>
      <trkpt lat="47.54891" lon="-2.17063">
        <ele>23.8</ele>
        <time>2021-05-08T14:55:43Z</time>
      </trkpt>
      <trkpt lat="47.54888" lon="-2.17063">
        <ele>23.8</ele>
        <time>2021-05-08T14:55:44Z</time>
      </trkpt>
      <trkpt lat="47.54886" lon="-2.17063">
        <ele>23.8</ele>
        <time>2021-05-08T14:55:46Z</time>
      </trkpt>
      <trkpt lat="47.54882" lon="-2.17063">
        <ele>23.8</ele>
        <time>2021-05-08T14:55:47Z</time>
      </trkpt>
      <trkpt lat="47.5488" lon="-2.17063">
        <ele>23.8</ele>
        <time>2021-05-08T14:55:49Z</time>
      </trkpt>
      <trkpt lat="47.54877" lon="-2.17063">
        <ele>23.8</ele>
        <time>2021-05-08T14:55:51Z</time>
      </trkpt>
      <trkpt lat="47.54873" lon="-2.17064">
        <ele>23.8</ele>
        <time>2021-05-08T14:55:52Z</time>
      </trkpt>
      <trkpt lat="47.5487" lon="-2.17064">
        <ele>23.8</ele>
        <time>2021-05-08T14:55:54Z</time>
      </trkpt>
      <trkpt lat="47.54868" lon="-2.17064">
        <ele>23.8</ele>
        <time>2021-05-08T14:55:55Z</time>
      </trkpt>
      <trkpt lat="47.54864" lon="-2.17065">
        <ele>23.8</ele>
        <time>2021-05-08T14:55:57Z</time>
      </trkpt>
      <trkpt lat="47.54861" lon="-2.17066">
        <ele>23.8</ele>
        <time>2021-05-08T14:55:58Z</time>
      </trkpt>
      <trkpt lat="47.54856" lon="-2.17065">
        <ele>23.7</ele>
        <time>2021-05-08T14:56:00Z</time>
      </trkpt>
      <trkpt lat="47.5485" lon="-2.17063">
        <ele>23.7</ele>
        <time>2021-05-08T14:56:02Z</time>
      </trkpt>
      <trkpt lat="47.54843" lon="-2.17059">
        <ele>23.6</ele>
        <time>2021-05-08T14:56:03Z</time>
      </trkpt>
      <trkpt lat="47.54839" lon="-2.17057">
        <ele>23.6</ele>
        <time>2021-05-08T14:56:05Z</time>
      </trkpt>
      <trkpt lat="47.54835" lon="-2.17054">
        <ele>23.7</ele>
        <time>2021-05-08T14:56:07Z</time>
      </trkpt>
      <trkpt lat="47.54832" lon="-2.17051">
        <ele>23.7</ele>
        <time>2021-05-08T14:56:08Z</time>
      </trkpt>
      <trkpt lat="47.54831" lon="-2.1705">
        <ele>23.7</ele>
        <time>2021-05-08T14:56:09Z</time>
      </trkpt>
      <trkpt lat="47.54829" lon="-2.17048">
        <ele>23.7</ele>
        <time>2021-05-08T14:56:10Z</time>
      </trkpt>
      <trkpt lat="47.54828" lon="-2.17046">
        <ele>23.7</ele>
        <time>2021-05-08T14:56:12Z</time>
      </trkpt>
      <trkpt lat="47.54828" lon="-2.17044">
        <ele>23.7</ele>
        <time>2021-05-08T14:56:13Z</time>
      </trkpt>
      <trkpt lat="47.54828" lon="-2.17043">
        <ele>23.7</ele>
        <time>2021-05-08T14:56:14Z</time>
      </trkpt>
      <trkpt lat="47.54827" lon="-2.17042">
        <ele>23.7</ele>
        <time>2021-05-08T14:56:16Z</time>
      </trkpt>
      <trkpt lat="47.54827" lon="-2.17041">
        <ele>23.7</ele>
        <time>2021-05-08T14:56:17Z</time>
      </trkpt>
      <trkpt lat="47.54826" lon="-2.17041">
        <ele>23.7</ele>
        <time>2021-05-08T14:56:18Z</time>
      </trkpt>
      <trkpt lat="47.54825" lon="-2.1704">
        <ele>23.7</ele>
        <time>2021-05-08T14:56:20Z</time>
      </trkpt>
      <trkpt lat="47.54824" lon="-2.17038">
        <ele>23.7</ele>
        <time>2021-05-08T14:56:21Z</time>
      </trkpt>
      <trkpt lat="47.54822" lon="-2.17035">
        <ele>23.7</ele>
        <time>2021-05-08T14:56:23Z</time>
      </trkpt>
      <trkpt lat="47.54821" lon="-2.17032">
        <ele>23.7</ele>
        <time>2021-05-08T14:56:24Z</time>
      </trkpt>
      <trkpt lat="47.54819" lon="-2.17028">
        <ele>23.7</ele>
        <time>2021-05-08T14:56:26Z</time>
      </trkpt>
      <trkpt lat="47.54818" lon="-2.17026">
        <ele>23.7</ele>
        <time>2021-05-08T14:56:27Z</time>
      </trkpt>
      <trkpt lat="47.54816" lon="-2.17021">
        <ele>23.7</ele>
        <time>2021-05-08T14:56:29Z</time>
      </trkpt>
      <trkpt lat="47.54814" lon="-2.17017">
        <ele>23.7</ele>
        <time>2021-05-08T14:56:30Z</time>
      </trkpt>
      <trkpt lat="47.54814" lon="-2.17015">
        <ele>23.7</ele>
        <time>2021-05-08T14:56:31Z</time>
      </trkpt>
      <trkpt lat="47.54812" lon="-2.17011">
        <ele>23.7</ele>
        <time>2021-05-08T14:56:33Z</time>
      </trkpt>
      <trkpt lat="47.54811" lon="-2.1701">
        <ele>23.7</ele>
        <time>2021-05-08T14:56:34Z</time>
      </trkpt>
      <trkpt lat="47.5481" lon="-2.17004">
        <ele>23.7</ele>
        <time>2021-05-08T14:56:35Z</time>
      </trkpt>
      <trkpt lat="47.54809" lon="-2.17">
        <ele>23.7</ele>
        <time>2021-05-08T14:56:37Z</time>
      </trkpt>
      <trkpt lat="47.54808" lon="-2.16999">
        <ele>23.7</ele>
        <time>2021-05-08T14:56:38Z</time>
      </trkpt>
      <trkpt lat="47.54807" lon="-2.16994">
        <ele>23.7</ele>
        <time>2021-05-08T14:56:39Z</time>
      </trkpt>
      <trkpt lat="47.54806" lon="-2.16986">
        <ele>23.7</ele>
        <time>2021-05-08T14:56:42Z</time>
      </trkpt>
      <trkpt lat="47.54806" lon="-2.16981">
        <ele>23.8</ele>
        <time>2021-05-08T14:56:43Z</time>
      </trkpt>
      <trkpt lat="47.54806" lon="-2.16977">
        <ele>23.8</ele>
        <time>2021-05-08T14:56:45Z</time>
      </trkpt>
      <trkpt lat="47.54806" lon="-2.16971">
        <ele>23.9</ele>
        <time>2021-05-08T14:56:46Z</time>
      </trkpt>
      <trkpt lat="47.54806" lon="-2.16965">
        <ele>24</ele>
        <time>2021-05-08T14:56:48Z</time>
      </trkpt>
      <trkpt lat="47.54805" lon="-2.16963">
        <ele>24.1</ele>
        <time>2021-05-08T14:56:49Z</time>
      </trkpt>
      <trkpt lat="47.54805" lon="-2.16961">
        <ele>24.1</ele>
        <time>2021-05-08T14:56:50Z</time>
      </trkpt>
      <trkpt lat="47.54803" lon="-2.16957">
        <ele>24.3</ele>
        <time>2021-05-08T14:56:52Z</time>
      </trkpt>
      <trkpt lat="47.54802" lon="-2.16952">
        <ele>24.5</ele>
        <time>2021-05-08T14:56:53Z</time>
      </trkpt>
      <trkpt lat="47.548" lon="-2.16944">
        <ele>24.8</ele>
        <time>2021-05-08T14:56:55Z</time>
      </trkpt>
      <trkpt lat="47.54799" lon="-2.16942">
        <ele>24.9</ele>
        <time>2021-05-08T14:56:56Z</time>
      </trkpt>
      <trkpt lat="47.54799" lon="-2.16939">
        <ele>25</ele>
        <time>2021-05-08T14:56:57Z</time>
      </trkpt>
      <trkpt lat="47.54798" lon="-2.16935">
        <ele>25.2</ele>
        <time>2021-05-08T14:56:58Z</time>
      </trkpt>
      <trkpt lat="47.54797" lon="-2.16931">
        <ele>25.4</ele>
        <time>2021-05-08T14:57:00Z</time>
      </trkpt>
      <trkpt lat="47.54796" lon="-2.16923">
        <ele>25.8</ele>
        <time>2021-05-08T14:57:01Z</time>
      </trkpt>
      <trkpt lat="47.54796" lon="-2.16917">
        <ele>26</ele>
        <time>2021-05-08T14:57:02Z</time>
      </trkpt>
      <trkpt lat="47.54795" lon="-2.16912">
        <ele>26.2</ele>
        <time>2021-05-08T14:57:04Z</time>
      </trkpt>
      <trkpt lat="47.54796" lon="-2.16905">
        <ele>26.4</ele>
        <time>2021-05-08T14:57:05Z</time>
      </trkpt>
      <trkpt lat="47.54796" lon="-2.16898">
        <ele>26.6</ele>
        <time>2021-05-08T14:57:06Z</time>
      </trkpt>
      <trkpt lat="47.54795" lon="-2.16887">
        <ele>26.7</ele>
        <time>2021-05-08T14:57:08Z</time>
      </trkpt>
      <trkpt lat="47.54794" lon="-2.16879">
        <ele>26.8</ele>
        <time>2021-05-08T14:57:09Z</time>
      </trkpt>
      <trkpt lat="47.54791" lon="-2.16874">
        <ele>26.7</ele>
        <time>2021-05-08T14:57:11Z</time>
      </trkpt>
      <trkpt lat="47.54789" lon="-2.16867">
        <ele>26.6</ele>
        <time>2021-05-08T14:57:12Z</time>
      </trkpt>
      <trkpt lat="47.54788" lon="-2.16861">
        <ele>26.5</ele>
        <time>2021-05-08T14:57:14Z</time>
      </trkpt>
      <trkpt lat="47.54786" lon="-2.16849">
        <ele>26.3</ele>
        <time>2021-05-08T14:57:15Z</time>
      </trkpt>
      <trkpt lat="47.54784" lon="-2.16842">
        <ele>26</ele>
        <time>2021-05-08T14:57:17Z</time>
      </trkpt>
      <trkpt lat="47.54781" lon="-2.16836">
        <ele>25.7</ele>
        <time>2021-05-08T14:57:18Z</time>
      </trkpt>
      <trkpt lat="47.54779" lon="-2.1683">
        <ele>25.3</ele>
        <time>2021-05-08T14:57:19Z</time>
      </trkpt>
      <trkpt lat="47.54776" lon="-2.16825">
        <ele>25</ele>
        <time>2021-05-08T14:57:21Z</time>
      </trkpt>
      <trkpt lat="47.54774" lon="-2.16819">
        <ele>24.6</ele>
        <time>2021-05-08T14:57:23Z</time>
      </trkpt>
      <trkpt lat="47.54775" lon="-2.16815">
        <ele>24.3</ele>
        <time>2021-05-08T14:57:24Z</time>
      </trkpt>
      <trkpt lat="47.54775" lon="-2.16813">
        <ele>24.2</ele>
        <time>2021-05-08T14:57:25Z</time>
      </trkpt>
      <trkpt lat="47.54777" lon="-2.16809">
        <ele>23.8</ele>
        <time>2021-05-08T14:57:26Z</time>
      </trkpt>
      <trkpt lat="47.54779" lon="-2.16808">
        <ele>23.6</ele>
        <time>2021-05-08T14:57:27Z</time>
      </trkpt>
      <trkpt lat="47.54782" lon="-2.16805">
        <ele>23.3</ele>
        <time>2021-05-08T14:57:29Z</time>
      </trkpt>
      <trkpt lat="47.54787" lon="-2.16803">
        <ele>22.8</ele>
        <time>2021-05-08T14:57:30Z</time>
      </trkpt>
      <trkpt lat="47.54791" lon="-2.16799">
        <ele>22.4</ele>
        <time>2021-05-08T14:57:32Z</time>
      </trkpt>
      <trkpt lat="47.54795" lon="-2.16797">
        <ele>22</ele>
        <time>2021-05-08T14:57:33Z</time>
      </trkpt>
      <trkpt lat="47.54799" lon="-2.16793">
        <ele>21.6</ele>
        <time>2021-05-08T14:57:35Z</time>
      </trkpt>
      <trkpt lat="47.54803" lon="-2.16792">
        <ele>21.3</ele>
        <time>2021-05-08T14:57:37Z</time>
      </trkpt>
      <trkpt lat="47.54805" lon="-2.16792">
        <ele>21.1</ele>
        <time>2021-05-08T14:57:38Z</time>
      </trkpt>
      <trkpt lat="47.54809" lon="-2.16793">
        <ele>20.8</ele>
        <time>2021-05-08T14:57:40Z</time>
      </trkpt>
      <trkpt lat="47.54812" lon="-2.16794">
        <ele>20.6</ele>
        <time>2021-05-08T14:57:41Z</time>
      </trkpt>
      <trkpt lat="47.54815" lon="-2.16795">
        <ele>20.4</ele>
        <time>2021-05-08T14:57:42Z</time>
      </trkpt>
      <trkpt lat="47.54816" lon="-2.16795">
        <ele>20.4</ele>
        <time>2021-05-08T14:57:43Z</time>
      </trkpt>
      <trkpt lat="47.54819" lon="-2.16794">
        <ele>20.3</ele>
        <time>2021-05-08T14:57:44Z</time>
      </trkpt>
      <trkpt lat="47.54821" lon="-2.16793">
        <ele>20.2</ele>
        <time>2021-05-08T14:57:46Z</time>
      </trkpt>
      <trkpt lat="47.54825" lon="-2.16793">
        <ele>20.1</ele>
        <time>2021-05-08T14:57:47Z</time>
      </trkpt>
      <trkpt lat="47.54829" lon="-2.16792">
        <ele>20</ele>
        <time>2021-05-08T14:57:49Z</time>
      </trkpt>
      <trkpt lat="47.54832" lon="-2.16791">
        <ele>19.9</ele>
        <time>2021-05-08T14:57:50Z</time>
      </trkpt>
      <trkpt lat="47.54835" lon="-2.16791">
        <ele>19.8</ele>
        <time>2021-05-08T14:57:51Z</time>
      </trkpt>
      <trkpt lat="47.54839" lon="-2.1679">
        <ele>19.6</ele>
        <time>2021-05-08T14:57:53Z</time>
      </trkpt>
      <trkpt lat="47.54844" lon="-2.1679">
        <ele>19.4</ele>
        <time>2021-05-08T14:57:54Z</time>
      </trkpt>
      <trkpt lat="47.54849" lon="-2.16789">
        <ele>19</ele>
        <time>2021-05-08T14:57:55Z</time>
      </trkpt>
      <trkpt lat="47.54853" lon="-2.16789">
        <ele>18.7</ele>
        <time>2021-05-08T14:57:56Z</time>
      </trkpt>
      <trkpt lat="47.54859" lon="-2.16788">
        <ele>18.3</ele>
        <time>2021-05-08T14:57:58Z</time>
      </trkpt>
      <trkpt lat="47.54867" lon="-2.16787">
        <ele>17.6</ele>
        <time>2021-05-08T14:58:00Z</time>
      </trkpt>
      <trkpt lat="47.54876" lon="-2.16787">
        <ele>16.9</ele>
        <time>2021-05-08T14:58:01Z</time>
      </trkpt>
      <trkpt lat="47.54883" lon="-2.16787">
        <ele>16.4</ele>
        <time>2021-05-08T14:58:02Z</time>
      </trkpt>
      <trkpt lat="47.54891" lon="-2.16787">
        <ele>15.9</ele>
        <time>2021-05-08T14:58:04Z</time>
      </trkpt>
      <trkpt lat="47.54895" lon="-2.16785">
        <ele>15.6</ele>
        <time>2021-05-08T14:58:05Z</time>
      </trkpt>
      <trkpt lat="47.54901" lon="-2.16781">
        <ele>15.3</ele>
        <time>2021-05-08T14:58:06Z</time>
      </trkpt>
      <trkpt lat="47.54906" lon="-2.16779">
        <ele>15.1</ele>
        <time>2021-05-08T14:58:07Z</time>
      </trkpt>
      <trkpt lat="47.54911" lon="-2.16777">
        <ele>14.9</ele>
        <time>2021-05-08T14:58:09Z</time>
      </trkpt>
      <trkpt lat="47.54916" lon="-2.16776">
        <ele>14.7</ele>
        <time>2021-05-08T14:58:10Z</time>
      </trkpt>
      <trkpt lat="47.54923" lon="-2.16773">
        <ele>14.5</ele>
        <time>2021-05-08T14:58:11Z</time>
      </trkpt>
      <trkpt lat="47.54927" lon="-2.16773">
        <ele>14.4</ele>
        <time>2021-05-08T14:58:13Z</time>
      </trkpt>
      <trkpt lat="47.54933" lon="-2.16772">
        <ele>14.3</ele>
        <time>2021-05-08T14:58:14Z</time>
      </trkpt>
      <trkpt lat="47.54937" lon="-2.1677">
        <ele>14.2</ele>
        <time>2021-05-08T14:58:16Z</time>
      </trkpt>
      <trkpt lat="47.54943" lon="-2.16768">
        <ele>14.1</ele>
        <time>2021-05-08T14:58:18Z</time>
      </trkpt>
      <trkpt lat="47.54949" lon="-2.16766">
        <ele>13.9</ele>
        <time>2021-05-08T14:58:19Z</time>
      </trkpt>
      <trkpt lat="47.54953" lon="-2.16765">
        <ele>13.8</ele>
        <time>2021-05-08T14:58:21Z</time>
      </trkpt>
      <trkpt lat="47.54956" lon="-2.16765">
        <ele>13.8</ele>
        <time>2021-05-08T14:58:22Z</time>
      </trkpt>
      <trkpt lat="47.54961" lon="-2.16764">
        <ele>13.6</ele>
        <time>2021-05-08T14:58:24Z</time>
      </trkpt>
      <trkpt lat="47.54965" lon="-2.16764">
        <ele>13.6</ele>
        <time>2021-05-08T14:58:25Z</time>
      </trkpt>
      <trkpt lat="47.54968" lon="-2.16765">
        <ele>13.5</ele>
        <time>2021-05-08T14:58:27Z</time>
      </trkpt>
      <trkpt lat="47.54972" lon="-2.16767">
        <ele>13.5</ele>
        <time>2021-05-08T14:58:29Z</time>
      </trkpt>
      <trkpt lat="47.54976" lon="-2.16769">
        <ele>13.5</ele>
        <time>2021-05-08T14:58:30Z</time>
      </trkpt>
      <trkpt lat="47.54978" lon="-2.16769">
        <ele>13.5</ele>
        <time>2021-05-08T14:58:31Z</time>
      </trkpt>
      <trkpt lat="47.5498" lon="-2.1677">
        <ele>13.5</ele>
        <time>2021-05-08T14:58:33Z</time>
      </trkpt>
      <trkpt lat="47.54983" lon="-2.16771">
        <ele>13.5</ele>
        <time>2021-05-08T14:58:34Z</time>
      </trkpt>
      <trkpt lat="47.54986" lon="-2.16772">
        <ele>13.5</ele>
        <time>2021-05-08T14:58:35Z</time>
      </trkpt>
      <trkpt lat="47.54991" lon="-2.16774">
        <ele>13.5</ele>
        <time>2021-05-08T14:58:37Z</time>
      </trkpt>
      <trkpt lat="47.54993" lon="-2.16775">
        <ele>13.5</ele>
        <time>2021-05-08T14:58:38Z</time>
      </trkpt>
      <trkpt lat="47.54995" lon="-2.16775">
        <ele>13.6</ele>
        <time>2021-05-08T14:58:39Z</time>
      </trkpt>
      <trkpt lat="47.54998" lon="-2.16778">
        <ele>13.6</ele>
        <time>2021-05-08T14:58:41Z</time>
      </trkpt>
      <trkpt lat="47.55002" lon="-2.16781">
        <ele>13.6</ele>
        <time>2021-05-08T14:58:43Z</time>
      </trkpt>
      <trkpt lat="47.55005" lon="-2.16783">
        <ele>13.7</ele>
        <time>2021-05-08T14:58:44Z</time>
      </trkpt>
      <trkpt lat="47.55008" lon="-2.16785">
        <ele>13.7</ele>
        <time>2021-05-08T14:58:46Z</time>
      </trkpt>
      <trkpt lat="47.5501" lon="-2.16787">
        <ele>13.8</ele>
        <time>2021-05-08T14:58:47Z</time>
      </trkpt>
      <trkpt lat="47.55014" lon="-2.1679">
        <ele>13.8</ele>
        <time>2021-05-08T14:58:49Z</time>
      </trkpt>
      <trkpt lat="47.55018" lon="-2.16793">
        <ele>13.8</ele>
        <time>2021-05-08T14:58:50Z</time>
      </trkpt>
      <trkpt lat="47.55022" lon="-2.16798">
        <ele>13.9</ele>
        <time>2021-05-08T14:58:52Z</time>
      </trkpt>
      <trkpt lat="47.55023" lon="-2.16799">
        <ele>13.9</ele>
        <time>2021-05-08T14:58:53Z</time>
      </trkpt>
      <trkpt lat="47.55025" lon="-2.16801">
        <ele>13.9</ele>
        <time>2021-05-08T14:58:54Z</time>
      </trkpt>
      <trkpt lat="47.55027" lon="-2.16807">
        <ele>13.9</ele>
        <time>2021-05-08T14:58:55Z</time>
      </trkpt>
      <trkpt lat="47.55029" lon="-2.16811">
        <ele>13.9</ele>
        <time>2021-05-08T14:58:56Z</time>
      </trkpt>
      <trkpt lat="47.55031" lon="-2.16815">
        <ele>13.9</ele>
        <time>2021-05-08T14:58:58Z</time>
      </trkpt>
      <trkpt lat="47.55035" lon="-2.16819">
        <ele>13.8</ele>
        <time>2021-05-08T14:59:00Z</time>
      </trkpt>
      <trkpt lat="47.55038" lon="-2.16821">
        <ele>13.8</ele>
        <time>2021-05-08T14:59:01Z</time>
      </trkpt>
      <trkpt lat="47.5504" lon="-2.16821">
        <ele>13.8</ele>
        <time>2021-05-08T14:59:02Z</time>
      </trkpt>
      <trkpt lat="47.55043" lon="-2.16822">
        <ele>13.8</ele>
        <time>2021-05-08T14:59:04Z</time>
      </trkpt>
      <trkpt lat="47.55048" lon="-2.16823">
        <ele>12.5</ele>
        <time>2021-05-08T14:59:05Z</time>
      </trkpt>
      <trkpt lat="47.55052" lon="-2.16823">
        <ele>12.3</ele>
        <time>2021-05-08T14:59:07Z</time>
      </trkpt>
      <trkpt lat="47.55056" lon="-2.16823">
        <ele>12.1</ele>
        <time>2021-05-08T14:59:08Z</time>
      </trkpt>
      <trkpt lat="47.55062" lon="-2.16824">
        <ele>11.8</ele>
        <time>2021-05-08T14:59:10Z</time>
      </trkpt>
      <trkpt lat="47.55066" lon="-2.16825">
        <ele>11.6</ele>
        <time>2021-05-08T14:59:11Z</time>
      </trkpt>
      <trkpt lat="47.55071" lon="-2.16826">
        <ele>11.5</ele>
        <time>2021-05-08T14:59:12Z</time>
      </trkpt>
      <trkpt lat="47.55076" lon="-2.16827">
        <ele>11.4</ele>
        <time>2021-05-08T14:59:13Z</time>
      </trkpt>
      <trkpt lat="47.55079" lon="-2.16828">
        <ele>11.3</ele>
        <time>2021-05-08T14:59:14Z</time>
      </trkpt>
      <trkpt lat="47.55083" lon="-2.16829">
        <ele>11.2</ele>
        <time>2021-05-08T14:59:16Z</time>
      </trkpt>
      <trkpt lat="47.55086" lon="-2.16829">
        <ele>11.2</ele>
        <time>2021-05-08T14:59:17Z</time>
      </trkpt>
      <trkpt lat="47.55088" lon="-2.16837">
        <ele>11.2</ele>
        <time>2021-05-08T14:59:19Z</time>
      </trkpt>
      <trkpt lat="47.5509" lon="-2.1684">
        <ele>11.2</ele>
        <time>2021-05-08T14:59:20Z</time>
      </trkpt>
      <trkpt lat="47.55091" lon="-2.1684">
        <ele>11.2</ele>
        <time>2021-05-08T14:59:22Z</time>
      </trkpt>
      <trkpt lat="47.55091" lon="-2.1684">
        <ele>11.2</ele>
        <time>2021-05-08T14:59:23Z</time>
      </trkpt>
      <trkpt lat="47.55091" lon="-2.1684">
        <ele>11.2</ele>
        <time>2021-05-08T14:59:24Z</time>
      </trkpt>
      <trkpt lat="47.55092" lon="-2.16839">
        <ele>11.2</ele>
        <time>2021-05-08T14:59:25Z</time>
      </trkpt>
      <trkpt lat="47.55092" lon="-2.16839">
        <ele>11.2</ele>
        <time>2021-05-08T14:59:26Z</time>
      </trkpt>
      <trkpt lat="47.55092" lon="-2.16839">
        <ele>11.2</ele>
        <time>2021-05-08T14:59:27Z</time>
      </trkpt>
      <trkpt lat="47.55093" lon="-2.1684">
        <ele>11.2</ele>
        <time>2021-05-08T14:59:29Z</time>
      </trkpt>
      <trkpt lat="47.55094" lon="-2.1684">
        <ele>11.2</ele>
        <time>2021-05-08T14:59:30Z</time>
      </trkpt>
      <trkpt lat="47.55096" lon="-2.16837">
        <ele>11.2</ele>
        <time>2021-05-08T14:59:32Z</time>
      </trkpt>
      <trkpt lat="47.55097" lon="-2.16835">
        <ele>11.2</ele>
        <time>2021-05-08T14:59:34Z</time>
      </trkpt>
      <trkpt lat="47.55098" lon="-2.16834">
        <ele>11.2</ele>
        <time>2021-05-08T14:59:36Z</time>
      </trkpt>
      <trkpt lat="47.55099" lon="-2.16832">
        <ele>11.3</ele>
        <time>2021-05-08T14:59:38Z</time>
      </trkpt>
      <trkpt lat="47.551" lon="-2.16831">
        <ele>11.3</ele>
        <time>2021-05-08T14:59:40Z</time>
      </trkpt>
      <trkpt lat="47.55102" lon="-2.1683">
        <ele>11.3</ele>
        <time>2021-05-08T14:59:42Z</time>
      </trkpt>
      <trkpt lat="47.55103" lon="-2.1683">
        <ele>11.4</ele>
        <time>2021-05-08T14:59:44Z</time>
      </trkpt>
      <trkpt lat="47.55105" lon="-2.16829">
        <ele>11.4</ele>
        <time>2021-05-08T14:59:45Z</time>
      </trkpt>
      <trkpt lat="47.55107" lon="-2.16829">
        <ele>11.5</ele>
        <time>2021-05-08T14:59:46Z</time>
      </trkpt>
      <trkpt lat="47.55108" lon="-2.16828">
        <ele>11.5</ele>
        <time>2021-05-08T14:59:48Z</time>
      </trkpt>
      <trkpt lat="47.55109" lon="-2.16828">
        <ele>11.5</ele>
        <time>2021-05-08T14:59:49Z</time>
      </trkpt>
      <trkpt lat="47.55111" lon="-2.16827">
        <ele>11.6</ele>
        <time>2021-05-08T14:59:50Z</time>
      </trkpt>
      <trkpt lat="47.55112" lon="-2.16827">
        <ele>11.7</ele>
        <time>2021-05-08T14:59:52Z</time>
      </trkpt>
      <trkpt lat="47.55114" lon="-2.16828">
        <ele>11.8</ele>
        <time>2021-05-08T14:59:53Z</time>
      </trkpt>
      <trkpt lat="47.55116" lon="-2.16828">
        <ele>11.9</ele>
        <time>2021-05-08T14:59:54Z</time>
      </trkpt>
      <trkpt lat="47.55119" lon="-2.16828">
        <ele>12</ele>
        <time>2021-05-08T14:59:56Z</time>
      </trkpt>
      <trkpt lat="47.55122" lon="-2.16828">
        <ele>12.2</ele>
        <time>2021-05-08T14:59:57Z</time>
      </trkpt>
      <trkpt lat="47.55124" lon="-2.16827">
        <ele>12.3</ele>
        <time>2021-05-08T14:59:58Z</time>
      </trkpt>
      <trkpt lat="47.55128" lon="-2.16828">
        <ele>12.6</ele>
        <time>2021-05-08T15:00:00Z</time>
      </trkpt>
      <trkpt lat="47.55132" lon="-2.16828">
        <ele>12.9</ele>
        <time>2021-05-08T15:00:02Z</time>
      </trkpt>
      <trkpt lat="47.55135" lon="-2.16828">
        <ele>13.1</ele>
        <time>2021-05-08T15:00:03Z</time>
      </trkpt>
      <trkpt lat="47.55136" lon="-2.16828">
        <ele>13.2</ele>
        <time>2021-05-08T15:00:04Z</time>
      </trkpt>
      <trkpt lat="47.55138" lon="-2.16828">
        <ele>13.4</ele>
        <time>2021-05-08T15:00:05Z</time>
      </trkpt>
      <trkpt lat="47.55141" lon="-2.16827">
        <ele>13.6</ele>
        <time>2021-05-08T15:00:06Z</time>
      </trkpt>
      <trkpt lat="47.55145" lon="-2.16824">
        <ele>13.9</ele>
        <time>2021-05-08T15:00:08Z</time>
      </trkpt>
      <trkpt lat="47.55146" lon="-2.16823">
        <ele>14</ele>
        <time>2021-05-08T15:00:09Z</time>
      </trkpt>
      <trkpt lat="47.55151" lon="-2.16821">
        <ele>14.3</ele>
        <time>2021-05-08T15:00:11Z</time>
      </trkpt>
      <trkpt lat="47.55153" lon="-2.1682">
        <ele>14.4</ele>
        <time>2021-05-08T15:00:13Z</time>
      </trkpt>
      <trkpt lat="47.55154" lon="-2.16819">
        <ele>14.6</ele>
        <time>2021-05-08T15:00:14Z</time>
      </trkpt>
      <trkpt lat="47.55156" lon="-2.16819">
        <ele>14.7</ele>
        <time>2021-05-08T15:00:15Z</time>
      </trkpt>
      <trkpt lat="47.55161" lon="-2.16817">
        <ele>14.9</ele>
        <time>2021-05-08T15:00:16Z</time>
      </trkpt>
      <trkpt lat="47.55165" lon="-2.16817">
        <ele>15.1</ele>
        <time>2021-05-08T15:00:18Z</time>
      </trkpt>
      <trkpt lat="47.5517" lon="-2.16817">
        <ele>15.4</ele>
        <time>2021-05-08T15:00:19Z</time>
      </trkpt>
      <trkpt lat="47.55175" lon="-2.16815">
        <ele>15.6</ele>
        <time>2021-05-08T15:00:21Z</time>
      </trkpt>
      <trkpt lat="47.55176" lon="-2.16814">
        <ele>15.7</ele>
        <time>2021-05-08T15:00:22Z</time>
      </trkpt>
      <trkpt lat="47.55178" lon="-2.16814">
        <ele>15.8</ele>
        <time>2021-05-08T15:00:23Z</time>
      </trkpt>
      <trkpt lat="47.55182" lon="-2.16811">
        <ele>16</ele>
        <time>2021-05-08T15:00:25Z</time>
      </trkpt>
      <trkpt lat="47.55183" lon="-2.1681">
        <ele>16</ele>
        <time>2021-05-08T15:00:26Z</time>
      </trkpt>
      <trkpt lat="47.55186" lon="-2.16808">
        <ele>16.2</ele>
        <time>2021-05-08T15:00:28Z</time>
      </trkpt>
      <trkpt lat="47.55186" lon="-2.16808">
        <ele>16.2</ele>
        <time>2021-05-08T15:00:29Z</time>
      </trkpt>
      <trkpt lat="47.55189" lon="-2.16806">
        <ele>16.3</ele>
        <time>2021-05-08T15:00:30Z</time>
      </trkpt>
      <trkpt lat="47.5519" lon="-2.16804">
        <ele>16.4</ele>
        <time>2021-05-08T15:00:32Z</time>
      </trkpt>
      <trkpt lat="47.55191" lon="-2.16803">
        <ele>16.5</ele>
        <time>2021-05-08T15:00:33Z</time>
      </trkpt>
      <trkpt lat="47.55194" lon="-2.16802">
        <ele>16.6</ele>
        <time>2021-05-08T15:00:35Z</time>
      </trkpt>
      <trkpt lat="47.55197" lon="-2.16799">
        <ele>16.7</ele>
        <time>2021-05-08T15:00:37Z</time>
      </trkpt>
      <trkpt lat="47.55199" lon="-2.16795">
        <ele>16.7</ele>
        <time>2021-05-08T15:00:39Z</time>
      </trkpt>
      <trkpt lat="47.55199" lon="-2.16794">
        <ele>16.4</ele>
        <time>2021-05-08T15:00:40Z</time>
      </trkpt>
      <trkpt lat="47.55199" lon="-2.16792">
        <ele>16.4</ele>
        <time>2021-05-08T15:00:41Z</time>
      </trkpt>
      <trkpt lat="47.55199" lon="-2.16791">
        <ele>16.3</ele>
        <time>2021-05-08T15:00:42Z</time>
      </trkpt>
      <trkpt lat="47.55198" lon="-2.16787">
        <ele>16.2</ele>
        <time>2021-05-08T15:00:44Z</time>
      </trkpt>
      <trkpt lat="47.55197" lon="-2.16784">
        <ele>16.1</ele>
        <time>2021-05-08T15:00:45Z</time>
      </trkpt>
      <trkpt lat="47.55196" lon="-2.16777">
        <ele>15.8</ele>
        <time>2021-05-08T15:00:47Z</time>
      </trkpt>
      <trkpt lat="47.55195" lon="-2.16768">
        <ele>15.5</ele>
        <time>2021-05-08T15:00:49Z</time>
      </trkpt>
      <trkpt lat="47.55194" lon="-2.16759">
        <ele>15.1</ele>
        <time>2021-05-08T15:00:50Z</time>
      </trkpt>
      <trkpt lat="47.55193" lon="-2.16734">
        <ele>13.9</ele>
        <time>2021-05-08T15:00:52Z</time>
      </trkpt>
      <trkpt lat="47.55192" lon="-2.16714">
        <ele>12.9</ele>
        <time>2021-05-08T15:00:54Z</time>
      </trkpt>
      <trkpt lat="47.55192" lon="-2.16694">
        <ele>12</ele>
        <time>2021-05-08T15:00:56Z</time>
      </trkpt>
      <trkpt lat="47.55189" lon="-2.16672">
        <ele>10.9</ele>
        <time>2021-05-08T15:00:58Z</time>
      </trkpt>
      <trkpt lat="47.55187" lon="-2.1666">
        <ele>10.6</ele>
        <time>2021-05-08T15:00:59Z</time>
      </trkpt>
      <trkpt lat="47.55179" lon="-2.16637">
        <ele>10.2</ele>
        <time>2021-05-08T15:01:01Z</time>
      </trkpt>
      <trkpt lat="47.55173" lon="-2.16617">
        <ele>10.2</ele>
        <time>2021-05-08T15:01:03Z</time>
      </trkpt>
      <trkpt lat="47.55169" lon="-2.16609">
        <ele>10.2</ele>
        <time>2021-05-08T15:01:04Z</time>
      </trkpt>
      <trkpt lat="47.5516" lon="-2.16596">
        <ele>10.3</ele>
        <time>2021-05-08T15:01:06Z</time>
      </trkpt>
      <trkpt lat="47.55156" lon="-2.1659">
        <ele>10.4</ele>
        <time>2021-05-08T15:01:07Z</time>
      </trkpt>
      <trkpt lat="47.5515" lon="-2.16581">
        <ele>10.5</ele>
        <time>2021-05-08T15:01:09Z</time>
      </trkpt>
      <trkpt lat="47.55146" lon="-2.16574">
        <ele>10.7</ele>
        <time>2021-05-08T15:01:11Z</time>
      </trkpt>
      <trkpt lat="47.55144" lon="-2.16572">
        <ele>10.7</ele>
        <time>2021-05-08T15:01:12Z</time>
      </trkpt>
      <trkpt lat="47.55141" lon="-2.16567">
        <ele>10.8</ele>
        <time>2021-05-08T15:01:14Z</time>
      </trkpt>
      <trkpt lat="47.55138" lon="-2.16563">
        <ele>10.9</ele>
        <time>2021-05-08T15:01:16Z</time>
      </trkpt>
      <trkpt lat="47.55136" lon="-2.1656">
        <ele>10.9</ele>
        <time>2021-05-08T15:01:17Z</time>
      </trkpt>
      <trkpt lat="47.55135" lon="-2.16559">
        <ele>11</ele>
        <time>2021-05-08T15:01:18Z</time>
      </trkpt>
      <trkpt lat="47.55134" lon="-2.16553">
        <ele>11</ele>
        <time>2021-05-08T15:01:19Z</time>
      </trkpt>
      <trkpt lat="47.55133" lon="-2.16551">
        <ele>11.1</ele>
        <time>2021-05-08T15:01:20Z</time>
      </trkpt>
      <trkpt lat="47.55133" lon="-2.16547">
        <ele>11.1</ele>
        <time>2021-05-08T15:01:22Z</time>
      </trkpt>
      <trkpt lat="47.55134" lon="-2.16543">
        <ele>11.2</ele>
        <time>2021-05-08T15:01:23Z</time>
      </trkpt>
      <trkpt lat="47.55137" lon="-2.1654">
        <ele>11.2</ele>
        <time>2021-05-08T15:01:25Z</time>
      </trkpt>
      <trkpt lat="47.5514" lon="-2.16536">
        <ele>11.2</ele>
        <time>2021-05-08T15:01:26Z</time>
      </trkpt>
      <trkpt lat="47.55143" lon="-2.16531">
        <ele>11.2</ele>
        <time>2021-05-08T15:01:27Z</time>
      </trkpt>
      <trkpt lat="47.55149" lon="-2.16526">
        <ele>11.1</ele>
        <time>2021-05-08T15:01:29Z</time>
      </trkpt>
      <trkpt lat="47.55152" lon="-2.16522">
        <ele>11</ele>
        <time>2021-05-08T15:01:30Z</time>
      </trkpt>
      <trkpt lat="47.55157" lon="-2.16516">
        <ele>10.9</ele>
        <time>2021-05-08T15:01:31Z</time>
      </trkpt>
      <trkpt lat="47.5516" lon="-2.16509">
        <ele>11</ele>
        <time>2021-05-08T15:01:33Z</time>
      </trkpt>
      <trkpt lat="47.55163" lon="-2.16503">
        <ele>11</ele>
        <time>2021-05-08T15:01:34Z</time>
      </trkpt>
      <trkpt lat="47.55165" lon="-2.16494">
        <ele>11.2</ele>
        <time>2021-05-08T15:01:35Z</time>
      </trkpt>
      <trkpt lat="47.55166" lon="-2.16487">
        <ele>11.4</ele>
        <time>2021-05-08T15:01:37Z</time>
      </trkpt>
      <trkpt lat="47.55167" lon="-2.16484">
        <ele>11.5</ele>
        <time>2021-05-08T15:01:38Z</time>
      </trkpt>
      <trkpt lat="47.55167" lon="-2.16478">
        <ele>11.7</ele>
        <time>2021-05-08T15:01:39Z</time>
      </trkpt>
      <trkpt lat="47.55167" lon="-2.16472">
        <ele>12</ele>
        <time>2021-05-08T15:01:41Z</time>
      </trkpt>
      <trkpt lat="47.55167" lon="-2.16471">
        <ele>12.1</ele>
        <time>2021-05-08T15:01:42Z</time>
      </trkpt>
      <trkpt lat="47.55167" lon="-2.16465">
        <ele>12.4</ele>
        <time>2021-05-08T15:01:43Z</time>
      </trkpt>
      <trkpt lat="47.55167" lon="-2.16463">
        <ele>12.5</ele>
        <time>2021-05-08T15:01:44Z</time>
      </trkpt>
      <trkpt lat="47.55167" lon="-2.1646">
        <ele>12.7</ele>
        <time>2021-05-08T15:01:45Z</time>
      </trkpt>
      <trkpt lat="47.55167" lon="-2.16454">
        <ele>13.1</ele>
        <time>2021-05-08T15:01:47Z</time>
      </trkpt>
      <trkpt lat="47.55167" lon="-2.1645">
        <ele>13.4</ele>
        <time>2021-05-08T15:01:48Z</time>
      </trkpt>
      <trkpt lat="47.55167" lon="-2.16445">
        <ele>13.7</ele>
        <time>2021-05-08T15:01:50Z</time>
      </trkpt>
      <trkpt lat="47.55167" lon="-2.1644">
        <ele>14</ele>
        <time>2021-05-08T15:01:51Z</time>
      </trkpt>
      <trkpt lat="47.55168" lon="-2.16438">
        <ele>14.2</ele>
        <time>2021-05-08T15:01:52Z</time>
      </trkpt>
      <trkpt lat="47.5517" lon="-2.16434">
        <ele>14.5</ele>
        <time>2021-05-08T15:01:54Z</time>
      </trkpt>
      <trkpt lat="47.55172" lon="-2.1643">
        <ele>14.8</ele>
        <time>2021-05-08T15:01:55Z</time>
      </trkpt>
      <trkpt lat="47.55174" lon="-2.16426">
        <ele>15.2</ele>
        <time>2021-05-08T15:01:56Z</time>
      </trkpt>
      <trkpt lat="47.55175" lon="-2.16425">
        <ele>15.3</ele>
        <time>2021-05-08T15:01:57Z</time>
      </trkpt>
      <trkpt lat="47.55178" lon="-2.1642">
        <ele>15.7</ele>
        <time>2021-05-08T15:01:59Z</time>
      </trkpt>
      <trkpt lat="47.55179" lon="-2.16417">
        <ele>16</ele>
        <time>2021-05-08T15:02:00Z</time>
      </trkpt>
      <trkpt lat="47.55183" lon="-2.16411">
        <ele>16.4</ele>
        <time>2021-05-08T15:02:01Z</time>
      </trkpt>
      <trkpt lat="47.55185" lon="-2.16405">
        <ele>16.7</ele>
        <time>2021-05-08T15:02:03Z</time>
      </trkpt>
      <trkpt lat="47.55187" lon="-2.164">
        <ele>17</ele>
        <time>2021-05-08T15:02:04Z</time>
      </trkpt>
      <trkpt lat="47.55188" lon="-2.16394">
        <ele>17.3</ele>
        <time>2021-05-08T15:02:06Z</time>
      </trkpt>
      <trkpt lat="47.55189" lon="-2.1639">
        <ele>17.5</ele>
        <time>2021-05-08T15:02:07Z</time>
      </trkpt>
      <trkpt lat="47.5519" lon="-2.16387">
        <ele>17.6</ele>
        <time>2021-05-08T15:02:08Z</time>
      </trkpt>
      <trkpt lat="47.55192" lon="-2.1638">
        <ele>17.9</ele>
        <time>2021-05-08T15:02:10Z</time>
      </trkpt>
      <trkpt lat="47.55193" lon="-2.16376">
        <ele>18.1</ele>
        <time>2021-05-08T15:02:11Z</time>
      </trkpt>
      <trkpt lat="47.55195" lon="-2.1637">
        <ele>18.3</ele>
        <time>2021-05-08T15:02:13Z</time>
      </trkpt>
      <trkpt lat="47.55196" lon="-2.16365">
        <ele>18.5</ele>
        <time>2021-05-08T15:02:14Z</time>
      </trkpt>
      <trkpt lat="47.55198" lon="-2.16359">
        <ele>18.7</ele>
        <time>2021-05-08T15:02:16Z</time>
      </trkpt>
      <trkpt lat="47.55199" lon="-2.16354">
        <ele>18.9</ele>
        <time>2021-05-08T15:02:17Z</time>
      </trkpt>
      <trkpt lat="47.552" lon="-2.1635">
        <ele>19</ele>
        <time>2021-05-08T15:02:18Z</time>
      </trkpt>
      <trkpt lat="47.55201" lon="-2.16344">
        <ele>19.1</ele>
        <time>2021-05-08T15:02:20Z</time>
      </trkpt>
      <trkpt lat="47.55202" lon="-2.16339">
        <ele>19.3</ele>
        <time>2021-05-08T15:02:21Z</time>
      </trkpt>
      <trkpt lat="47.55203" lon="-2.16334">
        <ele>19.4</ele>
        <time>2021-05-08T15:02:22Z</time>
      </trkpt>
      <trkpt lat="47.55203" lon="-2.16333">
        <ele>19.4</ele>
        <time>2021-05-08T15:02:23Z</time>
      </trkpt>
      <trkpt lat="47.55204" lon="-2.1633">
        <ele>19.5</ele>
        <time>2021-05-08T15:02:24Z</time>
      </trkpt>
      <trkpt lat="47.55206" lon="-2.16325">
        <ele>19.6</ele>
        <time>2021-05-08T15:02:26Z</time>
      </trkpt>
      <trkpt lat="47.55208" lon="-2.16321">
        <ele>19.7</ele>
        <time>2021-05-08T15:02:27Z</time>
      </trkpt>
      <trkpt lat="47.55208" lon="-2.1632">
        <ele>19.8</ele>
        <time>2021-05-08T15:02:28Z</time>
      </trkpt>
      <trkpt lat="47.55211" lon="-2.16315">
        <ele>19.9</ele>
        <time>2021-05-08T15:02:29Z</time>
      </trkpt>
      <trkpt lat="47.55211" lon="-2.16313">
        <ele>19.9</ele>
        <time>2021-05-08T15:02:30Z</time>
      </trkpt>
      <trkpt lat="47.55214" lon="-2.16308">
        <ele>20</ele>
        <time>2021-05-08T15:02:32Z</time>
      </trkpt>
      <trkpt lat="47.55217" lon="-2.163">
        <ele>20.1</ele>
        <time>2021-05-08T15:02:34Z</time>
      </trkpt>
      <trkpt lat="47.55219" lon="-2.16295">
        <ele>20.1</ele>
        <time>2021-05-08T15:02:35Z</time>
      </trkpt>
      <trkpt lat="47.55221" lon="-2.1629">
        <ele>20.1</ele>
        <time>2021-05-08T15:02:36Z</time>
      </trkpt>
      <trkpt lat="47.55224" lon="-2.16285">
        <ele>20.1</ele>
        <time>2021-05-08T15:02:38Z</time>
      </trkpt>
      <trkpt lat="47.55225" lon="-2.16282">
        <ele>20.1</ele>
        <time>2021-05-08T15:02:39Z</time>
      </trkpt>
      <trkpt lat="47.55227" lon="-2.16276">
        <ele>20.1</ele>
        <time>2021-05-08T15:02:41Z</time>
      </trkpt>
      <trkpt lat="47.55229" lon="-2.1627">
        <ele>20.1</ele>
        <time>2021-05-08T15:02:43Z</time>
      </trkpt>
      <trkpt lat="47.55231" lon="-2.16265">
        <ele>20.1</ele>
        <time>2021-05-08T15:02:45Z</time>
      </trkpt>
      <trkpt lat="47.55233" lon="-2.16259">
        <ele>20</ele>
        <time>2021-05-08T15:02:46Z</time>
      </trkpt>
      <trkpt lat="47.55235" lon="-2.16254">
        <ele>20</ele>
        <time>2021-05-08T15:02:48Z</time>
      </trkpt>
      <trkpt lat="47.55237" lon="-2.16248">
        <ele>19.9</ele>
        <time>2021-05-08T15:02:50Z</time>
      </trkpt>
      <trkpt lat="47.55238" lon="-2.16244">
        <ele>19.9</ele>
        <time>2021-05-08T15:02:51Z</time>
      </trkpt>
      <trkpt lat="47.55239" lon="-2.16241">
        <ele>19.8</ele>
        <time>2021-05-08T15:02:52Z</time>
      </trkpt>
      <trkpt lat="47.55242" lon="-2.16234">
        <ele>19.7</ele>
        <time>2021-05-08T15:02:54Z</time>
      </trkpt>
      <trkpt lat="47.55244" lon="-2.16229">
        <ele>19.6</ele>
        <time>2021-05-08T15:02:55Z</time>
      </trkpt>
      <trkpt lat="47.55247" lon="-2.16222">
        <ele>19.5</ele>
        <time>2021-05-08T15:02:57Z</time>
      </trkpt>
      <trkpt lat="47.55249" lon="-2.16215">
        <ele>19.3</ele>
        <time>2021-05-08T15:02:58Z</time>
      </trkpt>
      <trkpt lat="47.5525" lon="-2.16212">
        <ele>19.2</ele>
        <time>2021-05-08T15:02:59Z</time>
      </trkpt>
      <trkpt lat="47.55252" lon="-2.16205">
        <ele>19.1</ele>
        <time>2021-05-08T15:03:01Z</time>
      </trkpt>
      <trkpt lat="47.55254" lon="-2.16199">
        <ele>18.9</ele>
        <time>2021-05-08T15:03:02Z</time>
      </trkpt>
      <trkpt lat="47.55256" lon="-2.16192">
        <ele>18.7</ele>
        <time>2021-05-08T15:03:03Z</time>
      </trkpt>
      <trkpt lat="47.55257" lon="-2.16184">
        <ele>18.4</ele>
        <time>2021-05-08T15:03:05Z</time>
      </trkpt>
      <trkpt lat="47.55258" lon="-2.16178">
        <ele>18.2</ele>
        <time>2021-05-08T15:03:06Z</time>
      </trkpt>
      <trkpt lat="47.55261" lon="-2.16154">
        <ele>17.2</ele>
        <time>2021-05-08T15:03:08Z</time>
      </trkpt>
      <trkpt lat="47.55262" lon="-2.16136">
        <ele>16.1</ele>
        <time>2021-05-08T15:03:10Z</time>
      </trkpt>
      <trkpt lat="47.55262" lon="-2.16127">
        <ele>15.6</ele>
        <time>2021-05-08T15:03:11Z</time>
      </trkpt>
      <trkpt lat="47.55261" lon="-2.16117">
        <ele>15</ele>
        <time>2021-05-08T15:03:12Z</time>
      </trkpt>
      <trkpt lat="47.55255" lon="-2.16098">
        <ele>14</ele>
        <time>2021-05-08T15:03:14Z</time>
      </trkpt>
      <trkpt lat="47.5525" lon="-2.16088">
        <ele>13.7</ele>
        <time>2021-05-08T15:03:15Z</time>
      </trkpt>
      <trkpt lat="47.55244" lon="-2.16078">
        <ele>13.3</ele>
        <time>2021-05-08T15:03:16Z</time>
      </trkpt>
      <trkpt lat="47.55234" lon="-2.16057">
        <ele>12.9</ele>
        <time>2021-05-08T15:03:18Z</time>
      </trkpt>
      <trkpt lat="47.55229" lon="-2.16038">
        <ele>12.5</ele>
        <time>2021-05-08T15:03:20Z</time>
      </trkpt>
      <trkpt lat="47.55225" lon="-2.16023">
        <ele>12.4</ele>
        <time>2021-05-08T15:03:22Z</time>
      </trkpt>
      <trkpt lat="47.55224" lon="-2.16016">
        <ele>12.4</ele>
        <time>2021-05-08T15:03:23Z</time>
      </trkpt>
      <trkpt lat="47.55222" lon="-2.16005">
        <ele>12.4</ele>
        <time>2021-05-08T15:03:25Z</time>
      </trkpt>
      <trkpt lat="47.5522" lon="-2.15996">
        <ele>12.4</ele>
        <time>2021-05-08T15:03:27Z</time>
      </trkpt>
      <trkpt lat="47.55219" lon="-2.15991">
        <ele>12.5</ele>
        <time>2021-05-08T15:03:28Z</time>
      </trkpt>
      <trkpt lat="47.55218" lon="-2.15981">
        <ele>12.6</ele>
        <time>2021-05-08T15:03:30Z</time>
      </trkpt>
      <trkpt lat="47.55217" lon="-2.15975">
        <ele>12.7</ele>
        <time>2021-05-08T15:03:31Z</time>
      </trkpt>
      <trkpt lat="47.55216" lon="-2.15969">
        <ele>12.9</ele>
        <time>2021-05-08T15:03:33Z</time>
      </trkpt>
      <trkpt lat="47.55215" lon="-2.15965">
        <ele>13</ele>
        <time>2021-05-08T15:03:34Z</time>
      </trkpt>
      <trkpt lat="47.55214" lon="-2.15962">
        <ele>13.1</ele>
        <time>2021-05-08T15:03:35Z</time>
      </trkpt>
      <trkpt lat="47.55211" lon="-2.15957">
        <ele>13.2</ele>
        <time>2021-05-08T15:03:37Z</time>
      </trkpt>
      <trkpt lat="47.55207" lon="-2.15955">
        <ele>13.6</ele>
        <time>2021-05-08T15:03:38Z</time>
      </trkpt>
      <trkpt lat="47.55204" lon="-2.15953">
        <ele>13.8</ele>
        <time>2021-05-08T15:03:40Z</time>
      </trkpt>
      <trkpt lat="47.55203" lon="-2.15953">
        <ele>13.9</ele>
        <time>2021-05-08T15:03:41Z</time>
      </trkpt>
      <trkpt lat="47.55199" lon="-2.15953">
        <ele>14.2</ele>
        <time>2021-05-08T15:03:43Z</time>
      </trkpt>
      <trkpt lat="47.55197" lon="-2.15951">
        <ele>14.4</ele>
        <time>2021-05-08T15:03:44Z</time>
      </trkpt>
      <trkpt lat="47.55196" lon="-2.1595">
        <ele>14.5</ele>
        <time>2021-05-08T15:03:45Z</time>
      </trkpt>
      <trkpt lat="47.55192" lon="-2.15948">
        <ele>14.7</ele>
        <time>2021-05-08T15:03:47Z</time>
      </trkpt>
      <trkpt lat="47.55189" lon="-2.15945">
        <ele>15</ele>
        <time>2021-05-08T15:03:48Z</time>
      </trkpt>
      <trkpt lat="47.55186" lon="-2.15943">
        <ele>15.2</ele>
        <time>2021-05-08T15:03:50Z</time>
      </trkpt>
      <trkpt lat="47.55181" lon="-2.15939">
        <ele>15.5</ele>
        <time>2021-05-08T15:03:52Z</time>
      </trkpt>
      <trkpt lat="47.55177" lon="-2.15936">
        <ele>15.8</ele>
        <time>2021-05-08T15:03:53Z</time>
      </trkpt>
      <trkpt lat="47.55172" lon="-2.15934">
        <ele>16.1</ele>
        <time>2021-05-08T15:03:55Z</time>
      </trkpt>
      <trkpt lat="47.55167" lon="-2.15931">
        <ele>16.3</ele>
        <time>2021-05-08T15:03:56Z</time>
      </trkpt>
      <trkpt lat="47.55163" lon="-2.15929">
        <ele>16.5</ele>
        <time>2021-05-08T15:03:58Z</time>
      </trkpt>
      <trkpt lat="47.55158" lon="-2.15926">
        <ele>16.7</ele>
        <time>2021-05-08T15:03:59Z</time>
      </trkpt>
      <trkpt lat="47.55154" lon="-2.15923">
        <ele>16.9</ele>
        <time>2021-05-08T15:04:01Z</time>
      </trkpt>
      <trkpt lat="47.55151" lon="-2.15921">
        <ele>17</ele>
        <time>2021-05-08T15:04:02Z</time>
      </trkpt>
      <trkpt lat="47.55146" lon="-2.15919">
        <ele>17.2</ele>
        <time>2021-05-08T15:04:03Z</time>
      </trkpt>
      <trkpt lat="47.55142" lon="-2.15916">
        <ele>17.4</ele>
        <time>2021-05-08T15:04:05Z</time>
      </trkpt>
      <trkpt lat="47.55137" lon="-2.15914">
        <ele>17.5</ele>
        <time>2021-05-08T15:04:06Z</time>
      </trkpt>
      <trkpt lat="47.55133" lon="-2.15912">
        <ele>17.7</ele>
        <time>2021-05-08T15:04:08Z</time>
      </trkpt>
      <trkpt lat="47.5513" lon="-2.15911">
        <ele>17.7</ele>
        <time>2021-05-08T15:04:09Z</time>
      </trkpt>
      <trkpt lat="47.55126" lon="-2.15909">
        <ele>17.8</ele>
        <time>2021-05-08T15:04:10Z</time>
      </trkpt>
      <trkpt lat="47.55122" lon="-2.15906">
        <ele>17.9</ele>
        <time>2021-05-08T15:04:12Z</time>
      </trkpt>
      <trkpt lat="47.5512" lon="-2.15905">
        <ele>18</ele>
        <time>2021-05-08T15:04:13Z</time>
      </trkpt>
      <trkpt lat="47.55115" lon="-2.15902">
        <ele>18.1</ele>
        <time>2021-05-08T15:04:14Z</time>
      </trkpt>
      <trkpt lat="47.55112" lon="-2.159">
        <ele>18.2</ele>
        <time>2021-05-08T15:04:16Z</time>
      </trkpt>
      <trkpt lat="47.55107" lon="-2.15898">
        <ele>18.2</ele>
        <time>2021-05-08T15:04:17Z</time>
      </trkpt>
      <trkpt lat="47.55103" lon="-2.15898">
        <ele>18.3</ele>
        <time>2021-05-08T15:04:19Z</time>
      </trkpt>
      <trkpt lat="47.55099" lon="-2.15897">
        <ele>18.4</ele>
        <time>2021-05-08T15:04:20Z</time>
      </trkpt>
      <trkpt lat="47.55096" lon="-2.15896">
        <ele>18.4</ele>
        <time>2021-05-08T15:04:22Z</time>
      </trkpt>
      <trkpt lat="47.55094" lon="-2.15896">
        <ele>18.4</ele>
        <time>2021-05-08T15:04:23Z</time>
      </trkpt>
      <trkpt lat="47.55089" lon="-2.15895">
        <ele>18.5</ele>
        <time>2021-05-08T15:04:25Z</time>
      </trkpt>
      <trkpt lat="47.55085" lon="-2.15895">
        <ele>18.6</ele>
        <time>2021-05-08T15:04:27Z</time>
      </trkpt>
      <trkpt lat="47.55081" lon="-2.15895">
        <ele>18.7</ele>
        <time>2021-05-08T15:04:28Z</time>
      </trkpt>
      <trkpt lat="47.55078" lon="-2.15896">
        <ele>18.8</ele>
        <time>2021-05-08T15:04:29Z</time>
      </trkpt>
      <trkpt lat="47.55072" lon="-2.15897">
        <ele>18.9</ele>
        <time>2021-05-08T15:04:30Z</time>
      </trkpt>
      <trkpt lat="47.55067" lon="-2.15898">
        <ele>19.1</ele>
        <time>2021-05-08T15:04:32Z</time>
      </trkpt>
      <trkpt lat="47.55063" lon="-2.15898">
        <ele>19.3</ele>
        <time>2021-05-08T15:04:33Z</time>
      </trkpt>
      <trkpt lat="47.55058" lon="-2.15898">
        <ele>19.5</ele>
        <time>2021-05-08T15:04:35Z</time>
      </trkpt>
      <trkpt lat="47.55052" lon="-2.15899">
        <ele>19.7</ele>
        <time>2021-05-08T15:04:36Z</time>
      </trkpt>
      <trkpt lat="47.55049" lon="-2.159">
        <ele>19.9</ele>
        <time>2021-05-08T15:04:37Z</time>
      </trkpt>
      <trkpt lat="47.55042" lon="-2.15902">
        <ele>20.2</ele>
        <time>2021-05-08T15:04:38Z</time>
      </trkpt>
      <trkpt lat="47.55037" lon="-2.15904">
        <ele>20.4</ele>
        <time>2021-05-08T15:04:40Z</time>
      </trkpt>
      <trkpt lat="47.55033" lon="-2.15905">
        <ele>20.5</ele>
        <time>2021-05-08T15:04:41Z</time>
      </trkpt>
      <trkpt lat="47.5503" lon="-2.15906">
        <ele>20.6</ele>
        <time>2021-05-08T15:04:42Z</time>
      </trkpt>
      <trkpt lat="47.55028" lon="-2.15908">
        <ele>20.7</ele>
        <time>2021-05-08T15:04:43Z</time>
      </trkpt>
      <trkpt lat="47.55025" lon="-2.15909">
        <ele>20.8</ele>
        <time>2021-05-08T15:04:44Z</time>
      </trkpt>
      <trkpt lat="47.55022" lon="-2.15913">
        <ele>20.9</ele>
        <time>2021-05-08T15:04:45Z</time>
      </trkpt>
      <trkpt lat="47.55018" lon="-2.15917">
        <ele>21</ele>
        <time>2021-05-08T15:04:47Z</time>
      </trkpt>
      <trkpt lat="47.55015" lon="-2.1592">
        <ele>21</ele>
        <time>2021-05-08T15:04:48Z</time>
      </trkpt>
      <trkpt lat="47.5501" lon="-2.15923">
        <ele>21</ele>
        <time>2021-05-08T15:04:50Z</time>
      </trkpt>
      <trkpt lat="47.55006" lon="-2.15924">
        <ele>21.1</ele>
        <time>2021-05-08T15:04:51Z</time>
      </trkpt>
      <trkpt lat="47.55" lon="-2.15924">
        <ele>21.1</ele>
        <time>2021-05-08T15:04:53Z</time>
      </trkpt>
      <trkpt lat="47.54993" lon="-2.15924">
        <ele>21.1</ele>
        <time>2021-05-08T15:04:55Z</time>
      </trkpt>
      <trkpt lat="47.54987" lon="-2.15925">
        <ele>21.2</ele>
        <time>2021-05-08T15:04:56Z</time>
      </trkpt>
      <trkpt lat="47.54981" lon="-2.15924">
        <ele>21.3</ele>
        <time>2021-05-08T15:04:58Z</time>
      </trkpt>
      <trkpt lat="47.54975" lon="-2.15924">
        <ele>21.3</ele>
        <time>2021-05-08T15:05:00Z</time>
      </trkpt>
      <trkpt lat="47.54972" lon="-2.15924">
        <ele>21.4</ele>
        <time>2021-05-08T15:05:01Z</time>
      </trkpt>
      <trkpt lat="47.54969" lon="-2.15924">
        <ele>21.5</ele>
        <time>2021-05-08T15:05:02Z</time>
      </trkpt>
      <trkpt lat="47.54965" lon="-2.15924">
        <ele>21.5</ele>
        <time>2021-05-08T15:05:03Z</time>
      </trkpt>
      <trkpt lat="47.54961" lon="-2.15924">
        <ele>21.6</ele>
        <time>2021-05-08T15:05:04Z</time>
      </trkpt>
      <trkpt lat="47.54957" lon="-2.15923">
        <ele>21.7</ele>
        <time>2021-05-08T15:05:06Z</time>
      </trkpt>
      <trkpt lat="47.54951" lon="-2.15921">
        <ele>21.8</ele>
        <time>2021-05-08T15:05:07Z</time>
      </trkpt>
      <trkpt lat="47.54946" lon="-2.15919">
        <ele>21.9</ele>
        <time>2021-05-08T15:05:09Z</time>
      </trkpt>
      <trkpt lat="47.54943" lon="-2.15918">
        <ele>22</ele>
        <time>2021-05-08T15:05:10Z</time>
      </trkpt>
      <trkpt lat="47.54939" lon="-2.15917">
        <ele>22</ele>
        <time>2021-05-08T15:05:11Z</time>
      </trkpt>
      <trkpt lat="47.54933" lon="-2.15916">
        <ele>22.4</ele>
        <time>2021-05-08T15:05:13Z</time>
      </trkpt>
      <trkpt lat="47.54929" lon="-2.15916">
        <ele>22.6</ele>
        <time>2021-05-08T15:05:14Z</time>
      </trkpt>
      <trkpt lat="47.54926" lon="-2.15915">
        <ele>22.8</ele>
        <time>2021-05-08T15:05:15Z</time>
      </trkpt>
      <trkpt lat="47.54921" lon="-2.15914">
        <ele>23.1</ele>
        <time>2021-05-08T15:05:16Z</time>
      </trkpt>
      <trkpt lat="47.54917" lon="-2.15914">
        <ele>23.3</ele>
        <time>2021-05-08T15:05:18Z</time>
      </trkpt>
      <trkpt lat="47.54916" lon="-2.15914">
        <ele>23.4</ele>
        <time>2021-05-08T15:05:19Z</time>
      </trkpt>
      <trkpt lat="47.54914" lon="-2.15914">
        <ele>23.5</ele>
        <time>2021-05-08T15:05:20Z</time>
      </trkpt>
      <trkpt lat="47.54912" lon="-2.15914">
        <ele>23.6</ele>
        <time>2021-05-08T15:05:22Z</time>
      </trkpt>
      <trkpt lat="47.54911" lon="-2.15913">
        <ele>23.7</ele>
        <time>2021-05-08T15:05:23Z</time>
      </trkpt>
      <trkpt lat="47.5491" lon="-2.15912">
        <ele>23.8</ele>
        <time>2021-05-08T15:05:24Z</time>
      </trkpt>
      <trkpt lat="47.54908" lon="-2.15912">
        <ele>23.8</ele>
        <time>2021-05-08T15:05:25Z</time>
      </trkpt>
      <trkpt lat="47.54905" lon="-2.15911">
        <ele>24.1</ele>
        <time>2021-05-08T15:05:27Z</time>
      </trkpt>
      <trkpt lat="47.54904" lon="-2.15911">
        <ele>24.1</ele>
        <time>2021-05-08T15:05:28Z</time>
      </trkpt>
      <trkpt lat="47.54901" lon="-2.15911">
        <ele>24.3</ele>
        <time>2021-05-08T15:05:29Z</time>
      </trkpt>
      <trkpt lat="47.54899" lon="-2.15911">
        <ele>24.4</ele>
        <time>2021-05-08T15:05:30Z</time>
      </trkpt>
      <trkpt lat="47.54894" lon="-2.15911">
        <ele>24.7</ele>
        <time>2021-05-08T15:05:32Z</time>
      </trkpt>
      <trkpt lat="47.54893" lon="-2.15912">
        <ele>24.8</ele>
        <time>2021-05-08T15:05:33Z</time>
      </trkpt>
      <trkpt lat="47.54891" lon="-2.15912">
        <ele>24.9</ele>
        <time>2021-05-08T15:05:34Z</time>
      </trkpt>
      <trkpt lat="47.54887" lon="-2.15913">
        <ele>25.1</ele>
        <time>2021-05-08T15:05:36Z</time>
      </trkpt>
      <trkpt lat="47.54883" lon="-2.15914">
        <ele>25.3</ele>
        <time>2021-05-08T15:05:37Z</time>
      </trkpt>
      <trkpt lat="47.54878" lon="-2.15914">
        <ele>25.6</ele>
        <time>2021-05-08T15:05:39Z</time>
      </trkpt>
      <trkpt lat="47.54876" lon="-2.15914">
        <ele>25.8</ele>
        <time>2021-05-08T15:05:40Z</time>
      </trkpt>
      <trkpt lat="47.54874" lon="-2.15915">
        <ele>25.9</ele>
        <time>2021-05-08T15:05:41Z</time>
      </trkpt>
      <trkpt lat="47.54869" lon="-2.15915">
        <ele>26.2</ele>
        <time>2021-05-08T15:05:43Z</time>
      </trkpt>
      <trkpt lat="47.54867" lon="-2.15915">
        <ele>26.3</ele>
        <time>2021-05-08T15:05:44Z</time>
      </trkpt>
      <trkpt lat="47.54865" lon="-2.15916">
        <ele>26.4</ele>
        <time>2021-05-08T15:05:45Z</time>
      </trkpt>
      <trkpt lat="47.54861" lon="-2.15916">
        <ele>26.6</ele>
        <time>2021-05-08T15:05:46Z</time>
      </trkpt>
      <trkpt lat="47.54858" lon="-2.15917">
        <ele>26.8</ele>
        <time>2021-05-08T15:05:48Z</time>
      </trkpt>
      <trkpt lat="47.54856" lon="-2.15917">
        <ele>27</ele>
        <time>2021-05-08T15:05:49Z</time>
      </trkpt>
      <trkpt lat="47.54852" lon="-2.15919">
        <ele>27.2</ele>
        <time>2021-05-08T15:05:51Z</time>
      </trkpt>
      <trkpt lat="47.54849" lon="-2.1592">
        <ele>27.4</ele>
        <time>2021-05-08T15:05:52Z</time>
      </trkpt>
      <trkpt lat="47.54848" lon="-2.1592">
        <ele>27.4</ele>
        <time>2021-05-08T15:05:53Z</time>
      </trkpt>
      <trkpt lat="47.54845" lon="-2.15921">
        <ele>27.6</ele>
        <time>2021-05-08T15:05:54Z</time>
      </trkpt>
      <trkpt lat="47.54844" lon="-2.15922">
        <ele>27.7</ele>
        <time>2021-05-08T15:05:55Z</time>
      </trkpt>
      <trkpt lat="47.5484" lon="-2.15923">
        <ele>27.9</ele>
        <time>2021-05-08T15:05:57Z</time>
      </trkpt>
      <trkpt lat="47.54837" lon="-2.15925">
        <ele>28.1</ele>
        <time>2021-05-08T15:05:58Z</time>
      </trkpt>
      <trkpt lat="47.54832" lon="-2.15926">
        <ele>28.4</ele>
        <time>2021-05-08T15:06:00Z</time>
      </trkpt>
      <trkpt lat="47.5483" lon="-2.15927">
        <ele>28.5</ele>
        <time>2021-05-08T15:06:01Z</time>
      </trkpt>
      <trkpt lat="47.54828" lon="-2.15928">
        <ele>28.6</ele>
        <time>2021-05-08T15:06:02Z</time>
      </trkpt>
      <trkpt lat="47.54826" lon="-2.1593">
        <ele>28.8</ele>
        <time>2021-05-08T15:06:03Z</time>
      </trkpt>
      <trkpt lat="47.54822" lon="-2.15933">
        <ele>29.1</ele>
        <time>2021-05-08T15:06:05Z</time>
      </trkpt>
      <trkpt lat="47.54821" lon="-2.15935">
        <ele>29.1</ele>
        <time>2021-05-08T15:06:06Z</time>
      </trkpt>
      <trkpt lat="47.5482" lon="-2.15936">
        <ele>29.2</ele>
        <time>2021-05-08T15:06:07Z</time>
      </trkpt>
      <trkpt lat="47.54817" lon="-2.15937">
        <ele>29.4</ele>
        <time>2021-05-08T15:06:08Z</time>
      </trkpt>
      <trkpt lat="47.54816" lon="-2.15937">
        <ele>29.5</ele>
        <time>2021-05-08T15:06:09Z</time>
      </trkpt>
      <trkpt lat="47.54813" lon="-2.15935">
        <ele>29.7</ele>
        <time>2021-05-08T15:06:11Z</time>
      </trkpt>
      <trkpt lat="47.54811" lon="-2.15933">
        <ele>29.8</ele>
        <time>2021-05-08T15:06:12Z</time>
      </trkpt>
      <trkpt lat="47.54807" lon="-2.15929">
        <ele>30.1</ele>
        <time>2021-05-08T15:06:14Z</time>
      </trkpt>
      <trkpt lat="47.54804" lon="-2.15925">
        <ele>30.3</ele>
        <time>2021-05-08T15:06:15Z</time>
      </trkpt>
      <trkpt lat="47.54803" lon="-2.15923">
        <ele>30.4</ele>
        <time>2021-05-08T15:06:16Z</time>
      </trkpt>
      <trkpt lat="47.54801" lon="-2.15919">
        <ele>30.5</ele>
        <time>2021-05-08T15:06:17Z</time>
      </trkpt>
      <trkpt lat="47.54799" lon="-2.15916">
        <ele>30.7</ele>
        <time>2021-05-08T15:06:19Z</time>
      </trkpt>
      <trkpt lat="47.54796" lon="-2.15912">
        <ele>30.9</ele>
        <time>2021-05-08T15:06:21Z</time>
      </trkpt>
      <trkpt lat="47.54793" lon="-2.15908">
        <ele>31</ele>
        <time>2021-05-08T15:06:22Z</time>
      </trkpt>
      <trkpt lat="47.54792" lon="-2.15907">
        <ele>31.1</ele>
        <time>2021-05-08T15:06:23Z</time>
      </trkpt>
      <trkpt lat="47.5479" lon="-2.15904">
        <ele>31.3</ele>
        <time>2021-05-08T15:06:24Z</time>
      </trkpt>
      <trkpt lat="47.54787" lon="-2.159">
        <ele>31.5</ele>
        <time>2021-05-08T15:06:26Z</time>
      </trkpt>
      <trkpt lat="47.54783" lon="-2.15895">
        <ele>31.7</ele>
        <time>2021-05-08T15:06:28Z</time>
      </trkpt>
      <trkpt lat="47.54781" lon="-2.15892">
        <ele>31.9</ele>
        <time>2021-05-08T15:06:29Z</time>
      </trkpt>
      <trkpt lat="47.54778" lon="-2.15888">
        <ele>32.1</ele>
        <time>2021-05-08T15:06:30Z</time>
      </trkpt>
      <trkpt lat="47.54778" lon="-2.15887">
        <ele>32.1</ele>
        <time>2021-05-08T15:06:31Z</time>
      </trkpt>
      <trkpt lat="47.54776" lon="-2.15885">
        <ele>32.2</ele>
        <time>2021-05-08T15:06:32Z</time>
      </trkpt>
      <trkpt lat="47.54774" lon="-2.15881">
        <ele>32.5</ele>
        <time>2021-05-08T15:06:34Z</time>
      </trkpt>
      <trkpt lat="47.54771" lon="-2.15876">
        <ele>32.7</ele>
        <time>2021-05-08T15:06:35Z</time>
      </trkpt>
      <trkpt lat="47.54769" lon="-2.15872">
        <ele>32.9</ele>
        <time>2021-05-08T15:06:37Z</time>
      </trkpt>
      <trkpt lat="47.54767" lon="-2.15867">
        <ele>33.1</ele>
        <time>2021-05-08T15:06:39Z</time>
      </trkpt>
      <trkpt lat="47.54765" lon="-2.15863">
        <ele>33.3</ele>
        <time>2021-05-08T15:06:40Z</time>
      </trkpt>
      <trkpt lat="47.54764" lon="-2.15862">
        <ele>33.4</ele>
        <time>2021-05-08T15:06:41Z</time>
      </trkpt>
      <trkpt lat="47.54761" lon="-2.15858">
        <ele>33.6</ele>
        <time>2021-05-08T15:06:43Z</time>
      </trkpt>
      <trkpt lat="47.54758" lon="-2.15853">
        <ele>33.9</ele>
        <time>2021-05-08T15:06:45Z</time>
      </trkpt>
      <trkpt lat="47.54756" lon="-2.1585">
        <ele>34.1</ele>
        <time>2021-05-08T15:06:46Z</time>
      </trkpt>
      <trkpt lat="47.54755" lon="-2.15847">
        <ele>34.2</ele>
        <time>2021-05-08T15:06:47Z</time>
      </trkpt>
      <trkpt lat="47.54752" lon="-2.15842">
        <ele>34.5</ele>
        <time>2021-05-08T15:06:49Z</time>
      </trkpt>
      <trkpt lat="47.5475" lon="-2.15839">
        <ele>34.7</ele>
        <time>2021-05-08T15:06:50Z</time>
      </trkpt>
      <trkpt lat="47.54749" lon="-2.15838">
        <ele>34.8</ele>
        <time>2021-05-08T15:06:51Z</time>
      </trkpt>
      <trkpt lat="47.54746" lon="-2.15834">
        <ele>35.1</ele>
        <time>2021-05-08T15:06:52Z</time>
      </trkpt>
      <trkpt lat="47.54745" lon="-2.15832">
        <ele>35.2</ele>
        <time>2021-05-08T15:06:53Z</time>
      </trkpt>
      <trkpt lat="47.54741" lon="-2.15827">
        <ele>35.4</ele>
        <time>2021-05-08T15:06:55Z</time>
      </trkpt>
      <trkpt lat="47.5474" lon="-2.15825">
        <ele>35.5</ele>
        <time>2021-05-08T15:06:56Z</time>
      </trkpt>
      <trkpt lat="47.54739" lon="-2.15824">
        <ele>35.6</ele>
        <time>2021-05-08T15:06:57Z</time>
      </trkpt>
      <trkpt lat="47.54737" lon="-2.1582">
        <ele>35.9</ele>
        <time>2021-05-08T15:06:59Z</time>
      </trkpt>
      <trkpt lat="47.54734" lon="-2.15815">
        <ele>36.1</ele>
        <time>2021-05-08T15:07:00Z</time>
      </trkpt>
      <trkpt lat="47.54732" lon="-2.15812">
        <ele>36.3</ele>
        <time>2021-05-08T15:07:02Z</time>
      </trkpt>
      <trkpt lat="47.5473" lon="-2.15809">
        <ele>36.5</ele>
        <time>2021-05-08T15:07:03Z</time>
      </trkpt>
      <trkpt lat="47.54727" lon="-2.15805">
        <ele>36.7</ele>
        <time>2021-05-08T15:07:05Z</time>
      </trkpt>
      <trkpt lat="47.54724" lon="-2.15801">
        <ele>36.9</ele>
        <time>2021-05-08T15:07:07Z</time>
      </trkpt>
      <trkpt lat="47.54722" lon="-2.15797">
        <ele>37.2</ele>
        <time>2021-05-08T15:07:09Z</time>
      </trkpt>
      <trkpt lat="47.54719" lon="-2.15792">
        <ele>37.4</ele>
        <time>2021-05-08T15:07:11Z</time>
      </trkpt>
      <trkpt lat="47.54717" lon="-2.15788">
        <ele>37.6</ele>
        <time>2021-05-08T15:07:12Z</time>
      </trkpt>
      <trkpt lat="47.54716" lon="-2.15787">
        <ele>37.7</ele>
        <time>2021-05-08T15:07:13Z</time>
      </trkpt>
      <trkpt lat="47.54714" lon="-2.1578">
        <ele>38</ele>
        <time>2021-05-08T15:07:14Z</time>
      </trkpt>
      <trkpt lat="47.54712" lon="-2.15777">
        <ele>38.2</ele>
        <time>2021-05-08T15:07:16Z</time>
      </trkpt>
      <trkpt lat="47.54711" lon="-2.15776">
        <ele>38.2</ele>
        <time>2021-05-08T15:07:17Z</time>
      </trkpt>
      <trkpt lat="47.54709" lon="-2.15774">
        <ele>38.3</ele>
        <time>2021-05-08T15:07:18Z</time>
      </trkpt>
      <trkpt lat="47.54706" lon="-2.15771">
        <ele>38.5</ele>
        <time>2021-05-08T15:07:20Z</time>
      </trkpt>
      <trkpt lat="47.54703" lon="-2.15768">
        <ele>38.7</ele>
        <time>2021-05-08T15:07:21Z</time>
      </trkpt>
      <trkpt lat="47.54702" lon="-2.15767">
        <ele>38.8</ele>
        <time>2021-05-08T15:07:22Z</time>
      </trkpt>
      <trkpt lat="47.547" lon="-2.15764">
        <ele>39</ele>
        <time>2021-05-08T15:07:24Z</time>
      </trkpt>
      <trkpt lat="47.54697" lon="-2.15761">
        <ele>39.2</ele>
        <time>2021-05-08T15:07:26Z</time>
      </trkpt>
      <trkpt lat="47.54694" lon="-2.15758">
        <ele>39.4</ele>
        <time>2021-05-08T15:07:27Z</time>
      </trkpt>
      <trkpt lat="47.54691" lon="-2.15754">
        <ele>39.6</ele>
        <time>2021-05-08T15:07:29Z</time>
      </trkpt>
      <trkpt lat="47.54688" lon="-2.15752">
        <ele>39.8</ele>
        <time>2021-05-08T15:07:31Z</time>
      </trkpt>
      <trkpt lat="47.54686" lon="-2.1575">
        <ele>39.9</ele>
        <time>2021-05-08T15:07:32Z</time>
      </trkpt>
      <trkpt lat="47.54682" lon="-2.15746">
        <ele>40.2</ele>
        <time>2021-05-08T15:07:34Z</time>
      </trkpt>
      <trkpt lat="47.54679" lon="-2.15743">
        <ele>40.4</ele>
        <time>2021-05-08T15:07:35Z</time>
      </trkpt>
      <trkpt lat="47.54675" lon="-2.15739">
        <ele>40.7</ele>
        <time>2021-05-08T15:07:37Z</time>
      </trkpt>
      <trkpt lat="47.54674" lon="-2.15737">
        <ele>40.8</ele>
        <time>2021-05-08T15:07:38Z</time>
      </trkpt>
      <trkpt lat="47.54672" lon="-2.15735">
        <ele>40.9</ele>
        <time>2021-05-08T15:07:39Z</time>
      </trkpt>
      <trkpt lat="47.54668" lon="-2.15729">
        <ele>41.2</ele>
        <time>2021-05-08T15:07:41Z</time>
      </trkpt>
      <trkpt lat="47.54666" lon="-2.15727">
        <ele>41.3</ele>
        <time>2021-05-08T15:07:42Z</time>
      </trkpt>
      <trkpt lat="47.54665" lon="-2.15725">
        <ele>41.4</ele>
        <time>2021-05-08T15:07:43Z</time>
      </trkpt>
      <trkpt lat="47.54662" lon="-2.15722">
        <ele>41.6</ele>
        <time>2021-05-08T15:07:45Z</time>
      </trkpt>
      <trkpt lat="47.54661" lon="-2.15719">
        <ele>41.7</ele>
        <time>2021-05-08T15:07:46Z</time>
      </trkpt>
      <trkpt lat="47.54658" lon="-2.15715">
        <ele>41.9</ele>
        <time>2021-05-08T15:07:48Z</time>
      </trkpt>
      <trkpt lat="47.54655" lon="-2.15711">
        <ele>42.1</ele>
        <time>2021-05-08T15:07:49Z</time>
      </trkpt>
      <trkpt lat="47.54653" lon="-2.15707">
        <ele>42.2</ele>
        <time>2021-05-08T15:07:51Z</time>
      </trkpt>
      <trkpt lat="47.5465" lon="-2.15704">
        <ele>42.4</ele>
        <time>2021-05-08T15:07:52Z</time>
      </trkpt>
      <trkpt lat="47.54647" lon="-2.157">
        <ele>42.6</ele>
        <time>2021-05-08T15:07:54Z</time>
      </trkpt>
      <trkpt lat="47.54646" lon="-2.15699">
        <ele>42.6</ele>
        <time>2021-05-08T15:07:55Z</time>
      </trkpt>
      <trkpt lat="47.54644" lon="-2.15694">
        <ele>42.8</ele>
        <time>2021-05-08T15:07:57Z</time>
      </trkpt>
      <trkpt lat="47.54641" lon="-2.15689">
        <ele>43</ele>
        <time>2021-05-08T15:07:58Z</time>
      </trkpt>
      <trkpt lat="47.54638" lon="-2.15685">
        <ele>43.2</ele>
        <time>2021-05-08T15:08:00Z</time>
      </trkpt>
      <trkpt lat="47.54636" lon="-2.15683">
        <ele>43.3</ele>
        <time>2021-05-08T15:08:01Z</time>
      </trkpt>
      <trkpt lat="47.54633" lon="-2.15679">
        <ele>43.5</ele>
        <time>2021-05-08T15:08:03Z</time>
      </trkpt>
      <trkpt lat="47.54631" lon="-2.15676">
        <ele>43.6</ele>
        <time>2021-05-08T15:08:04Z</time>
      </trkpt>
      <trkpt lat="47.5463" lon="-2.15673">
        <ele>43.7</ele>
        <time>2021-05-08T15:08:05Z</time>
      </trkpt>
      <trkpt lat="47.54627" lon="-2.15668">
        <ele>43.9</ele>
        <time>2021-05-08T15:08:07Z</time>
      </trkpt>
      <trkpt lat="47.54625" lon="-2.15664">
        <ele>44.1</ele>
        <time>2021-05-08T15:08:08Z</time>
      </trkpt>
      <trkpt lat="47.54623" lon="-2.1566">
        <ele>44.2</ele>
        <time>2021-05-08T15:08:10Z</time>
      </trkpt>
      <trkpt lat="47.54622" lon="-2.15658">
        <ele>44.3</ele>
        <time>2021-05-08T15:08:11Z</time>
      </trkpt>
      <trkpt lat="47.54619" lon="-2.15654">
        <ele>44.4</ele>
        <time>2021-05-08T15:08:13Z</time>
      </trkpt>
      <trkpt lat="47.54617" lon="-2.15651">
        <ele>44.6</ele>
        <time>2021-05-08T15:08:14Z</time>
      </trkpt>
      <trkpt lat="47.54615" lon="-2.15648">
        <ele>44.7</ele>
        <time>2021-05-08T15:08:15Z</time>
      </trkpt>
      <trkpt lat="47.54613" lon="-2.15644">
        <ele>44.8</ele>
        <time>2021-05-08T15:08:17Z</time>
      </trkpt>
      <trkpt lat="47.54611" lon="-2.15641">
        <ele>44.9</ele>
        <time>2021-05-08T15:08:18Z</time>
      </trkpt>
      <trkpt lat="47.54608" lon="-2.15636">
        <ele>45</ele>
        <time>2021-05-08T15:08:20Z</time>
      </trkpt>
      <trkpt lat="47.54605" lon="-2.15633">
        <ele>45</ele>
        <time>2021-05-08T15:08:21Z</time>
      </trkpt>
      <trkpt lat="47.54603" lon="-2.15631">
        <ele>45.1</ele>
        <time>2021-05-08T15:08:22Z</time>
      </trkpt>
      <trkpt lat="47.546" lon="-2.15627">
        <ele>45.1</ele>
        <time>2021-05-08T15:08:24Z</time>
      </trkpt>
      <trkpt lat="47.54598" lon="-2.15624">
        <ele>45.2</ele>
        <time>2021-05-08T15:08:25Z</time>
      </trkpt>
      <trkpt lat="47.54595" lon="-2.15619">
        <ele>45.3</ele>
        <time>2021-05-08T15:08:27Z</time>
      </trkpt>
      <trkpt lat="47.54593" lon="-2.15614">
        <ele>45.4</ele>
        <time>2021-05-08T15:08:28Z</time>
      </trkpt>
      <trkpt lat="47.5459" lon="-2.15609">
        <ele>45.5</ele>
        <time>2021-05-08T15:08:29Z</time>
      </trkpt>
      <trkpt lat="47.54588" lon="-2.15604">
        <ele>45.6</ele>
        <time>2021-05-08T15:08:31Z</time>
      </trkpt>
      <trkpt lat="47.54585" lon="-2.15598">
        <ele>45.7</ele>
        <time>2021-05-08T15:08:32Z</time>
      </trkpt>
      <trkpt lat="47.54583" lon="-2.15592">
        <ele>45.8</ele>
        <time>2021-05-08T15:08:34Z</time>
      </trkpt>
      <trkpt lat="47.54582" lon="-2.15588">
        <ele>45.9</ele>
        <time>2021-05-08T15:08:35Z</time>
      </trkpt>
      <trkpt lat="47.54579" lon="-2.15581">
        <ele>46</ele>
        <time>2021-05-08T15:08:37Z</time>
      </trkpt>
      <trkpt lat="47.54577" lon="-2.15576">
        <ele>46.1</ele>
        <time>2021-05-08T15:08:38Z</time>
      </trkpt>
      <trkpt lat="47.54576" lon="-2.15572">
        <ele>46.1</ele>
        <time>2021-05-08T15:08:39Z</time>
      </trkpt>
      <trkpt lat="47.54573" lon="-2.15565">
        <ele>46.2</ele>
        <time>2021-05-08T15:08:40Z</time>
      </trkpt>
      <trkpt lat="47.54571" lon="-2.1556">
        <ele>46.3</ele>
        <time>2021-05-08T15:08:42Z</time>
      </trkpt>
      <trkpt lat="47.54569" lon="-2.15556">
        <ele>46.4</ele>
        <time>2021-05-08T15:08:43Z</time>
      </trkpt>
      <trkpt lat="47.54567" lon="-2.1555">
        <ele>46.4</ele>
        <time>2021-05-08T15:08:44Z</time>
      </trkpt>
      <trkpt lat="47.54566" lon="-2.15544">
        <ele>46.5</ele>
        <time>2021-05-08T15:08:46Z</time>
      </trkpt>
      <trkpt lat="47.54565" lon="-2.1554">
        <ele>46.6</ele>
        <time>2021-05-08T15:08:47Z</time>
      </trkpt>
      <trkpt lat="47.54562" lon="-2.15535">
        <ele>46.6</ele>
        <time>2021-05-08T15:08:48Z</time>
      </trkpt>
      <trkpt lat="47.5456" lon="-2.15529">
        <ele>46.7</ele>
        <time>2021-05-08T15:08:50Z</time>
      </trkpt>
      <trkpt lat="47.54557" lon="-2.15522">
        <ele>46.8</ele>
        <time>2021-05-08T15:08:51Z</time>
      </trkpt>
      <trkpt lat="47.54555" lon="-2.15517">
        <ele>46.9</ele>
        <time>2021-05-08T15:08:53Z</time>
      </trkpt>
      <trkpt lat="47.54552" lon="-2.1551">
        <ele>47</ele>
        <time>2021-05-08T15:08:55Z</time>
      </trkpt>
      <trkpt lat="47.5455" lon="-2.15506">
        <ele>47</ele>
        <time>2021-05-08T15:08:56Z</time>
      </trkpt>
      <trkpt lat="47.54548" lon="-2.15501">
        <ele>47.1</ele>
        <time>2021-05-08T15:08:57Z</time>
      </trkpt>
      <trkpt lat="47.54546" lon="-2.15495">
        <ele>47.1</ele>
        <time>2021-05-08T15:08:58Z</time>
      </trkpt>
      <trkpt lat="47.54544" lon="-2.1549">
        <ele>47.2</ele>
        <time>2021-05-08T15:09:00Z</time>
      </trkpt>
      <trkpt lat="47.54542" lon="-2.15484">
        <ele>47.2</ele>
        <time>2021-05-08T15:09:01Z</time>
      </trkpt>
      <trkpt lat="47.5454" lon="-2.15479">
        <ele>47.2</ele>
        <time>2021-05-08T15:09:03Z</time>
      </trkpt>
      <trkpt lat="47.54538" lon="-2.15475">
        <ele>47.2</ele>
        <time>2021-05-08T15:09:04Z</time>
      </trkpt>
      <trkpt lat="47.54536" lon="-2.15468">
        <ele>47.1</ele>
        <time>2021-05-08T15:09:06Z</time>
      </trkpt>
      <trkpt lat="47.54534" lon="-2.15462">
        <ele>47</ele>
        <time>2021-05-08T15:09:07Z</time>
      </trkpt>
      <trkpt lat="47.54532" lon="-2.15457">
        <ele>46.9</ele>
        <time>2021-05-08T15:09:09Z</time>
      </trkpt>
      <trkpt lat="47.5453" lon="-2.15452">
        <ele>46.9</ele>
        <time>2021-05-08T15:09:10Z</time>
      </trkpt>
      <trkpt lat="47.54529" lon="-2.15449">
        <ele>46.8</ele>
        <time>2021-05-08T15:09:11Z</time>
      </trkpt>
      <trkpt lat="47.54529" lon="-2.15445">
        <ele>46.7</ele>
        <time>2021-05-08T15:09:13Z</time>
      </trkpt>
      <trkpt lat="47.54529" lon="-2.15442">
        <ele>46.7</ele>
        <time>2021-05-08T15:09:14Z</time>
      </trkpt>
      <trkpt lat="47.54534" lon="-2.15439">
        <ele>46.5</ele>
        <time>2021-05-08T15:09:16Z</time>
      </trkpt>
      <trkpt lat="47.54537" lon="-2.15437">
        <ele>46.4</ele>
        <time>2021-05-08T15:09:17Z</time>
      </trkpt>
      <trkpt lat="47.54544" lon="-2.15433">
        <ele>46.2</ele>
        <time>2021-05-08T15:09:19Z</time>
      </trkpt>
      <trkpt lat="47.54549" lon="-2.15427">
        <ele>45.9</ele>
        <time>2021-05-08T15:09:21Z</time>
      </trkpt>
      <trkpt lat="47.54551" lon="-2.15423">
        <ele>45.8</ele>
        <time>2021-05-08T15:09:22Z</time>
      </trkpt>
      <trkpt lat="47.54556" lon="-2.15417">
        <ele>45.3</ele>
        <time>2021-05-08T15:09:24Z</time>
      </trkpt>
      <trkpt lat="47.54558" lon="-2.15414">
        <ele>45</ele>
        <time>2021-05-08T15:09:25Z</time>
      </trkpt>
      <trkpt lat="47.54563" lon="-2.15406">
        <ele>44.5</ele>
        <time>2021-05-08T15:09:27Z</time>
      </trkpt>
      <trkpt lat="47.54566" lon="-2.15402">
        <ele>44.2</ele>
        <time>2021-05-08T15:09:28Z</time>
      </trkpt>
      <trkpt lat="47.54569" lon="-2.15397">
        <ele>43.8</ele>
        <time>2021-05-08T15:09:29Z</time>
      </trkpt>
      <trkpt lat="47.54572" lon="-2.1539">
        <ele>43.3</ele>
        <time>2021-05-08T15:09:30Z</time>
      </trkpt>
      <trkpt lat="47.54584" lon="-2.15367">
        <ele>41.7</ele>
        <time>2021-05-08T15:09:32Z</time>
      </trkpt>
      <trkpt lat="47.54589" lon="-2.15358">
        <ele>41.1</ele>
        <time>2021-05-08T15:09:33Z</time>
      </trkpt>
      <trkpt lat="47.54598" lon="-2.15347">
        <ele>40.3</ele>
        <time>2021-05-08T15:09:35Z</time>
      </trkpt>
      <trkpt lat="47.54603" lon="-2.15347">
        <ele>40.9</ele>
        <time>2021-05-08T15:09:36Z</time>
      </trkpt>
      <trkpt lat="47.54612" lon="-2.1535">
        <ele>41.5</ele>
        <time>2021-05-08T15:09:38Z</time>
      </trkpt>
      <trkpt lat="47.54617" lon="-2.15347">
        <ele>41.4</ele>
        <time>2021-05-08T15:09:40Z</time>
      </trkpt>
      <trkpt lat="47.5462" lon="-2.15346">
        <ele>41.4</ele>
        <time>2021-05-08T15:09:41Z</time>
      </trkpt>
      <trkpt lat="47.54625" lon="-2.1535">
        <ele>41.4</ele>
        <time>2021-05-08T15:09:43Z</time>
      </trkpt>
      <trkpt lat="47.54623" lon="-2.15357">
        <ele>41.4</ele>
        <time>2021-05-08T15:09:45Z</time>
      </trkpt>
      <trkpt lat="47.54619" lon="-2.15357">
        <ele>41.4</ele>
        <time>2021-05-08T15:09:47Z</time>
      </trkpt>
      <trkpt lat="47.54615" lon="-2.15356">
        <ele>41.4</ele>
        <time>2021-05-08T15:09:49Z</time>
      </trkpt>
      <trkpt lat="47.54615" lon="-2.15356">
        <ele>41.4</ele>
        <time>2021-05-08T15:09:50Z</time>
      </trkpt>
      <trkpt lat="47.54614" lon="-2.15356">
        <ele>41.4</ele>
        <time>2021-05-08T15:09:51Z</time>
      </trkpt>
      <trkpt lat="47.54614" lon="-2.15357">
        <ele>41.4</ele>
        <time>2021-05-08T15:09:52Z</time>
      </trkpt>
      <trkpt lat="47.54616" lon="-2.15358">
        <ele>41.4</ele>
        <time>2021-05-08T15:09:54Z</time>
      </trkpt>
      <trkpt lat="47.54615" lon="-2.15357">
        <ele>41.4</ele>
        <time>2021-05-08T15:09:55Z</time>
      </trkpt>
      <trkpt lat="47.54614" lon="-2.15357">
        <ele>41.4</ele>
        <time>2021-05-08T15:09:57Z</time>
      </trkpt>
      <trkpt lat="47.54615" lon="-2.15357">
        <ele>41.4</ele>
        <time>2021-05-08T15:09:58Z</time>
      </trkpt>
      <trkpt lat="47.54615" lon="-2.15358">
        <ele>41.4</ele>
        <time>2021-05-08T15:09:59Z</time>
      </trkpt>
      <trkpt lat="47.54615" lon="-2.15359">
        <ele>41.4</ele>
        <time>2021-05-08T15:10:02Z</time>
      </trkpt>
    </trkseg>
  </trk>
</gpx>